<?xml version="1.0" encoding="UTF-8" standalone="no" ?>
<gpx xmlns="http://www.topografix.com/GPX/1/1" xmlns:xsi="http://www.w3.org/2001/XMLSchema-instance" xsi:schemaLocation="http://www.topografix.com/GPX/1/1 http://www.topografix.com/GPX/1/1/gpx.xsd" version="1.1" creator="VisuGPX - https://www.visugpx.com">
  <metadata>
    <name>Compile Mt Ventoux</name>
  </metadata>
  <trk>
    <name><![CDATA[Pernes-les-Fontaines - 24km 468]]></name>
    <extensions>
      <line xmlns="http://www.topografix.com/GPX/gpx_style/0/2">
        <color>FFFF00</color>
        <width>4</width>
      </line>
    </extensions>
    <trkseg>
      <trkpt lat="43.99883" lon="5.06757">
        <ele>92.800003051758</ele>
        <time>2018-03-13T14:24:38.000Z</time>
      </trkpt>
      <trkpt lat="43.99882" lon="5.06754">
        <ele>92.800003051758</ele>
        <time>2018-03-13T14:24:40.000Z</time>
      </trkpt>
      <trkpt lat="43.99885" lon="5.06751">
        <ele>92.599998474121</ele>
        <time>2018-03-13T14:24:42.000Z</time>
      </trkpt>
      <trkpt lat="43.99897" lon="5.06748">
        <ele>92.400001525879</ele>
        <time>2018-03-13T14:24:45.000Z</time>
      </trkpt>
      <trkpt lat="43.99906" lon="5.06745">
        <ele>92.400001525879</ele>
        <time>2018-03-13T14:24:47.000Z</time>
      </trkpt>
      <trkpt lat="43.99924" lon="5.0674">
        <ele>92.400001525879</ele>
        <time>2018-03-13T14:24:51.000Z</time>
      </trkpt>
      <trkpt lat="43.99931" lon="5.06737">
        <ele>92.400001525879</ele>
        <time>2018-03-13T14:24:54.000Z</time>
      </trkpt>
      <trkpt lat="43.99932" lon="5.06735">
        <ele>92.400001525879</ele>
        <time>2018-03-13T14:24:55.000Z</time>
      </trkpt>
      <trkpt lat="43.99932" lon="5.06732">
        <ele>92.199996948242</ele>
        <time>2018-03-13T14:24:58.000Z</time>
      </trkpt>
      <trkpt lat="43.99932" lon="5.06732">
        <ele>92.199996948242</ele>
        <time>2018-03-13T14:25:07.000Z</time>
      </trkpt>
      <trkpt lat="43.99932" lon="5.06732">
        <ele>92.199996948242</ele>
        <time>2018-03-13T14:25:11.000Z</time>
      </trkpt>
      <trkpt lat="43.99933" lon="5.06733">
        <ele>92.199996948242</ele>
        <time>2018-03-13T14:25:16.000Z</time>
      </trkpt>
      <trkpt lat="43.99934" lon="5.06734">
        <ele>92.199996948242</ele>
        <time>2018-03-13T14:25:20.000Z</time>
      </trkpt>
      <trkpt lat="43.99934" lon="5.06734">
        <ele>92.199996948242</ele>
        <time>2018-03-13T14:25:23.000Z</time>
      </trkpt>
      <trkpt lat="43.99935" lon="5.06728">
        <ele>92.199996948242</ele>
        <time>2018-03-13T14:25:26.000Z</time>
      </trkpt>
      <trkpt lat="43.99935" lon="5.06723">
        <ele>92.199996948242</ele>
        <time>2018-03-13T14:25:27.000Z</time>
      </trkpt>
      <trkpt lat="43.99931" lon="5.06695">
        <ele>91.800003051758</ele>
        <time>2018-03-13T14:25:31.000Z</time>
      </trkpt>
      <trkpt lat="43.9993" lon="5.06648">
        <ele>91.800003051758</ele>
        <time>2018-03-13T14:25:37.000Z</time>
      </trkpt>
      <trkpt lat="43.99929" lon="5.06595">
        <ele>91.400001525879</ele>
        <time>2018-03-13T14:25:44.000Z</time>
      </trkpt>
      <trkpt lat="43.99928" lon="5.06589">
        <ele>91.400001525879</ele>
        <time>2018-03-13T14:25:46.000Z</time>
      </trkpt>
      <trkpt lat="43.99926" lon="5.06587">
        <ele>91.400001525879</ele>
        <time>2018-03-13T14:25:47.000Z</time>
      </trkpt>
      <trkpt lat="43.99912" lon="5.0657">
        <ele>91</ele>
        <time>2018-03-13T14:25:52.000Z</time>
      </trkpt>
      <trkpt lat="43.99912" lon="5.06565">
        <ele>91</ele>
        <time>2018-03-13T14:25:53.000Z</time>
      </trkpt>
      <trkpt lat="43.99913" lon="5.06553">
        <ele>90.800003051758</ele>
        <time>2018-03-13T14:25:55.000Z</time>
      </trkpt>
      <trkpt lat="43.99915" lon="5.06546">
        <ele>90.800003051758</ele>
        <time>2018-03-13T14:25:59.000Z</time>
      </trkpt>
      <trkpt lat="43.99915" lon="5.06546">
        <ele>90.800003051758</ele>
        <time>2018-03-13T14:26:16.000Z</time>
      </trkpt>
      <trkpt lat="43.99915" lon="5.06546">
        <ele>90.800003051758</ele>
        <time>2018-03-13T14:26:31.000Z</time>
      </trkpt>
      <trkpt lat="43.99915" lon="5.06536">
        <ele>90.599998474121</ele>
        <time>2018-03-13T14:26:37.000Z</time>
      </trkpt>
      <trkpt lat="43.99915" lon="5.06516">
        <ele>90.400001525879</ele>
        <time>2018-03-13T14:26:40.000Z</time>
      </trkpt>
      <trkpt lat="43.99916" lon="5.065">
        <ele>90.199996948242</ele>
        <time>2018-03-13T14:26:42.000Z</time>
      </trkpt>
      <trkpt lat="43.99919" lon="5.06443">
        <ele>90</ele>
        <time>2018-03-13T14:26:49.000Z</time>
      </trkpt>
      <trkpt lat="43.99922" lon="5.0639">
        <ele>90.599998474121</ele>
        <time>2018-03-13T14:26:55.000Z</time>
      </trkpt>
      <trkpt lat="43.99923" lon="5.06382">
        <ele>90.800003051758</ele>
        <time>2018-03-13T14:26:56.000Z</time>
      </trkpt>
      <trkpt lat="43.99922" lon="5.06374">
        <ele>90.800003051758</ele>
        <time>2018-03-13T14:26:57.000Z</time>
      </trkpt>
      <trkpt lat="43.9992" lon="5.06368">
        <ele>90.800003051758</ele>
        <time>2018-03-13T14:26:59.000Z</time>
      </trkpt>
      <trkpt lat="43.9992" lon="5.06369">
        <ele>90.800003051758</ele>
        <time>2018-03-13T14:27:02.000Z</time>
      </trkpt>
      <trkpt lat="43.9992" lon="5.06369">
        <ele>90.800003051758</ele>
        <time>2018-03-13T14:27:17.000Z</time>
      </trkpt>
      <trkpt lat="43.99918" lon="5.06362">
        <ele>90.800003051758</ele>
        <time>2018-03-13T14:27:23.000Z</time>
      </trkpt>
      <trkpt lat="43.99911" lon="5.0634">
        <ele>90.599998474121</ele>
        <time>2018-03-13T14:27:26.000Z</time>
      </trkpt>
      <trkpt lat="43.99905" lon="5.06322">
        <ele>90.400001525879</ele>
        <time>2018-03-13T14:27:28.000Z</time>
      </trkpt>
      <trkpt lat="43.99893" lon="5.06286">
        <ele>89.800003051758</ele>
        <time>2018-03-13T14:27:32.000Z</time>
      </trkpt>
      <trkpt lat="43.99877" lon="5.06243">
        <ele>88.800003051758</ele>
        <time>2018-03-13T14:27:37.000Z</time>
      </trkpt>
      <trkpt lat="43.99872" lon="5.06228">
        <ele>88.400001525879</ele>
        <time>2018-03-13T14:27:39.000Z</time>
      </trkpt>
      <trkpt lat="43.99869" lon="5.06218">
        <ele>88.199996948242</ele>
        <time>2018-03-13T14:27:41.000Z</time>
      </trkpt>
      <trkpt lat="43.99868" lon="5.06214">
        <ele>88</ele>
        <time>2018-03-13T14:27:42.000Z</time>
      </trkpt>
      <trkpt lat="43.99865" lon="5.06211">
        <ele>88</ele>
        <time>2018-03-13T14:27:43.000Z</time>
      </trkpt>
      <trkpt lat="43.9986" lon="5.06211">
        <ele>88</ele>
        <time>2018-03-13T14:27:45.000Z</time>
      </trkpt>
      <trkpt lat="43.9986" lon="5.0621">
        <ele>88</ele>
        <time>2018-03-13T14:27:48.000Z</time>
      </trkpt>
      <trkpt lat="43.9986" lon="5.0621">
        <ele>88</ele>
        <time>2018-03-13T14:28:02.000Z</time>
      </trkpt>
      <trkpt lat="43.99859" lon="5.0621">
        <ele>88</ele>
        <time>2018-03-13T14:28:08.000Z</time>
      </trkpt>
      <trkpt lat="43.99854" lon="5.06211">
        <ele>88.199996948242</ele>
        <time>2018-03-13T14:28:10.000Z</time>
      </trkpt>
      <trkpt lat="43.99836" lon="5.06217">
        <ele>88.800003051758</ele>
        <time>2018-03-13T14:28:14.000Z</time>
      </trkpt>
      <trkpt lat="43.9983" lon="5.06218">
        <ele>89</ele>
        <time>2018-03-13T14:28:15.000Z</time>
      </trkpt>
      <trkpt lat="43.99799" lon="5.06224">
        <ele>89.800003051758</ele>
        <time>2018-03-13T14:28:20.000Z</time>
      </trkpt>
      <trkpt lat="43.99787" lon="5.06223">
        <ele>90</ele>
        <time>2018-03-13T14:28:22.000Z</time>
      </trkpt>
      <trkpt lat="43.99771" lon="5.0622">
        <ele>90</ele>
        <time>2018-03-13T14:28:25.000Z</time>
      </trkpt>
      <trkpt lat="43.99754" lon="5.06215">
        <ele>91</ele>
        <time>2018-03-13T14:28:28.000Z</time>
      </trkpt>
      <trkpt lat="43.99749" lon="5.06212">
        <ele>91.199996948242</ele>
        <time>2018-03-13T14:28:29.000Z</time>
      </trkpt>
      <trkpt lat="43.99741" lon="5.06206">
        <ele>91.800003051758</ele>
        <time>2018-03-13T14:28:31.000Z</time>
      </trkpt>
      <trkpt lat="43.99737" lon="5.06198">
        <ele>92.199996948242</ele>
        <time>2018-03-13T14:28:33.000Z</time>
      </trkpt>
      <trkpt lat="43.99735" lon="5.06196">
        <ele>92.400001525879</ele>
        <time>2018-03-13T14:28:34.000Z</time>
      </trkpt>
      <trkpt lat="43.99733" lon="5.06194">
        <ele>92.599998474121</ele>
        <time>2018-03-13T14:28:37.000Z</time>
      </trkpt>
      <trkpt lat="43.99733" lon="5.06194">
        <ele>92.599998474121</ele>
        <time>2018-03-13T14:28:46.000Z</time>
      </trkpt>
      <trkpt lat="43.99733" lon="5.06194">
        <ele>92.599998474121</ele>
        <time>2018-03-13T14:28:57.000Z</time>
      </trkpt>
      <trkpt lat="43.9973" lon="5.06185">
        <ele>93</ele>
        <time>2018-03-13T14:29:03.000Z</time>
      </trkpt>
      <trkpt lat="43.99726" lon="5.06174">
        <ele>93.599998474121</ele>
        <time>2018-03-13T14:29:05.000Z</time>
      </trkpt>
      <trkpt lat="43.99723" lon="5.06161">
        <ele>94.199996948242</ele>
        <time>2018-03-13T14:29:07.000Z</time>
      </trkpt>
      <trkpt lat="43.99721" lon="5.06155">
        <ele>94.599998474121</ele>
        <time>2018-03-13T14:29:08.000Z</time>
      </trkpt>
      <trkpt lat="43.99718" lon="5.06148">
        <ele>94.800003051758</ele>
        <time>2018-03-13T14:29:09.000Z</time>
      </trkpt>
      <trkpt lat="43.99714" lon="5.06137">
        <ele>95.400001525879</ele>
        <time>2018-03-13T14:29:11.000Z</time>
      </trkpt>
      <trkpt lat="43.99713" lon="5.06131">
        <ele>95.599998474121</ele>
        <time>2018-03-13T14:29:12.000Z</time>
      </trkpt>
      <trkpt lat="43.9971" lon="5.06124">
        <ele>96</ele>
        <time>2018-03-13T14:29:13.000Z</time>
      </trkpt>
      <trkpt lat="43.99706" lon="5.06116">
        <ele>96.400001525879</ele>
        <time>2018-03-13T14:29:14.000Z</time>
      </trkpt>
      <trkpt lat="43.99702" lon="5.06094">
        <ele>97.199996948242</ele>
        <time>2018-03-13T14:29:17.000Z</time>
      </trkpt>
      <trkpt lat="43.99698" lon="5.06061">
        <ele>98.199996948242</ele>
        <time>2018-03-13T14:29:22.000Z</time>
      </trkpt>
      <trkpt lat="43.99696" lon="5.06047">
        <ele>98.599998474121</ele>
        <time>2018-03-13T14:29:24.000Z</time>
      </trkpt>
      <trkpt lat="43.99689" lon="5.05994">
        <ele>98.400001525879</ele>
        <time>2018-03-13T14:29:31.000Z</time>
      </trkpt>
      <trkpt lat="43.99688" lon="5.05989">
        <ele>98.199996948242</ele>
        <time>2018-03-13T14:29:34.000Z</time>
      </trkpt>
      <trkpt lat="43.99688" lon="5.05989">
        <ele>98.400001525879</ele>
        <time>2018-03-13T14:29:39.000Z</time>
      </trkpt>
      <trkpt lat="43.99687" lon="5.05988">
        <ele>98.400001525879</ele>
        <time>2018-03-13T14:29:50.000Z</time>
      </trkpt>
      <trkpt lat="43.99687" lon="5.05985">
        <ele>98.400001525879</ele>
        <time>2018-03-13T14:29:52.000Z</time>
      </trkpt>
      <trkpt lat="43.99683" lon="5.05965">
        <ele>98.599998474121</ele>
        <time>2018-03-13T14:29:55.000Z</time>
      </trkpt>
      <trkpt lat="43.99678" lon="5.05941">
        <ele>97.800003051758</ele>
        <time>2018-03-13T14:29:58.000Z</time>
      </trkpt>
      <trkpt lat="43.99675" lon="5.05934">
        <ele>98</ele>
        <time>2018-03-13T14:29:59.000Z</time>
      </trkpt>
      <trkpt lat="43.99663" lon="5.05915">
        <ele>98.599998474121</ele>
        <time>2018-03-13T14:30:02.000Z</time>
      </trkpt>
      <trkpt lat="43.99655" lon="5.05902">
        <ele>99</ele>
        <time>2018-03-13T14:30:04.000Z</time>
      </trkpt>
      <trkpt lat="43.99644" lon="5.05875">
        <ele>99.599998474121</ele>
        <time>2018-03-13T14:30:08.000Z</time>
      </trkpt>
      <trkpt lat="43.99644" lon="5.05871">
        <ele>99.400001525879</ele>
        <time>2018-03-13T14:30:09.000Z</time>
      </trkpt>
      <trkpt lat="43.99643" lon="5.0587">
        <ele>99.400001525879</ele>
        <time>2018-03-13T14:30:12.000Z</time>
      </trkpt>
      <trkpt lat="43.99643" lon="5.0587">
        <ele>99.400001525879</ele>
        <time>2018-03-13T14:30:24.000Z</time>
      </trkpt>
      <trkpt lat="43.99642" lon="5.05861">
        <ele>99.199996948242</ele>
        <time>2018-03-13T14:30:30.000Z</time>
      </trkpt>
      <trkpt lat="43.99635" lon="5.0584">
        <ele>99.199996948242</ele>
        <time>2018-03-13T14:30:34.000Z</time>
      </trkpt>
      <trkpt lat="43.99633" lon="5.05833">
        <ele>99</ele>
        <time>2018-03-13T14:30:35.000Z</time>
      </trkpt>
      <trkpt lat="43.99626" lon="5.05812">
        <ele>99</ele>
        <time>2018-03-13T14:30:38.000Z</time>
      </trkpt>
      <trkpt lat="43.99618" lon="5.05791">
        <ele>99</ele>
        <time>2018-03-13T14:30:41.000Z</time>
      </trkpt>
      <trkpt lat="43.99615" lon="5.05777">
        <ele>98.400001525879</ele>
        <time>2018-03-13T14:30:43.000Z</time>
      </trkpt>
      <trkpt lat="43.99613" lon="5.0577">
        <ele>98.199996948242</ele>
        <time>2018-03-13T14:30:44.000Z</time>
      </trkpt>
      <trkpt lat="43.99612" lon="5.05765">
        <ele>98</ele>
        <time>2018-03-13T14:30:45.000Z</time>
      </trkpt>
      <trkpt lat="43.99609" lon="5.0576">
        <ele>98</ele>
        <time>2018-03-13T14:30:47.000Z</time>
      </trkpt>
      <trkpt lat="43.99607" lon="5.05759">
        <ele>98.199996948242</ele>
        <time>2018-03-13T14:30:49.000Z</time>
      </trkpt>
      <trkpt lat="43.99607" lon="5.05759">
        <ele>98.199996948242</ele>
        <time>2018-03-13T14:30:57.000Z</time>
      </trkpt>
      <trkpt lat="43.99607" lon="5.05759">
        <ele>98.199996948242</ele>
        <time>2018-03-13T14:31:08.000Z</time>
      </trkpt>
      <trkpt lat="43.99607" lon="5.05759">
        <ele>98.199996948242</ele>
        <time>2018-03-13T14:31:19.000Z</time>
      </trkpt>
      <trkpt lat="43.99606" lon="5.05758">
        <ele>98.199996948242</ele>
        <time>2018-03-13T14:31:21.000Z</time>
      </trkpt>
      <trkpt lat="43.99603" lon="5.0575">
        <ele>98.199996948242</ele>
        <time>2018-03-13T14:31:23.000Z</time>
      </trkpt>
      <trkpt lat="43.99589" lon="5.05732">
        <ele>98.800003051758</ele>
        <time>2018-03-13T14:31:27.000Z</time>
      </trkpt>
      <trkpt lat="43.99574" lon="5.05721">
        <ele>99.800003051758</ele>
        <time>2018-03-13T14:31:31.000Z</time>
      </trkpt>
      <trkpt lat="43.99574" lon="5.05721">
        <ele>99.800003051758</ele>
        <time>2018-03-13T14:31:34.000Z</time>
      </trkpt>
      <trkpt lat="43.99574" lon="5.05721">
        <ele>99.800003051758</ele>
        <time>2018-03-13T14:31:43.000Z</time>
      </trkpt>
      <trkpt lat="43.99572" lon="5.05719">
        <ele>100</ele>
        <time>2018-03-13T14:31:56.000Z</time>
      </trkpt>
      <trkpt lat="43.99569" lon="5.05717">
        <ele>100.19999694824</ele>
        <time>2018-03-13T14:31:57.000Z</time>
      </trkpt>
      <trkpt lat="43.99563" lon="5.05711">
        <ele>100.59999847412</ele>
        <time>2018-03-13T14:31:59.000Z</time>
      </trkpt>
      <trkpt lat="43.9956" lon="5.05707">
        <ele>100.59999847412</ele>
        <time>2018-03-13T14:32:00.000Z</time>
      </trkpt>
      <trkpt lat="43.99539" lon="5.05687">
        <ele>100.59999847412</ele>
        <time>2018-03-13T14:32:05.000Z</time>
      </trkpt>
      <trkpt lat="43.99513" lon="5.05656">
        <ele>100.19999694824</ele>
        <time>2018-03-13T14:32:12.000Z</time>
      </trkpt>
      <trkpt lat="43.99506" lon="5.05644">
        <ele>99.599998474121</ele>
        <time>2018-03-13T14:32:14.000Z</time>
      </trkpt>
      <trkpt lat="43.99499" lon="5.05631">
        <ele>99</ele>
        <time>2018-03-13T14:32:16.000Z</time>
      </trkpt>
      <trkpt lat="43.99481" lon="5.0559">
        <ele>97.800003051758</ele>
        <time>2018-03-13T14:32:22.000Z</time>
      </trkpt>
      <trkpt lat="43.99467" lon="5.05565">
        <ele>97.599998474121</ele>
        <time>2018-03-13T14:32:26.000Z</time>
      </trkpt>
      <trkpt lat="43.99459" lon="5.05555">
        <ele>97.800003051758</ele>
        <time>2018-03-13T14:32:28.000Z</time>
      </trkpt>
      <trkpt lat="43.99455" lon="5.05551">
        <ele>98</ele>
        <time>2018-03-13T14:32:29.000Z</time>
      </trkpt>
      <trkpt lat="43.99437" lon="5.05535">
        <ele>98.599998474121</ele>
        <time>2018-03-13T14:32:33.000Z</time>
      </trkpt>
      <trkpt lat="43.99432" lon="5.05531">
        <ele>98.800003051758</ele>
        <time>2018-03-13T14:32:34.000Z</time>
      </trkpt>
      <trkpt lat="43.99424" lon="5.05524">
        <ele>99</ele>
        <time>2018-03-13T14:32:36.000Z</time>
      </trkpt>
      <trkpt lat="43.99416" lon="5.05517">
        <ele>99</ele>
        <time>2018-03-13T14:32:39.000Z</time>
      </trkpt>
      <trkpt lat="43.99409" lon="5.05505">
        <ele>98.400001525879</ele>
        <time>2018-03-13T14:32:43.000Z</time>
      </trkpt>
      <trkpt lat="43.99396" lon="5.05493">
        <ele>98.400001525879</ele>
        <time>2018-03-13T14:32:46.000Z</time>
      </trkpt>
      <trkpt lat="43.99392" lon="5.05488">
        <ele>98.400001525879</ele>
        <time>2018-03-13T14:32:47.000Z</time>
      </trkpt>
      <trkpt lat="43.99378" lon="5.05466">
        <ele>97.400001525879</ele>
        <time>2018-03-13T14:32:52.000Z</time>
      </trkpt>
      <trkpt lat="43.99378" lon="5.05466">
        <ele>97.400001525879</ele>
        <time>2018-03-13T14:32:55.000Z</time>
      </trkpt>
      <trkpt lat="43.99378" lon="5.05466">
        <ele>97.400001525879</ele>
        <time>2018-03-13T14:33:14.000Z</time>
      </trkpt>
      <trkpt lat="43.99378" lon="5.05466">
        <ele>97.400001525879</ele>
        <time>2018-03-13T14:33:33.000Z</time>
      </trkpt>
      <trkpt lat="43.99378" lon="5.05466">
        <ele>97.400001525879</ele>
        <time>2018-03-13T14:33:47.000Z</time>
      </trkpt>
      <trkpt lat="43.99378" lon="5.05466">
        <ele>97.400001525879</ele>
        <time>2018-03-13T14:34:01.000Z</time>
      </trkpt>
      <trkpt lat="43.99378" lon="5.05466">
        <ele>97.400001525879</ele>
        <time>2018-03-13T14:34:17.000Z</time>
      </trkpt>
      <trkpt lat="43.99378" lon="5.05466">
        <ele>97.400001525879</ele>
        <time>2018-03-13T14:34:31.000Z</time>
      </trkpt>
      <trkpt lat="43.99378" lon="5.05466">
        <ele>97.400001525879</ele>
        <time>2018-03-13T14:34:48.000Z</time>
      </trkpt>
      <trkpt lat="43.99375" lon="5.05462">
        <ele>97.400001525879</ele>
        <time>2018-03-13T14:34:53.000Z</time>
      </trkpt>
      <trkpt lat="43.99374" lon="5.0546">
        <ele>97.199996948242</ele>
        <time>2018-03-13T14:34:54.000Z</time>
      </trkpt>
      <trkpt lat="43.99365" lon="5.05444">
        <ele>96.800003051758</ele>
        <time>2018-03-13T14:34:57.000Z</time>
      </trkpt>
      <trkpt lat="43.99357" lon="5.05432">
        <ele>96.400001525879</ele>
        <time>2018-03-13T14:34:59.000Z</time>
      </trkpt>
      <trkpt lat="43.99345" lon="5.05414">
        <ele>96.199996948242</ele>
        <time>2018-03-13T14:35:02.000Z</time>
      </trkpt>
      <trkpt lat="43.99337" lon="5.05401">
        <ele>95.800003051758</ele>
        <time>2018-03-13T14:35:04.000Z</time>
      </trkpt>
      <trkpt lat="43.99321" lon="5.05373">
        <ele>94.800003051758</ele>
        <time>2018-03-13T14:35:08.000Z</time>
      </trkpt>
      <trkpt lat="43.99292" lon="5.05326">
        <ele>94</ele>
        <time>2018-03-13T14:35:15.000Z</time>
      </trkpt>
      <trkpt lat="43.99264" lon="5.05309">
        <ele>94.800003051758</ele>
        <time>2018-03-13T14:35:20.000Z</time>
      </trkpt>
      <trkpt lat="43.99258" lon="5.05308">
        <ele>95</ele>
        <time>2018-03-13T14:35:21.000Z</time>
      </trkpt>
      <trkpt lat="43.99233" lon="5.053">
        <ele>95.599998474121</ele>
        <time>2018-03-13T14:35:25.000Z</time>
      </trkpt>
      <trkpt lat="43.99197" lon="5.05285">
        <ele>96</ele>
        <time>2018-03-13T14:35:31.000Z</time>
      </trkpt>
      <trkpt lat="43.99192" lon="5.0528">
        <ele>95.800003051758</ele>
        <time>2018-03-13T14:35:32.000Z</time>
      </trkpt>
      <trkpt lat="43.99168" lon="5.0525">
        <ele>96.199996948242</ele>
        <time>2018-03-13T14:35:37.000Z</time>
      </trkpt>
      <trkpt lat="43.99138" lon="5.0522">
        <ele>97.199996948242</ele>
        <time>2018-03-13T14:35:43.000Z</time>
      </trkpt>
      <trkpt lat="43.99133" lon="5.05216">
        <ele>97.599998474121</ele>
        <time>2018-03-13T14:35:44.000Z</time>
      </trkpt>
      <trkpt lat="43.9911" lon="5.05204">
        <ele>99</ele>
        <time>2018-03-13T14:35:48.000Z</time>
      </trkpt>
      <trkpt lat="43.99082" lon="5.05185">
        <ele>101.40000152588</ele>
        <time>2018-03-13T14:35:53.000Z</time>
      </trkpt>
      <trkpt lat="43.99077" lon="5.0518">
        <ele>101.59999847412</ele>
        <time>2018-03-13T14:35:54.000Z</time>
      </trkpt>
      <trkpt lat="43.99044" lon="5.05141">
        <ele>102.40000152588</ele>
        <time>2018-03-13T14:36:01.000Z</time>
      </trkpt>
      <trkpt lat="43.9903" lon="5.05121">
        <ele>102.40000152588</ele>
        <time>2018-03-13T14:36:05.000Z</time>
      </trkpt>
      <trkpt lat="43.99027" lon="5.05117">
        <ele>102.19999694824</ele>
        <time>2018-03-13T14:36:06.000Z</time>
      </trkpt>
      <trkpt lat="43.99023" lon="5.05113">
        <ele>102.19999694824</ele>
        <time>2018-03-13T14:36:07.000Z</time>
      </trkpt>
      <trkpt lat="43.99015" lon="5.05105">
        <ele>102</ele>
        <time>2018-03-13T14:36:09.000Z</time>
      </trkpt>
      <trkpt lat="43.99011" lon="5.05101">
        <ele>101.80000305176</ele>
        <time>2018-03-13T14:36:10.000Z</time>
      </trkpt>
      <trkpt lat="43.98978" lon="5.05077">
        <ele>101.40000152588</ele>
        <time>2018-03-13T14:36:16.000Z</time>
      </trkpt>
      <trkpt lat="43.98958" lon="5.05066">
        <ele>101.59999847412</ele>
        <time>2018-03-13T14:36:20.000Z</time>
      </trkpt>
      <trkpt lat="43.98956" lon="5.05063">
        <ele>101.40000152588</ele>
        <time>2018-03-13T14:36:21.000Z</time>
      </trkpt>
      <trkpt lat="43.98953" lon="5.05063">
        <ele>101.59999847412</ele>
        <time>2018-03-13T14:36:24.000Z</time>
      </trkpt>
      <trkpt lat="43.98953" lon="5.05063">
        <ele>101.59999847412</ele>
        <time>2018-03-13T14:36:29.000Z</time>
      </trkpt>
      <trkpt lat="43.98953" lon="5.05063">
        <ele>101.59999847412</ele>
        <time>2018-03-13T14:36:49.000Z</time>
      </trkpt>
      <trkpt lat="43.98951" lon="5.05061">
        <ele>101.59999847412</ele>
        <time>2018-03-13T14:37:02.000Z</time>
      </trkpt>
      <trkpt lat="43.98949" lon="5.0506">
        <ele>101.59999847412</ele>
        <time>2018-03-13T14:37:03.000Z</time>
      </trkpt>
      <trkpt lat="43.98936" lon="5.05056">
        <ele>101.59999847412</ele>
        <time>2018-03-13T14:37:07.000Z</time>
      </trkpt>
      <trkpt lat="43.98921" lon="5.0505">
        <ele>101</ele>
        <time>2018-03-13T14:37:11.000Z</time>
      </trkpt>
      <trkpt lat="43.98916" lon="5.05049">
        <ele>100.80000305176</ele>
        <time>2018-03-13T14:37:12.000Z</time>
      </trkpt>
      <trkpt lat="43.98912" lon="5.05046">
        <ele>100.40000152588</ele>
        <time>2018-03-13T14:37:13.000Z</time>
      </trkpt>
      <trkpt lat="43.98904" lon="5.05041">
        <ele>99.800003051758</ele>
        <time>2018-03-13T14:37:16.000Z</time>
      </trkpt>
      <trkpt lat="43.98903" lon="5.0504">
        <ele>99.800003051758</ele>
        <time>2018-03-13T14:37:17.000Z</time>
      </trkpt>
      <trkpt lat="43.98903" lon="5.05041">
        <ele>99.800003051758</ele>
        <time>2018-03-13T14:37:19.000Z</time>
      </trkpt>
      <trkpt lat="43.98903" lon="5.05041">
        <ele>99.800003051758</ele>
        <time>2018-03-13T14:37:21.000Z</time>
      </trkpt>
      <trkpt lat="43.98903" lon="5.05041">
        <ele>99.800003051758</ele>
        <time>2018-03-13T14:37:36.000Z</time>
      </trkpt>
      <trkpt lat="43.98899" lon="5.05039">
        <ele>99.599998474121</ele>
        <time>2018-03-13T14:37:41.000Z</time>
      </trkpt>
      <trkpt lat="43.98888" lon="5.05028">
        <ele>98.599998474121</ele>
        <time>2018-03-13T14:37:45.000Z</time>
      </trkpt>
      <trkpt lat="43.98884" lon="5.05025">
        <ele>98.400001525879</ele>
        <time>2018-03-13T14:37:46.000Z</time>
      </trkpt>
      <trkpt lat="43.98868" lon="5.05014">
        <ele>97.199996948242</ele>
        <time>2018-03-13T14:37:49.000Z</time>
      </trkpt>
      <trkpt lat="43.98863" lon="5.05011">
        <ele>97</ele>
        <time>2018-03-13T14:37:50.000Z</time>
      </trkpt>
      <trkpt lat="43.98829" lon="5.04994">
        <ele>96</ele>
        <time>2018-03-13T14:37:57.000Z</time>
      </trkpt>
      <trkpt lat="43.98804" lon="5.04981">
        <ele>95.400001525879</ele>
        <time>2018-03-13T14:38:02.000Z</time>
      </trkpt>
      <trkpt lat="43.98775" lon="5.04966">
        <ele>94.199996948242</ele>
        <time>2018-03-13T14:38:07.000Z</time>
      </trkpt>
      <trkpt lat="43.98769" lon="5.04963">
        <ele>93.800003051758</ele>
        <time>2018-03-13T14:38:08.000Z</time>
      </trkpt>
      <trkpt lat="43.98734" lon="5.04952">
        <ele>90.800003051758</ele>
        <time>2018-03-13T14:38:14.000Z</time>
      </trkpt>
      <trkpt lat="43.98728" lon="5.04952">
        <ele>90.400001525879</ele>
        <time>2018-03-13T14:38:15.000Z</time>
      </trkpt>
      <trkpt lat="43.98705" lon="5.04962">
        <ele>89</ele>
        <time>2018-03-13T14:38:19.000Z</time>
      </trkpt>
      <trkpt lat="43.987" lon="5.04967">
        <ele>88.800003051758</ele>
        <time>2018-03-13T14:38:20.000Z</time>
      </trkpt>
      <trkpt lat="43.98689" lon="5.04987">
        <ele>87.800003051758</ele>
        <time>2018-03-13T14:38:23.000Z</time>
      </trkpt>
      <trkpt lat="43.98687" lon="5.04994">
        <ele>87.599998474121</ele>
        <time>2018-03-13T14:38:24.000Z</time>
      </trkpt>
      <trkpt lat="43.98685" lon="5.05001">
        <ele>87.400001525879</ele>
        <time>2018-03-13T14:38:25.000Z</time>
      </trkpt>
      <trkpt lat="43.98683" lon="5.05023">
        <ele>87.199996948242</ele>
        <time>2018-03-13T14:38:28.000Z</time>
      </trkpt>
      <trkpt lat="43.98683" lon="5.0503">
        <ele>87.199996948242</ele>
        <time>2018-03-13T14:38:29.000Z</time>
      </trkpt>
      <trkpt lat="43.98683" lon="5.05036">
        <ele>87.400001525879</ele>
        <time>2018-03-13T14:38:30.000Z</time>
      </trkpt>
      <trkpt lat="43.98684" lon="5.05048">
        <ele>87.599998474121</ele>
        <time>2018-03-13T14:38:33.000Z</time>
      </trkpt>
      <trkpt lat="43.98683" lon="5.05049">
        <ele>87.599998474121</ele>
        <time>2018-03-13T14:38:36.000Z</time>
      </trkpt>
      <trkpt lat="43.98683" lon="5.05049">
        <ele>87.599998474121</ele>
        <time>2018-03-13T14:38:53.000Z</time>
      </trkpt>
      <trkpt lat="43.98683" lon="5.05049">
        <ele>87.599998474121</ele>
        <time>2018-03-13T14:38:56.000Z</time>
      </trkpt>
      <trkpt lat="43.98686" lon="5.05054">
        <ele>87.599998474121</ele>
        <time>2018-03-13T14:38:58.000Z</time>
      </trkpt>
      <trkpt lat="43.98693" lon="5.05074">
        <ele>88</ele>
        <time>2018-03-13T14:39:02.000Z</time>
      </trkpt>
      <trkpt lat="43.98695" lon="5.05081">
        <ele>88.199996948242</ele>
        <time>2018-03-13T14:39:03.000Z</time>
      </trkpt>
      <trkpt lat="43.98697" lon="5.05096">
        <ele>88.400001525879</ele>
        <time>2018-03-13T14:39:05.000Z</time>
      </trkpt>
      <trkpt lat="43.98701" lon="5.05121">
        <ele>88.800003051758</ele>
        <time>2018-03-13T14:39:08.000Z</time>
      </trkpt>
      <trkpt lat="43.98708" lon="5.05185">
        <ele>89.400001525879</ele>
        <time>2018-03-13T14:39:15.000Z</time>
      </trkpt>
      <trkpt lat="43.9871" lon="5.05194">
        <ele>89.400001525879</ele>
        <time>2018-03-13T14:39:16.000Z</time>
      </trkpt>
      <trkpt lat="43.98708" lon="5.05211">
        <ele>89.599998474121</ele>
        <time>2018-03-13T14:39:18.000Z</time>
      </trkpt>
      <trkpt lat="43.98705" lon="5.0522">
        <ele>89.800003051758</ele>
        <time>2018-03-13T14:39:19.000Z</time>
      </trkpt>
      <trkpt lat="43.98703" lon="5.05227">
        <ele>90</ele>
        <time>2018-03-13T14:39:20.000Z</time>
      </trkpt>
      <trkpt lat="43.98693" lon="5.05259">
        <ele>91.400001525879</ele>
        <time>2018-03-13T14:39:24.000Z</time>
      </trkpt>
      <trkpt lat="43.98676" lon="5.05303">
        <ele>92.800003051758</ele>
        <time>2018-03-13T14:39:30.000Z</time>
      </trkpt>
      <trkpt lat="43.98662" lon="5.05317">
        <ele>93.400001525879</ele>
        <time>2018-03-13T14:39:33.000Z</time>
      </trkpt>
      <trkpt lat="43.98643" lon="5.05321">
        <ele>92.400001525879</ele>
        <time>2018-03-13T14:39:36.000Z</time>
      </trkpt>
      <trkpt lat="43.98637" lon="5.05321">
        <ele>91.800003051758</ele>
        <time>2018-03-13T14:39:37.000Z</time>
      </trkpt>
      <trkpt lat="43.98607" lon="5.05327">
        <ele>87.199996948242</ele>
        <time>2018-03-13T14:39:42.000Z</time>
      </trkpt>
      <trkpt lat="43.98604" lon="5.05329">
        <ele>87.199996948242</ele>
        <time>2018-03-13T14:39:43.000Z</time>
      </trkpt>
      <trkpt lat="43.98603" lon="5.05331">
        <ele>87.199996948242</ele>
        <time>2018-03-13T14:39:44.000Z</time>
      </trkpt>
      <trkpt lat="43.98603" lon="5.05333">
        <ele>87.400001525879</ele>
        <time>2018-03-13T14:39:48.000Z</time>
      </trkpt>
      <trkpt lat="43.98603" lon="5.05333">
        <ele>87.400001525879</ele>
        <time>2018-03-13T14:40:02.000Z</time>
      </trkpt>
      <trkpt lat="43.98604" lon="5.05333">
        <ele>87.400001525879</ele>
        <time>2018-03-13T14:40:15.000Z</time>
      </trkpt>
      <trkpt lat="43.98611" lon="5.05345">
        <ele>88.199996948242</ele>
        <time>2018-03-13T14:40:19.000Z</time>
      </trkpt>
      <trkpt lat="43.98613" lon="5.0535">
        <ele>89</ele>
        <time>2018-03-13T14:40:20.000Z</time>
      </trkpt>
      <trkpt lat="43.98616" lon="5.05355">
        <ele>89.599998474121</ele>
        <time>2018-03-13T14:40:21.000Z</time>
      </trkpt>
      <trkpt lat="43.98624" lon="5.05366">
        <ele>91.199996948242</ele>
        <time>2018-03-13T14:40:23.000Z</time>
      </trkpt>
      <trkpt lat="43.98627" lon="5.0537">
        <ele>92</ele>
        <time>2018-03-13T14:40:24.000Z</time>
      </trkpt>
      <trkpt lat="43.98634" lon="5.0538">
        <ele>93.400001525879</ele>
        <time>2018-03-13T14:40:26.000Z</time>
      </trkpt>
      <trkpt lat="43.98637" lon="5.05383">
        <ele>94</ele>
        <time>2018-03-13T14:40:27.000Z</time>
      </trkpt>
      <trkpt lat="43.98641" lon="5.05386">
        <ele>94.800003051758</ele>
        <time>2018-03-13T14:40:28.000Z</time>
      </trkpt>
      <trkpt lat="43.98648" lon="5.05393">
        <ele>96</ele>
        <time>2018-03-13T14:40:30.000Z</time>
      </trkpt>
      <trkpt lat="43.98656" lon="5.05399">
        <ele>97.599998474121</ele>
        <time>2018-03-13T14:40:32.000Z</time>
      </trkpt>
      <trkpt lat="43.98665" lon="5.05404">
        <ele>99.199996948242</ele>
        <time>2018-03-13T14:40:34.000Z</time>
      </trkpt>
      <trkpt lat="43.98673" lon="5.05409">
        <ele>100.59999847412</ele>
        <time>2018-03-13T14:40:36.000Z</time>
      </trkpt>
      <trkpt lat="43.98681" lon="5.05414">
        <ele>102</ele>
        <time>2018-03-13T14:40:38.000Z</time>
      </trkpt>
      <trkpt lat="43.98685" lon="5.05415">
        <ele>102.80000305176</ele>
        <time>2018-03-13T14:40:39.000Z</time>
      </trkpt>
      <trkpt lat="43.9869" lon="5.05416">
        <ele>103.59999847412</ele>
        <time>2018-03-13T14:40:40.000Z</time>
      </trkpt>
      <trkpt lat="43.98704" lon="5.05419">
        <ele>104.59999847412</ele>
        <time>2018-03-13T14:40:43.000Z</time>
      </trkpt>
      <trkpt lat="43.98712" lon="5.05424">
        <ele>105.19999694824</ele>
        <time>2018-03-13T14:40:45.000Z</time>
      </trkpt>
      <trkpt lat="43.98716" lon="5.05426">
        <ele>105.40000152588</ele>
        <time>2018-03-13T14:40:46.000Z</time>
      </trkpt>
      <trkpt lat="43.98733" lon="5.05437">
        <ele>106.40000152588</ele>
        <time>2018-03-13T14:40:50.000Z</time>
      </trkpt>
      <trkpt lat="43.98741" lon="5.05444">
        <ele>107</ele>
        <time>2018-03-13T14:40:52.000Z</time>
      </trkpt>
      <trkpt lat="43.9875" lon="5.05452">
        <ele>107.59999847412</ele>
        <time>2018-03-13T14:40:54.000Z</time>
      </trkpt>
      <trkpt lat="43.98764" lon="5.05461">
        <ele>108.40000152588</ele>
        <time>2018-03-13T14:40:57.000Z</time>
      </trkpt>
      <trkpt lat="43.98793" lon="5.05471">
        <ele>107.59999847412</ele>
        <time>2018-03-13T14:41:03.000Z</time>
      </trkpt>
      <trkpt lat="43.98826" lon="5.05477">
        <ele>106.40000152588</ele>
        <time>2018-03-13T14:41:10.000Z</time>
      </trkpt>
      <trkpt lat="43.98838" lon="5.05485">
        <ele>105.40000152588</ele>
        <time>2018-03-13T14:41:13.000Z</time>
      </trkpt>
      <trkpt lat="43.98849" lon="5.05493">
        <ele>104.40000152588</ele>
        <time>2018-03-13T14:41:16.000Z</time>
      </trkpt>
      <trkpt lat="43.98859" lon="5.05503">
        <ele>103.40000152588</ele>
        <time>2018-03-13T14:41:19.000Z</time>
      </trkpt>
      <trkpt lat="43.98863" lon="5.05507">
        <ele>103.19999694824</ele>
        <time>2018-03-13T14:41:20.000Z</time>
      </trkpt>
      <trkpt lat="43.98867" lon="5.05514">
        <ele>102.80000305176</ele>
        <time>2018-03-13T14:41:22.000Z</time>
      </trkpt>
      <trkpt lat="43.98867" lon="5.05517">
        <ele>102.59999847412</ele>
        <time>2018-03-13T14:41:23.000Z</time>
      </trkpt>
      <trkpt lat="43.98867" lon="5.05519">
        <ele>102.40000152588</ele>
        <time>2018-03-13T14:41:25.000Z</time>
      </trkpt>
      <trkpt lat="43.98867" lon="5.05519">
        <ele>102.40000152588</ele>
        <time>2018-03-13T14:41:42.000Z</time>
      </trkpt>
      <trkpt lat="43.98868" lon="5.05521">
        <ele>102.19999694824</ele>
        <time>2018-03-13T14:41:48.000Z</time>
      </trkpt>
      <trkpt lat="43.98867" lon="5.05522">
        <ele>102.19999694824</ele>
        <time>2018-03-13T14:41:49.000Z</time>
      </trkpt>
      <trkpt lat="43.98864" lon="5.05521">
        <ele>102</ele>
        <time>2018-03-13T14:41:50.000Z</time>
      </trkpt>
      <trkpt lat="43.98856" lon="5.05518">
        <ele>102.19999694824</ele>
        <time>2018-03-13T14:41:52.000Z</time>
      </trkpt>
      <trkpt lat="43.9884" lon="5.0552">
        <ele>102.40000152588</ele>
        <time>2018-03-13T14:41:55.000Z</time>
      </trkpt>
      <trkpt lat="43.98818" lon="5.05538">
        <ele>102.59999847412</ele>
        <time>2018-03-13T14:41:59.000Z</time>
      </trkpt>
      <trkpt lat="43.98809" lon="5.0555">
        <ele>102.59999847412</ele>
        <time>2018-03-13T14:42:01.000Z</time>
      </trkpt>
      <trkpt lat="43.98798" lon="5.05567">
        <ele>102.80000305176</ele>
        <time>2018-03-13T14:42:04.000Z</time>
      </trkpt>
      <trkpt lat="43.98795" lon="5.05571">
        <ele>102.40000152588</ele>
        <time>2018-03-13T14:42:07.000Z</time>
      </trkpt>
      <trkpt lat="43.98795" lon="5.05571">
        <ele>102.40000152588</ele>
        <time>2018-03-13T14:42:24.000Z</time>
      </trkpt>
      <trkpt lat="43.98795" lon="5.05571">
        <ele>102.40000152588</ele>
        <time>2018-03-13T14:42:25.000Z</time>
      </trkpt>
      <trkpt lat="43.98791" lon="5.05578">
        <ele>101.80000305176</ele>
        <time>2018-03-13T14:42:28.000Z</time>
      </trkpt>
      <trkpt lat="43.98788" lon="5.05582">
        <ele>101.59999847412</ele>
        <time>2018-03-13T14:42:29.000Z</time>
      </trkpt>
      <trkpt lat="43.98782" lon="5.05593">
        <ele>100.80000305176</ele>
        <time>2018-03-13T14:42:31.000Z</time>
      </trkpt>
      <trkpt lat="43.98778" lon="5.05598">
        <ele>100.19999694824</ele>
        <time>2018-03-13T14:42:32.000Z</time>
      </trkpt>
      <trkpt lat="43.98759" lon="5.05621">
        <ele>98.400001525879</ele>
        <time>2018-03-13T14:42:36.000Z</time>
      </trkpt>
      <trkpt lat="43.98754" lon="5.05627">
        <ele>98.199996948242</ele>
        <time>2018-03-13T14:42:37.000Z</time>
      </trkpt>
      <trkpt lat="43.9873" lon="5.05645">
        <ele>98.800003051758</ele>
        <time>2018-03-13T14:42:41.000Z</time>
      </trkpt>
      <trkpt lat="43.98722" lon="5.05648">
        <ele>98.800003051758</ele>
        <time>2018-03-13T14:42:42.000Z</time>
      </trkpt>
      <trkpt lat="43.987" lon="5.05651">
        <ele>100.19999694824</ele>
        <time>2018-03-13T14:42:45.000Z</time>
      </trkpt>
      <trkpt lat="43.98692" lon="5.05649">
        <ele>100.59999847412</ele>
        <time>2018-03-13T14:42:46.000Z</time>
      </trkpt>
      <trkpt lat="43.98683" lon="5.05648">
        <ele>100</ele>
        <time>2018-03-13T14:42:47.000Z</time>
      </trkpt>
      <trkpt lat="43.98658" lon="5.05647">
        <ele>98.400001525879</ele>
        <time>2018-03-13T14:42:50.000Z</time>
      </trkpt>
      <trkpt lat="43.98652" lon="5.05647">
        <ele>98.199996948242</ele>
        <time>2018-03-13T14:42:51.000Z</time>
      </trkpt>
      <trkpt lat="43.98646" lon="5.05649">
        <ele>97.800003051758</ele>
        <time>2018-03-13T14:42:53.000Z</time>
      </trkpt>
      <trkpt lat="43.98645" lon="5.05649">
        <ele>97.800003051758</ele>
        <time>2018-03-13T14:42:54.000Z</time>
      </trkpt>
      <trkpt lat="43.98644" lon="5.05649">
        <ele>97.800003051758</ele>
        <time>2018-03-13T14:43:03.000Z</time>
      </trkpt>
      <trkpt lat="43.98641" lon="5.05649">
        <ele>97.599998474121</ele>
        <time>2018-03-13T14:43:14.000Z</time>
      </trkpt>
      <trkpt lat="43.98627" lon="5.0565">
        <ele>97</ele>
        <time>2018-03-13T14:43:17.000Z</time>
      </trkpt>
      <trkpt lat="43.98621" lon="5.05651">
        <ele>96.800003051758</ele>
        <time>2018-03-13T14:43:18.000Z</time>
      </trkpt>
      <trkpt lat="43.98615" lon="5.05652">
        <ele>96.800003051758</ele>
        <time>2018-03-13T14:43:19.000Z</time>
      </trkpt>
      <trkpt lat="43.986" lon="5.05664">
        <ele>98.199996948242</ele>
        <time>2018-03-13T14:43:22.000Z</time>
      </trkpt>
      <trkpt lat="43.98596" lon="5.05669">
        <ele>98.800003051758</ele>
        <time>2018-03-13T14:43:23.000Z</time>
      </trkpt>
      <trkpt lat="43.98592" lon="5.05676">
        <ele>99.800003051758</ele>
        <time>2018-03-13T14:43:25.000Z</time>
      </trkpt>
      <trkpt lat="43.98591" lon="5.05676">
        <ele>99.800003051758</ele>
        <time>2018-03-13T14:43:26.000Z</time>
      </trkpt>
      <trkpt lat="43.98591" lon="5.05676">
        <ele>99.800003051758</ele>
        <time>2018-03-13T14:43:30.000Z</time>
      </trkpt>
      <trkpt lat="43.98591" lon="5.05676">
        <ele>99.800003051758</ele>
        <time>2018-03-13T14:43:46.000Z</time>
      </trkpt>
      <trkpt lat="43.98591" lon="5.05676">
        <ele>99.800003051758</ele>
        <time>2018-03-13T14:44:04.000Z</time>
      </trkpt>
      <trkpt lat="43.9859" lon="5.05676">
        <ele>99.800003051758</ele>
        <time>2018-03-13T14:44:18.000Z</time>
      </trkpt>
      <trkpt lat="43.98583" lon="5.05677">
        <ele>100.40000152588</ele>
        <time>2018-03-13T14:44:21.000Z</time>
      </trkpt>
      <trkpt lat="43.98581" lon="5.05681">
        <ele>101</ele>
        <time>2018-03-13T14:44:22.000Z</time>
      </trkpt>
      <trkpt lat="43.98574" lon="5.05691">
        <ele>100.40000152588</ele>
        <time>2018-03-13T14:44:24.000Z</time>
      </trkpt>
      <trkpt lat="43.98571" lon="5.05696">
        <ele>100</ele>
        <time>2018-03-13T14:44:25.000Z</time>
      </trkpt>
      <trkpt lat="43.98551" lon="5.05735">
        <ele>99.400001525879</ele>
        <time>2018-03-13T14:44:31.000Z</time>
      </trkpt>
      <trkpt lat="43.98546" lon="5.0574">
        <ele>98.400001525879</ele>
        <time>2018-03-13T14:44:32.000Z</time>
      </trkpt>
      <trkpt lat="43.98535" lon="5.05745">
        <ele>96.400001525879</ele>
        <time>2018-03-13T14:44:34.000Z</time>
      </trkpt>
      <trkpt lat="43.98531" lon="5.05744">
        <ele>95.800003051758</ele>
        <time>2018-03-13T14:44:35.000Z</time>
      </trkpt>
      <trkpt lat="43.98527" lon="5.05742">
        <ele>95.400001525879</ele>
        <time>2018-03-13T14:44:37.000Z</time>
      </trkpt>
      <trkpt lat="43.98526" lon="5.05742">
        <ele>95.199996948242</ele>
        <time>2018-03-13T14:44:43.000Z</time>
      </trkpt>
      <trkpt lat="43.98526" lon="5.05742">
        <ele>95.199996948242</ele>
        <time>2018-03-13T14:44:55.000Z</time>
      </trkpt>
      <trkpt lat="43.98526" lon="5.05742">
        <ele>95.199996948242</ele>
        <time>2018-03-13T14:45:11.000Z</time>
      </trkpt>
      <trkpt lat="43.98526" lon="5.05742">
        <ele>95.199996948242</ele>
        <time>2018-03-13T14:45:17.000Z</time>
      </trkpt>
      <trkpt lat="43.98523" lon="5.05741">
        <ele>95.599998474121</ele>
        <time>2018-03-13T14:45:19.000Z</time>
      </trkpt>
      <trkpt lat="43.98517" lon="5.05734">
        <ele>97.400001525879</ele>
        <time>2018-03-13T14:45:21.000Z</time>
      </trkpt>
      <trkpt lat="43.98513" lon="5.05732">
        <ele>98.400001525879</ele>
        <time>2018-03-13T14:45:22.000Z</time>
      </trkpt>
      <trkpt lat="43.98509" lon="5.05729">
        <ele>99.599998474121</ele>
        <time>2018-03-13T14:45:23.000Z</time>
      </trkpt>
      <trkpt lat="43.9849" lon="5.05713">
        <ele>105</ele>
        <time>2018-03-13T14:45:29.000Z</time>
      </trkpt>
      <trkpt lat="43.98487" lon="5.05712">
        <ele>106</ele>
        <time>2018-03-13T14:45:33.000Z</time>
      </trkpt>
      <trkpt lat="43.98487" lon="5.05712">
        <ele>106</ele>
        <time>2018-03-13T14:45:45.000Z</time>
      </trkpt>
      <trkpt lat="43.98487" lon="5.05712">
        <ele>106</ele>
        <time>2018-03-13T14:46:07.000Z</time>
      </trkpt>
      <trkpt lat="43.98487" lon="5.05711">
        <ele>106</ele>
        <time>2018-03-13T14:46:22.000Z</time>
      </trkpt>
      <trkpt lat="43.98487" lon="5.05711">
        <ele>106</ele>
        <time>2018-03-13T14:46:39.000Z</time>
      </trkpt>
      <trkpt lat="43.98487" lon="5.05712">
        <ele>105.80000305176</ele>
        <time>2018-03-13T14:47:00.000Z</time>
      </trkpt>
      <trkpt lat="43.98487" lon="5.05712">
        <ele>105.80000305176</ele>
        <time>2018-03-13T14:47:30.000Z</time>
      </trkpt>
      <trkpt lat="43.98487" lon="5.05712">
        <ele>105.80000305176</ele>
        <time>2018-03-13T14:47:50.000Z</time>
      </trkpt>
      <trkpt lat="43.9848" lon="5.05711">
        <ele>107.59999847412</ele>
        <time>2018-03-13T14:47:54.000Z</time>
      </trkpt>
      <trkpt lat="43.98478" lon="5.05705">
        <ele>108.80000305176</ele>
        <time>2018-03-13T14:47:57.000Z</time>
      </trkpt>
      <trkpt lat="43.98478" lon="5.05703">
        <ele>109</ele>
        <time>2018-03-13T14:47:58.000Z</time>
      </trkpt>
      <trkpt lat="43.98478" lon="5.057">
        <ele>109.40000152588</ele>
        <time>2018-03-13T14:47:59.000Z</time>
      </trkpt>
      <trkpt lat="43.98479" lon="5.05692">
        <ele>110.19999694824</ele>
        <time>2018-03-13T14:48:02.000Z</time>
      </trkpt>
      <trkpt lat="43.98479" lon="5.05683">
        <ele>111.19999694824</ele>
        <time>2018-03-13T14:48:05.000Z</time>
      </trkpt>
      <trkpt lat="43.98479" lon="5.05676">
        <ele>112</ele>
        <time>2018-03-13T14:48:07.000Z</time>
      </trkpt>
      <trkpt lat="43.98478" lon="5.0567">
        <ele>113</ele>
        <time>2018-03-13T14:48:09.000Z</time>
      </trkpt>
      <trkpt lat="43.98478" lon="5.05664">
        <ele>113.80000305176</ele>
        <time>2018-03-13T14:48:12.000Z</time>
      </trkpt>
      <trkpt lat="43.98478" lon="5.05663">
        <ele>113.80000305176</ele>
        <time>2018-03-13T14:48:20.000Z</time>
      </trkpt>
      <trkpt lat="43.98477" lon="5.05659">
        <ele>114.19999694824</ele>
        <time>2018-03-13T14:48:25.000Z</time>
      </trkpt>
      <trkpt lat="43.98477" lon="5.05655">
        <ele>114.40000152588</ele>
        <time>2018-03-13T14:48:26.000Z</time>
      </trkpt>
      <trkpt lat="43.98474" lon="5.05632">
        <ele>116</ele>
        <time>2018-03-13T14:48:31.000Z</time>
      </trkpt>
      <trkpt lat="43.98468" lon="5.05599">
        <ele>117.40000152588</ele>
        <time>2018-03-13T14:48:38.000Z</time>
      </trkpt>
      <trkpt lat="43.98463" lon="5.05574">
        <ele>118.59999847412</ele>
        <time>2018-03-13T14:48:44.000Z</time>
      </trkpt>
      <trkpt lat="43.98461" lon="5.05566">
        <ele>118.80000305176</ele>
        <time>2018-03-13T14:48:46.000Z</time>
      </trkpt>
      <trkpt lat="43.9846" lon="5.05554">
        <ele>119.19999694824</ele>
        <time>2018-03-13T14:48:49.000Z</time>
      </trkpt>
      <trkpt lat="43.98459" lon="5.0555">
        <ele>119.40000152588</ele>
        <time>2018-03-13T14:48:50.000Z</time>
      </trkpt>
      <trkpt lat="43.98456" lon="5.05525">
        <ele>118.80000305176</ele>
        <time>2018-03-13T14:48:56.000Z</time>
      </trkpt>
      <trkpt lat="43.98454" lon="5.05518">
        <ele>118.80000305176</ele>
        <time>2018-03-13T14:48:59.000Z</time>
      </trkpt>
      <trkpt lat="43.98453" lon="5.05517">
        <ele>118.80000305176</ele>
        <time>2018-03-13T14:49:00.000Z</time>
      </trkpt>
      <trkpt lat="43.98454" lon="5.05513">
        <ele>118.40000152588</ele>
        <time>2018-03-13T14:49:10.000Z</time>
      </trkpt>
      <trkpt lat="43.98452" lon="5.05506">
        <ele>118.40000152588</ele>
        <time>2018-03-13T14:49:12.000Z</time>
      </trkpt>
      <trkpt lat="43.9845" lon="5.05499">
        <ele>118.40000152588</ele>
        <time>2018-03-13T14:49:14.000Z</time>
      </trkpt>
      <trkpt lat="43.98449" lon="5.0549">
        <ele>118.19999694824</ele>
        <time>2018-03-13T14:49:16.000Z</time>
      </trkpt>
      <trkpt lat="43.98448" lon="5.05485">
        <ele>118</ele>
        <time>2018-03-13T14:49:18.000Z</time>
      </trkpt>
      <trkpt lat="43.98448" lon="5.05485">
        <ele>117.80000305176</ele>
        <time>2018-03-13T14:49:24.000Z</time>
      </trkpt>
      <trkpt lat="43.98448" lon="5.05485">
        <ele>117.80000305176</ele>
        <time>2018-03-13T14:49:45.000Z</time>
      </trkpt>
      <trkpt lat="43.98448" lon="5.05485">
        <ele>117.80000305176</ele>
        <time>2018-03-13T14:50:03.000Z</time>
      </trkpt>
      <trkpt lat="43.98449" lon="5.05484">
        <ele>117.80000305176</ele>
        <time>2018-03-13T14:50:19.000Z</time>
      </trkpt>
      <trkpt lat="43.98453" lon="5.05477">
        <ele>115.80000305176</ele>
        <time>2018-03-13T14:50:22.000Z</time>
      </trkpt>
      <trkpt lat="43.98453" lon="5.05472">
        <ele>115.19999694824</ele>
        <time>2018-03-13T14:50:23.000Z</time>
      </trkpt>
      <trkpt lat="43.98454" lon="5.05467">
        <ele>114.59999847412</ele>
        <time>2018-03-13T14:50:24.000Z</time>
      </trkpt>
      <trkpt lat="43.98455" lon="5.0546">
        <ele>114.19999694824</ele>
        <time>2018-03-13T14:50:25.000Z</time>
      </trkpt>
      <trkpt lat="43.98453" lon="5.05453">
        <ele>113.59999847412</ele>
        <time>2018-03-13T14:50:26.000Z</time>
      </trkpt>
      <trkpt lat="43.98446" lon="5.05438">
        <ele>113.59999847412</ele>
        <time>2018-03-13T14:50:29.000Z</time>
      </trkpt>
      <trkpt lat="43.98444" lon="5.05431">
        <ele>113.19999694824</ele>
        <time>2018-03-13T14:50:30.000Z</time>
      </trkpt>
      <trkpt lat="43.98438" lon="5.05415">
        <ele>112</ele>
        <time>2018-03-13T14:50:33.000Z</time>
      </trkpt>
      <trkpt lat="43.98436" lon="5.0541">
        <ele>111.59999847412</ele>
        <time>2018-03-13T14:50:34.000Z</time>
      </trkpt>
      <trkpt lat="43.98429" lon="5.05399">
        <ele>111</ele>
        <time>2018-03-13T14:50:37.000Z</time>
      </trkpt>
      <trkpt lat="43.98419" lon="5.05389">
        <ele>110.80000305176</ele>
        <time>2018-03-13T14:50:41.000Z</time>
      </trkpt>
      <trkpt lat="43.98414" lon="5.05385">
        <ele>111</ele>
        <time>2018-03-13T14:50:43.000Z</time>
      </trkpt>
      <trkpt lat="43.98411" lon="5.05381">
        <ele>110.59999847412</ele>
        <time>2018-03-13T14:50:44.000Z</time>
      </trkpt>
      <trkpt lat="43.9841" lon="5.05376">
        <ele>110.19999694824</ele>
        <time>2018-03-13T14:50:45.000Z</time>
      </trkpt>
      <trkpt lat="43.98407" lon="5.05367">
        <ele>110</ele>
        <time>2018-03-13T14:50:47.000Z</time>
      </trkpt>
      <trkpt lat="43.98402" lon="5.05351">
        <ele>109.80000305176</ele>
        <time>2018-03-13T14:50:50.000Z</time>
      </trkpt>
      <trkpt lat="43.98399" lon="5.05329">
        <ele>108.59999847412</ele>
        <time>2018-03-13T14:50:54.000Z</time>
      </trkpt>
      <trkpt lat="43.98398" lon="5.05325">
        <ele>108.19999694824</ele>
        <time>2018-03-13T14:50:55.000Z</time>
      </trkpt>
      <trkpt lat="43.98395" lon="5.05312">
        <ele>106.80000305176</ele>
        <time>2018-03-13T14:50:58.000Z</time>
      </trkpt>
      <trkpt lat="43.98394" lon="5.05308">
        <ele>106.40000152588</ele>
        <time>2018-03-13T14:50:59.000Z</time>
      </trkpt>
      <trkpt lat="43.98393" lon="5.05303">
        <ele>106</ele>
        <time>2018-03-13T14:51:01.000Z</time>
      </trkpt>
      <trkpt lat="43.98393" lon="5.05302">
        <ele>105.80000305176</ele>
        <time>2018-03-13T14:51:03.000Z</time>
      </trkpt>
      <trkpt lat="43.98392" lon="5.05296">
        <ele>105.19999694824</ele>
        <time>2018-03-13T14:51:10.000Z</time>
      </trkpt>
      <trkpt lat="43.98387" lon="5.05281">
        <ele>105.40000152588</ele>
        <time>2018-03-13T14:51:14.000Z</time>
      </trkpt>
      <trkpt lat="43.98385" lon="5.05268">
        <ele>105.40000152588</ele>
        <time>2018-03-13T14:51:17.000Z</time>
      </trkpt>
      <trkpt lat="43.98384" lon="5.05264">
        <ele>105.40000152588</ele>
        <time>2018-03-13T14:51:18.000Z</time>
      </trkpt>
      <trkpt lat="43.98384" lon="5.05257">
        <ele>105.19999694824</ele>
        <time>2018-03-13T14:51:20.000Z</time>
      </trkpt>
      <trkpt lat="43.98384" lon="5.05243">
        <ele>104.59999847412</ele>
        <time>2018-03-13T14:51:23.000Z</time>
      </trkpt>
      <trkpt lat="43.98385" lon="5.05239">
        <ele>104.19999694824</ele>
        <time>2018-03-13T14:51:24.000Z</time>
      </trkpt>
      <trkpt lat="43.98384" lon="5.05231">
        <ele>104.19999694824</ele>
        <time>2018-03-13T14:51:26.000Z</time>
      </trkpt>
      <trkpt lat="43.9838" lon="5.05221">
        <ele>104.40000152588</ele>
        <time>2018-03-13T14:51:29.000Z</time>
      </trkpt>
      <trkpt lat="43.98379" lon="5.05218">
        <ele>104.40000152588</ele>
        <time>2018-03-13T14:51:30.000Z</time>
      </trkpt>
      <trkpt lat="43.98378" lon="5.05211">
        <ele>104.40000152588</ele>
        <time>2018-03-13T14:51:33.000Z</time>
      </trkpt>
      <trkpt lat="43.98378" lon="5.05209">
        <ele>104.19999694824</ele>
        <time>2018-03-13T14:51:34.000Z</time>
      </trkpt>
      <trkpt lat="43.98378" lon="5.05209">
        <ele>104.19999694824</ele>
        <time>2018-03-13T14:51:39.000Z</time>
      </trkpt>
      <trkpt lat="43.98378" lon="5.05209">
        <ele>104.19999694824</ele>
        <time>2018-03-13T14:51:55.000Z</time>
      </trkpt>
      <trkpt lat="43.98378" lon="5.05208">
        <ele>104.19999694824</ele>
        <time>2018-03-13T14:51:57.000Z</time>
      </trkpt>
      <trkpt lat="43.98373" lon="5.05201">
        <ele>105</ele>
        <time>2018-03-13T14:52:00.000Z</time>
      </trkpt>
      <trkpt lat="43.98368" lon="5.0519">
        <ele>105.40000152588</ele>
        <time>2018-03-13T14:52:03.000Z</time>
      </trkpt>
      <trkpt lat="43.98367" lon="5.05187">
        <ele>105.59999847412</ele>
        <time>2018-03-13T14:52:04.000Z</time>
      </trkpt>
      <trkpt lat="43.98365" lon="5.05185">
        <ele>106</ele>
        <time>2018-03-13T14:52:05.000Z</time>
      </trkpt>
      <trkpt lat="43.98363" lon="5.05183">
        <ele>106.19999694824</ele>
        <time>2018-03-13T14:52:06.000Z</time>
      </trkpt>
      <trkpt lat="43.9836" lon="5.05181">
        <ele>107</ele>
        <time>2018-03-13T14:52:08.000Z</time>
      </trkpt>
      <trkpt lat="43.98357" lon="5.05182">
        <ele>107.40000152588</ele>
        <time>2018-03-13T14:52:10.000Z</time>
      </trkpt>
      <trkpt lat="43.98358" lon="5.05184">
        <ele>107.59999847412</ele>
        <time>2018-03-13T14:52:19.000Z</time>
      </trkpt>
      <trkpt lat="43.98355" lon="5.05199">
        <ele>108.40000152588</ele>
        <time>2018-03-13T14:52:23.000Z</time>
      </trkpt>
      <trkpt lat="43.98348" lon="5.05223">
        <ele>109.80000305176</ele>
        <time>2018-03-13T14:52:29.000Z</time>
      </trkpt>
      <trkpt lat="43.98347" lon="5.05227">
        <ele>110</ele>
        <time>2018-03-13T14:52:30.000Z</time>
      </trkpt>
      <trkpt lat="43.98344" lon="5.05242">
        <ele>110.59999847412</ele>
        <time>2018-03-13T14:52:34.000Z</time>
      </trkpt>
      <trkpt lat="43.98342" lon="5.0525">
        <ele>110.80000305176</ele>
        <time>2018-03-13T14:52:36.000Z</time>
      </trkpt>
      <trkpt lat="43.9834" lon="5.05257">
        <ele>111.19999694824</ele>
        <time>2018-03-13T14:52:38.000Z</time>
      </trkpt>
      <trkpt lat="43.98337" lon="5.05272">
        <ele>111.80000305176</ele>
        <time>2018-03-13T14:52:42.000Z</time>
      </trkpt>
      <trkpt lat="43.98335" lon="5.05276">
        <ele>112</ele>
        <time>2018-03-13T14:52:43.000Z</time>
      </trkpt>
      <trkpt lat="43.98331" lon="5.05287">
        <ele>112.59999847412</ele>
        <time>2018-03-13T14:52:46.000Z</time>
      </trkpt>
      <trkpt lat="43.98329" lon="5.05289">
        <ele>112.80000305176</ele>
        <time>2018-03-13T14:52:48.000Z</time>
      </trkpt>
      <trkpt lat="43.98329" lon="5.0529">
        <ele>112.80000305176</ele>
        <time>2018-03-13T14:52:54.000Z</time>
      </trkpt>
      <trkpt lat="43.98328" lon="5.05292">
        <ele>113</ele>
        <time>2018-03-13T14:52:57.000Z</time>
      </trkpt>
      <trkpt lat="43.98326" lon="5.05294">
        <ele>113.19999694824</ele>
        <time>2018-03-13T14:52:58.000Z</time>
      </trkpt>
      <trkpt lat="43.98323" lon="5.05295">
        <ele>113.40000152588</ele>
        <time>2018-03-13T14:53:02.000Z</time>
      </trkpt>
      <trkpt lat="43.98323" lon="5.05294">
        <ele>113.40000152588</ele>
        <time>2018-03-13T14:53:08.000Z</time>
      </trkpt>
      <trkpt lat="43.9832" lon="5.0529">
        <ele>113.19999694824</ele>
        <time>2018-03-13T14:53:10.000Z</time>
      </trkpt>
      <trkpt lat="43.98314" lon="5.05286">
        <ele>113.40000152588</ele>
        <time>2018-03-13T14:53:12.000Z</time>
      </trkpt>
      <trkpt lat="43.98308" lon="5.05279">
        <ele>113.19999694824</ele>
        <time>2018-03-13T14:53:14.000Z</time>
      </trkpt>
      <trkpt lat="43.983" lon="5.05272">
        <ele>113</ele>
        <time>2018-03-13T14:53:16.000Z</time>
      </trkpt>
      <trkpt lat="43.98286" lon="5.05267">
        <ele>113.40000152588</ele>
        <time>2018-03-13T14:53:19.000Z</time>
      </trkpt>
      <trkpt lat="43.9827" lon="5.05277">
        <ele>114.19999694824</ele>
        <time>2018-03-13T14:53:23.000Z</time>
      </trkpt>
      <trkpt lat="43.98263" lon="5.05284">
        <ele>114.19999694824</ele>
        <time>2018-03-13T14:53:25.000Z</time>
      </trkpt>
      <trkpt lat="43.98259" lon="5.05286">
        <ele>114.40000152588</ele>
        <time>2018-03-13T14:53:26.000Z</time>
      </trkpt>
      <trkpt lat="43.98251" lon="5.05291">
        <ele>114.59999847412</ele>
        <time>2018-03-13T14:53:28.000Z</time>
      </trkpt>
      <trkpt lat="43.98246" lon="5.05293">
        <ele>114.59999847412</ele>
        <time>2018-03-13T14:53:29.000Z</time>
      </trkpt>
      <trkpt lat="43.98232" lon="5.053">
        <ele>115</ele>
        <time>2018-03-13T14:53:32.000Z</time>
      </trkpt>
      <trkpt lat="43.98227" lon="5.05305">
        <ele>115.19999694824</ele>
        <time>2018-03-13T14:53:34.000Z</time>
      </trkpt>
      <trkpt lat="43.98226" lon="5.05305">
        <ele>115.19999694824</ele>
        <time>2018-03-13T14:53:35.000Z</time>
      </trkpt>
      <trkpt lat="43.98226" lon="5.05306">
        <ele>115.19999694824</ele>
        <time>2018-03-13T14:53:37.000Z</time>
      </trkpt>
      <trkpt lat="43.98223" lon="5.05308">
        <ele>115.40000152588</ele>
        <time>2018-03-13T14:53:43.000Z</time>
      </trkpt>
      <trkpt lat="43.98219" lon="5.05311">
        <ele>115.40000152588</ele>
        <time>2018-03-13T14:53:44.000Z</time>
      </trkpt>
      <trkpt lat="43.98206" lon="5.05324">
        <ele>116.40000152588</ele>
        <time>2018-03-13T14:53:47.000Z</time>
      </trkpt>
      <trkpt lat="43.98201" lon="5.05328">
        <ele>116.80000305176</ele>
        <time>2018-03-13T14:53:48.000Z</time>
      </trkpt>
      <trkpt lat="43.98192" lon="5.05337">
        <ele>117.80000305176</ele>
        <time>2018-03-13T14:53:50.000Z</time>
      </trkpt>
      <trkpt lat="43.98182" lon="5.05345">
        <ele>118.40000152588</ele>
        <time>2018-03-13T14:53:52.000Z</time>
      </trkpt>
      <trkpt lat="43.98171" lon="5.05351">
        <ele>118.80000305176</ele>
        <time>2018-03-13T14:53:54.000Z</time>
      </trkpt>
      <trkpt lat="43.9816" lon="5.05354">
        <ele>119.59999847412</ele>
        <time>2018-03-13T14:53:56.000Z</time>
      </trkpt>
      <trkpt lat="43.98143" lon="5.05357">
        <ele>120.80000305176</ele>
        <time>2018-03-13T14:53:59.000Z</time>
      </trkpt>
      <trkpt lat="43.98121" lon="5.05358">
        <ele>122</ele>
        <time>2018-03-13T14:54:03.000Z</time>
      </trkpt>
      <trkpt lat="43.98111" lon="5.05356">
        <ele>122.19999694824</ele>
        <time>2018-03-13T14:54:05.000Z</time>
      </trkpt>
      <trkpt lat="43.98084" lon="5.05351">
        <ele>124</ele>
        <time>2018-03-13T14:54:10.000Z</time>
      </trkpt>
      <trkpt lat="43.98082" lon="5.05348">
        <ele>123.80000305176</ele>
        <time>2018-03-13T14:54:11.000Z</time>
      </trkpt>
      <trkpt lat="43.98081" lon="5.05344">
        <ele>123.40000152588</ele>
        <time>2018-03-13T14:54:14.000Z</time>
      </trkpt>
      <trkpt lat="43.98081" lon="5.05342">
        <ele>123</ele>
        <time>2018-03-13T14:54:25.000Z</time>
      </trkpt>
      <trkpt lat="43.98081" lon="5.05324">
        <ele>120.80000305176</ele>
        <time>2018-03-13T14:54:29.000Z</time>
      </trkpt>
      <trkpt lat="43.98079" lon="5.0532">
        <ele>120.40000152588</ele>
        <time>2018-03-13T14:54:30.000Z</time>
      </trkpt>
      <trkpt lat="43.98073" lon="5.05311">
        <ele>119.80000305176</ele>
        <time>2018-03-13T14:54:32.000Z</time>
      </trkpt>
      <trkpt lat="43.9807" lon="5.05304">
        <ele>119.19999694824</ele>
        <time>2018-03-13T14:54:33.000Z</time>
      </trkpt>
      <trkpt lat="43.98061" lon="5.05284">
        <ele>118.19999694824</ele>
        <time>2018-03-13T14:54:36.000Z</time>
      </trkpt>
      <trkpt lat="43.98059" lon="5.05277">
        <ele>118</ele>
        <time>2018-03-13T14:54:37.000Z</time>
      </trkpt>
      <trkpt lat="43.98056" lon="5.05271">
        <ele>118</ele>
        <time>2018-03-13T14:54:38.000Z</time>
      </trkpt>
      <trkpt lat="43.98047" lon="5.05253">
        <ele>118</ele>
        <time>2018-03-13T14:54:41.000Z</time>
      </trkpt>
      <trkpt lat="43.98043" lon="5.05248">
        <ele>118</ele>
        <time>2018-03-13T14:54:42.000Z</time>
      </trkpt>
      <trkpt lat="43.98036" lon="5.05239">
        <ele>118.40000152588</ele>
        <time>2018-03-13T14:54:45.000Z</time>
      </trkpt>
      <trkpt lat="43.98035" lon="5.05238">
        <ele>118.40000152588</ele>
        <time>2018-03-13T14:54:48.000Z</time>
      </trkpt>
      <trkpt lat="43.98033" lon="5.05236">
        <ele>118.40000152588</ele>
        <time>2018-03-13T14:54:57.000Z</time>
      </trkpt>
      <trkpt lat="43.98033" lon="5.05234">
        <ele>118.40000152588</ele>
        <time>2018-03-13T14:54:58.000Z</time>
      </trkpt>
      <trkpt lat="43.98031" lon="5.05227">
        <ele>118.40000152588</ele>
        <time>2018-03-13T14:55:00.000Z</time>
      </trkpt>
      <trkpt lat="43.9803" lon="5.05222">
        <ele>118</ele>
        <time>2018-03-13T14:55:01.000Z</time>
      </trkpt>
      <trkpt lat="43.9803" lon="5.05215">
        <ele>117.80000305176</ele>
        <time>2018-03-13T14:55:02.000Z</time>
      </trkpt>
      <trkpt lat="43.98026" lon="5.05188">
        <ele>116.40000152588</ele>
        <time>2018-03-13T14:55:06.000Z</time>
      </trkpt>
      <trkpt lat="43.98018" lon="5.05164">
        <ele>114.40000152588</ele>
        <time>2018-03-13T14:55:10.000Z</time>
      </trkpt>
      <trkpt lat="43.98019" lon="5.05156">
        <ele>113.80000305176</ele>
        <time>2018-03-13T14:55:13.000Z</time>
      </trkpt>
      <trkpt lat="43.98019" lon="5.05156">
        <ele>113.80000305176</ele>
        <time>2018-03-13T14:55:20.000Z</time>
      </trkpt>
      <trkpt lat="43.98019" lon="5.05156">
        <ele>113.80000305176</ele>
        <time>2018-03-13T14:55:21.000Z</time>
      </trkpt>
      <trkpt lat="43.98023" lon="5.05152">
        <ele>113.80000305176</ele>
        <time>2018-03-13T14:55:23.000Z</time>
      </trkpt>
      <trkpt lat="43.98027" lon="5.05143">
        <ele>113</ele>
        <time>2018-03-13T14:55:25.000Z</time>
      </trkpt>
      <trkpt lat="43.9803" lon="5.05137">
        <ele>112.40000152588</ele>
        <time>2018-03-13T14:55:26.000Z</time>
      </trkpt>
      <trkpt lat="43.98032" lon="5.0513">
        <ele>111.80000305176</ele>
        <time>2018-03-13T14:55:27.000Z</time>
      </trkpt>
      <trkpt lat="43.98034" lon="5.05124">
        <ele>111.19999694824</ele>
        <time>2018-03-13T14:55:28.000Z</time>
      </trkpt>
      <trkpt lat="43.9804" lon="5.05119">
        <ele>110.40000152588</ele>
        <time>2018-03-13T14:55:30.000Z</time>
      </trkpt>
      <trkpt lat="43.98041" lon="5.05119">
        <ele>110.40000152588</ele>
        <time>2018-03-13T14:55:31.000Z</time>
      </trkpt>
      <trkpt lat="43.98041" lon="5.05119">
        <ele>110.40000152588</ele>
        <time>2018-03-13T14:55:33.000Z</time>
      </trkpt>
      <trkpt lat="43.98041" lon="5.05119">
        <ele>110.40000152588</ele>
        <time>2018-03-13T14:55:34.000Z</time>
      </trkpt>
      <trkpt lat="43.98039" lon="5.05118">
        <ele>110.40000152588</ele>
        <time>2018-03-13T14:55:39.000Z</time>
      </trkpt>
      <trkpt lat="43.98039" lon="5.05115">
        <ele>110</ele>
        <time>2018-03-13T14:55:41.000Z</time>
      </trkpt>
      <trkpt lat="43.98037" lon="5.05111">
        <ele>109.59999847412</ele>
        <time>2018-03-13T14:55:44.000Z</time>
      </trkpt>
      <trkpt lat="43.98038" lon="5.05105">
        <ele>109</ele>
        <time>2018-03-13T14:55:46.000Z</time>
      </trkpt>
      <trkpt lat="43.9804" lon="5.05099">
        <ele>108.19999694824</ele>
        <time>2018-03-13T14:55:48.000Z</time>
      </trkpt>
      <trkpt lat="43.98043" lon="5.05092">
        <ele>107.19999694824</ele>
        <time>2018-03-13T14:55:50.000Z</time>
      </trkpt>
      <trkpt lat="43.98045" lon="5.05088">
        <ele>106.80000305176</ele>
        <time>2018-03-13T14:55:51.000Z</time>
      </trkpt>
      <trkpt lat="43.98046" lon="5.05086">
        <ele>106.40000152588</ele>
        <time>2018-03-13T14:55:52.000Z</time>
      </trkpt>
      <trkpt lat="43.98046" lon="5.05079">
        <ele>105.59999847412</ele>
        <time>2018-03-13T14:55:55.000Z</time>
      </trkpt>
      <trkpt lat="43.98046" lon="5.05078">
        <ele>105.59999847412</ele>
        <time>2018-03-13T14:55:56.000Z</time>
      </trkpt>
      <trkpt lat="43.98046" lon="5.05078">
        <ele>105.59999847412</ele>
        <time>2018-03-13T14:56:03.000Z</time>
      </trkpt>
      <trkpt lat="43.98045" lon="5.05078">
        <ele>105.59999847412</ele>
        <time>2018-03-13T14:56:17.000Z</time>
      </trkpt>
      <trkpt lat="43.98028" lon="5.05076">
        <ele>106.40000152588</ele>
        <time>2018-03-13T14:56:21.000Z</time>
      </trkpt>
      <trkpt lat="43.98017" lon="5.05072">
        <ele>106</ele>
        <time>2018-03-13T14:56:23.000Z</time>
      </trkpt>
      <trkpt lat="43.97999" lon="5.05067">
        <ele>105</ele>
        <time>2018-03-13T14:56:26.000Z</time>
      </trkpt>
      <trkpt lat="43.97962" lon="5.05063">
        <ele>103.59999847412</ele>
        <time>2018-03-13T14:56:32.000Z</time>
      </trkpt>
      <trkpt lat="43.97932" lon="5.05062">
        <ele>102.80000305176</ele>
        <time>2018-03-13T14:56:37.000Z</time>
      </trkpt>
      <trkpt lat="43.97924" lon="5.05061">
        <ele>102.80000305176</ele>
        <time>2018-03-13T14:56:40.000Z</time>
      </trkpt>
      <trkpt lat="43.97924" lon="5.05061">
        <ele>102.80000305176</ele>
        <time>2018-03-13T14:56:45.000Z</time>
      </trkpt>
      <trkpt lat="43.97918" lon="5.05061">
        <ele>102.80000305176</ele>
        <time>2018-03-13T14:56:50.000Z</time>
      </trkpt>
      <trkpt lat="43.97899" lon="5.05059">
        <ele>102.80000305176</ele>
        <time>2018-03-13T14:56:54.000Z</time>
      </trkpt>
      <trkpt lat="43.97859" lon="5.05051">
        <ele>102.59999847412</ele>
        <time>2018-03-13T14:57:00.000Z</time>
      </trkpt>
      <trkpt lat="43.97841" lon="5.05047">
        <ele>103</ele>
        <time>2018-03-13T14:57:03.000Z</time>
      </trkpt>
      <trkpt lat="43.97824" lon="5.05044">
        <ele>103.40000152588</ele>
        <time>2018-03-13T14:57:06.000Z</time>
      </trkpt>
      <trkpt lat="43.97807" lon="5.05041">
        <ele>103.59999847412</ele>
        <time>2018-03-13T14:57:10.000Z</time>
      </trkpt>
      <trkpt lat="43.97805" lon="5.05041">
        <ele>103.59999847412</ele>
        <time>2018-03-13T14:57:13.000Z</time>
      </trkpt>
      <trkpt lat="43.97799" lon="5.05039">
        <ele>103.80000305176</ele>
        <time>2018-03-13T14:57:22.000Z</time>
      </trkpt>
      <trkpt lat="43.97779" lon="5.05038">
        <ele>104.40000152588</ele>
        <time>2018-03-13T14:57:26.000Z</time>
      </trkpt>
      <trkpt lat="43.97767" lon="5.05035">
        <ele>104.19999694824</ele>
        <time>2018-03-13T14:57:28.000Z</time>
      </trkpt>
      <trkpt lat="43.97756" lon="5.05033">
        <ele>103.80000305176</ele>
        <time>2018-03-13T14:57:30.000Z</time>
      </trkpt>
      <trkpt lat="43.97729" lon="5.05031">
        <ele>103.59999847412</ele>
        <time>2018-03-13T14:57:34.000Z</time>
      </trkpt>
      <trkpt lat="43.97715" lon="5.05029">
        <ele>103.40000152588</ele>
        <time>2018-03-13T14:57:36.000Z</time>
      </trkpt>
      <trkpt lat="43.97708" lon="5.05027">
        <ele>103.19999694824</ele>
        <time>2018-03-13T14:57:37.000Z</time>
      </trkpt>
      <trkpt lat="43.97694" lon="5.05026">
        <ele>103</ele>
        <time>2018-03-13T14:57:39.000Z</time>
      </trkpt>
      <trkpt lat="43.9768" lon="5.05024">
        <ele>102.80000305176</ele>
        <time>2018-03-13T14:57:41.000Z</time>
      </trkpt>
      <trkpt lat="43.9766" lon="5.05021">
        <ele>101.59999847412</ele>
        <time>2018-03-13T14:57:44.000Z</time>
      </trkpt>
      <trkpt lat="43.97637" lon="5.05016">
        <ele>99.800003051758</ele>
        <time>2018-03-13T14:57:48.000Z</time>
      </trkpt>
      <trkpt lat="43.97635" lon="5.05015">
        <ele>99.599998474121</ele>
        <time>2018-03-13T14:57:51.000Z</time>
      </trkpt>
      <trkpt lat="43.97635" lon="5.05015">
        <ele>99.599998474121</ele>
        <time>2018-03-13T14:57:57.000Z</time>
      </trkpt>
      <trkpt lat="43.97636" lon="5.05012">
        <ele>99.599998474121</ele>
        <time>2018-03-13T14:57:58.000Z</time>
      </trkpt>
      <trkpt lat="43.97638" lon="5.0501">
        <ele>99.599998474121</ele>
        <time>2018-03-13T14:57:59.000Z</time>
      </trkpt>
      <trkpt lat="43.97639" lon="5.05009">
        <ele>99.599998474121</ele>
        <time>2018-03-13T14:58:02.000Z</time>
      </trkpt>
      <trkpt lat="43.97642" lon="5.05006">
        <ele>99.599998474121</ele>
        <time>2018-03-13T14:58:09.000Z</time>
      </trkpt>
      <trkpt lat="43.97653" lon="5.04994">
        <ele>99.199996948242</ele>
        <time>2018-03-13T14:58:12.000Z</time>
      </trkpt>
      <trkpt lat="43.97663" lon="5.04984">
        <ele>98</ele>
        <time>2018-03-13T14:58:14.000Z</time>
      </trkpt>
      <trkpt lat="43.97678" lon="5.04967">
        <ele>96</ele>
        <time>2018-03-13T14:58:17.000Z</time>
      </trkpt>
      <trkpt lat="43.97684" lon="5.04961">
        <ele>95.199996948242</ele>
        <time>2018-03-13T14:58:18.000Z</time>
      </trkpt>
      <trkpt lat="43.97695" lon="5.0495">
        <ele>94.599998474121</ele>
        <time>2018-03-13T14:58:20.000Z</time>
      </trkpt>
      <trkpt lat="43.97711" lon="5.04934">
        <ele>94.400001525879</ele>
        <time>2018-03-13T14:58:23.000Z</time>
      </trkpt>
      <trkpt lat="43.97717" lon="5.04931">
        <ele>94.199996948242</ele>
        <time>2018-03-13T14:58:24.000Z</time>
      </trkpt>
      <trkpt lat="43.97723" lon="5.04928">
        <ele>94.199996948242</ele>
        <time>2018-03-13T14:58:25.000Z</time>
      </trkpt>
      <trkpt lat="43.97739" lon="5.04921">
        <ele>94.199996948242</ele>
        <time>2018-03-13T14:58:28.000Z</time>
      </trkpt>
      <trkpt lat="43.97749" lon="5.04916">
        <ele>94</ele>
        <time>2018-03-13T14:58:30.000Z</time>
      </trkpt>
      <trkpt lat="43.97754" lon="5.04911">
        <ele>93.800003051758</ele>
        <time>2018-03-13T14:58:31.000Z</time>
      </trkpt>
      <trkpt lat="43.97758" lon="5.04901">
        <ele>93.199996948242</ele>
        <time>2018-03-13T14:58:33.000Z</time>
      </trkpt>
      <trkpt lat="43.97759" lon="5.04898">
        <ele>93</ele>
        <time>2018-03-13T14:58:34.000Z</time>
      </trkpt>
      <trkpt lat="43.97759" lon="5.04897">
        <ele>93</ele>
        <time>2018-03-13T14:58:37.000Z</time>
      </trkpt>
      <trkpt lat="43.97759" lon="5.04897">
        <ele>93</ele>
        <time>2018-03-13T14:58:49.000Z</time>
      </trkpt>
      <trkpt lat="43.97759" lon="5.04897">
        <ele>93</ele>
        <time>2018-03-13T14:59:12.000Z</time>
      </trkpt>
      <trkpt lat="43.97757" lon="5.04894">
        <ele>92.800003051758</ele>
        <time>2018-03-13T14:59:19.000Z</time>
      </trkpt>
      <trkpt lat="43.97755" lon="5.04893">
        <ele>92.800003051758</ele>
        <time>2018-03-13T14:59:20.000Z</time>
      </trkpt>
      <trkpt lat="43.9774" lon="5.04891">
        <ele>92.800003051758</ele>
        <time>2018-03-13T14:59:23.000Z</time>
      </trkpt>
      <trkpt lat="43.97733" lon="5.04889">
        <ele>92.599998474121</ele>
        <time>2018-03-13T14:59:24.000Z</time>
      </trkpt>
      <trkpt lat="43.97713" lon="5.04882">
        <ele>92.199996948242</ele>
        <time>2018-03-13T14:59:27.000Z</time>
      </trkpt>
      <trkpt lat="43.97692" lon="5.04876">
        <ele>92</ele>
        <time>2018-03-13T14:59:30.000Z</time>
      </trkpt>
      <trkpt lat="43.97685" lon="5.04876">
        <ele>92</ele>
        <time>2018-03-13T14:59:31.000Z</time>
      </trkpt>
      <trkpt lat="43.97679" lon="5.04876">
        <ele>92</ele>
        <time>2018-03-13T14:59:32.000Z</time>
      </trkpt>
      <trkpt lat="43.97637" lon="5.04875">
        <ele>92</ele>
        <time>2018-03-13T14:59:38.000Z</time>
      </trkpt>
      <trkpt lat="43.97591" lon="5.04879">
        <ele>92.400001525879</ele>
        <time>2018-03-13T14:59:45.000Z</time>
      </trkpt>
      <trkpt lat="43.97573" lon="5.04887">
        <ele>92.800003051758</ele>
        <time>2018-03-13T14:59:48.000Z</time>
      </trkpt>
      <trkpt lat="43.97561" lon="5.04892">
        <ele>93.199996948242</ele>
        <time>2018-03-13T14:59:50.000Z</time>
      </trkpt>
      <trkpt lat="43.97527" lon="5.04913">
        <ele>96.400001525879</ele>
        <time>2018-03-13T14:59:56.000Z</time>
      </trkpt>
      <trkpt lat="43.9751" lon="5.04919">
        <ele>97.199996948242</ele>
        <time>2018-03-13T14:59:59.000Z</time>
      </trkpt>
      <trkpt lat="43.97498" lon="5.04914">
        <ele>96.599998474121</ele>
        <time>2018-03-13T15:00:01.000Z</time>
      </trkpt>
      <trkpt lat="43.97487" lon="5.04897">
        <ele>95</ele>
        <time>2018-03-13T15:00:04.000Z</time>
      </trkpt>
      <trkpt lat="43.97485" lon="5.04893">
        <ele>94.599998474121</ele>
        <time>2018-03-13T15:00:05.000Z</time>
      </trkpt>
      <trkpt lat="43.97485" lon="5.04892">
        <ele>94.599998474121</ele>
        <time>2018-03-13T15:00:07.000Z</time>
      </trkpt>
      <trkpt lat="43.97481" lon="5.04886">
        <ele>94</ele>
        <time>2018-03-13T15:00:16.000Z</time>
      </trkpt>
      <trkpt lat="43.97472" lon="5.04877">
        <ele>93.199996948242</ele>
        <time>2018-03-13T15:00:20.000Z</time>
      </trkpt>
      <trkpt lat="43.97471" lon="5.04881">
        <ele>93.400001525879</ele>
        <time>2018-03-13T15:00:24.000Z</time>
      </trkpt>
      <trkpt lat="43.9747" lon="5.04883">
        <ele>93.599998474121</ele>
        <time>2018-03-13T15:00:25.000Z</time>
      </trkpt>
      <trkpt lat="43.97467" lon="5.04892">
        <ele>94.599998474121</ele>
        <time>2018-03-13T15:00:28.000Z</time>
      </trkpt>
      <trkpt lat="43.97462" lon="5.04891">
        <ele>94.400001525879</ele>
        <time>2018-03-13T15:00:31.000Z</time>
      </trkpt>
      <trkpt lat="43.97461" lon="5.04892">
        <ele>94.599998474121</ele>
        <time>2018-03-13T15:00:36.000Z</time>
      </trkpt>
      <trkpt lat="43.97461" lon="5.04892">
        <ele>94.599998474121</ele>
        <time>2018-03-13T15:00:50.000Z</time>
      </trkpt>
      <trkpt lat="43.97456" lon="5.04892">
        <ele>94.599998474121</ele>
        <time>2018-03-13T15:00:56.000Z</time>
      </trkpt>
      <trkpt lat="43.97455" lon="5.04893">
        <ele>94.800003051758</ele>
        <time>2018-03-13T15:00:57.000Z</time>
      </trkpt>
      <trkpt lat="43.97453" lon="5.04894">
        <ele>95</ele>
        <time>2018-03-13T15:01:00.000Z</time>
      </trkpt>
      <trkpt lat="43.97452" lon="5.04895">
        <ele>95.199996948242</ele>
        <time>2018-03-13T15:01:01.000Z</time>
      </trkpt>
      <trkpt lat="43.97448" lon="5.04901">
        <ele>96</ele>
        <time>2018-03-13T15:01:04.000Z</time>
      </trkpt>
      <trkpt lat="43.97445" lon="5.04905">
        <ele>96.599998474121</ele>
        <time>2018-03-13T15:01:08.000Z</time>
      </trkpt>
      <trkpt lat="43.97442" lon="5.04909">
        <ele>97.400001525879</ele>
        <time>2018-03-13T15:01:13.000Z</time>
      </trkpt>
      <trkpt lat="43.97432" lon="5.04923">
        <ele>100</ele>
        <time>2018-03-13T15:01:17.000Z</time>
      </trkpt>
      <trkpt lat="43.97415" lon="5.04939">
        <ele>102.40000152588</ele>
        <time>2018-03-13T15:01:22.000Z</time>
      </trkpt>
      <trkpt lat="43.97396" lon="5.04945">
        <ele>101.40000152588</ele>
        <time>2018-03-13T15:01:27.000Z</time>
      </trkpt>
      <trkpt lat="43.9739" lon="5.04951">
        <ele>100.80000305176</ele>
        <time>2018-03-13T15:01:29.000Z</time>
      </trkpt>
      <trkpt lat="43.97384" lon="5.04959">
        <ele>100.59999847412</ele>
        <time>2018-03-13T15:01:31.000Z</time>
      </trkpt>
      <trkpt lat="43.97374" lon="5.04972">
        <ele>100.59999847412</ele>
        <time>2018-03-13T15:01:36.000Z</time>
      </trkpt>
      <trkpt lat="43.97374" lon="5.04972">
        <ele>100.80000305176</ele>
        <time>2018-03-13T15:01:43.000Z</time>
      </trkpt>
      <trkpt lat="43.97371" lon="5.04976">
        <ele>100.80000305176</ele>
        <time>2018-03-13T15:01:47.000Z</time>
      </trkpt>
      <trkpt lat="43.97369" lon="5.04979">
        <ele>100.59999847412</ele>
        <time>2018-03-13T15:01:48.000Z</time>
      </trkpt>
      <trkpt lat="43.97367" lon="5.04983">
        <ele>100.59999847412</ele>
        <time>2018-03-13T15:01:49.000Z</time>
      </trkpt>
      <trkpt lat="43.97362" lon="5.04999">
        <ele>100.80000305176</ele>
        <time>2018-03-13T15:01:52.000Z</time>
      </trkpt>
      <trkpt lat="43.97357" lon="5.05007">
        <ele>100.80000305176</ele>
        <time>2018-03-13T15:01:54.000Z</time>
      </trkpt>
      <trkpt lat="43.97353" lon="5.05015">
        <ele>101.19999694824</ele>
        <time>2018-03-13T15:01:56.000Z</time>
      </trkpt>
      <trkpt lat="43.97345" lon="5.05032">
        <ele>102.19999694824</ele>
        <time>2018-03-13T15:02:00.000Z</time>
      </trkpt>
      <trkpt lat="43.97342" lon="5.05037">
        <ele>102</ele>
        <time>2018-03-13T15:02:04.000Z</time>
      </trkpt>
      <trkpt lat="43.9734" lon="5.05039">
        <ele>102</ele>
        <time>2018-03-13T15:02:12.000Z</time>
      </trkpt>
      <trkpt lat="43.97339" lon="5.05042">
        <ele>102</ele>
        <time>2018-03-13T15:02:13.000Z</time>
      </trkpt>
      <trkpt lat="43.97339" lon="5.05053">
        <ele>103</ele>
        <time>2018-03-13T15:02:17.000Z</time>
      </trkpt>
      <trkpt lat="43.97339" lon="5.05053">
        <ele>103</ele>
        <time>2018-03-13T15:02:21.000Z</time>
      </trkpt>
      <trkpt lat="43.97339" lon="5.05054">
        <ele>103.19999694824</ele>
        <time>2018-03-13T15:02:28.000Z</time>
      </trkpt>
      <trkpt lat="43.9734" lon="5.05056">
        <ele>103.19999694824</ele>
        <time>2018-03-13T15:02:29.000Z</time>
      </trkpt>
      <trkpt lat="43.97346" lon="5.05057">
        <ele>103.40000152588</ele>
        <time>2018-03-13T15:02:33.000Z</time>
      </trkpt>
      <trkpt lat="43.97346" lon="5.05057">
        <ele>103.40000152588</ele>
        <time>2018-03-13T15:02:44.000Z</time>
      </trkpt>
      <trkpt lat="43.97351" lon="5.05059">
        <ele>103.59999847412</ele>
        <time>2018-03-13T15:02:48.000Z</time>
      </trkpt>
      <trkpt lat="43.97358" lon="5.05067">
        <ele>104.40000152588</ele>
        <time>2018-03-13T15:02:52.000Z</time>
      </trkpt>
      <trkpt lat="43.9736" lon="5.05069">
        <ele>104.59999847412</ele>
        <time>2018-03-13T15:02:53.000Z</time>
      </trkpt>
      <trkpt lat="43.97365" lon="5.05073">
        <ele>105.19999694824</ele>
        <time>2018-03-13T15:02:55.000Z</time>
      </trkpt>
      <trkpt lat="43.97369" lon="5.05075">
        <ele>105.40000152588</ele>
        <time>2018-03-13T15:02:56.000Z</time>
      </trkpt>
      <trkpt lat="43.97374" lon="5.05078">
        <ele>105.80000305176</ele>
        <time>2018-03-13T15:02:58.000Z</time>
      </trkpt>
      <trkpt lat="43.97375" lon="5.05079">
        <ele>106</ele>
        <time>2018-03-13T15:02:59.000Z</time>
      </trkpt>
      <trkpt lat="43.97375" lon="5.05079">
        <ele>106</ele>
        <time>2018-03-13T15:03:00.000Z</time>
      </trkpt>
      <trkpt lat="43.97375" lon="5.05079">
        <ele>106</ele>
        <time>2018-03-13T15:03:10.000Z</time>
      </trkpt>
      <trkpt lat="43.97378" lon="5.05084">
        <ele>106.40000152588</ele>
        <time>2018-03-13T15:03:12.000Z</time>
      </trkpt>
      <trkpt lat="43.97381" lon="5.05086">
        <ele>106.80000305176</ele>
        <time>2018-03-13T15:03:13.000Z</time>
      </trkpt>
      <trkpt lat="43.97389" lon="5.05092">
        <ele>107.40000152588</ele>
        <time>2018-03-13T15:03:15.000Z</time>
      </trkpt>
      <trkpt lat="43.97396" lon="5.05097">
        <ele>108.19999694824</ele>
        <time>2018-03-13T15:03:17.000Z</time>
      </trkpt>
      <trkpt lat="43.97401" lon="5.05099">
        <ele>108.40000152588</ele>
        <time>2018-03-13T15:03:18.000Z</time>
      </trkpt>
      <trkpt lat="43.97405" lon="5.05101">
        <ele>108.80000305176</ele>
        <time>2018-03-13T15:03:19.000Z</time>
      </trkpt>
      <trkpt lat="43.9742" lon="5.05105">
        <ele>109.40000152588</ele>
        <time>2018-03-13T15:03:22.000Z</time>
      </trkpt>
      <trkpt lat="43.97433" lon="5.05116">
        <ele>111</ele>
        <time>2018-03-13T15:03:25.000Z</time>
      </trkpt>
      <trkpt lat="43.97437" lon="5.05119">
        <ele>111.40000152588</ele>
        <time>2018-03-13T15:03:26.000Z</time>
      </trkpt>
      <trkpt lat="43.97441" lon="5.05125">
        <ele>112</ele>
        <time>2018-03-13T15:03:29.000Z</time>
      </trkpt>
      <trkpt lat="43.97441" lon="5.05125">
        <ele>112</ele>
        <time>2018-03-13T15:03:35.000Z</time>
      </trkpt>
      <trkpt lat="43.97444" lon="5.05128">
        <ele>111.80000305176</ele>
        <time>2018-03-13T15:03:37.000Z</time>
      </trkpt>
      <trkpt lat="43.97447" lon="5.05132">
        <ele>111.40000152588</ele>
        <time>2018-03-13T15:03:38.000Z</time>
      </trkpt>
      <trkpt lat="43.97462" lon="5.0515">
        <ele>110</ele>
        <time>2018-03-13T15:03:42.000Z</time>
      </trkpt>
      <trkpt lat="43.97464" lon="5.05168">
        <ele>110.80000305176</ele>
        <time>2018-03-13T15:03:45.000Z</time>
      </trkpt>
      <trkpt lat="43.97464" lon="5.05182">
        <ele>112</ele>
        <time>2018-03-13T15:03:47.000Z</time>
      </trkpt>
      <trkpt lat="43.97464" lon="5.05189">
        <ele>112.40000152588</ele>
        <time>2018-03-13T15:03:48.000Z</time>
      </trkpt>
      <trkpt lat="43.97463" lon="5.05202">
        <ele>113.59999847412</ele>
        <time>2018-03-13T15:03:50.000Z</time>
      </trkpt>
      <trkpt lat="43.97463" lon="5.05218">
        <ele>114.40000152588</ele>
        <time>2018-03-13T15:03:54.000Z</time>
      </trkpt>
      <trkpt lat="43.97463" lon="5.05225">
        <ele>114.40000152588</ele>
        <time>2018-03-13T15:03:59.000Z</time>
      </trkpt>
      <trkpt lat="43.97463" lon="5.05225">
        <ele>114.40000152588</ele>
        <time>2018-03-13T15:04:12.000Z</time>
      </trkpt>
      <trkpt lat="43.97463" lon="5.05225">
        <ele>114.40000152588</ele>
        <time>2018-03-13T15:04:33.000Z</time>
      </trkpt>
      <trkpt lat="43.97464" lon="5.05225">
        <ele>114.40000152588</ele>
        <time>2018-03-13T15:04:56.000Z</time>
      </trkpt>
      <trkpt lat="43.97464" lon="5.05227">
        <ele>114.40000152588</ele>
        <time>2018-03-13T15:05:16.000Z</time>
      </trkpt>
      <trkpt lat="43.97465" lon="5.05233">
        <ele>114.40000152588</ele>
        <time>2018-03-13T15:05:19.000Z</time>
      </trkpt>
      <trkpt lat="43.97464" lon="5.05234">
        <ele>114.40000152588</ele>
        <time>2018-03-13T15:05:20.000Z</time>
      </trkpt>
      <trkpt lat="43.97459" lon="5.05242">
        <ele>114.40000152588</ele>
        <time>2018-03-13T15:05:22.000Z</time>
      </trkpt>
      <trkpt lat="43.97457" lon="5.05246">
        <ele>114.40000152588</ele>
        <time>2018-03-13T15:05:23.000Z</time>
      </trkpt>
      <trkpt lat="43.97453" lon="5.05249">
        <ele>114.40000152588</ele>
        <time>2018-03-13T15:05:24.000Z</time>
      </trkpt>
      <trkpt lat="43.97449" lon="5.05253">
        <ele>114.59999847412</ele>
        <time>2018-03-13T15:05:25.000Z</time>
      </trkpt>
      <trkpt lat="43.97446" lon="5.05256">
        <ele>114.80000305176</ele>
        <time>2018-03-13T15:05:26.000Z</time>
      </trkpt>
      <trkpt lat="43.97441" lon="5.0526">
        <ele>115</ele>
        <time>2018-03-13T15:05:28.000Z</time>
      </trkpt>
      <trkpt lat="43.97441" lon="5.05261">
        <ele>115</ele>
        <time>2018-03-13T15:05:29.000Z</time>
      </trkpt>
      <trkpt lat="43.97441" lon="5.05261">
        <ele>115</ele>
        <time>2018-03-13T15:05:32.000Z</time>
      </trkpt>
      <trkpt lat="43.97439" lon="5.05261">
        <ele>115</ele>
        <time>2018-03-13T15:05:44.000Z</time>
      </trkpt>
      <trkpt lat="43.97438" lon="5.05262">
        <ele>115</ele>
        <time>2018-03-13T15:05:45.000Z</time>
      </trkpt>
      <trkpt lat="43.97437" lon="5.05263">
        <ele>114.80000305176</ele>
        <time>2018-03-13T15:05:46.000Z</time>
      </trkpt>
      <trkpt lat="43.97437" lon="5.05264">
        <ele>114.80000305176</ele>
        <time>2018-03-13T15:05:47.000Z</time>
      </trkpt>
      <trkpt lat="43.97435" lon="5.05264">
        <ele>114.80000305176</ele>
        <time>2018-03-13T15:05:49.000Z</time>
      </trkpt>
      <trkpt lat="43.97433" lon="5.05265">
        <ele>114.80000305176</ele>
        <time>2018-03-13T15:05:50.000Z</time>
      </trkpt>
      <trkpt lat="43.97422" lon="5.05272">
        <ele>114.59999847412</ele>
        <time>2018-03-13T15:05:54.000Z</time>
      </trkpt>
      <trkpt lat="43.97409" lon="5.05282">
        <ele>115</ele>
        <time>2018-03-13T15:05:59.000Z</time>
      </trkpt>
      <trkpt lat="43.97391" lon="5.053">
        <ele>115</ele>
        <time>2018-03-13T15:06:05.000Z</time>
      </trkpt>
      <trkpt lat="43.9738" lon="5.05311">
        <ele>115</ele>
        <time>2018-03-13T15:06:08.000Z</time>
      </trkpt>
      <trkpt lat="43.97372" lon="5.05316">
        <ele>115.19999694824</ele>
        <time>2018-03-13T15:06:10.000Z</time>
      </trkpt>
      <trkpt lat="43.97355" lon="5.05329">
        <ele>115.19999694824</ele>
        <time>2018-03-13T15:06:16.000Z</time>
      </trkpt>
      <trkpt lat="43.97356" lon="5.0533">
        <ele>115</ele>
        <time>2018-03-13T15:06:17.000Z</time>
      </trkpt>
      <trkpt lat="43.97356" lon="5.0533">
        <ele>115</ele>
        <time>2018-03-13T15:06:25.000Z</time>
      </trkpt>
      <trkpt lat="43.97355" lon="5.05332">
        <ele>115</ele>
        <time>2018-03-13T15:06:31.000Z</time>
      </trkpt>
      <trkpt lat="43.97352" lon="5.05338">
        <ele>114.40000152588</ele>
        <time>2018-03-13T15:06:33.000Z</time>
      </trkpt>
      <trkpt lat="43.97344" lon="5.05358">
        <ele>113</ele>
        <time>2018-03-13T15:06:37.000Z</time>
      </trkpt>
      <trkpt lat="43.97337" lon="5.05391">
        <ele>116.19999694824</ele>
        <time>2018-03-13T15:06:43.000Z</time>
      </trkpt>
      <trkpt lat="43.97337" lon="5.05393">
        <ele>116.40000152588</ele>
        <time>2018-03-13T15:06:46.000Z</time>
      </trkpt>
      <trkpt lat="43.9734" lon="5.05397">
        <ele>116.80000305176</ele>
        <time>2018-03-13T15:06:56.000Z</time>
      </trkpt>
      <trkpt lat="43.97356" lon="5.05409">
        <ele>118.19999694824</ele>
        <time>2018-03-13T15:07:00.000Z</time>
      </trkpt>
      <trkpt lat="43.97366" lon="5.05414">
        <ele>117.80000305176</ele>
        <time>2018-03-13T15:07:02.000Z</time>
      </trkpt>
      <trkpt lat="43.97371" lon="5.05417">
        <ele>117.80000305176</ele>
        <time>2018-03-13T15:07:03.000Z</time>
      </trkpt>
      <trkpt lat="43.97382" lon="5.05421">
        <ele>117.19999694824</ele>
        <time>2018-03-13T15:07:05.000Z</time>
      </trkpt>
      <trkpt lat="43.97393" lon="5.05426">
        <ele>116.80000305176</ele>
        <time>2018-03-13T15:07:07.000Z</time>
      </trkpt>
      <trkpt lat="43.97415" lon="5.05432">
        <ele>115</ele>
        <time>2018-03-13T15:07:11.000Z</time>
      </trkpt>
      <trkpt lat="43.97421" lon="5.05432">
        <ele>114.80000305176</ele>
        <time>2018-03-13T15:07:12.000Z</time>
      </trkpt>
      <trkpt lat="43.97463" lon="5.05436">
        <ele>113</ele>
        <time>2018-03-13T15:07:19.000Z</time>
      </trkpt>
      <trkpt lat="43.97474" lon="5.05437">
        <ele>112.59999847412</ele>
        <time>2018-03-13T15:07:21.000Z</time>
      </trkpt>
      <trkpt lat="43.97518" lon="5.0544">
        <ele>111.40000152588</ele>
        <time>2018-03-13T15:07:29.000Z</time>
      </trkpt>
      <trkpt lat="43.97528" lon="5.05442">
        <ele>111.80000305176</ele>
        <time>2018-03-13T15:07:31.000Z</time>
      </trkpt>
      <trkpt lat="43.97536" lon="5.05443">
        <ele>112.40000152588</ele>
        <time>2018-03-13T15:07:33.000Z</time>
      </trkpt>
      <trkpt lat="43.97552" lon="5.05439">
        <ele>113.40000152588</ele>
        <time>2018-03-13T15:07:37.000Z</time>
      </trkpt>
      <trkpt lat="43.97556" lon="5.0544">
        <ele>113.80000305176</ele>
        <time>2018-03-13T15:07:38.000Z</time>
      </trkpt>
      <trkpt lat="43.97568" lon="5.05445">
        <ele>114.80000305176</ele>
        <time>2018-03-13T15:07:41.000Z</time>
      </trkpt>
      <trkpt lat="43.97579" lon="5.05451">
        <ele>115.80000305176</ele>
        <time>2018-03-13T15:07:44.000Z</time>
      </trkpt>
      <trkpt lat="43.97582" lon="5.05454">
        <ele>116</ele>
        <time>2018-03-13T15:07:45.000Z</time>
      </trkpt>
      <trkpt lat="43.97585" lon="5.05459">
        <ele>116.40000152588</ele>
        <time>2018-03-13T15:07:48.000Z</time>
      </trkpt>
      <trkpt lat="43.97585" lon="5.05459">
        <ele>116.40000152588</ele>
        <time>2018-03-13T15:07:49.000Z</time>
      </trkpt>
      <trkpt lat="43.97583" lon="5.05462">
        <ele>116.40000152588</ele>
        <time>2018-03-13T15:07:56.000Z</time>
      </trkpt>
      <trkpt lat="43.97582" lon="5.05465">
        <ele>116.80000305176</ele>
        <time>2018-03-13T15:07:57.000Z</time>
      </trkpt>
      <trkpt lat="43.97579" lon="5.05473">
        <ele>117.59999847412</ele>
        <time>2018-03-13T15:07:59.000Z</time>
      </trkpt>
      <trkpt lat="43.97577" lon="5.05483">
        <ele>118.59999847412</ele>
        <time>2018-03-13T15:08:01.000Z</time>
      </trkpt>
      <trkpt lat="43.97576" lon="5.05488">
        <ele>119.19999694824</ele>
        <time>2018-03-13T15:08:02.000Z</time>
      </trkpt>
      <trkpt lat="43.97573" lon="5.05508">
        <ele>121.19999694824</ele>
        <time>2018-03-13T15:08:06.000Z</time>
      </trkpt>
      <trkpt lat="43.97572" lon="5.05512">
        <ele>121.59999847412</ele>
        <time>2018-03-13T15:08:07.000Z</time>
      </trkpt>
      <trkpt lat="43.9757" lon="5.05526">
        <ele>122.80000305176</ele>
        <time>2018-03-13T15:08:10.000Z</time>
      </trkpt>
      <trkpt lat="43.97567" lon="5.05545">
        <ele>124.19999694824</ele>
        <time>2018-03-13T15:08:14.000Z</time>
      </trkpt>
      <trkpt lat="43.97561" lon="5.05562">
        <ele>125.59999847412</ele>
        <time>2018-03-13T15:08:18.000Z</time>
      </trkpt>
      <trkpt lat="43.97559" lon="5.05571">
        <ele>126.40000152588</ele>
        <time>2018-03-13T15:08:20.000Z</time>
      </trkpt>
      <trkpt lat="43.97555" lon="5.05579">
        <ele>126.40000152588</ele>
        <time>2018-03-13T15:08:22.000Z</time>
      </trkpt>
      <trkpt lat="43.97553" lon="5.05581">
        <ele>126.19999694824</ele>
        <time>2018-03-13T15:08:24.000Z</time>
      </trkpt>
      <trkpt lat="43.97553" lon="5.0558">
        <ele>126.19999694824</ele>
        <time>2018-03-13T15:08:30.000Z</time>
      </trkpt>
      <trkpt lat="43.97553" lon="5.05582">
        <ele>126.19999694824</ele>
        <time>2018-03-13T15:08:41.000Z</time>
      </trkpt>
      <trkpt lat="43.97552" lon="5.05586">
        <ele>126.19999694824</ele>
        <time>2018-03-13T15:08:42.000Z</time>
      </trkpt>
      <trkpt lat="43.97546" lon="5.05597">
        <ele>125.59999847412</ele>
        <time>2018-03-13T15:08:45.000Z</time>
      </trkpt>
      <trkpt lat="43.97539" lon="5.05608">
        <ele>124.59999847412</ele>
        <time>2018-03-13T15:08:49.000Z</time>
      </trkpt>
      <trkpt lat="43.97538" lon="5.05608">
        <ele>124.59999847412</ele>
        <time>2018-03-13T15:08:50.000Z</time>
      </trkpt>
      <trkpt lat="43.97537" lon="5.05609">
        <ele>124.40000152588</ele>
        <time>2018-03-13T15:08:51.000Z</time>
      </trkpt>
      <trkpt lat="43.97536" lon="5.05609">
        <ele>124.40000152588</ele>
        <time>2018-03-13T15:08:55.000Z</time>
      </trkpt>
      <trkpt lat="43.97535" lon="5.05614">
        <ele>124.19999694824</ele>
        <time>2018-03-13T15:09:07.000Z</time>
      </trkpt>
      <trkpt lat="43.97531" lon="5.05622">
        <ele>123.80000305176</ele>
        <time>2018-03-13T15:09:09.000Z</time>
      </trkpt>
      <trkpt lat="43.97525" lon="5.0563">
        <ele>123.19999694824</ele>
        <time>2018-03-13T15:09:11.000Z</time>
      </trkpt>
      <trkpt lat="43.97521" lon="5.05649">
        <ele>124.59999847412</ele>
        <time>2018-03-13T15:09:15.000Z</time>
      </trkpt>
      <trkpt lat="43.97517" lon="5.05656">
        <ele>125.40000152588</ele>
        <time>2018-03-13T15:09:19.000Z</time>
      </trkpt>
      <trkpt lat="43.97518" lon="5.05656">
        <ele>125.40000152588</ele>
        <time>2018-03-13T15:09:31.000Z</time>
      </trkpt>
      <trkpt lat="43.97518" lon="5.05657">
        <ele>125.40000152588</ele>
        <time>2018-03-13T15:09:35.000Z</time>
      </trkpt>
      <trkpt lat="43.97516" lon="5.05658">
        <ele>125.59999847412</ele>
        <time>2018-03-13T15:09:36.000Z</time>
      </trkpt>
      <trkpt lat="43.97513" lon="5.05659">
        <ele>126</ele>
        <time>2018-03-13T15:09:37.000Z</time>
      </trkpt>
      <trkpt lat="43.97508" lon="5.05661">
        <ele>126.80000305176</ele>
        <time>2018-03-13T15:09:38.000Z</time>
      </trkpt>
      <trkpt lat="43.97502" lon="5.05663">
        <ele>127.80000305176</ele>
        <time>2018-03-13T15:09:39.000Z</time>
      </trkpt>
      <trkpt lat="43.97497" lon="5.05666">
        <ele>128.60000610352</ele>
        <time>2018-03-13T15:09:40.000Z</time>
      </trkpt>
      <trkpt lat="43.97485" lon="5.05669">
        <ele>130.19999694824</ele>
        <time>2018-03-13T15:09:42.000Z</time>
      </trkpt>
      <trkpt lat="43.9748" lon="5.05671">
        <ele>131</ele>
        <time>2018-03-13T15:09:43.000Z</time>
      </trkpt>
      <trkpt lat="43.9747" lon="5.05674">
        <ele>132.19999694824</ele>
        <time>2018-03-13T15:09:45.000Z</time>
      </trkpt>
      <trkpt lat="43.97459" lon="5.05682">
        <ele>134</ele>
        <time>2018-03-13T15:09:48.000Z</time>
      </trkpt>
      <trkpt lat="43.97446" lon="5.05688">
        <ele>135.60000610352</ele>
        <time>2018-03-13T15:09:52.000Z</time>
      </trkpt>
      <trkpt lat="43.97443" lon="5.05691">
        <ele>136.19999694824</ele>
        <time>2018-03-13T15:09:56.000Z</time>
      </trkpt>
      <trkpt lat="43.97444" lon="5.05691">
        <ele>136</ele>
        <time>2018-03-13T15:10:03.000Z</time>
      </trkpt>
      <trkpt lat="43.97446" lon="5.05696">
        <ele>136</ele>
        <time>2018-03-13T15:10:05.000Z</time>
      </trkpt>
      <trkpt lat="43.97444" lon="5.05714">
        <ele>136.80000305176</ele>
        <time>2018-03-13T15:10:09.000Z</time>
      </trkpt>
      <trkpt lat="43.97442" lon="5.05731">
        <ele>136.80000305176</ele>
        <time>2018-03-13T15:10:12.000Z</time>
      </trkpt>
      <trkpt lat="43.9744" lon="5.05736">
        <ele>137</ele>
        <time>2018-03-13T15:10:13.000Z</time>
      </trkpt>
      <trkpt lat="43.97437" lon="5.05745">
        <ele>137.80000305176</ele>
        <time>2018-03-13T15:10:15.000Z</time>
      </trkpt>
      <trkpt lat="43.97437" lon="5.0575">
        <ele>138</ele>
        <time>2018-03-13T15:10:16.000Z</time>
      </trkpt>
      <trkpt lat="43.97434" lon="5.05759">
        <ele>139</ele>
        <time>2018-03-13T15:10:18.000Z</time>
      </trkpt>
      <trkpt lat="43.97429" lon="5.05768">
        <ele>140.19999694824</ele>
        <time>2018-03-13T15:10:20.000Z</time>
      </trkpt>
      <trkpt lat="43.97425" lon="5.05775">
        <ele>141.60000610352</ele>
        <time>2018-03-13T15:10:22.000Z</time>
      </trkpt>
      <trkpt lat="43.97423" lon="5.05782">
        <ele>142</ele>
        <time>2018-03-13T15:10:24.000Z</time>
      </trkpt>
      <trkpt lat="43.97423" lon="5.05786">
        <ele>142</ele>
        <time>2018-03-13T15:10:25.000Z</time>
      </trkpt>
      <trkpt lat="43.97422" lon="5.0579">
        <ele>142.19999694824</ele>
        <time>2018-03-13T15:10:26.000Z</time>
      </trkpt>
      <trkpt lat="43.97423" lon="5.05793">
        <ele>141.60000610352</ele>
        <time>2018-03-13T15:10:27.000Z</time>
      </trkpt>
      <trkpt lat="43.97423" lon="5.05792">
        <ele>141.80000305176</ele>
        <time>2018-03-13T15:10:28.000Z</time>
      </trkpt>
      <trkpt lat="43.97424" lon="5.05797">
        <ele>141.39999389648</ele>
        <time>2018-03-13T15:10:36.000Z</time>
      </trkpt>
      <trkpt lat="43.97425" lon="5.05811">
        <ele>141.39999389648</ele>
        <time>2018-03-13T15:10:39.000Z</time>
      </trkpt>
      <trkpt lat="43.97425" lon="5.0582">
        <ele>141.80000305176</ele>
        <time>2018-03-13T15:10:41.000Z</time>
      </trkpt>
      <trkpt lat="43.97425" lon="5.05825">
        <ele>142</ele>
        <time>2018-03-13T15:10:42.000Z</time>
      </trkpt>
      <trkpt lat="43.97424" lon="5.05844">
        <ele>142.60000610352</ele>
        <time>2018-03-13T15:10:46.000Z</time>
      </trkpt>
      <trkpt lat="43.97424" lon="5.05864">
        <ele>142.80000305176</ele>
        <time>2018-03-13T15:10:50.000Z</time>
      </trkpt>
      <trkpt lat="43.97426" lon="5.05878">
        <ele>141.80000305176</ele>
        <time>2018-03-13T15:10:53.000Z</time>
      </trkpt>
      <trkpt lat="43.97427" lon="5.05882">
        <ele>141.80000305176</ele>
        <time>2018-03-13T15:10:54.000Z</time>
      </trkpt>
      <trkpt lat="43.97431" lon="5.05895">
        <ele>141.60000610352</ele>
        <time>2018-03-13T15:10:57.000Z</time>
      </trkpt>
      <trkpt lat="43.97433" lon="5.05903">
        <ele>141.60000610352</ele>
        <time>2018-03-13T15:10:59.000Z</time>
      </trkpt>
      <trkpt lat="43.97435" lon="5.05911">
        <ele>141.60000610352</ele>
        <time>2018-03-13T15:11:01.000Z</time>
      </trkpt>
      <trkpt lat="43.97436" lon="5.0592">
        <ele>141.80000305176</ele>
        <time>2018-03-13T15:11:03.000Z</time>
      </trkpt>
      <trkpt lat="43.97439" lon="5.05928">
        <ele>141.60000610352</ele>
        <time>2018-03-13T15:11:05.000Z</time>
      </trkpt>
      <trkpt lat="43.97442" lon="5.05935">
        <ele>141.60000610352</ele>
        <time>2018-03-13T15:11:07.000Z</time>
      </trkpt>
      <trkpt lat="43.97447" lon="5.05946">
        <ele>142</ele>
        <time>2018-03-13T15:11:10.000Z</time>
      </trkpt>
      <trkpt lat="43.97448" lon="5.0595">
        <ele>142.19999694824</ele>
        <time>2018-03-13T15:11:11.000Z</time>
      </trkpt>
      <trkpt lat="43.97451" lon="5.05961">
        <ele>142.80000305176</ele>
        <time>2018-03-13T15:11:14.000Z</time>
      </trkpt>
      <trkpt lat="43.97454" lon="5.05968">
        <ele>143.19999694824</ele>
        <time>2018-03-13T15:11:16.000Z</time>
      </trkpt>
      <trkpt lat="43.97455" lon="5.05975">
        <ele>143.60000610352</ele>
        <time>2018-03-13T15:11:18.000Z</time>
      </trkpt>
      <trkpt lat="43.97459" lon="5.05984">
        <ele>144</ele>
        <time>2018-03-13T15:11:21.000Z</time>
      </trkpt>
      <trkpt lat="43.97461" lon="5.05987">
        <ele>144.19999694824</ele>
        <time>2018-03-13T15:11:22.000Z</time>
      </trkpt>
      <trkpt lat="43.97462" lon="5.0599">
        <ele>144.19999694824</ele>
        <time>2018-03-13T15:11:23.000Z</time>
      </trkpt>
      <trkpt lat="43.97463" lon="5.05994">
        <ele>144.39999389648</ele>
        <time>2018-03-13T15:11:26.000Z</time>
      </trkpt>
      <trkpt lat="43.97463" lon="5.05995">
        <ele>144.39999389648</ele>
        <time>2018-03-13T15:11:27.000Z</time>
      </trkpt>
      <trkpt lat="43.97465" lon="5.05998">
        <ele>144.60000610352</ele>
        <time>2018-03-13T15:11:36.000Z</time>
      </trkpt>
      <trkpt lat="43.97466" lon="5.06">
        <ele>144.60000610352</ele>
        <time>2018-03-13T15:11:37.000Z</time>
      </trkpt>
      <trkpt lat="43.97471" lon="5.0601">
        <ele>145</ele>
        <time>2018-03-13T15:11:40.000Z</time>
      </trkpt>
      <trkpt lat="43.97473" lon="5.06016">
        <ele>145.39999389648</ele>
        <time>2018-03-13T15:11:42.000Z</time>
      </trkpt>
      <trkpt lat="43.97475" lon="5.06023">
        <ele>145.60000610352</ele>
        <time>2018-03-13T15:11:44.000Z</time>
      </trkpt>
      <trkpt lat="43.9748" lon="5.0604">
        <ele>146.39999389648</ele>
        <time>2018-03-13T15:11:48.000Z</time>
      </trkpt>
      <trkpt lat="43.97483" lon="5.06053">
        <ele>147</ele>
        <time>2018-03-13T15:11:51.000Z</time>
      </trkpt>
      <trkpt lat="43.97487" lon="5.06065">
        <ele>147.80000305176</ele>
        <time>2018-03-13T15:11:54.000Z</time>
      </trkpt>
      <trkpt lat="43.97488" lon="5.0607">
        <ele>148</ele>
        <time>2018-03-13T15:11:55.000Z</time>
      </trkpt>
      <trkpt lat="43.97493" lon="5.06086">
        <ele>149</ele>
        <time>2018-03-13T15:11:59.000Z</time>
      </trkpt>
      <trkpt lat="43.97498" lon="5.06093">
        <ele>149.39999389648</ele>
        <time>2018-03-13T15:12:02.000Z</time>
      </trkpt>
      <trkpt lat="43.975" lon="5.06092">
        <ele>149.19999694824</ele>
        <time>2018-03-13T15:12:03.000Z</time>
      </trkpt>
      <trkpt lat="43.97503" lon="5.06091">
        <ele>149.19999694824</ele>
        <time>2018-03-13T15:12:06.000Z</time>
      </trkpt>
      <trkpt lat="43.97503" lon="5.0609">
        <ele>149</ele>
        <time>2018-03-13T15:12:12.000Z</time>
      </trkpt>
      <trkpt lat="43.97503" lon="5.06088">
        <ele>149</ele>
        <time>2018-03-13T15:12:13.000Z</time>
      </trkpt>
      <trkpt lat="43.97506" lon="5.06083">
        <ele>148.60000610352</ele>
        <time>2018-03-13T15:12:15.000Z</time>
      </trkpt>
      <trkpt lat="43.97513" lon="5.06064">
        <ele>147.39999389648</ele>
        <time>2018-03-13T15:12:19.000Z</time>
      </trkpt>
      <trkpt lat="43.97515" lon="5.0606">
        <ele>147.19999694824</ele>
        <time>2018-03-13T15:12:20.000Z</time>
      </trkpt>
      <trkpt lat="43.97526" lon="5.06042">
        <ele>146</ele>
        <time>2018-03-13T15:12:24.000Z</time>
      </trkpt>
      <trkpt lat="43.97529" lon="5.06032">
        <ele>145.60000610352</ele>
        <time>2018-03-13T15:12:26.000Z</time>
      </trkpt>
      <trkpt lat="43.97541" lon="5.06002">
        <ele>144.60000610352</ele>
        <time>2018-03-13T15:12:32.000Z</time>
      </trkpt>
      <trkpt lat="43.97562" lon="5.05973">
        <ele>146</ele>
        <time>2018-03-13T15:12:39.000Z</time>
      </trkpt>
      <trkpt lat="43.97578" lon="5.05946">
        <ele>148.19999694824</ele>
        <time>2018-03-13T15:12:46.000Z</time>
      </trkpt>
      <trkpt lat="43.9759" lon="5.05921">
        <ele>149.80000305176</ele>
        <time>2018-03-13T15:12:52.000Z</time>
      </trkpt>
      <trkpt lat="43.97593" lon="5.05913">
        <ele>150.19999694824</ele>
        <time>2018-03-13T15:12:56.000Z</time>
      </trkpt>
      <trkpt lat="43.97593" lon="5.0591">
        <ele>150.39999389648</ele>
        <time>2018-03-13T15:13:02.000Z</time>
      </trkpt>
      <trkpt lat="43.97595" lon="5.05893">
        <ele>150.60000610352</ele>
        <time>2018-03-13T15:13:06.000Z</time>
      </trkpt>
      <trkpt lat="43.97598" lon="5.0586">
        <ele>150.39999389648</ele>
        <time>2018-03-13T15:13:12.000Z</time>
      </trkpt>
      <trkpt lat="43.97607" lon="5.05837">
        <ele>151.80000305176</ele>
        <time>2018-03-13T15:13:17.000Z</time>
      </trkpt>
      <trkpt lat="43.9761" lon="5.05828">
        <ele>152.19999694824</ele>
        <time>2018-03-13T15:13:20.000Z</time>
      </trkpt>
      <trkpt lat="43.9761" lon="5.05828">
        <ele>152.19999694824</ele>
        <time>2018-03-13T15:13:22.000Z</time>
      </trkpt>
      <trkpt lat="43.97609" lon="5.05825">
        <ele>152</ele>
        <time>2018-03-13T15:13:26.000Z</time>
      </trkpt>
      <trkpt lat="43.97609" lon="5.05818">
        <ele>151.80000305176</ele>
        <time>2018-03-13T15:13:28.000Z</time>
      </trkpt>
      <trkpt lat="43.97611" lon="5.05803">
        <ele>151.80000305176</ele>
        <time>2018-03-13T15:13:31.000Z</time>
      </trkpt>
      <trkpt lat="43.97615" lon="5.05801">
        <ele>152.60000610352</ele>
        <time>2018-03-13T15:13:32.000Z</time>
      </trkpt>
      <trkpt lat="43.97624" lon="5.05803">
        <ele>154.19999694824</ele>
        <time>2018-03-13T15:13:35.000Z</time>
      </trkpt>
      <trkpt lat="43.9763" lon="5.05807">
        <ele>155.19999694824</ele>
        <time>2018-03-13T15:13:37.000Z</time>
      </trkpt>
      <trkpt lat="43.97637" lon="5.05812">
        <ele>156.60000610352</ele>
        <time>2018-03-13T15:13:40.000Z</time>
      </trkpt>
      <trkpt lat="43.9764" lon="5.05813">
        <ele>157.19999694824</ele>
        <time>2018-03-13T15:13:41.000Z</time>
      </trkpt>
      <trkpt lat="43.97642" lon="5.05814">
        <ele>157.60000610352</ele>
        <time>2018-03-13T15:13:42.000Z</time>
      </trkpt>
      <trkpt lat="43.97645" lon="5.05815">
        <ele>158.19999694824</ele>
        <time>2018-03-13T15:13:44.000Z</time>
      </trkpt>
      <trkpt lat="43.97648" lon="5.05818">
        <ele>158.80000305176</ele>
        <time>2018-03-13T15:13:46.000Z</time>
      </trkpt>
      <trkpt lat="43.97648" lon="5.05818">
        <ele>158.80000305176</ele>
        <time>2018-03-13T15:13:47.000Z</time>
      </trkpt>
      <trkpt lat="43.97648" lon="5.05818">
        <ele>158.80000305176</ele>
        <time>2018-03-13T15:13:53.000Z</time>
      </trkpt>
      <trkpt lat="43.97648" lon="5.05819">
        <ele>158.80000305176</ele>
        <time>2018-03-13T15:14:01.000Z</time>
      </trkpt>
      <trkpt lat="43.9765" lon="5.05821">
        <ele>159.19999694824</ele>
        <time>2018-03-13T15:14:03.000Z</time>
      </trkpt>
      <trkpt lat="43.97654" lon="5.05828">
        <ele>160.19999694824</ele>
        <time>2018-03-13T15:14:05.000Z</time>
      </trkpt>
      <trkpt lat="43.97658" lon="5.05839">
        <ele>161.60000610352</ele>
        <time>2018-03-13T15:14:08.000Z</time>
      </trkpt>
      <trkpt lat="43.97661" lon="5.05844">
        <ele>162.19999694824</ele>
        <time>2018-03-13T15:14:10.000Z</time>
      </trkpt>
      <trkpt lat="43.97662" lon="5.05847">
        <ele>162.60000610352</ele>
        <time>2018-03-13T15:14:11.000Z</time>
      </trkpt>
      <trkpt lat="43.97667" lon="5.05858">
        <ele>164</ele>
        <time>2018-03-13T15:14:14.000Z</time>
      </trkpt>
      <trkpt lat="43.97669" lon="5.05859">
        <ele>164.39999389648</ele>
        <time>2018-03-13T15:14:15.000Z</time>
      </trkpt>
      <trkpt lat="43.97674" lon="5.05862">
        <ele>165.19999694824</ele>
        <time>2018-03-13T15:14:17.000Z</time>
      </trkpt>
      <trkpt lat="43.97679" lon="5.05865">
        <ele>166.39999389648</ele>
        <time>2018-03-13T15:14:20.000Z</time>
      </trkpt>
      <trkpt lat="43.97685" lon="5.05868">
        <ele>167.60000610352</ele>
        <time>2018-03-13T15:14:23.000Z</time>
      </trkpt>
      <trkpt lat="43.97691" lon="5.05871">
        <ele>168.60000610352</ele>
        <time>2018-03-13T15:14:26.000Z</time>
      </trkpt>
      <trkpt lat="43.97696" lon="5.05871">
        <ele>169.39999389648</ele>
        <time>2018-03-13T15:14:32.000Z</time>
      </trkpt>
      <trkpt lat="43.97699" lon="5.0587">
        <ele>169.80000305176</ele>
        <time>2018-03-13T15:14:37.000Z</time>
      </trkpt>
      <trkpt lat="43.97702" lon="5.05868">
        <ele>170</ele>
        <time>2018-03-13T15:14:38.000Z</time>
      </trkpt>
      <trkpt lat="43.97714" lon="5.05865">
        <ele>171.60000610352</ele>
        <time>2018-03-13T15:14:42.000Z</time>
      </trkpt>
      <trkpt lat="43.97718" lon="5.05863">
        <ele>172.19999694824</ele>
        <time>2018-03-13T15:14:43.000Z</time>
      </trkpt>
      <trkpt lat="43.97727" lon="5.0586">
        <ele>173.19999694824</ele>
        <time>2018-03-13T15:14:45.000Z</time>
      </trkpt>
      <trkpt lat="43.97741" lon="5.0585">
        <ele>174.60000610352</ele>
        <time>2018-03-13T15:14:48.000Z</time>
      </trkpt>
      <trkpt lat="43.97745" lon="5.05848">
        <ele>175</ele>
        <time>2018-03-13T15:14:49.000Z</time>
      </trkpt>
      <trkpt lat="43.97751" lon="5.05841">
        <ele>175.19999694824</ele>
        <time>2018-03-13T15:14:51.000Z</time>
      </trkpt>
      <trkpt lat="43.97757" lon="5.05834">
        <ele>175.39999389648</ele>
        <time>2018-03-13T15:14:53.000Z</time>
      </trkpt>
      <trkpt lat="43.97763" lon="5.05829">
        <ele>175.60000610352</ele>
        <time>2018-03-13T15:14:56.000Z</time>
      </trkpt>
      <trkpt lat="43.97777" lon="5.05814">
        <ele>176.19999694824</ele>
        <time>2018-03-13T15:15:02.000Z</time>
      </trkpt>
      <trkpt lat="43.9778" lon="5.05815">
        <ele>176.60000610352</ele>
        <time>2018-03-13T15:15:03.000Z</time>
      </trkpt>
      <trkpt lat="43.97782" lon="5.05814">
        <ele>177</ele>
        <time>2018-03-13T15:15:06.000Z</time>
      </trkpt>
      <trkpt lat="43.97782" lon="5.05814">
        <ele>177</ele>
        <time>2018-03-13T15:15:15.000Z</time>
      </trkpt>
      <trkpt lat="43.97783" lon="5.05815">
        <ele>177.19999694824</ele>
        <time>2018-03-13T15:15:18.000Z</time>
      </trkpt>
      <trkpt lat="43.97783" lon="5.05816">
        <ele>177.39999389648</ele>
        <time>2018-03-13T15:15:19.000Z</time>
      </trkpt>
      <trkpt lat="43.97785" lon="5.0582">
        <ele>177.80000305176</ele>
        <time>2018-03-13T15:15:21.000Z</time>
      </trkpt>
      <trkpt lat="43.97785" lon="5.05821">
        <ele>178</ele>
        <time>2018-03-13T15:15:22.000Z</time>
      </trkpt>
      <trkpt lat="43.97784" lon="5.05831">
        <ele>178.60000610352</ele>
        <time>2018-03-13T15:15:25.000Z</time>
      </trkpt>
      <trkpt lat="43.97782" lon="5.05835">
        <ele>178.80000305176</ele>
        <time>2018-03-13T15:15:26.000Z</time>
      </trkpt>
      <trkpt lat="43.97778" lon="5.0584">
        <ele>178.39999389648</ele>
        <time>2018-03-13T15:15:28.000Z</time>
      </trkpt>
      <trkpt lat="43.97776" lon="5.05845">
        <ele>178.60000610352</ele>
        <time>2018-03-13T15:15:30.000Z</time>
      </trkpt>
      <trkpt lat="43.97776" lon="5.05851">
        <ele>179.19999694824</ele>
        <time>2018-03-13T15:15:33.000Z</time>
      </trkpt>
      <trkpt lat="43.97777" lon="5.05851">
        <ele>179.19999694824</ele>
        <time>2018-03-13T15:15:35.000Z</time>
      </trkpt>
      <trkpt lat="43.97777" lon="5.05856">
        <ele>179.60000610352</ele>
        <time>2018-03-13T15:15:44.000Z</time>
      </trkpt>
      <trkpt lat="43.97775" lon="5.05859">
        <ele>179.60000610352</ele>
        <time>2018-03-13T15:15:45.000Z</time>
      </trkpt>
      <trkpt lat="43.97776" lon="5.05866">
        <ele>180.19999694824</ele>
        <time>2018-03-13T15:15:47.000Z</time>
      </trkpt>
      <trkpt lat="43.97775" lon="5.0587">
        <ele>180.60000610352</ele>
        <time>2018-03-13T15:15:48.000Z</time>
      </trkpt>
      <trkpt lat="43.97777" lon="5.05878">
        <ele>181.39999389648</ele>
        <time>2018-03-13T15:15:50.000Z</time>
      </trkpt>
      <trkpt lat="43.97776" lon="5.05885">
        <ele>181.19999694824</ele>
        <time>2018-03-13T15:15:52.000Z</time>
      </trkpt>
      <trkpt lat="43.97776" lon="5.0589">
        <ele>181</ele>
        <time>2018-03-13T15:15:54.000Z</time>
      </trkpt>
      <trkpt lat="43.97778" lon="5.05892">
        <ele>181.19999694824</ele>
        <time>2018-03-13T15:15:55.000Z</time>
      </trkpt>
      <trkpt lat="43.9778" lon="5.05892">
        <ele>181.60000610352</ele>
        <time>2018-03-13T15:15:56.000Z</time>
      </trkpt>
      <trkpt lat="43.97789" lon="5.05895">
        <ele>182.80000305176</ele>
        <time>2018-03-13T15:15:59.000Z</time>
      </trkpt>
      <trkpt lat="43.97792" lon="5.05893">
        <ele>183.19999694824</ele>
        <time>2018-03-13T15:16:00.000Z</time>
      </trkpt>
      <trkpt lat="43.97794" lon="5.05893">
        <ele>183.60000610352</ele>
        <time>2018-03-13T15:16:01.000Z</time>
      </trkpt>
      <trkpt lat="43.97803" lon="5.05889">
        <ele>185</ele>
        <time>2018-03-13T15:16:04.000Z</time>
      </trkpt>
      <trkpt lat="43.97805" lon="5.05889">
        <ele>185.39999389648</ele>
        <time>2018-03-13T15:16:05.000Z</time>
      </trkpt>
      <trkpt lat="43.97807" lon="5.05888">
        <ele>185.60000610352</ele>
        <time>2018-03-13T15:16:06.000Z</time>
      </trkpt>
      <trkpt lat="43.97807" lon="5.05887">
        <ele>185.80000305176</ele>
        <time>2018-03-13T15:16:07.000Z</time>
      </trkpt>
      <trkpt lat="43.97808" lon="5.05887">
        <ele>186</ele>
        <time>2018-03-13T15:16:08.000Z</time>
      </trkpt>
      <trkpt lat="43.97808" lon="5.05887">
        <ele>186</ele>
        <time>2018-03-13T15:16:13.000Z</time>
      </trkpt>
      <trkpt lat="43.97812" lon="5.05883">
        <ele>186.80000305176</ele>
        <time>2018-03-13T15:16:18.000Z</time>
      </trkpt>
      <trkpt lat="43.97817" lon="5.05882">
        <ele>187.39999389648</ele>
        <time>2018-03-13T15:16:20.000Z</time>
      </trkpt>
      <trkpt lat="43.97821" lon="5.05878">
        <ele>188.19999694824</ele>
        <time>2018-03-13T15:16:22.000Z</time>
      </trkpt>
      <trkpt lat="43.97826" lon="5.05867">
        <ele>188.19999694824</ele>
        <time>2018-03-13T15:16:25.000Z</time>
      </trkpt>
      <trkpt lat="43.97827" lon="5.05863">
        <ele>188</ele>
        <time>2018-03-13T15:16:26.000Z</time>
      </trkpt>
      <trkpt lat="43.97828" lon="5.05829">
        <ele>185.39999389648</ele>
        <time>2018-03-13T15:16:32.000Z</time>
      </trkpt>
      <trkpt lat="43.97826" lon="5.05824">
        <ele>184.60000610352</ele>
        <time>2018-03-13T15:16:33.000Z</time>
      </trkpt>
      <trkpt lat="43.97823" lon="5.05804">
        <ele>182.39999389648</ele>
        <time>2018-03-13T15:16:36.000Z</time>
      </trkpt>
      <trkpt lat="43.97819" lon="5.05792">
        <ele>180.80000305176</ele>
        <time>2018-03-13T15:16:39.000Z</time>
      </trkpt>
      <trkpt lat="43.97819" lon="5.05788">
        <ele>180.39999389648</ele>
        <time>2018-03-13T15:16:40.000Z</time>
      </trkpt>
      <trkpt lat="43.97818" lon="5.05783">
        <ele>180</ele>
        <time>2018-03-13T15:16:43.000Z</time>
      </trkpt>
      <trkpt lat="43.97818" lon="5.05778">
        <ele>179.39999389648</ele>
        <time>2018-03-13T15:16:54.000Z</time>
      </trkpt>
      <trkpt lat="43.97816" lon="5.05769">
        <ele>178.39999389648</ele>
        <time>2018-03-13T15:16:56.000Z</time>
      </trkpt>
      <trkpt lat="43.97817" lon="5.05759">
        <ele>177.60000610352</ele>
        <time>2018-03-13T15:16:58.000Z</time>
      </trkpt>
      <trkpt lat="43.97819" lon="5.05753">
        <ele>177.39999389648</ele>
        <time>2018-03-13T15:16:59.000Z</time>
      </trkpt>
      <trkpt lat="43.97825" lon="5.05747">
        <ele>178</ele>
        <time>2018-03-13T15:17:02.000Z</time>
      </trkpt>
      <trkpt lat="43.97833" lon="5.05736">
        <ele>178.39999389648</ele>
        <time>2018-03-13T15:17:06.000Z</time>
      </trkpt>
      <trkpt lat="43.97835" lon="5.05733">
        <ele>178.39999389648</ele>
        <time>2018-03-13T15:17:07.000Z</time>
      </trkpt>
      <trkpt lat="43.97837" lon="5.05731">
        <ele>178.39999389648</ele>
        <time>2018-03-13T15:17:10.000Z</time>
      </trkpt>
      <trkpt lat="43.97839" lon="5.05729">
        <ele>178.60000610352</ele>
        <time>2018-03-13T15:17:18.000Z</time>
      </trkpt>
      <trkpt lat="43.9784" lon="5.0573">
        <ele>178.80000305176</ele>
        <time>2018-03-13T15:17:19.000Z</time>
      </trkpt>
      <trkpt lat="43.97841" lon="5.05732">
        <ele>179.19999694824</ele>
        <time>2018-03-13T15:17:20.000Z</time>
      </trkpt>
      <trkpt lat="43.97845" lon="5.05732">
        <ele>179.80000305176</ele>
        <time>2018-03-13T15:17:23.000Z</time>
      </trkpt>
      <trkpt lat="43.97855" lon="5.05737">
        <ele>181.80000305176</ele>
        <time>2018-03-13T15:17:27.000Z</time>
      </trkpt>
      <trkpt lat="43.97866" lon="5.05742">
        <ele>183.19999694824</ele>
        <time>2018-03-13T15:17:31.000Z</time>
      </trkpt>
      <trkpt lat="43.9787" lon="5.05744">
        <ele>183.39999389648</ele>
        <time>2018-03-13T15:17:32.000Z</time>
      </trkpt>
      <trkpt lat="43.97878" lon="5.05748">
        <ele>184.19999694824</ele>
        <time>2018-03-13T15:17:36.000Z</time>
      </trkpt>
      <trkpt lat="43.97879" lon="5.05749">
        <ele>184.19999694824</ele>
        <time>2018-03-13T15:17:37.000Z</time>
      </trkpt>
      <trkpt lat="43.97879" lon="5.05749">
        <ele>184.19999694824</ele>
        <time>2018-03-13T15:17:42.000Z</time>
      </trkpt>
      <trkpt lat="43.97879" lon="5.05753">
        <ele>184.60000610352</ele>
        <time>2018-03-13T15:17:47.000Z</time>
      </trkpt>
      <trkpt lat="43.97879" lon="5.05759">
        <ele>185.19999694824</ele>
        <time>2018-03-13T15:17:49.000Z</time>
      </trkpt>
      <trkpt lat="43.9788" lon="5.05761">
        <ele>185.39999389648</ele>
        <time>2018-03-13T15:17:50.000Z</time>
      </trkpt>
      <trkpt lat="43.97886" lon="5.05766">
        <ele>186</ele>
        <time>2018-03-13T15:17:53.000Z</time>
      </trkpt>
      <trkpt lat="43.97888" lon="5.05767">
        <ele>186.19999694824</ele>
        <time>2018-03-13T15:17:54.000Z</time>
      </trkpt>
      <trkpt lat="43.97895" lon="5.0577">
        <ele>186.80000305176</ele>
        <time>2018-03-13T15:17:56.000Z</time>
      </trkpt>
      <trkpt lat="43.97901" lon="5.05773">
        <ele>187.39999389648</ele>
        <time>2018-03-13T15:17:58.000Z</time>
      </trkpt>
      <trkpt lat="43.97905" lon="5.05775">
        <ele>187.80000305176</ele>
        <time>2018-03-13T15:17:59.000Z</time>
      </trkpt>
      <trkpt lat="43.9792" lon="5.05781">
        <ele>189</ele>
        <time>2018-03-13T15:18:03.000Z</time>
      </trkpt>
      <trkpt lat="43.9794" lon="5.05789">
        <ele>190.60000610352</ele>
        <time>2018-03-13T15:18:08.000Z</time>
      </trkpt>
      <trkpt lat="43.97944" lon="5.05792">
        <ele>190.80000305176</ele>
        <time>2018-03-13T15:18:09.000Z</time>
      </trkpt>
      <trkpt lat="43.97961" lon="5.05796">
        <ele>189.19999694824</ele>
        <time>2018-03-13T15:18:13.000Z</time>
      </trkpt>
      <trkpt lat="43.97969" lon="5.058">
        <ele>188.19999694824</ele>
        <time>2018-03-13T15:18:15.000Z</time>
      </trkpt>
      <trkpt lat="43.97972" lon="5.05801">
        <ele>187.80000305176</ele>
        <time>2018-03-13T15:18:16.000Z</time>
      </trkpt>
      <trkpt lat="43.97979" lon="5.05804">
        <ele>187</ele>
        <time>2018-03-13T15:18:18.000Z</time>
      </trkpt>
      <trkpt lat="43.97984" lon="5.05804">
        <ele>186.60000610352</ele>
        <time>2018-03-13T15:18:19.000Z</time>
      </trkpt>
      <trkpt lat="43.97996" lon="5.05803">
        <ele>185.80000305176</ele>
        <time>2018-03-13T15:18:22.000Z</time>
      </trkpt>
      <trkpt lat="43.98001" lon="5.05798">
        <ele>186</ele>
        <time>2018-03-13T15:18:23.000Z</time>
      </trkpt>
      <trkpt lat="43.98005" lon="5.05787">
        <ele>185.80000305176</ele>
        <time>2018-03-13T15:18:25.000Z</time>
      </trkpt>
      <trkpt lat="43.98007" lon="5.05774">
        <ele>184.39999389648</ele>
        <time>2018-03-13T15:18:27.000Z</time>
      </trkpt>
      <trkpt lat="43.98011" lon="5.05752">
        <ele>183.19999694824</ele>
        <time>2018-03-13T15:18:30.000Z</time>
      </trkpt>
      <trkpt lat="43.98021" lon="5.05746">
        <ele>182.80000305176</ele>
        <time>2018-03-13T15:18:33.000Z</time>
      </trkpt>
      <trkpt lat="43.98026" lon="5.05744">
        <ele>182.19999694824</ele>
        <time>2018-03-13T15:18:34.000Z</time>
      </trkpt>
      <trkpt lat="43.98031" lon="5.05744">
        <ele>181</ele>
        <time>2018-03-13T15:18:35.000Z</time>
      </trkpt>
      <trkpt lat="43.98042" lon="5.05739">
        <ele>178.19999694824</ele>
        <time>2018-03-13T15:18:37.000Z</time>
      </trkpt>
      <trkpt lat="43.98063" lon="5.05742">
        <ele>173.80000305176</ele>
        <time>2018-03-13T15:18:41.000Z</time>
      </trkpt>
      <trkpt lat="43.98069" lon="5.05741">
        <ele>172.60000610352</ele>
        <time>2018-03-13T15:18:43.000Z</time>
      </trkpt>
      <trkpt lat="43.9807" lon="5.05741">
        <ele>172.60000610352</ele>
        <time>2018-03-13T15:18:44.000Z</time>
      </trkpt>
      <trkpt lat="43.9807" lon="5.05741">
        <ele>172.60000610352</ele>
        <time>2018-03-13T15:18:46.000Z</time>
      </trkpt>
      <trkpt lat="43.9807" lon="5.05741">
        <ele>172.60000610352</ele>
        <time>2018-03-13T15:18:49.000Z</time>
      </trkpt>
      <trkpt lat="43.98072" lon="5.05741">
        <ele>172</ele>
        <time>2018-03-13T15:18:58.000Z</time>
      </trkpt>
      <trkpt lat="43.98074" lon="5.05742">
        <ele>171.80000305176</ele>
        <time>2018-03-13T15:18:59.000Z</time>
      </trkpt>
      <trkpt lat="43.98077" lon="5.05745">
        <ele>171.19999694824</ele>
        <time>2018-03-13T15:19:01.000Z</time>
      </trkpt>
      <trkpt lat="43.98078" lon="5.05746">
        <ele>171</ele>
        <time>2018-03-13T15:19:02.000Z</time>
      </trkpt>
      <trkpt lat="43.9808" lon="5.05748">
        <ele>170.60000610352</ele>
        <time>2018-03-13T15:19:03.000Z</time>
      </trkpt>
      <trkpt lat="43.98084" lon="5.05755">
        <ele>169.80000305176</ele>
        <time>2018-03-13T15:19:05.000Z</time>
      </trkpt>
      <trkpt lat="43.98084" lon="5.05759">
        <ele>169.60000610352</ele>
        <time>2018-03-13T15:19:06.000Z</time>
      </trkpt>
      <trkpt lat="43.98084" lon="5.05762">
        <ele>169.60000610352</ele>
        <time>2018-03-13T15:19:07.000Z</time>
      </trkpt>
      <trkpt lat="43.98083" lon="5.05766">
        <ele>169.80000305176</ele>
        <time>2018-03-13T15:19:08.000Z</time>
      </trkpt>
      <trkpt lat="43.98085" lon="5.0577">
        <ele>169.60000610352</ele>
        <time>2018-03-13T15:19:09.000Z</time>
      </trkpt>
      <trkpt lat="43.98086" lon="5.05772">
        <ele>169.39999389648</ele>
        <time>2018-03-13T15:19:10.000Z</time>
      </trkpt>
      <trkpt lat="43.98089" lon="5.05777">
        <ele>168.80000305176</ele>
        <time>2018-03-13T15:19:12.000Z</time>
      </trkpt>
      <trkpt lat="43.98093" lon="5.0578">
        <ele>168</ele>
        <time>2018-03-13T15:19:13.000Z</time>
      </trkpt>
      <trkpt lat="43.98097" lon="5.05781">
        <ele>167.19999694824</ele>
        <time>2018-03-13T15:19:14.000Z</time>
      </trkpt>
      <trkpt lat="43.98102" lon="5.05783">
        <ele>166.19999694824</ele>
        <time>2018-03-13T15:19:15.000Z</time>
      </trkpt>
      <trkpt lat="43.98106" lon="5.05784">
        <ele>165.39999389648</ele>
        <time>2018-03-13T15:19:16.000Z</time>
      </trkpt>
      <trkpt lat="43.98108" lon="5.05783">
        <ele>165</ele>
        <time>2018-03-13T15:19:17.000Z</time>
      </trkpt>
      <trkpt lat="43.9811" lon="5.05784">
        <ele>164.60000610352</ele>
        <time>2018-03-13T15:19:18.000Z</time>
      </trkpt>
      <trkpt lat="43.9811" lon="5.05784">
        <ele>164.39999389648</ele>
        <time>2018-03-13T15:19:19.000Z</time>
      </trkpt>
      <trkpt lat="43.9811" lon="5.05784">
        <ele>164.39999389648</ele>
        <time>2018-03-13T15:19:22.000Z</time>
      </trkpt>
      <trkpt lat="43.9811" lon="5.05784">
        <ele>164.39999389648</ele>
        <time>2018-03-13T15:19:42.000Z</time>
      </trkpt>
      <trkpt lat="43.98114" lon="5.0578">
        <ele>163</ele>
        <time>2018-03-13T15:19:44.000Z</time>
      </trkpt>
      <trkpt lat="43.98117" lon="5.05778">
        <ele>161.80000305176</ele>
        <time>2018-03-13T15:19:45.000Z</time>
      </trkpt>
      <trkpt lat="43.98121" lon="5.05775">
        <ele>160.39999389648</ele>
        <time>2018-03-13T15:19:46.000Z</time>
      </trkpt>
      <trkpt lat="43.98125" lon="5.0577">
        <ele>159</ele>
        <time>2018-03-13T15:19:47.000Z</time>
      </trkpt>
      <trkpt lat="43.98129" lon="5.05765">
        <ele>157.19999694824</ele>
        <time>2018-03-13T15:19:48.000Z</time>
      </trkpt>
      <trkpt lat="43.98133" lon="5.05758">
        <ele>155.80000305176</ele>
        <time>2018-03-13T15:19:49.000Z</time>
      </trkpt>
      <trkpt lat="43.98138" lon="5.05754">
        <ele>154</ele>
        <time>2018-03-13T15:19:50.000Z</time>
      </trkpt>
      <trkpt lat="43.98143" lon="5.05746">
        <ele>152.19999694824</ele>
        <time>2018-03-13T15:19:51.000Z</time>
      </trkpt>
      <trkpt lat="43.98145" lon="5.05739">
        <ele>151.60000610352</ele>
        <time>2018-03-13T15:19:52.000Z</time>
      </trkpt>
      <trkpt lat="43.98148" lon="5.05731">
        <ele>150.80000305176</ele>
        <time>2018-03-13T15:19:53.000Z</time>
      </trkpt>
      <trkpt lat="43.98153" lon="5.05722">
        <ele>149.60000610352</ele>
        <time>2018-03-13T15:19:54.000Z</time>
      </trkpt>
      <trkpt lat="43.98158" lon="5.05714">
        <ele>147.60000610352</ele>
        <time>2018-03-13T15:19:55.000Z</time>
      </trkpt>
      <trkpt lat="43.98162" lon="5.05706">
        <ele>146.39999389648</ele>
        <time>2018-03-13T15:19:56.000Z</time>
      </trkpt>
      <trkpt lat="43.98163" lon="5.05698">
        <ele>145</ele>
        <time>2018-03-13T15:19:57.000Z</time>
      </trkpt>
      <trkpt lat="43.98164" lon="5.05681">
        <ele>142.60000610352</ele>
        <time>2018-03-13T15:19:59.000Z</time>
      </trkpt>
      <trkpt lat="43.98167" lon="5.05674">
        <ele>142.80000305176</ele>
        <time>2018-03-13T15:20:00.000Z</time>
      </trkpt>
      <trkpt lat="43.9817" lon="5.05668">
        <ele>142.60000610352</ele>
        <time>2018-03-13T15:20:01.000Z</time>
      </trkpt>
      <trkpt lat="43.98174" lon="5.05663">
        <ele>142.19999694824</ele>
        <time>2018-03-13T15:20:02.000Z</time>
      </trkpt>
      <trkpt lat="43.98179" lon="5.05662">
        <ele>141.60000610352</ele>
        <time>2018-03-13T15:20:03.000Z</time>
      </trkpt>
      <trkpt lat="43.98184" lon="5.05664">
        <ele>140.60000610352</ele>
        <time>2018-03-13T15:20:04.000Z</time>
      </trkpt>
      <trkpt lat="43.98196" lon="5.05665">
        <ele>138.80000305176</ele>
        <time>2018-03-13T15:20:07.000Z</time>
      </trkpt>
      <trkpt lat="43.98203" lon="5.0567">
        <ele>137.60000610352</ele>
        <time>2018-03-13T15:20:10.000Z</time>
      </trkpt>
      <trkpt lat="43.98206" lon="5.05673">
        <ele>137</ele>
        <time>2018-03-13T15:20:11.000Z</time>
      </trkpt>
      <trkpt lat="43.98214" lon="5.05679">
        <ele>135.80000305176</ele>
        <time>2018-03-13T15:20:13.000Z</time>
      </trkpt>
      <trkpt lat="43.98217" lon="5.05682">
        <ele>135.19999694824</ele>
        <time>2018-03-13T15:20:14.000Z</time>
      </trkpt>
      <trkpt lat="43.9822" lon="5.05685">
        <ele>134.60000610352</ele>
        <time>2018-03-13T15:20:15.000Z</time>
      </trkpt>
      <trkpt lat="43.98222" lon="5.05688">
        <ele>134.19999694824</ele>
        <time>2018-03-13T15:20:18.000Z</time>
      </trkpt>
      <trkpt lat="43.98223" lon="5.05688">
        <ele>134.19999694824</ele>
        <time>2018-03-13T15:20:27.000Z</time>
      </trkpt>
      <trkpt lat="43.98232" lon="5.05699">
        <ele>132.39999389648</ele>
        <time>2018-03-13T15:20:31.000Z</time>
      </trkpt>
      <trkpt lat="43.98249" lon="5.0571">
        <ele>129.80000305176</ele>
        <time>2018-03-13T15:20:36.000Z</time>
      </trkpt>
      <trkpt lat="43.98257" lon="5.05716">
        <ele>128</ele>
        <time>2018-03-13T15:20:39.000Z</time>
      </trkpt>
      <trkpt lat="43.98261" lon="5.0572">
        <ele>127</ele>
        <time>2018-03-13T15:20:40.000Z</time>
      </trkpt>
      <trkpt lat="43.98272" lon="5.05734">
        <ele>123.80000305176</ele>
        <time>2018-03-13T15:20:43.000Z</time>
      </trkpt>
      <trkpt lat="43.98285" lon="5.0575">
        <ele>121.19999694824</ele>
        <time>2018-03-13T15:20:46.000Z</time>
      </trkpt>
      <trkpt lat="43.98292" lon="5.05765">
        <ele>119.19999694824</ele>
        <time>2018-03-13T15:20:49.000Z</time>
      </trkpt>
      <trkpt lat="43.98298" lon="5.05777">
        <ele>117.59999847412</ele>
        <time>2018-03-13T15:20:51.000Z</time>
      </trkpt>
      <trkpt lat="43.98303" lon="5.05781">
        <ele>117</ele>
        <time>2018-03-13T15:20:52.000Z</time>
      </trkpt>
      <trkpt lat="43.98307" lon="5.05786">
        <ele>116.40000152588</ele>
        <time>2018-03-13T15:20:53.000Z</time>
      </trkpt>
      <trkpt lat="43.98317" lon="5.05794">
        <ele>115.19999694824</ele>
        <time>2018-03-13T15:20:55.000Z</time>
      </trkpt>
      <trkpt lat="43.98327" lon="5.05803">
        <ele>113.80000305176</ele>
        <time>2018-03-13T15:20:57.000Z</time>
      </trkpt>
      <trkpt lat="43.98332" lon="5.05807">
        <ele>113</ele>
        <time>2018-03-13T15:20:58.000Z</time>
      </trkpt>
      <trkpt lat="43.98341" lon="5.05812">
        <ele>112.40000152588</ele>
        <time>2018-03-13T15:21:00.000Z</time>
      </trkpt>
      <trkpt lat="43.9835" lon="5.05813">
        <ele>112.40000152588</ele>
        <time>2018-03-13T15:21:02.000Z</time>
      </trkpt>
      <trkpt lat="43.98355" lon="5.0581">
        <ele>112.80000305176</ele>
        <time>2018-03-13T15:21:03.000Z</time>
      </trkpt>
      <trkpt lat="43.9836" lon="5.05808">
        <ele>113</ele>
        <time>2018-03-13T15:21:04.000Z</time>
      </trkpt>
      <trkpt lat="43.98364" lon="5.05804">
        <ele>113.40000152588</ele>
        <time>2018-03-13T15:21:05.000Z</time>
      </trkpt>
      <trkpt lat="43.98372" lon="5.05799">
        <ele>113</ele>
        <time>2018-03-13T15:21:07.000Z</time>
      </trkpt>
      <trkpt lat="43.98379" lon="5.05793">
        <ele>112</ele>
        <time>2018-03-13T15:21:09.000Z</time>
      </trkpt>
      <trkpt lat="43.98387" lon="5.0579">
        <ele>111.19999694824</ele>
        <time>2018-03-13T15:21:11.000Z</time>
      </trkpt>
      <trkpt lat="43.98391" lon="5.05788">
        <ele>110.59999847412</ele>
        <time>2018-03-13T15:21:12.000Z</time>
      </trkpt>
      <trkpt lat="43.984" lon="5.05785">
        <ele>109.59999847412</ele>
        <time>2018-03-13T15:21:14.000Z</time>
      </trkpt>
      <trkpt lat="43.98412" lon="5.05777">
        <ele>109</ele>
        <time>2018-03-13T15:21:17.000Z</time>
      </trkpt>
      <trkpt lat="43.98417" lon="5.05773">
        <ele>108.80000305176</ele>
        <time>2018-03-13T15:21:18.000Z</time>
      </trkpt>
      <trkpt lat="43.98422" lon="5.0577">
        <ele>108.59999847412</ele>
        <time>2018-03-13T15:21:19.000Z</time>
      </trkpt>
      <trkpt lat="43.98427" lon="5.05766">
        <ele>108.19999694824</ele>
        <time>2018-03-13T15:21:20.000Z</time>
      </trkpt>
      <trkpt lat="43.98432" lon="5.05763">
        <ele>108</ele>
        <time>2018-03-13T15:21:21.000Z</time>
      </trkpt>
      <trkpt lat="43.98436" lon="5.0576">
        <ele>108</ele>
        <time>2018-03-13T15:21:22.000Z</time>
      </trkpt>
      <trkpt lat="43.98441" lon="5.05756">
        <ele>107.59999847412</ele>
        <time>2018-03-13T15:21:23.000Z</time>
      </trkpt>
      <trkpt lat="43.98445" lon="5.05752">
        <ele>107.80000305176</ele>
        <time>2018-03-13T15:21:24.000Z</time>
      </trkpt>
      <trkpt lat="43.9845" lon="5.05751">
        <ele>107.80000305176</ele>
        <time>2018-03-13T15:21:25.000Z</time>
      </trkpt>
      <trkpt lat="43.98452" lon="5.0575">
        <ele>107.80000305176</ele>
        <time>2018-03-13T15:21:26.000Z</time>
      </trkpt>
      <trkpt lat="43.98453" lon="5.05749">
        <ele>108</ele>
        <time>2018-03-13T15:21:27.000Z</time>
      </trkpt>
      <trkpt lat="43.98453" lon="5.05749">
        <ele>108</ele>
        <time>2018-03-13T15:21:30.000Z</time>
      </trkpt>
      <trkpt lat="43.98456" lon="5.05746">
        <ele>108.19999694824</ele>
        <time>2018-03-13T15:21:37.000Z</time>
      </trkpt>
      <trkpt lat="43.98461" lon="5.05742">
        <ele>108.40000152588</ele>
        <time>2018-03-13T15:21:38.000Z</time>
      </trkpt>
      <trkpt lat="43.98468" lon="5.05735">
        <ele>109</ele>
        <time>2018-03-13T15:21:40.000Z</time>
      </trkpt>
      <trkpt lat="43.98471" lon="5.05732">
        <ele>108.59999847412</ele>
        <time>2018-03-13T15:21:41.000Z</time>
      </trkpt>
      <trkpt lat="43.98473" lon="5.05733">
        <ele>108.19999694824</ele>
        <time>2018-03-13T15:21:42.000Z</time>
      </trkpt>
      <trkpt lat="43.98474" lon="5.05734">
        <ele>107.80000305176</ele>
        <time>2018-03-13T15:21:43.000Z</time>
      </trkpt>
      <trkpt lat="43.98472" lon="5.05739">
        <ele>107.80000305176</ele>
        <time>2018-03-13T15:21:45.000Z</time>
      </trkpt>
      <trkpt lat="43.98469" lon="5.05746">
        <ele>107</ele>
        <time>2018-03-13T15:21:47.000Z</time>
      </trkpt>
      <trkpt lat="43.98461" lon="5.05759">
        <ele>105</ele>
        <time>2018-03-13T15:21:50.000Z</time>
      </trkpt>
      <trkpt lat="43.98458" lon="5.05764">
        <ele>104.40000152588</ele>
        <time>2018-03-13T15:21:51.000Z</time>
      </trkpt>
      <trkpt lat="43.98452" lon="5.05774">
        <ele>102.80000305176</ele>
        <time>2018-03-13T15:21:53.000Z</time>
      </trkpt>
      <trkpt lat="43.98444" lon="5.05784">
        <ele>101.59999847412</ele>
        <time>2018-03-13T15:21:55.000Z</time>
      </trkpt>
      <trkpt lat="43.98434" lon="5.05798">
        <ele>101</ele>
        <time>2018-03-13T15:21:58.000Z</time>
      </trkpt>
      <trkpt lat="43.98426" lon="5.05808">
        <ele>101.80000305176</ele>
        <time>2018-03-13T15:22:00.000Z</time>
      </trkpt>
      <trkpt lat="43.98419" lon="5.05817">
        <ele>102.59999847412</ele>
        <time>2018-03-13T15:22:02.000Z</time>
      </trkpt>
      <trkpt lat="43.98415" lon="5.05821">
        <ele>103</ele>
        <time>2018-03-13T15:22:03.000Z</time>
      </trkpt>
      <trkpt lat="43.98406" lon="5.0583">
        <ele>104.19999694824</ele>
        <time>2018-03-13T15:22:05.000Z</time>
      </trkpt>
      <trkpt lat="43.98399" lon="5.05838">
        <ele>104.40000152588</ele>
        <time>2018-03-13T15:22:07.000Z</time>
      </trkpt>
      <trkpt lat="43.98395" lon="5.05842">
        <ele>104</ele>
        <time>2018-03-13T15:22:08.000Z</time>
      </trkpt>
      <trkpt lat="43.98392" lon="5.05846">
        <ele>103.59999847412</ele>
        <time>2018-03-13T15:22:09.000Z</time>
      </trkpt>
      <trkpt lat="43.9838" lon="5.05858">
        <ele>102.40000152588</ele>
        <time>2018-03-13T15:22:12.000Z</time>
      </trkpt>
      <trkpt lat="43.98367" lon="5.0587">
        <ele>101.40000152588</ele>
        <time>2018-03-13T15:22:15.000Z</time>
      </trkpt>
      <trkpt lat="43.98348" lon="5.05881">
        <ele>101.80000305176</ele>
        <time>2018-03-13T15:22:19.000Z</time>
      </trkpt>
      <trkpt lat="43.98344" lon="5.05885">
        <ele>102</ele>
        <time>2018-03-13T15:22:20.000Z</time>
      </trkpt>
      <trkpt lat="43.98334" lon="5.05894">
        <ele>102.40000152588</ele>
        <time>2018-03-13T15:22:22.000Z</time>
      </trkpt>
      <trkpt lat="43.98325" lon="5.05906">
        <ele>102.80000305176</ele>
        <time>2018-03-13T15:22:26.000Z</time>
      </trkpt>
      <trkpt lat="43.98325" lon="5.05906">
        <ele>102.80000305176</ele>
        <time>2018-03-13T15:22:37.000Z</time>
      </trkpt>
      <trkpt lat="43.98325" lon="5.05906">
        <ele>102.80000305176</ele>
        <time>2018-03-13T15:22:50.000Z</time>
      </trkpt>
      <trkpt lat="43.9832" lon="5.05914">
        <ele>102.80000305176</ele>
        <time>2018-03-13T15:22:59.000Z</time>
      </trkpt>
      <trkpt lat="43.98315" lon="5.05922">
        <ele>103.19999694824</ele>
        <time>2018-03-13T15:23:01.000Z</time>
      </trkpt>
      <trkpt lat="43.98304" lon="5.05935">
        <ele>104.40000152588</ele>
        <time>2018-03-13T15:23:04.000Z</time>
      </trkpt>
      <trkpt lat="43.98291" lon="5.05954">
        <ele>105.80000305176</ele>
        <time>2018-03-13T15:23:08.000Z</time>
      </trkpt>
      <trkpt lat="43.98288" lon="5.05959">
        <ele>106.19999694824</ele>
        <time>2018-03-13T15:23:09.000Z</time>
      </trkpt>
      <trkpt lat="43.9828" lon="5.05974">
        <ele>107</ele>
        <time>2018-03-13T15:23:13.000Z</time>
      </trkpt>
      <trkpt lat="43.98279" lon="5.05975">
        <ele>107</ele>
        <time>2018-03-13T15:23:18.000Z</time>
      </trkpt>
      <trkpt lat="43.98279" lon="5.05977">
        <ele>106.80000305176</ele>
        <time>2018-03-13T15:23:28.000Z</time>
      </trkpt>
      <trkpt lat="43.98278" lon="5.0598">
        <ele>106.80000305176</ele>
        <time>2018-03-13T15:23:29.000Z</time>
      </trkpt>
      <trkpt lat="43.98278" lon="5.05984">
        <ele>106.59999847412</ele>
        <time>2018-03-13T15:23:30.000Z</time>
      </trkpt>
      <trkpt lat="43.9828" lon="5.05996">
        <ele>105.80000305176</ele>
        <time>2018-03-13T15:23:32.000Z</time>
      </trkpt>
      <trkpt lat="43.98283" lon="5.06002">
        <ele>105.40000152588</ele>
        <time>2018-03-13T15:23:33.000Z</time>
      </trkpt>
      <trkpt lat="43.9829" lon="5.06022">
        <ele>103.80000305176</ele>
        <time>2018-03-13T15:23:36.000Z</time>
      </trkpt>
      <trkpt lat="43.98291" lon="5.06033">
        <ele>103.40000152588</ele>
        <time>2018-03-13T15:23:39.000Z</time>
      </trkpt>
      <trkpt lat="43.98291" lon="5.06033">
        <ele>103.40000152588</ele>
        <time>2018-03-13T15:23:52.000Z</time>
      </trkpt>
      <trkpt lat="43.9829" lon="5.06034">
        <ele>103.40000152588</ele>
        <time>2018-03-13T15:23:57.000Z</time>
      </trkpt>
      <trkpt lat="43.98288" lon="5.06038">
        <ele>103.19999694824</ele>
        <time>2018-03-13T15:23:59.000Z</time>
      </trkpt>
      <trkpt lat="43.98286" lon="5.0604">
        <ele>103.19999694824</ele>
        <time>2018-03-13T15:24:00.000Z</time>
      </trkpt>
      <trkpt lat="43.98279" lon="5.06053">
        <ele>103.59999847412</ele>
        <time>2018-03-13T15:24:03.000Z</time>
      </trkpt>
      <trkpt lat="43.98273" lon="5.06064">
        <ele>103.80000305176</ele>
        <time>2018-03-13T15:24:05.000Z</time>
      </trkpt>
      <trkpt lat="43.98263" lon="5.06085">
        <ele>104.80000305176</ele>
        <time>2018-03-13T15:24:09.000Z</time>
      </trkpt>
      <trkpt lat="43.98258" lon="5.06095">
        <ele>105.19999694824</ele>
        <time>2018-03-13T15:24:11.000Z</time>
      </trkpt>
      <trkpt lat="43.98253" lon="5.0611">
        <ele>105</ele>
        <time>2018-03-13T15:24:14.000Z</time>
      </trkpt>
      <trkpt lat="43.98242" lon="5.06127">
        <ele>103.59999847412</ele>
        <time>2018-03-13T15:24:18.000Z</time>
      </trkpt>
      <trkpt lat="43.9823" lon="5.06138">
        <ele>104</ele>
        <time>2018-03-13T15:24:22.000Z</time>
      </trkpt>
      <trkpt lat="43.9822" lon="5.0615">
        <ele>104.40000152588</ele>
        <time>2018-03-13T15:24:25.000Z</time>
      </trkpt>
      <trkpt lat="43.98217" lon="5.06155">
        <ele>104.19999694824</ele>
        <time>2018-03-13T15:24:26.000Z</time>
      </trkpt>
      <trkpt lat="43.98212" lon="5.0616">
        <ele>104</ele>
        <time>2018-03-13T15:24:27.000Z</time>
      </trkpt>
      <trkpt lat="43.98205" lon="5.06168">
        <ele>103.40000152588</ele>
        <time>2018-03-13T15:24:29.000Z</time>
      </trkpt>
      <trkpt lat="43.98202" lon="5.06173">
        <ele>103.19999694824</ele>
        <time>2018-03-13T15:24:30.000Z</time>
      </trkpt>
      <trkpt lat="43.98199" lon="5.06178">
        <ele>102.80000305176</ele>
        <time>2018-03-13T15:24:31.000Z</time>
      </trkpt>
      <trkpt lat="43.98195" lon="5.06182">
        <ele>102.59999847412</ele>
        <time>2018-03-13T15:24:32.000Z</time>
      </trkpt>
      <trkpt lat="43.98191" lon="5.06186">
        <ele>102.40000152588</ele>
        <time>2018-03-13T15:24:33.000Z</time>
      </trkpt>
      <trkpt lat="43.98179" lon="5.06195">
        <ele>103.40000152588</ele>
        <time>2018-03-13T15:24:36.000Z</time>
      </trkpt>
      <trkpt lat="43.98175" lon="5.06199">
        <ele>103.40000152588</ele>
        <time>2018-03-13T15:24:37.000Z</time>
      </trkpt>
      <trkpt lat="43.9817" lon="5.06209">
        <ele>102.59999847412</ele>
        <time>2018-03-13T15:24:40.000Z</time>
      </trkpt>
      <trkpt lat="43.9817" lon="5.06209">
        <ele>102.59999847412</ele>
        <time>2018-03-13T15:24:46.000Z</time>
      </trkpt>
      <trkpt lat="43.9817" lon="5.0621">
        <ele>102.59999847412</ele>
        <time>2018-03-13T15:25:00.000Z</time>
      </trkpt>
      <trkpt lat="43.98169" lon="5.0621">
        <ele>102.59999847412</ele>
        <time>2018-03-13T15:25:02.000Z</time>
      </trkpt>
      <trkpt lat="43.98165" lon="5.06213">
        <ele>103</ele>
        <time>2018-03-13T15:25:04.000Z</time>
      </trkpt>
      <trkpt lat="43.98159" lon="5.06225">
        <ele>103.59999847412</ele>
        <time>2018-03-13T15:25:08.000Z</time>
      </trkpt>
      <trkpt lat="43.98157" lon="5.06231">
        <ele>104</ele>
        <time>2018-03-13T15:25:09.000Z</time>
      </trkpt>
      <trkpt lat="43.98149" lon="5.06243">
        <ele>104.80000305176</ele>
        <time>2018-03-13T15:25:11.000Z</time>
      </trkpt>
      <trkpt lat="43.9814" lon="5.06249">
        <ele>105.19999694824</ele>
        <time>2018-03-13T15:25:13.000Z</time>
      </trkpt>
      <trkpt lat="43.98136" lon="5.06251">
        <ele>105</ele>
        <time>2018-03-13T15:25:14.000Z</time>
      </trkpt>
      <trkpt lat="43.98132" lon="5.06254">
        <ele>104.80000305176</ele>
        <time>2018-03-13T15:25:15.000Z</time>
      </trkpt>
      <trkpt lat="43.98129" lon="5.06258">
        <ele>104.59999847412</ele>
        <time>2018-03-13T15:25:16.000Z</time>
      </trkpt>
      <trkpt lat="43.98123" lon="5.06266">
        <ele>104.19999694824</ele>
        <time>2018-03-13T15:25:18.000Z</time>
      </trkpt>
      <trkpt lat="43.9812" lon="5.0627">
        <ele>104</ele>
        <time>2018-03-13T15:25:19.000Z</time>
      </trkpt>
      <trkpt lat="43.98115" lon="5.06274">
        <ele>104</ele>
        <time>2018-03-13T15:25:20.000Z</time>
      </trkpt>
      <trkpt lat="43.98107" lon="5.06282">
        <ele>103.59999847412</ele>
        <time>2018-03-13T15:25:22.000Z</time>
      </trkpt>
      <trkpt lat="43.981" lon="5.06291">
        <ele>103.59999847412</ele>
        <time>2018-03-13T15:25:24.000Z</time>
      </trkpt>
      <trkpt lat="43.98097" lon="5.06296">
        <ele>103.40000152588</ele>
        <time>2018-03-13T15:25:25.000Z</time>
      </trkpt>
      <trkpt lat="43.98089" lon="5.06317">
        <ele>103.59999847412</ele>
        <time>2018-03-13T15:25:28.000Z</time>
      </trkpt>
      <trkpt lat="43.98078" lon="5.06336">
        <ele>104</ele>
        <time>2018-03-13T15:25:31.000Z</time>
      </trkpt>
      <trkpt lat="43.98074" lon="5.06342">
        <ele>104</ele>
        <time>2018-03-13T15:25:32.000Z</time>
      </trkpt>
      <trkpt lat="43.98062" lon="5.0636">
        <ele>103.40000152588</ele>
        <time>2018-03-13T15:25:36.000Z</time>
      </trkpt>
      <trkpt lat="43.98062" lon="5.06361">
        <ele>103.19999694824</ele>
        <time>2018-03-13T15:25:37.000Z</time>
      </trkpt>
      <trkpt lat="43.98062" lon="5.06361">
        <ele>103.19999694824</ele>
        <time>2018-03-13T15:25:54.000Z</time>
      </trkpt>
      <trkpt lat="43.98062" lon="5.06361">
        <ele>103.19999694824</ele>
        <time>2018-03-13T15:26:10.000Z</time>
      </trkpt>
      <trkpt lat="43.98061" lon="5.06362">
        <ele>103.19999694824</ele>
        <time>2018-03-13T15:26:30.000Z</time>
      </trkpt>
      <trkpt lat="43.98059" lon="5.06364">
        <ele>103.19999694824</ele>
        <time>2018-03-13T15:26:31.000Z</time>
      </trkpt>
      <trkpt lat="43.98055" lon="5.06369">
        <ele>103</ele>
        <time>2018-03-13T15:26:33.000Z</time>
      </trkpt>
      <trkpt lat="43.98049" lon="5.06376">
        <ele>102.80000305176</ele>
        <time>2018-03-13T15:26:35.000Z</time>
      </trkpt>
      <trkpt lat="43.98046" lon="5.0638">
        <ele>102.80000305176</ele>
        <time>2018-03-13T15:26:36.000Z</time>
      </trkpt>
      <trkpt lat="43.98029" lon="5.06404">
        <ele>103.19999694824</ele>
        <time>2018-03-13T15:26:41.000Z</time>
      </trkpt>
      <trkpt lat="43.97997" lon="5.06446">
        <ele>104.80000305176</ele>
        <time>2018-03-13T15:26:49.000Z</time>
      </trkpt>
      <trkpt lat="43.97982" lon="5.06467">
        <ele>104.59999847412</ele>
        <time>2018-03-13T15:26:53.000Z</time>
      </trkpt>
      <trkpt lat="43.97969" lon="5.06482">
        <ele>104.59999847412</ele>
        <time>2018-03-13T15:26:56.000Z</time>
      </trkpt>
      <trkpt lat="43.97957" lon="5.06498">
        <ele>104.80000305176</ele>
        <time>2018-03-13T15:26:59.000Z</time>
      </trkpt>
      <trkpt lat="43.97945" lon="5.06513">
        <ele>105</ele>
        <time>2018-03-13T15:27:02.000Z</time>
      </trkpt>
      <trkpt lat="43.97933" lon="5.06528">
        <ele>105.80000305176</ele>
        <time>2018-03-13T15:27:05.000Z</time>
      </trkpt>
      <trkpt lat="43.97924" lon="5.06538">
        <ele>106.80000305176</ele>
        <time>2018-03-13T15:27:07.000Z</time>
      </trkpt>
      <trkpt lat="43.97916" lon="5.06548">
        <ele>108.19999694824</ele>
        <time>2018-03-13T15:27:09.000Z</time>
      </trkpt>
      <trkpt lat="43.97896" lon="5.06573">
        <ele>112</ele>
        <time>2018-03-13T15:27:14.000Z</time>
      </trkpt>
      <trkpt lat="43.97884" lon="5.06588">
        <ele>113.40000152588</ele>
        <time>2018-03-13T15:27:17.000Z</time>
      </trkpt>
      <trkpt lat="43.9788" lon="5.06592">
        <ele>113.80000305176</ele>
        <time>2018-03-13T15:27:18.000Z</time>
      </trkpt>
      <trkpt lat="43.9787" lon="5.06605">
        <ele>114.80000305176</ele>
        <time>2018-03-13T15:27:21.000Z</time>
      </trkpt>
      <trkpt lat="43.97867" lon="5.06609">
        <ele>115</ele>
        <time>2018-03-13T15:27:22.000Z</time>
      </trkpt>
      <trkpt lat="43.97866" lon="5.06612">
        <ele>115.19999694824</ele>
        <time>2018-03-13T15:27:23.000Z</time>
      </trkpt>
      <trkpt lat="43.97864" lon="5.06616">
        <ele>115.40000152588</ele>
        <time>2018-03-13T15:27:26.000Z</time>
      </trkpt>
      <trkpt lat="43.97864" lon="5.06616">
        <ele>115.40000152588</ele>
        <time>2018-03-13T15:27:39.000Z</time>
      </trkpt>
      <trkpt lat="43.97864" lon="5.06618">
        <ele>115.40000152588</ele>
        <time>2018-03-13T15:27:44.000Z</time>
      </trkpt>
      <trkpt lat="43.97864" lon="5.06621">
        <ele>115.40000152588</ele>
        <time>2018-03-13T15:27:45.000Z</time>
      </trkpt>
      <trkpt lat="43.97864" lon="5.06631">
        <ele>115.40000152588</ele>
        <time>2018-03-13T15:27:47.000Z</time>
      </trkpt>
      <trkpt lat="43.97865" lon="5.06647">
        <ele>114</ele>
        <time>2018-03-13T15:27:50.000Z</time>
      </trkpt>
      <trkpt lat="43.97865" lon="5.06651">
        <ele>113.80000305176</ele>
        <time>2018-03-13T15:27:51.000Z</time>
      </trkpt>
      <trkpt lat="43.97863" lon="5.06654">
        <ele>113.59999847412</ele>
        <time>2018-03-13T15:27:52.000Z</time>
      </trkpt>
      <trkpt lat="43.97862" lon="5.06653">
        <ele>113.59999847412</ele>
        <time>2018-03-13T15:27:53.000Z</time>
      </trkpt>
      <trkpt lat="43.97861" lon="5.0665">
        <ele>114</ele>
        <time>2018-03-13T15:27:57.000Z</time>
      </trkpt>
      <trkpt lat="43.97861" lon="5.0665">
        <ele>114</ele>
        <time>2018-03-13T15:28:16.000Z</time>
      </trkpt>
      <trkpt lat="43.97861" lon="5.0665">
        <ele>113.80000305176</ele>
        <time>2018-03-13T15:28:36.000Z</time>
      </trkpt>
      <trkpt lat="43.97861" lon="5.0665">
        <ele>113.80000305176</ele>
        <time>2018-03-13T15:28:56.000Z</time>
      </trkpt>
      <trkpt lat="43.97861" lon="5.0665">
        <ele>113.80000305176</ele>
        <time>2018-03-13T15:29:14.000Z</time>
      </trkpt>
      <trkpt lat="43.97861" lon="5.06651">
        <ele>113.80000305176</ele>
        <time>2018-03-13T15:29:31.000Z</time>
      </trkpt>
      <trkpt lat="43.97861" lon="5.06651">
        <ele>113.80000305176</ele>
        <time>2018-03-13T15:29:51.000Z</time>
      </trkpt>
      <trkpt lat="43.97861" lon="5.06651">
        <ele>113.80000305176</ele>
        <time>2018-03-13T15:30:00.000Z</time>
      </trkpt>
      <trkpt lat="43.97861" lon="5.06651">
        <ele>113.80000305176</ele>
        <time>2018-03-13T15:30:01.000Z</time>
      </trkpt>
      <trkpt lat="43.97857" lon="5.06647">
        <ele>114.40000152588</ele>
        <time>2018-03-13T15:30:03.000Z</time>
      </trkpt>
      <trkpt lat="43.97855" lon="5.06644">
        <ele>114.80000305176</ele>
        <time>2018-03-13T15:30:04.000Z</time>
      </trkpt>
      <trkpt lat="43.97853" lon="5.0664">
        <ele>115.59999847412</ele>
        <time>2018-03-13T15:30:05.000Z</time>
      </trkpt>
      <trkpt lat="43.97848" lon="5.06633">
        <ele>116.80000305176</ele>
        <time>2018-03-13T15:30:07.000Z</time>
      </trkpt>
      <trkpt lat="43.97845" lon="5.06631">
        <ele>117.40000152588</ele>
        <time>2018-03-13T15:30:09.000Z</time>
      </trkpt>
      <trkpt lat="43.97844" lon="5.06631">
        <ele>117.40000152588</ele>
        <time>2018-03-13T15:30:15.000Z</time>
      </trkpt>
      <trkpt lat="43.97844" lon="5.06631">
        <ele>117.40000152588</ele>
        <time>2018-03-13T15:30:22.000Z</time>
      </trkpt>
      <trkpt lat="43.97842" lon="5.06628">
        <ele>117.80000305176</ele>
        <time>2018-03-13T15:30:24.000Z</time>
      </trkpt>
      <trkpt lat="43.97842" lon="5.06628">
        <ele>118</ele>
        <time>2018-03-13T15:30:26.000Z</time>
      </trkpt>
      <trkpt lat="43.97841" lon="5.06628">
        <ele>118.19999694824</ele>
        <time>2018-03-13T15:30:27.000Z</time>
      </trkpt>
      <trkpt lat="43.97838" lon="5.06621">
        <ele>119</ele>
        <time>2018-03-13T15:30:30.000Z</time>
      </trkpt>
      <trkpt lat="43.97837" lon="5.06617">
        <ele>119.19999694824</ele>
        <time>2018-03-13T15:30:31.000Z</time>
      </trkpt>
      <trkpt lat="43.97827" lon="5.06606">
        <ele>121.19999694824</ele>
        <time>2018-03-13T15:30:35.000Z</time>
      </trkpt>
      <trkpt lat="43.97824" lon="5.06604">
        <ele>121.59999847412</ele>
        <time>2018-03-13T15:30:36.000Z</time>
      </trkpt>
      <trkpt lat="43.97818" lon="5.06598">
        <ele>122.59999847412</ele>
        <time>2018-03-13T15:30:38.000Z</time>
      </trkpt>
      <trkpt lat="43.9781" lon="5.0659">
        <ele>124.19999694824</ele>
        <time>2018-03-13T15:30:41.000Z</time>
      </trkpt>
      <trkpt lat="43.97805" lon="5.06585">
        <ele>125</ele>
        <time>2018-03-13T15:30:43.000Z</time>
      </trkpt>
      <trkpt lat="43.97802" lon="5.06583">
        <ele>125.40000152588</ele>
        <time>2018-03-13T15:30:44.000Z</time>
      </trkpt>
      <trkpt lat="43.97795" lon="5.06576">
        <ele>126.80000305176</ele>
        <time>2018-03-13T15:30:47.000Z</time>
      </trkpt>
      <trkpt lat="43.9779" lon="5.06572">
        <ele>127.59999847412</ele>
        <time>2018-03-13T15:30:49.000Z</time>
      </trkpt>
      <trkpt lat="43.97786" lon="5.06567">
        <ele>128.39999389648</ele>
        <time>2018-03-13T15:30:51.000Z</time>
      </trkpt>
      <trkpt lat="43.97784" lon="5.06565">
        <ele>128.60000610352</ele>
        <time>2018-03-13T15:30:52.000Z</time>
      </trkpt>
      <trkpt lat="43.97782" lon="5.06563">
        <ele>129</ele>
        <time>2018-03-13T15:30:53.000Z</time>
      </trkpt>
      <trkpt lat="43.97772" lon="5.06558">
        <ele>130.39999389648</ele>
        <time>2018-03-13T15:30:57.000Z</time>
      </trkpt>
      <trkpt lat="43.97767" lon="5.06555">
        <ele>130.80000305176</ele>
        <time>2018-03-13T15:30:59.000Z</time>
      </trkpt>
      <trkpt lat="43.97765" lon="5.06554">
        <ele>131</ele>
        <time>2018-03-13T15:31:00.000Z</time>
      </trkpt>
      <trkpt lat="43.97761" lon="5.06551">
        <ele>131.39999389648</ele>
        <time>2018-03-13T15:31:02.000Z</time>
      </trkpt>
      <trkpt lat="43.97756" lon="5.06547">
        <ele>131.60000610352</ele>
        <time>2018-03-13T15:31:04.000Z</time>
      </trkpt>
      <trkpt lat="43.97747" lon="5.06541">
        <ele>132.39999389648</ele>
        <time>2018-03-13T15:31:08.000Z</time>
      </trkpt>
      <trkpt lat="43.97745" lon="5.06539">
        <ele>132.60000610352</ele>
        <time>2018-03-13T15:31:09.000Z</time>
      </trkpt>
      <trkpt lat="43.9774" lon="5.06536">
        <ele>133</ele>
        <time>2018-03-13T15:31:11.000Z</time>
      </trkpt>
      <trkpt lat="43.97734" lon="5.0653">
        <ele>133.39999389648</ele>
        <time>2018-03-13T15:31:14.000Z</time>
      </trkpt>
      <trkpt lat="43.97727" lon="5.06524">
        <ele>134</ele>
        <time>2018-03-13T15:31:17.000Z</time>
      </trkpt>
      <trkpt lat="43.97718" lon="5.06514">
        <ele>134.80000305176</ele>
        <time>2018-03-13T15:31:21.000Z</time>
      </trkpt>
      <trkpt lat="43.9771" lon="5.06505">
        <ele>135.39999389648</ele>
        <time>2018-03-13T15:31:25.000Z</time>
      </trkpt>
      <trkpt lat="43.97691" lon="5.06484">
        <ele>137.19999694824</ele>
        <time>2018-03-13T15:31:33.000Z</time>
      </trkpt>
      <trkpt lat="43.97682" lon="5.06474">
        <ele>137.39999389648</ele>
        <time>2018-03-13T15:31:37.000Z</time>
      </trkpt>
      <trkpt lat="43.97672" lon="5.06463">
        <ele>137.80000305176</ele>
        <time>2018-03-13T15:31:41.000Z</time>
      </trkpt>
      <trkpt lat="43.9767" lon="5.0646">
        <ele>138</ele>
        <time>2018-03-13T15:31:42.000Z</time>
      </trkpt>
      <trkpt lat="43.97662" lon="5.06451">
        <ele>138.39999389648</ele>
        <time>2018-03-13T15:31:45.000Z</time>
      </trkpt>
      <trkpt lat="43.97652" lon="5.06438">
        <ele>138.80000305176</ele>
        <time>2018-03-13T15:31:49.000Z</time>
      </trkpt>
      <trkpt lat="43.97647" lon="5.06433">
        <ele>139</ele>
        <time>2018-03-13T15:31:51.000Z</time>
      </trkpt>
      <trkpt lat="43.9764" lon="5.06424">
        <ele>139.19999694824</ele>
        <time>2018-03-13T15:31:54.000Z</time>
      </trkpt>
      <trkpt lat="43.97628" lon="5.06409">
        <ele>139.80000305176</ele>
        <time>2018-03-13T15:31:59.000Z</time>
      </trkpt>
      <trkpt lat="43.97624" lon="5.06402">
        <ele>140</ele>
        <time>2018-03-13T15:32:01.000Z</time>
      </trkpt>
      <trkpt lat="43.9761" lon="5.06385">
        <ele>140.60000610352</ele>
        <time>2018-03-13T15:32:07.000Z</time>
      </trkpt>
      <trkpt lat="43.97608" lon="5.06381">
        <ele>140.80000305176</ele>
        <time>2018-03-13T15:32:08.000Z</time>
      </trkpt>
      <trkpt lat="43.9759" lon="5.06361">
        <ele>143</ele>
        <time>2018-03-13T15:32:16.000Z</time>
      </trkpt>
      <trkpt lat="43.97585" lon="5.06356">
        <ele>143.60000610352</ele>
        <time>2018-03-13T15:32:18.000Z</time>
      </trkpt>
      <trkpt lat="43.97572" lon="5.06345">
        <ele>145</ele>
        <time>2018-03-13T15:32:23.000Z</time>
      </trkpt>
      <trkpt lat="43.97567" lon="5.06341">
        <ele>145.60000610352</ele>
        <time>2018-03-13T15:32:25.000Z</time>
      </trkpt>
      <trkpt lat="43.97555" lon="5.0633">
        <ele>147</ele>
        <time>2018-03-13T15:32:30.000Z</time>
      </trkpt>
      <trkpt lat="43.97548" lon="5.06324">
        <ele>147.80000305176</ele>
        <time>2018-03-13T15:32:33.000Z</time>
      </trkpt>
      <trkpt lat="43.97545" lon="5.06321">
        <ele>148.19999694824</ele>
        <time>2018-03-13T15:32:35.000Z</time>
      </trkpt>
      <trkpt lat="43.97545" lon="5.0632">
        <ele>148.39999389648</ele>
        <time>2018-03-13T15:32:37.000Z</time>
      </trkpt>
      <trkpt lat="43.97545" lon="5.0632">
        <ele>148.39999389648</ele>
        <time>2018-03-13T15:32:49.000Z</time>
      </trkpt>
      <trkpt lat="43.97544" lon="5.06321">
        <ele>148.19999694824</ele>
        <time>2018-03-13T15:32:51.000Z</time>
      </trkpt>
      <trkpt lat="43.9754" lon="5.06323">
        <ele>147.80000305176</ele>
        <time>2018-03-13T15:32:54.000Z</time>
      </trkpt>
      <trkpt lat="43.97537" lon="5.06324">
        <ele>147.60000610352</ele>
        <time>2018-03-13T15:32:58.000Z</time>
      </trkpt>
      <trkpt lat="43.97537" lon="5.06325">
        <ele>147.60000610352</ele>
        <time>2018-03-13T15:32:59.000Z</time>
      </trkpt>
      <trkpt lat="43.97536" lon="5.06325">
        <ele>147.60000610352</ele>
        <time>2018-03-13T15:33:06.000Z</time>
      </trkpt>
      <trkpt lat="43.97535" lon="5.06325">
        <ele>147.39999389648</ele>
        <time>2018-03-13T15:33:07.000Z</time>
      </trkpt>
      <trkpt lat="43.97525" lon="5.0633">
        <ele>146.60000610352</ele>
        <time>2018-03-13T15:33:11.000Z</time>
      </trkpt>
      <trkpt lat="43.97513" lon="5.06334">
        <ele>146.80000305176</ele>
        <time>2018-03-13T15:33:15.000Z</time>
      </trkpt>
      <trkpt lat="43.97509" lon="5.06335">
        <ele>147</ele>
        <time>2018-03-13T15:33:16.000Z</time>
      </trkpt>
      <trkpt lat="43.97491" lon="5.06341">
        <ele>147.39999389648</ele>
        <time>2018-03-13T15:33:21.000Z</time>
      </trkpt>
      <trkpt lat="43.97479" lon="5.06342">
        <ele>148.60000610352</ele>
        <time>2018-03-13T15:33:25.000Z</time>
      </trkpt>
      <trkpt lat="43.97456" lon="5.06348">
        <ele>150.39999389648</ele>
        <time>2018-03-13T15:33:32.000Z</time>
      </trkpt>
      <trkpt lat="43.97443" lon="5.06347">
        <ele>152</ele>
        <time>2018-03-13T15:33:37.000Z</time>
      </trkpt>
      <trkpt lat="43.9744" lon="5.06348">
        <ele>152.19999694824</ele>
        <time>2018-03-13T15:33:38.000Z</time>
      </trkpt>
      <trkpt lat="43.97429" lon="5.06343">
        <ele>153.80000305176</ele>
        <time>2018-03-13T15:33:42.000Z</time>
      </trkpt>
      <trkpt lat="43.97425" lon="5.06341">
        <ele>154.60000610352</ele>
        <time>2018-03-13T15:33:44.000Z</time>
      </trkpt>
      <trkpt lat="43.97418" lon="5.06339">
        <ele>155.60000610352</ele>
        <time>2018-03-13T15:33:47.000Z</time>
      </trkpt>
      <trkpt lat="43.97414" lon="5.06337">
        <ele>156.19999694824</ele>
        <time>2018-03-13T15:33:50.000Z</time>
      </trkpt>
      <trkpt lat="43.97413" lon="5.06338">
        <ele>156.19999694824</ele>
        <time>2018-03-13T15:33:52.000Z</time>
      </trkpt>
      <trkpt lat="43.97412" lon="5.06337">
        <ele>156.39999389648</ele>
        <time>2018-03-13T15:34:00.000Z</time>
      </trkpt>
      <trkpt lat="43.97403" lon="5.06333">
        <ele>157.80000305176</ele>
        <time>2018-03-13T15:34:05.000Z</time>
      </trkpt>
      <trkpt lat="43.97392" lon="5.06333">
        <ele>159.39999389648</ele>
        <time>2018-03-13T15:34:11.000Z</time>
      </trkpt>
      <trkpt lat="43.9739" lon="5.06333">
        <ele>159.80000305176</ele>
        <time>2018-03-13T15:34:12.000Z</time>
      </trkpt>
      <trkpt lat="43.97384" lon="5.06332">
        <ele>160.80000305176</ele>
        <time>2018-03-13T15:34:15.000Z</time>
      </trkpt>
      <trkpt lat="43.97378" lon="5.06331">
        <ele>162</ele>
        <time>2018-03-13T15:34:18.000Z</time>
      </trkpt>
      <trkpt lat="43.97377" lon="5.06331">
        <ele>162.19999694824</ele>
        <time>2018-03-13T15:34:19.000Z</time>
      </trkpt>
      <trkpt lat="43.97375" lon="5.06331">
        <ele>162.39999389648</ele>
        <time>2018-03-13T15:34:20.000Z</time>
      </trkpt>
      <trkpt lat="43.97368" lon="5.06332">
        <ele>163.80000305176</ele>
        <time>2018-03-13T15:34:24.000Z</time>
      </trkpt>
      <trkpt lat="43.97365" lon="5.06333">
        <ele>164.19999694824</ele>
        <time>2018-03-13T15:34:26.000Z</time>
      </trkpt>
      <trkpt lat="43.97361" lon="5.06333">
        <ele>165</ele>
        <time>2018-03-13T15:34:29.000Z</time>
      </trkpt>
      <trkpt lat="43.97357" lon="5.06334">
        <ele>165.80000305176</ele>
        <time>2018-03-13T15:34:31.000Z</time>
      </trkpt>
      <trkpt lat="43.97352" lon="5.06337">
        <ele>166.80000305176</ele>
        <time>2018-03-13T15:34:35.000Z</time>
      </trkpt>
      <trkpt lat="43.97351" lon="5.06337">
        <ele>167</ele>
        <time>2018-03-13T15:34:36.000Z</time>
      </trkpt>
      <trkpt lat="43.97345" lon="5.06338">
        <ele>168</ele>
        <time>2018-03-13T15:34:39.000Z</time>
      </trkpt>
      <trkpt lat="43.97344" lon="5.06337">
        <ele>168.39999389648</ele>
        <time>2018-03-13T15:34:40.000Z</time>
      </trkpt>
      <trkpt lat="43.97344" lon="5.06337">
        <ele>168.60000610352</ele>
        <time>2018-03-13T15:34:41.000Z</time>
      </trkpt>
      <trkpt lat="43.97342" lon="5.06337">
        <ele>168.80000305176</ele>
        <time>2018-03-13T15:34:42.000Z</time>
      </trkpt>
      <trkpt lat="43.97335" lon="5.0634">
        <ele>170.19999694824</ele>
        <time>2018-03-13T15:34:46.000Z</time>
      </trkpt>
      <trkpt lat="43.9733" lon="5.06341">
        <ele>171.19999694824</ele>
        <time>2018-03-13T15:34:50.000Z</time>
      </trkpt>
      <trkpt lat="43.97328" lon="5.06343">
        <ele>171.60000610352</ele>
        <time>2018-03-13T15:34:52.000Z</time>
      </trkpt>
      <trkpt lat="43.97327" lon="5.06344">
        <ele>171.80000305176</ele>
        <time>2018-03-13T15:34:53.000Z</time>
      </trkpt>
      <trkpt lat="43.9732" lon="5.06349">
        <ele>173.60000610352</ele>
        <time>2018-03-13T15:34:57.000Z</time>
      </trkpt>
      <trkpt lat="43.97318" lon="5.0635">
        <ele>174.19999694824</ele>
        <time>2018-03-13T15:34:58.000Z</time>
      </trkpt>
      <trkpt lat="43.97316" lon="5.0635">
        <ele>174.60000610352</ele>
        <time>2018-03-13T15:34:59.000Z</time>
      </trkpt>
      <trkpt lat="43.97312" lon="5.06354">
        <ele>176</ele>
        <time>2018-03-13T15:35:02.000Z</time>
      </trkpt>
      <trkpt lat="43.97311" lon="5.06355">
        <ele>176.19999694824</ele>
        <time>2018-03-13T15:35:03.000Z</time>
      </trkpt>
      <trkpt lat="43.97309" lon="5.06356">
        <ele>176.60000610352</ele>
        <time>2018-03-13T15:35:04.000Z</time>
      </trkpt>
      <trkpt lat="43.97305" lon="5.06359">
        <ele>177.80000305176</ele>
        <time>2018-03-13T15:35:07.000Z</time>
      </trkpt>
      <trkpt lat="43.973" lon="5.06365">
        <ele>179</ele>
        <time>2018-03-13T15:35:11.000Z</time>
      </trkpt>
      <trkpt lat="43.97297" lon="5.06373">
        <ele>180</ele>
        <time>2018-03-13T15:35:14.000Z</time>
      </trkpt>
      <trkpt lat="43.97291" lon="5.0638">
        <ele>181.60000610352</ele>
        <time>2018-03-13T15:35:18.000Z</time>
      </trkpt>
      <trkpt lat="43.97287" lon="5.06384">
        <ele>182.80000305176</ele>
        <time>2018-03-13T15:35:21.000Z</time>
      </trkpt>
      <trkpt lat="43.97283" lon="5.0639">
        <ele>183.80000305176</ele>
        <time>2018-03-13T15:35:25.000Z</time>
      </trkpt>
      <trkpt lat="43.97282" lon="5.06391">
        <ele>184</ele>
        <time>2018-03-13T15:35:26.000Z</time>
      </trkpt>
      <trkpt lat="43.97275" lon="5.06402">
        <ele>186</ele>
        <time>2018-03-13T15:35:33.000Z</time>
      </trkpt>
      <trkpt lat="43.97273" lon="5.06406">
        <ele>186.39999389648</ele>
        <time>2018-03-13T15:35:35.000Z</time>
      </trkpt>
      <trkpt lat="43.97268" lon="5.06413">
        <ele>187.80000305176</ele>
        <time>2018-03-13T15:35:39.000Z</time>
      </trkpt>
      <trkpt lat="43.97264" lon="5.0642">
        <ele>188.80000305176</ele>
        <time>2018-03-13T15:35:43.000Z</time>
      </trkpt>
      <trkpt lat="43.9726" lon="5.06426">
        <ele>189.80000305176</ele>
        <time>2018-03-13T15:35:46.000Z</time>
      </trkpt>
      <trkpt lat="43.97259" lon="5.06428">
        <ele>190.19999694824</ele>
        <time>2018-03-13T15:35:47.000Z</time>
      </trkpt>
      <trkpt lat="43.97256" lon="5.0644">
        <ele>191</ele>
        <time>2018-03-13T15:35:53.000Z</time>
      </trkpt>
      <trkpt lat="43.97256" lon="5.0645">
        <ele>190.80000305176</ele>
        <time>2018-03-13T15:35:57.000Z</time>
      </trkpt>
      <trkpt lat="43.97254" lon="5.06457">
        <ele>191.19999694824</ele>
        <time>2018-03-13T15:36:00.000Z</time>
      </trkpt>
      <trkpt lat="43.97251" lon="5.0647">
        <ele>191</ele>
        <time>2018-03-13T15:36:07.000Z</time>
      </trkpt>
      <trkpt lat="43.97249" lon="5.06476">
        <ele>190.80000305176</ele>
        <time>2018-03-13T15:36:10.000Z</time>
      </trkpt>
      <trkpt lat="43.97248" lon="5.0648">
        <ele>190.80000305176</ele>
        <time>2018-03-13T15:36:12.000Z</time>
      </trkpt>
      <trkpt lat="43.97245" lon="5.06484">
        <ele>191</ele>
        <time>2018-03-13T15:36:14.000Z</time>
      </trkpt>
      <trkpt lat="43.97244" lon="5.06486">
        <ele>191.19999694824</ele>
        <time>2018-03-13T15:36:15.000Z</time>
      </trkpt>
      <trkpt lat="43.97241" lon="5.0649">
        <ele>191.60000610352</ele>
        <time>2018-03-13T15:36:17.000Z</time>
      </trkpt>
      <trkpt lat="43.97238" lon="5.06493">
        <ele>192</ele>
        <time>2018-03-13T15:36:19.000Z</time>
      </trkpt>
      <trkpt lat="43.97236" lon="5.06493">
        <ele>192.39999389648</ele>
        <time>2018-03-13T15:36:20.000Z</time>
      </trkpt>
      <trkpt lat="43.97234" lon="5.06493">
        <ele>193.19999694824</ele>
        <time>2018-03-13T15:36:22.000Z</time>
      </trkpt>
      <trkpt lat="43.97231" lon="5.06494">
        <ele>193.60000610352</ele>
        <time>2018-03-13T15:36:24.000Z</time>
      </trkpt>
      <trkpt lat="43.97229" lon="5.06496">
        <ele>194</ele>
        <time>2018-03-13T15:36:25.000Z</time>
      </trkpt>
      <trkpt lat="43.97223" lon="5.06499">
        <ele>195</ele>
        <time>2018-03-13T15:36:29.000Z</time>
      </trkpt>
      <trkpt lat="43.97217" lon="5.06503">
        <ele>196</ele>
        <time>2018-03-13T15:36:32.000Z</time>
      </trkpt>
      <trkpt lat="43.97215" lon="5.06504">
        <ele>196.39999389648</ele>
        <time>2018-03-13T15:36:33.000Z</time>
      </trkpt>
      <trkpt lat="43.97211" lon="5.06507">
        <ele>197.19999694824</ele>
        <time>2018-03-13T15:36:36.000Z</time>
      </trkpt>
      <trkpt lat="43.9721" lon="5.06507">
        <ele>197.39999389648</ele>
        <time>2018-03-13T15:36:37.000Z</time>
      </trkpt>
      <trkpt lat="43.97209" lon="5.06508">
        <ele>197.60000610352</ele>
        <time>2018-03-13T15:36:38.000Z</time>
      </trkpt>
      <trkpt lat="43.97205" lon="5.06512">
        <ele>198.19999694824</ele>
        <time>2018-03-13T15:36:41.000Z</time>
      </trkpt>
      <trkpt lat="43.97203" lon="5.06513">
        <ele>198.39999389648</ele>
        <time>2018-03-13T15:36:42.000Z</time>
      </trkpt>
      <trkpt lat="43.97202" lon="5.06514">
        <ele>198.60000610352</ele>
        <time>2018-03-13T15:36:47.000Z</time>
      </trkpt>
      <trkpt lat="43.97198" lon="5.0652">
        <ele>198.80000305176</ele>
        <time>2018-03-13T15:36:54.000Z</time>
      </trkpt>
      <trkpt lat="43.97195" lon="5.06527">
        <ele>199</ele>
        <time>2018-03-13T15:36:57.000Z</time>
      </trkpt>
      <trkpt lat="43.97193" lon="5.0653">
        <ele>198.80000305176</ele>
        <time>2018-03-13T15:37:00.000Z</time>
      </trkpt>
      <trkpt lat="43.97193" lon="5.06532">
        <ele>198.80000305176</ele>
        <time>2018-03-13T15:37:01.000Z</time>
      </trkpt>
      <trkpt lat="43.97189" lon="5.06537">
        <ele>199.39999389648</ele>
        <time>2018-03-13T15:37:07.000Z</time>
      </trkpt>
      <trkpt lat="43.97181" lon="5.06547">
        <ele>200.19999694824</ele>
        <time>2018-03-13T15:37:12.000Z</time>
      </trkpt>
      <trkpt lat="43.97167" lon="5.06562">
        <ele>201.60000610352</ele>
        <time>2018-03-13T15:37:19.000Z</time>
      </trkpt>
      <trkpt lat="43.97151" lon="5.06579">
        <ele>203.39999389648</ele>
        <time>2018-03-13T15:37:26.000Z</time>
      </trkpt>
      <trkpt lat="43.97141" lon="5.06592">
        <ele>203.80000305176</ele>
        <time>2018-03-13T15:37:32.000Z</time>
      </trkpt>
      <trkpt lat="43.97139" lon="5.06593">
        <ele>204</ele>
        <time>2018-03-13T15:37:33.000Z</time>
      </trkpt>
      <trkpt lat="43.9713" lon="5.06601">
        <ele>204.60000610352</ele>
        <time>2018-03-13T15:37:38.000Z</time>
      </trkpt>
      <trkpt lat="43.97126" lon="5.06606">
        <ele>204.60000610352</ele>
        <time>2018-03-13T15:37:40.000Z</time>
      </trkpt>
      <trkpt lat="43.97123" lon="5.0661">
        <ele>204.60000610352</ele>
        <time>2018-03-13T15:37:42.000Z</time>
      </trkpt>
      <trkpt lat="43.97117" lon="5.06618">
        <ele>204.19999694824</ele>
        <time>2018-03-13T15:37:45.000Z</time>
      </trkpt>
      <trkpt lat="43.97115" lon="5.06622">
        <ele>204.19999694824</ele>
        <time>2018-03-13T15:37:46.000Z</time>
      </trkpt>
      <trkpt lat="43.97099" lon="5.06638">
        <ele>203.39999389648</ele>
        <time>2018-03-13T15:37:51.000Z</time>
      </trkpt>
      <trkpt lat="43.97091" lon="5.06649">
        <ele>202.19999694824</ele>
        <time>2018-03-13T15:37:55.000Z</time>
      </trkpt>
      <trkpt lat="43.97091" lon="5.06651">
        <ele>201.60000610352</ele>
        <time>2018-03-13T15:37:56.000Z</time>
      </trkpt>
      <trkpt lat="43.97089" lon="5.06665">
        <ele>198.80000305176</ele>
        <time>2018-03-13T15:37:59.000Z</time>
      </trkpt>
      <trkpt lat="43.9709" lon="5.06678">
        <ele>196</ele>
        <time>2018-03-13T15:38:01.000Z</time>
      </trkpt>
      <trkpt lat="43.9709" lon="5.06683">
        <ele>195</ele>
        <time>2018-03-13T15:38:02.000Z</time>
      </trkpt>
      <trkpt lat="43.97089" lon="5.06686">
        <ele>194.39999389648</ele>
        <time>2018-03-13T15:38:03.000Z</time>
      </trkpt>
      <trkpt lat="43.97089" lon="5.06689">
        <ele>193.80000305176</ele>
        <time>2018-03-13T15:38:06.000Z</time>
      </trkpt>
      <trkpt lat="43.97089" lon="5.06689">
        <ele>193.80000305176</ele>
        <time>2018-03-13T15:38:08.000Z</time>
      </trkpt>
      <trkpt lat="43.97088" lon="5.06692">
        <ele>193.19999694824</ele>
        <time>2018-03-13T15:38:14.000Z</time>
      </trkpt>
      <trkpt lat="43.97087" lon="5.06694">
        <ele>192.60000610352</ele>
        <time>2018-03-13T15:38:15.000Z</time>
      </trkpt>
      <trkpt lat="43.97085" lon="5.06697">
        <ele>192.19999694824</ele>
        <time>2018-03-13T15:38:16.000Z</time>
      </trkpt>
      <trkpt lat="43.9708" lon="5.06699">
        <ele>192</ele>
        <time>2018-03-13T15:38:18.000Z</time>
      </trkpt>
      <trkpt lat="43.97077" lon="5.06701">
        <ele>191.60000610352</ele>
        <time>2018-03-13T15:38:19.000Z</time>
      </trkpt>
      <trkpt lat="43.97074" lon="5.06704">
        <ele>191.19999694824</ele>
        <time>2018-03-13T15:38:20.000Z</time>
      </trkpt>
      <trkpt lat="43.97071" lon="5.06707">
        <ele>190.80000305176</ele>
        <time>2018-03-13T15:38:21.000Z</time>
      </trkpt>
      <trkpt lat="43.97069" lon="5.06712">
        <ele>190</ele>
        <time>2018-03-13T15:38:22.000Z</time>
      </trkpt>
      <trkpt lat="43.97064" lon="5.06716">
        <ele>189.60000610352</ele>
        <time>2018-03-13T15:38:23.000Z</time>
      </trkpt>
      <trkpt lat="43.97058" lon="5.06719">
        <ele>189.60000610352</ele>
        <time>2018-03-13T15:38:25.000Z</time>
      </trkpt>
      <trkpt lat="43.97048" lon="5.06724">
        <ele>189.80000305176</ele>
        <time>2018-03-13T15:38:28.000Z</time>
      </trkpt>
      <trkpt lat="43.97044" lon="5.06724">
        <ele>190</ele>
        <time>2018-03-13T15:38:29.000Z</time>
      </trkpt>
      <trkpt lat="43.97037" lon="5.06725">
        <ele>190.19999694824</ele>
        <time>2018-03-13T15:38:31.000Z</time>
      </trkpt>
      <trkpt lat="43.97027" lon="5.06727">
        <ele>190</ele>
        <time>2018-03-13T15:38:33.000Z</time>
      </trkpt>
      <trkpt lat="43.97023" lon="5.06727">
        <ele>190</ele>
        <time>2018-03-13T15:38:34.000Z</time>
      </trkpt>
      <trkpt lat="43.97008" lon="5.06731">
        <ele>189.39999389648</ele>
        <time>2018-03-13T15:38:37.000Z</time>
      </trkpt>
      <trkpt lat="43.97" lon="5.06732">
        <ele>189.19999694824</ele>
        <time>2018-03-13T15:38:39.000Z</time>
      </trkpt>
      <trkpt lat="43.96989" lon="5.06734">
        <ele>188.80000305176</ele>
        <time>2018-03-13T15:38:42.000Z</time>
      </trkpt>
      <trkpt lat="43.96986" lon="5.06735">
        <ele>188.60000610352</ele>
        <time>2018-03-13T15:38:43.000Z</time>
      </trkpt>
      <trkpt lat="43.96975" lon="5.06735">
        <ele>188.80000305176</ele>
        <time>2018-03-13T15:38:47.000Z</time>
      </trkpt>
      <trkpt lat="43.96974" lon="5.06738">
        <ele>188.19999694824</ele>
        <time>2018-03-13T15:38:48.000Z</time>
      </trkpt>
      <trkpt lat="43.96973" lon="5.06749">
        <ele>185.60000610352</ele>
        <time>2018-03-13T15:38:50.000Z</time>
      </trkpt>
      <trkpt lat="43.96974" lon="5.06754">
        <ele>184.19999694824</ele>
        <time>2018-03-13T15:38:51.000Z</time>
      </trkpt>
      <trkpt lat="43.9697" lon="5.06767">
        <ele>181.19999694824</ele>
        <time>2018-03-13T15:38:53.000Z</time>
      </trkpt>
      <trkpt lat="43.96962" lon="5.06774">
        <ele>179.60000610352</ele>
        <time>2018-03-13T15:38:55.000Z</time>
      </trkpt>
      <trkpt lat="43.96959" lon="5.06776">
        <ele>179.19999694824</ele>
        <time>2018-03-13T15:38:56.000Z</time>
      </trkpt>
      <trkpt lat="43.96958" lon="5.06779">
        <ele>178.39999389648</ele>
        <time>2018-03-13T15:38:57.000Z</time>
      </trkpt>
      <trkpt lat="43.96957" lon="5.06782">
        <ele>177.39999389648</ele>
        <time>2018-03-13T15:38:58.000Z</time>
      </trkpt>
      <trkpt lat="43.96956" lon="5.06788">
        <ele>176.19999694824</ele>
        <time>2018-03-13T15:38:59.000Z</time>
      </trkpt>
      <trkpt lat="43.96957" lon="5.06796">
        <ele>174.60000610352</ele>
        <time>2018-03-13T15:39:01.000Z</time>
      </trkpt>
      <trkpt lat="43.96959" lon="5.06798">
        <ele>174.19999694824</ele>
        <time>2018-03-13T15:39:02.000Z</time>
      </trkpt>
      <trkpt lat="43.96961" lon="5.068">
        <ele>173.80000305176</ele>
        <time>2018-03-13T15:39:03.000Z</time>
      </trkpt>
      <trkpt lat="43.96963" lon="5.06806">
        <ele>172.80000305176</ele>
        <time>2018-03-13T15:39:05.000Z</time>
      </trkpt>
      <trkpt lat="43.96963" lon="5.06817">
        <ele>170.80000305176</ele>
        <time>2018-03-13T15:39:07.000Z</time>
      </trkpt>
      <trkpt lat="43.96963" lon="5.06828">
        <ele>168.39999389648</ele>
        <time>2018-03-13T15:39:09.000Z</time>
      </trkpt>
      <trkpt lat="43.9696" lon="5.06835">
        <ele>166.80000305176</ele>
        <time>2018-03-13T15:39:11.000Z</time>
      </trkpt>
      <trkpt lat="43.96961" lon="5.06843">
        <ele>165.19999694824</ele>
        <time>2018-03-13T15:39:13.000Z</time>
      </trkpt>
      <trkpt lat="43.96962" lon="5.06847">
        <ele>164.19999694824</ele>
        <time>2018-03-13T15:39:14.000Z</time>
      </trkpt>
      <trkpt lat="43.96962" lon="5.06852">
        <ele>163.39999389648</ele>
        <time>2018-03-13T15:39:15.000Z</time>
      </trkpt>
      <trkpt lat="43.96963" lon="5.06857">
        <ele>162.19999694824</ele>
        <time>2018-03-13T15:39:16.000Z</time>
      </trkpt>
      <trkpt lat="43.96963" lon="5.06862">
        <ele>161.19999694824</ele>
        <time>2018-03-13T15:39:17.000Z</time>
      </trkpt>
      <trkpt lat="43.96964" lon="5.06867">
        <ele>160</ele>
        <time>2018-03-13T15:39:18.000Z</time>
      </trkpt>
      <trkpt lat="43.96964" lon="5.06872">
        <ele>158.80000305176</ele>
        <time>2018-03-13T15:39:19.000Z</time>
      </trkpt>
      <trkpt lat="43.96964" lon="5.06878">
        <ele>157.80000305176</ele>
        <time>2018-03-13T15:39:20.000Z</time>
      </trkpt>
      <trkpt lat="43.96964" lon="5.06887">
        <ele>156.60000610352</ele>
        <time>2018-03-13T15:39:22.000Z</time>
      </trkpt>
      <trkpt lat="43.96965" lon="5.06897">
        <ele>155.39999389648</ele>
        <time>2018-03-13T15:39:24.000Z</time>
      </trkpt>
      <trkpt lat="43.96965" lon="5.06907">
        <ele>154.19999694824</ele>
        <time>2018-03-13T15:39:26.000Z</time>
      </trkpt>
      <trkpt lat="43.96965" lon="5.06913">
        <ele>153.39999389648</ele>
        <time>2018-03-13T15:39:28.000Z</time>
      </trkpt>
      <trkpt lat="43.96965" lon="5.06915">
        <ele>153.19999694824</ele>
        <time>2018-03-13T15:39:32.000Z</time>
      </trkpt>
      <trkpt lat="43.96966" lon="5.06919">
        <ele>152.80000305176</ele>
        <time>2018-03-13T15:39:38.000Z</time>
      </trkpt>
      <trkpt lat="43.96966" lon="5.06927">
        <ele>151.80000305176</ele>
        <time>2018-03-13T15:39:40.000Z</time>
      </trkpt>
      <trkpt lat="43.96965" lon="5.06932">
        <ele>151.19999694824</ele>
        <time>2018-03-13T15:39:41.000Z</time>
      </trkpt>
      <trkpt lat="43.96964" lon="5.06946">
        <ele>149.39999389648</ele>
        <time>2018-03-13T15:39:44.000Z</time>
      </trkpt>
      <trkpt lat="43.96963" lon="5.06957">
        <ele>148</ele>
        <time>2018-03-13T15:39:47.000Z</time>
      </trkpt>
      <trkpt lat="43.96963" lon="5.06961">
        <ele>147.60000610352</ele>
        <time>2018-03-13T15:39:48.000Z</time>
      </trkpt>
      <trkpt lat="43.96962" lon="5.06965">
        <ele>146.80000305176</ele>
        <time>2018-03-13T15:39:49.000Z</time>
      </trkpt>
      <trkpt lat="43.96962" lon="5.06973">
        <ele>145.39999389648</ele>
        <time>2018-03-13T15:39:51.000Z</time>
      </trkpt>
      <trkpt lat="43.9696" lon="5.06981">
        <ele>144.19999694824</ele>
        <time>2018-03-13T15:39:53.000Z</time>
      </trkpt>
      <trkpt lat="43.96959" lon="5.06985">
        <ele>144</ele>
        <time>2018-03-13T15:39:54.000Z</time>
      </trkpt>
      <trkpt lat="43.96959" lon="5.06992">
        <ele>143.19999694824</ele>
        <time>2018-03-13T15:39:56.000Z</time>
      </trkpt>
      <trkpt lat="43.96959" lon="5.07">
        <ele>142.60000610352</ele>
        <time>2018-03-13T15:39:58.000Z</time>
      </trkpt>
      <trkpt lat="43.9696" lon="5.07004">
        <ele>142</ele>
        <time>2018-03-13T15:39:59.000Z</time>
      </trkpt>
      <trkpt lat="43.96963" lon="5.07014">
        <ele>141</ele>
        <time>2018-03-13T15:40:02.000Z</time>
      </trkpt>
      <trkpt lat="43.96963" lon="5.07019">
        <ele>140.60000610352</ele>
        <time>2018-03-13T15:40:03.000Z</time>
      </trkpt>
      <trkpt lat="43.96961" lon="5.07026">
        <ele>139.80000305176</ele>
        <time>2018-03-13T15:40:04.000Z</time>
      </trkpt>
      <trkpt lat="43.96958" lon="5.07042">
        <ele>138.60000610352</ele>
        <time>2018-03-13T15:40:06.000Z</time>
      </trkpt>
      <trkpt lat="43.96956" lon="5.07048">
        <ele>138</ele>
        <time>2018-03-13T15:40:07.000Z</time>
      </trkpt>
      <trkpt lat="43.96953" lon="5.07052">
        <ele>137.80000305176</ele>
        <time>2018-03-13T15:40:08.000Z</time>
      </trkpt>
      <trkpt lat="43.96949" lon="5.07054">
        <ele>137.80000305176</ele>
        <time>2018-03-13T15:40:09.000Z</time>
      </trkpt>
      <trkpt lat="43.9694" lon="5.07057">
        <ele>138</ele>
        <time>2018-03-13T15:40:11.000Z</time>
      </trkpt>
      <trkpt lat="43.96931" lon="5.07055">
        <ele>139.39999389648</ele>
        <time>2018-03-13T15:40:13.000Z</time>
      </trkpt>
      <trkpt lat="43.96927" lon="5.07054">
        <ele>140.19999694824</ele>
        <time>2018-03-13T15:40:14.000Z</time>
      </trkpt>
      <trkpt lat="43.96918" lon="5.07054">
        <ele>141.39999389648</ele>
        <time>2018-03-13T15:40:16.000Z</time>
      </trkpt>
      <trkpt lat="43.96908" lon="5.07055">
        <ele>142.60000610352</ele>
        <time>2018-03-13T15:40:18.000Z</time>
      </trkpt>
      <trkpt lat="43.96906" lon="5.07058">
        <ele>142.80000305176</ele>
        <time>2018-03-13T15:40:19.000Z</time>
      </trkpt>
      <trkpt lat="43.96905" lon="5.07062">
        <ele>142.60000610352</ele>
        <time>2018-03-13T15:40:20.000Z</time>
      </trkpt>
      <trkpt lat="43.96903" lon="5.0708">
        <ele>141.39999389648</ele>
        <time>2018-03-13T15:40:25.000Z</time>
      </trkpt>
      <trkpt lat="43.96903" lon="5.0708">
        <ele>141.39999389648</ele>
        <time>2018-03-13T15:40:36.000Z</time>
      </trkpt>
      <trkpt lat="43.96904" lon="5.0708">
        <ele>141.19999694824</ele>
        <time>2018-03-13T15:40:39.000Z</time>
      </trkpt>
      <trkpt lat="43.96908" lon="5.07088">
        <ele>140</ele>
        <time>2018-03-13T15:40:41.000Z</time>
      </trkpt>
      <trkpt lat="43.96913" lon="5.071">
        <ele>138.39999389648</ele>
        <time>2018-03-13T15:40:43.000Z</time>
      </trkpt>
      <trkpt lat="43.96916" lon="5.07106">
        <ele>137.39999389648</ele>
        <time>2018-03-13T15:40:44.000Z</time>
      </trkpt>
      <trkpt lat="43.96918" lon="5.07112">
        <ele>136.60000610352</ele>
        <time>2018-03-13T15:40:45.000Z</time>
      </trkpt>
      <trkpt lat="43.96933" lon="5.07147">
        <ele>133.39999389648</ele>
        <time>2018-03-13T15:40:51.000Z</time>
      </trkpt>
      <trkpt lat="43.96936" lon="5.07156">
        <ele>133.19999694824</ele>
        <time>2018-03-13T15:40:53.000Z</time>
      </trkpt>
      <trkpt lat="43.9694" lon="5.07168">
        <ele>132.60000610352</ele>
        <time>2018-03-13T15:40:55.000Z</time>
      </trkpt>
      <trkpt lat="43.96956" lon="5.07209">
        <ele>133</ele>
        <time>2018-03-13T15:41:01.000Z</time>
      </trkpt>
      <trkpt lat="43.96959" lon="5.07216">
        <ele>133.60000610352</ele>
        <time>2018-03-13T15:41:02.000Z</time>
      </trkpt>
      <trkpt lat="43.96964" lon="5.07228">
        <ele>134.80000305176</ele>
        <time>2018-03-13T15:41:04.000Z</time>
      </trkpt>
      <trkpt lat="43.96972" lon="5.07245">
        <ele>136.19999694824</ele>
        <time>2018-03-13T15:41:07.000Z</time>
      </trkpt>
      <trkpt lat="43.96972" lon="5.07249">
        <ele>136.60000610352</ele>
        <time>2018-03-13T15:41:08.000Z</time>
      </trkpt>
      <trkpt lat="43.9697" lon="5.07251">
        <ele>136.60000610352</ele>
        <time>2018-03-13T15:41:11.000Z</time>
      </trkpt>
      <trkpt lat="43.96967" lon="5.07258">
        <ele>136.80000305176</ele>
        <time>2018-03-13T15:41:17.000Z</time>
      </trkpt>
      <trkpt lat="43.96963" lon="5.07261">
        <ele>136.80000305176</ele>
        <time>2018-03-13T15:41:18.000Z</time>
      </trkpt>
      <trkpt lat="43.96953" lon="5.07266">
        <ele>136.80000305176</ele>
        <time>2018-03-13T15:41:20.000Z</time>
      </trkpt>
      <trkpt lat="43.96934" lon="5.07275">
        <ele>137.19999694824</ele>
        <time>2018-03-13T15:41:25.000Z</time>
      </trkpt>
      <trkpt lat="43.96919" lon="5.07283">
        <ele>137.80000305176</ele>
        <time>2018-03-13T15:41:28.000Z</time>
      </trkpt>
      <trkpt lat="43.96899" lon="5.07291">
        <ele>138</ele>
        <time>2018-03-13T15:41:32.000Z</time>
      </trkpt>
      <trkpt lat="43.96878" lon="5.07299">
        <ele>138.60000610352</ele>
        <time>2018-03-13T15:41:36.000Z</time>
      </trkpt>
      <trkpt lat="43.96873" lon="5.07301">
        <ele>138.80000305176</ele>
        <time>2018-03-13T15:41:37.000Z</time>
      </trkpt>
      <trkpt lat="43.96844" lon="5.07312">
        <ele>140</ele>
        <time>2018-03-13T15:41:43.000Z</time>
      </trkpt>
      <trkpt lat="43.96839" lon="5.07314">
        <ele>140.39999389648</ele>
        <time>2018-03-13T15:41:44.000Z</time>
      </trkpt>
      <trkpt lat="43.96826" lon="5.07318">
        <ele>141.39999389648</ele>
        <time>2018-03-13T15:41:47.000Z</time>
      </trkpt>
      <trkpt lat="43.96813" lon="5.07323">
        <ele>142.39999389648</ele>
        <time>2018-03-13T15:41:50.000Z</time>
      </trkpt>
      <trkpt lat="43.96804" lon="5.07327">
        <ele>143</ele>
        <time>2018-03-13T15:41:52.000Z</time>
      </trkpt>
      <trkpt lat="43.96786" lon="5.07335">
        <ele>143.80000305176</ele>
        <time>2018-03-13T15:41:56.000Z</time>
      </trkpt>
      <trkpt lat="43.96764" lon="5.07346">
        <ele>145</ele>
        <time>2018-03-13T15:42:01.000Z</time>
      </trkpt>
      <trkpt lat="43.96747" lon="5.07354">
        <ele>146.19999694824</ele>
        <time>2018-03-13T15:42:05.000Z</time>
      </trkpt>
      <trkpt lat="43.96743" lon="5.07357">
        <ele>146.39999389648</ele>
        <time>2018-03-13T15:42:06.000Z</time>
      </trkpt>
      <trkpt lat="43.96725" lon="5.07367">
        <ele>147.39999389648</ele>
        <time>2018-03-13T15:42:11.000Z</time>
      </trkpt>
      <trkpt lat="43.9672" lon="5.0737">
        <ele>147.80000305176</ele>
        <time>2018-03-13T15:42:15.000Z</time>
      </trkpt>
      <trkpt lat="43.9672" lon="5.0737">
        <ele>147.80000305176</ele>
        <time>2018-03-13T15:42:27.000Z</time>
      </trkpt>
      <trkpt lat="43.96719" lon="5.0737">
        <ele>147.80000305176</ele>
        <time>2018-03-13T15:42:29.000Z</time>
      </trkpt>
      <trkpt lat="43.96715" lon="5.07374">
        <ele>148</ele>
        <time>2018-03-13T15:42:31.000Z</time>
      </trkpt>
      <trkpt lat="43.96704" lon="5.07382">
        <ele>149</ele>
        <time>2018-03-13T15:42:34.000Z</time>
      </trkpt>
      <trkpt lat="43.96699" lon="5.07385">
        <ele>149.39999389648</ele>
        <time>2018-03-13T15:42:35.000Z</time>
      </trkpt>
      <trkpt lat="43.96682" lon="5.07395">
        <ele>151</ele>
        <time>2018-03-13T15:42:39.000Z</time>
      </trkpt>
      <trkpt lat="43.9667" lon="5.07401">
        <ele>152.19999694824</ele>
        <time>2018-03-13T15:42:42.000Z</time>
      </trkpt>
      <trkpt lat="43.96666" lon="5.07403">
        <ele>152.39999389648</ele>
        <time>2018-03-13T15:42:43.000Z</time>
      </trkpt>
      <trkpt lat="43.96662" lon="5.07405">
        <ele>152.80000305176</ele>
        <time>2018-03-13T15:42:44.000Z</time>
      </trkpt>
      <trkpt lat="43.96647" lon="5.07412">
        <ele>154</ele>
        <time>2018-03-13T15:42:48.000Z</time>
      </trkpt>
      <trkpt lat="43.96632" lon="5.0742">
        <ele>156.19999694824</ele>
        <time>2018-03-13T15:42:52.000Z</time>
      </trkpt>
      <trkpt lat="43.96617" lon="5.07428">
        <ele>158.60000610352</ele>
        <time>2018-03-13T15:42:56.000Z</time>
      </trkpt>
      <trkpt lat="43.96613" lon="5.07429">
        <ele>159.19999694824</ele>
        <time>2018-03-13T15:42:57.000Z</time>
      </trkpt>
      <trkpt lat="43.96606" lon="5.07433">
        <ele>160.39999389648</ele>
        <time>2018-03-13T15:42:59.000Z</time>
      </trkpt>
      <trkpt lat="43.96592" lon="5.07439">
        <ele>162.39999389648</ele>
        <time>2018-03-13T15:43:03.000Z</time>
      </trkpt>
      <trkpt lat="43.96582" lon="5.07443">
        <ele>163.19999694824</ele>
        <time>2018-03-13T15:43:06.000Z</time>
      </trkpt>
      <trkpt lat="43.96571" lon="5.07448">
        <ele>163.60000610352</ele>
        <time>2018-03-13T15:43:09.000Z</time>
      </trkpt>
      <trkpt lat="43.96564" lon="5.07451">
        <ele>163.80000305176</ele>
        <time>2018-03-13T15:43:11.000Z</time>
      </trkpt>
      <trkpt lat="43.96554" lon="5.07455">
        <ele>164.39999389648</ele>
        <time>2018-03-13T15:43:14.000Z</time>
      </trkpt>
      <trkpt lat="43.96545" lon="5.07462">
        <ele>165.19999694824</ele>
        <time>2018-03-13T15:43:17.000Z</time>
      </trkpt>
      <trkpt lat="43.96542" lon="5.07464">
        <ele>165.80000305176</ele>
        <time>2018-03-13T15:43:18.000Z</time>
      </trkpt>
      <trkpt lat="43.96536" lon="5.07469">
        <ele>166.80000305176</ele>
        <time>2018-03-13T15:43:20.000Z</time>
      </trkpt>
      <trkpt lat="43.96527" lon="5.07478">
        <ele>168</ele>
        <time>2018-03-13T15:43:23.000Z</time>
      </trkpt>
      <trkpt lat="43.96522" lon="5.07483">
        <ele>169.19999694824</ele>
        <time>2018-03-13T15:43:25.000Z</time>
      </trkpt>
      <trkpt lat="43.96516" lon="5.07488">
        <ele>170.80000305176</ele>
        <time>2018-03-13T15:43:27.000Z</time>
      </trkpt>
      <trkpt lat="43.96511" lon="5.07493">
        <ele>172.39999389648</ele>
        <time>2018-03-13T15:43:29.000Z</time>
      </trkpt>
      <trkpt lat="43.96503" lon="5.07501">
        <ele>175</ele>
        <time>2018-03-13T15:43:32.000Z</time>
      </trkpt>
      <trkpt lat="43.96499" lon="5.07505">
        <ele>176.39999389648</ele>
        <time>2018-03-13T15:43:34.000Z</time>
      </trkpt>
      <trkpt lat="43.96491" lon="5.07512">
        <ele>178.39999389648</ele>
        <time>2018-03-13T15:43:37.000Z</time>
      </trkpt>
      <trkpt lat="43.96488" lon="5.07514">
        <ele>178.39999389648</ele>
        <time>2018-03-13T15:43:38.000Z</time>
      </trkpt>
      <trkpt lat="43.96486" lon="5.07516">
        <ele>178.39999389648</ele>
        <time>2018-03-13T15:43:39.000Z</time>
      </trkpt>
      <trkpt lat="43.96475" lon="5.07527">
        <ele>178.60000610352</ele>
        <time>2018-03-13T15:43:43.000Z</time>
      </trkpt>
      <trkpt lat="43.9647" lon="5.07532">
        <ele>178.60000610352</ele>
        <time>2018-03-13T15:43:45.000Z</time>
      </trkpt>
      <trkpt lat="43.96464" lon="5.07537">
        <ele>178.80000305176</ele>
        <time>2018-03-13T15:43:47.000Z</time>
      </trkpt>
      <trkpt lat="43.96454" lon="5.07543">
        <ele>178.80000305176</ele>
        <time>2018-03-13T15:43:51.000Z</time>
      </trkpt>
      <trkpt lat="43.96448" lon="5.07546">
        <ele>179.39999389648</ele>
        <time>2018-03-13T15:43:53.000Z</time>
      </trkpt>
      <trkpt lat="43.96438" lon="5.07548">
        <ele>179.80000305176</ele>
        <time>2018-03-13T15:43:57.000Z</time>
      </trkpt>
      <trkpt lat="43.96427" lon="5.07549">
        <ele>180.39999389648</ele>
        <time>2018-03-13T15:44:01.000Z</time>
      </trkpt>
      <trkpt lat="43.96425" lon="5.07549">
        <ele>180.39999389648</ele>
        <time>2018-03-13T15:44:02.000Z</time>
      </trkpt>
      <trkpt lat="43.96415" lon="5.0755">
        <ele>181</ele>
        <time>2018-03-13T15:44:06.000Z</time>
      </trkpt>
      <trkpt lat="43.96407" lon="5.0755">
        <ele>181.60000610352</ele>
        <time>2018-03-13T15:44:09.000Z</time>
      </trkpt>
      <trkpt lat="43.96402" lon="5.0755">
        <ele>181.80000305176</ele>
        <time>2018-03-13T15:44:11.000Z</time>
      </trkpt>
      <trkpt lat="43.96392" lon="5.07551">
        <ele>182.19999694824</ele>
        <time>2018-03-13T15:44:15.000Z</time>
      </trkpt>
      <trkpt lat="43.96384" lon="5.0755">
        <ele>182.60000610352</ele>
        <time>2018-03-13T15:44:18.000Z</time>
      </trkpt>
      <trkpt lat="43.96382" lon="5.0755">
        <ele>182.60000610352</ele>
        <time>2018-03-13T15:44:19.000Z</time>
      </trkpt>
      <trkpt lat="43.96374" lon="5.07549">
        <ele>182.80000305176</ele>
        <time>2018-03-13T15:44:22.000Z</time>
      </trkpt>
      <trkpt lat="43.96369" lon="5.07548">
        <ele>183</ele>
        <time>2018-03-13T15:44:25.000Z</time>
      </trkpt>
      <trkpt lat="43.96369" lon="5.07548">
        <ele>183</ele>
        <time>2018-03-13T15:44:26.000Z</time>
      </trkpt>
      <trkpt lat="43.96368" lon="5.07548">
        <ele>183.19999694824</ele>
        <time>2018-03-13T15:44:35.000Z</time>
      </trkpt>
      <trkpt lat="43.96364" lon="5.07551">
        <ele>183.60000610352</ele>
        <time>2018-03-13T15:44:37.000Z</time>
      </trkpt>
      <trkpt lat="43.9636" lon="5.07554">
        <ele>184.19999694824</ele>
        <time>2018-03-13T15:44:42.000Z</time>
      </trkpt>
      <trkpt lat="43.9636" lon="5.07556">
        <ele>184.19999694824</ele>
        <time>2018-03-13T15:44:55.000Z</time>
      </trkpt>
      <trkpt lat="43.9636" lon="5.07556">
        <ele>184.39999389648</ele>
        <time>2018-03-13T15:44:56.000Z</time>
      </trkpt>
      <trkpt lat="43.96362" lon="5.07559">
        <ele>184.60000610352</ele>
        <time>2018-03-13T15:44:59.000Z</time>
      </trkpt>
      <trkpt lat="43.96362" lon="5.07559">
        <ele>184.60000610352</ele>
        <time>2018-03-13T15:45:00.000Z</time>
      </trkpt>
      <trkpt lat="43.96365" lon="5.0756">
        <ele>184.60000610352</ele>
        <time>2018-03-13T15:45:12.000Z</time>
      </trkpt>
      <trkpt lat="43.96373" lon="5.07562">
        <ele>184.60000610352</ele>
        <time>2018-03-13T15:45:15.000Z</time>
      </trkpt>
      <trkpt lat="43.96375" lon="5.07563">
        <ele>184.60000610352</ele>
        <time>2018-03-13T15:45:16.000Z</time>
      </trkpt>
      <trkpt lat="43.96376" lon="5.07563">
        <ele>184.60000610352</ele>
        <time>2018-03-13T15:45:17.000Z</time>
      </trkpt>
      <trkpt lat="43.96381" lon="5.07566">
        <ele>184.60000610352</ele>
        <time>2018-03-13T15:45:19.000Z</time>
      </trkpt>
      <trkpt lat="43.96383" lon="5.07567">
        <ele>184.60000610352</ele>
        <time>2018-03-13T15:45:20.000Z</time>
      </trkpt>
      <trkpt lat="43.96386" lon="5.07567">
        <ele>184.60000610352</ele>
        <time>2018-03-13T15:45:21.000Z</time>
      </trkpt>
      <trkpt lat="43.96392" lon="5.07566">
        <ele>184.19999694824</ele>
        <time>2018-03-13T15:45:23.000Z</time>
      </trkpt>
      <trkpt lat="43.96402" lon="5.07571">
        <ele>184.19999694824</ele>
        <time>2018-03-13T15:45:27.000Z</time>
      </trkpt>
      <trkpt lat="43.96404" lon="5.07573">
        <ele>184.39999389648</ele>
        <time>2018-03-13T15:45:28.000Z</time>
      </trkpt>
      <trkpt lat="43.96407" lon="5.07576">
        <ele>184.60000610352</ele>
        <time>2018-03-13T15:45:30.000Z</time>
      </trkpt>
      <trkpt lat="43.96407" lon="5.07579">
        <ele>185</ele>
        <time>2018-03-13T15:45:31.000Z</time>
      </trkpt>
      <trkpt lat="43.96408" lon="5.07581">
        <ele>185.19999694824</ele>
        <time>2018-03-13T15:45:32.000Z</time>
      </trkpt>
      <trkpt lat="43.96411" lon="5.07587">
        <ele>185.80000305176</ele>
        <time>2018-03-13T15:45:35.000Z</time>
      </trkpt>
      <trkpt lat="43.96413" lon="5.07589">
        <ele>185.80000305176</ele>
        <time>2018-03-13T15:45:37.000Z</time>
      </trkpt>
      <trkpt lat="43.96417" lon="5.07591">
        <ele>186</ele>
        <time>2018-03-13T15:45:39.000Z</time>
      </trkpt>
      <trkpt lat="43.9642" lon="5.07594">
        <ele>186</ele>
        <time>2018-03-13T15:45:41.000Z</time>
      </trkpt>
      <trkpt lat="43.96424" lon="5.07598">
        <ele>186.39999389648</ele>
        <time>2018-03-13T15:45:44.000Z</time>
      </trkpt>
      <trkpt lat="43.96426" lon="5.076">
        <ele>186.60000610352</ele>
        <time>2018-03-13T15:45:45.000Z</time>
      </trkpt>
      <trkpt lat="43.96426" lon="5.07604">
        <ele>187</ele>
        <time>2018-03-13T15:45:47.000Z</time>
      </trkpt>
      <trkpt lat="43.96426" lon="5.07607">
        <ele>187.39999389648</ele>
        <time>2018-03-13T15:45:49.000Z</time>
      </trkpt>
      <trkpt lat="43.96428" lon="5.07612">
        <ele>187.80000305176</ele>
        <time>2018-03-13T15:45:51.000Z</time>
      </trkpt>
      <trkpt lat="43.9643" lon="5.07614">
        <ele>188</ele>
        <time>2018-03-13T15:45:52.000Z</time>
      </trkpt>
      <trkpt lat="43.96431" lon="5.07616">
        <ele>188.19999694824</ele>
        <time>2018-03-13T15:45:53.000Z</time>
      </trkpt>
      <trkpt lat="43.96432" lon="5.07623">
        <ele>189</ele>
        <time>2018-03-13T15:45:56.000Z</time>
      </trkpt>
      <trkpt lat="43.96432" lon="5.07628">
        <ele>189.39999389648</ele>
        <time>2018-03-13T15:45:58.000Z</time>
      </trkpt>
      <trkpt lat="43.96432" lon="5.0763">
        <ele>189.60000610352</ele>
        <time>2018-03-13T15:45:59.000Z</time>
      </trkpt>
      <trkpt lat="43.96432" lon="5.07632">
        <ele>190</ele>
        <time>2018-03-13T15:46:00.000Z</time>
      </trkpt>
      <trkpt lat="43.96431" lon="5.07639">
        <ele>190.60000610352</ele>
        <time>2018-03-13T15:46:03.000Z</time>
      </trkpt>
      <trkpt lat="43.96431" lon="5.07643">
        <ele>191</ele>
        <time>2018-03-13T15:46:05.000Z</time>
      </trkpt>
      <trkpt lat="43.96432" lon="5.07654">
        <ele>192</ele>
        <time>2018-03-13T15:46:10.000Z</time>
      </trkpt>
      <trkpt lat="43.96431" lon="5.07657">
        <ele>192.39999389648</ele>
        <time>2018-03-13T15:46:12.000Z</time>
      </trkpt>
      <trkpt lat="43.96429" lon="5.07659">
        <ele>192.60000610352</ele>
        <time>2018-03-13T15:46:14.000Z</time>
      </trkpt>
      <trkpt lat="43.96428" lon="5.07661">
        <ele>192.80000305176</ele>
        <time>2018-03-13T15:46:15.000Z</time>
      </trkpt>
      <trkpt lat="43.96428" lon="5.07663">
        <ele>193</ele>
        <time>2018-03-13T15:46:20.000Z</time>
      </trkpt>
      <trkpt lat="43.96428" lon="5.07664">
        <ele>193</ele>
        <time>2018-03-13T15:46:30.000Z</time>
      </trkpt>
      <trkpt lat="43.96431" lon="5.07674">
        <ele>194</ele>
        <time>2018-03-13T15:46:35.000Z</time>
      </trkpt>
      <trkpt lat="43.9643" lon="5.07675">
        <ele>194</ele>
        <time>2018-03-13T15:46:36.000Z</time>
      </trkpt>
      <trkpt lat="43.96429" lon="5.0768">
        <ele>194.60000610352</ele>
        <time>2018-03-13T15:46:39.000Z</time>
      </trkpt>
      <trkpt lat="43.96429" lon="5.07682">
        <ele>194.80000305176</ele>
        <time>2018-03-13T15:46:40.000Z</time>
      </trkpt>
      <trkpt lat="43.96428" lon="5.07683">
        <ele>195</ele>
        <time>2018-03-13T15:46:41.000Z</time>
      </trkpt>
      <trkpt lat="43.96424" lon="5.0769">
        <ele>195.80000305176</ele>
        <time>2018-03-13T15:46:45.000Z</time>
      </trkpt>
      <trkpt lat="43.96423" lon="5.07695">
        <ele>196.19999694824</ele>
        <time>2018-03-13T15:46:47.000Z</time>
      </trkpt>
      <trkpt lat="43.96421" lon="5.07698">
        <ele>196.39999389648</ele>
        <time>2018-03-13T15:46:49.000Z</time>
      </trkpt>
      <trkpt lat="43.96419" lon="5.07702">
        <ele>196.80000305176</ele>
        <time>2018-03-13T15:46:51.000Z</time>
      </trkpt>
      <trkpt lat="43.96422" lon="5.0771">
        <ele>197.19999694824</ele>
        <time>2018-03-13T15:46:56.000Z</time>
      </trkpt>
      <trkpt lat="43.96429" lon="5.07708">
        <ele>197</ele>
        <time>2018-03-13T15:47:00.000Z</time>
      </trkpt>
      <trkpt lat="43.9643" lon="5.07709">
        <ele>197</ele>
        <time>2018-03-13T15:47:01.000Z</time>
      </trkpt>
      <trkpt lat="43.96433" lon="5.0771">
        <ele>197</ele>
        <time>2018-03-13T15:47:02.000Z</time>
      </trkpt>
      <trkpt lat="43.96436" lon="5.07713">
        <ele>197.19999694824</ele>
        <time>2018-03-13T15:47:03.000Z</time>
      </trkpt>
      <trkpt lat="43.96438" lon="5.07714">
        <ele>197.19999694824</ele>
        <time>2018-03-13T15:47:04.000Z</time>
      </trkpt>
      <trkpt lat="43.96441" lon="5.07717">
        <ele>197.19999694824</ele>
        <time>2018-03-13T15:47:06.000Z</time>
      </trkpt>
      <trkpt lat="43.96447" lon="5.07721">
        <ele>197.60000610352</ele>
        <time>2018-03-13T15:47:09.000Z</time>
      </trkpt>
      <trkpt lat="43.96457" lon="5.07721">
        <ele>198</ele>
        <time>2018-03-13T15:47:13.000Z</time>
      </trkpt>
      <trkpt lat="43.96468" lon="5.07722">
        <ele>198.39999389648</ele>
        <time>2018-03-13T15:47:18.000Z</time>
      </trkpt>
      <trkpt lat="43.96474" lon="5.07729">
        <ele>198.80000305176</ele>
        <time>2018-03-13T15:47:23.000Z</time>
      </trkpt>
      <trkpt lat="43.9648" lon="5.07733">
        <ele>199.19999694824</ele>
        <time>2018-03-13T15:47:27.000Z</time>
      </trkpt>
      <trkpt lat="43.96484" lon="5.07736">
        <ele>199.39999389648</ele>
        <time>2018-03-13T15:47:30.000Z</time>
      </trkpt>
      <trkpt lat="43.96487" lon="5.07738">
        <ele>199.60000610352</ele>
        <time>2018-03-13T15:47:32.000Z</time>
      </trkpt>
      <trkpt lat="43.96488" lon="5.0774">
        <ele>199.80000305176</ele>
        <time>2018-03-13T15:47:34.000Z</time>
      </trkpt>
      <trkpt lat="43.96489" lon="5.07744">
        <ele>200</ele>
        <time>2018-03-13T15:47:36.000Z</time>
      </trkpt>
      <trkpt lat="43.96491" lon="5.07746">
        <ele>200</ele>
        <time>2018-03-13T15:47:38.000Z</time>
      </trkpt>
      <trkpt lat="43.96491" lon="5.07747">
        <ele>200.19999694824</ele>
        <time>2018-03-13T15:47:42.000Z</time>
      </trkpt>
      <trkpt lat="43.96492" lon="5.07746">
        <ele>200.19999694824</ele>
        <time>2018-03-13T15:47:56.000Z</time>
      </trkpt>
      <trkpt lat="43.96491" lon="5.07746">
        <ele>200.19999694824</ele>
        <time>2018-03-13T15:48:02.000Z</time>
      </trkpt>
      <trkpt lat="43.96492" lon="5.07746">
        <ele>200.19999694824</ele>
        <time>2018-03-13T15:48:04.000Z</time>
      </trkpt>
      <trkpt lat="43.96494" lon="5.07747">
        <ele>200.19999694824</ele>
        <time>2018-03-13T15:48:09.000Z</time>
      </trkpt>
      <trkpt lat="43.96498" lon="5.07748">
        <ele>200.39999389648</ele>
        <time>2018-03-13T15:48:11.000Z</time>
      </trkpt>
      <trkpt lat="43.96505" lon="5.07753">
        <ele>200.80000305176</ele>
        <time>2018-03-13T15:48:15.000Z</time>
      </trkpt>
      <trkpt lat="43.96513" lon="5.07766">
        <ele>201.60000610352</ele>
        <time>2018-03-13T15:48:20.000Z</time>
      </trkpt>
      <trkpt lat="43.96525" lon="5.0778">
        <ele>202.39999389648</ele>
        <time>2018-03-13T15:48:25.000Z</time>
      </trkpt>
      <trkpt lat="43.96526" lon="5.07785">
        <ele>202.60000610352</ele>
        <time>2018-03-13T15:48:26.000Z</time>
      </trkpt>
      <trkpt lat="43.96526" lon="5.07789">
        <ele>202.80000305176</ele>
        <time>2018-03-13T15:48:27.000Z</time>
      </trkpt>
      <trkpt lat="43.96525" lon="5.07793">
        <ele>203</ele>
        <time>2018-03-13T15:48:28.000Z</time>
      </trkpt>
      <trkpt lat="43.9652" lon="5.07805">
        <ele>203.80000305176</ele>
        <time>2018-03-13T15:48:31.000Z</time>
      </trkpt>
      <trkpt lat="43.9652" lon="5.07809">
        <ele>204</ele>
        <time>2018-03-13T15:48:32.000Z</time>
      </trkpt>
      <trkpt lat="43.96519" lon="5.07831">
        <ele>205.60000610352</ele>
        <time>2018-03-13T15:48:38.000Z</time>
      </trkpt>
      <trkpt lat="43.96519" lon="5.07831">
        <ele>205.60000610352</ele>
        <time>2018-03-13T15:48:43.000Z</time>
      </trkpt>
      <trkpt lat="43.96519" lon="5.0784">
        <ele>206.19999694824</ele>
        <time>2018-03-13T15:48:50.000Z</time>
      </trkpt>
      <trkpt lat="43.96526" lon="5.07857">
        <ele>207.60000610352</ele>
        <time>2018-03-13T15:48:55.000Z</time>
      </trkpt>
      <trkpt lat="43.96528" lon="5.07861">
        <ele>207.80000305176</ele>
        <time>2018-03-13T15:48:56.000Z</time>
      </trkpt>
      <trkpt lat="43.96529" lon="5.07866">
        <ele>208.19999694824</ele>
        <time>2018-03-13T15:48:57.000Z</time>
      </trkpt>
      <trkpt lat="43.96527" lon="5.07874">
        <ele>208.80000305176</ele>
        <time>2018-03-13T15:48:59.000Z</time>
      </trkpt>
      <trkpt lat="43.96528" lon="5.07885">
        <ele>209.80000305176</ele>
        <time>2018-03-13T15:49:02.000Z</time>
      </trkpt>
      <trkpt lat="43.96527" lon="5.07894">
        <ele>210.60000610352</ele>
        <time>2018-03-13T15:49:04.000Z</time>
      </trkpt>
      <trkpt lat="43.96524" lon="5.07911">
        <ele>212</ele>
        <time>2018-03-13T15:49:08.000Z</time>
      </trkpt>
      <trkpt lat="43.96525" lon="5.07918">
        <ele>212.60000610352</ele>
        <time>2018-03-13T15:49:10.000Z</time>
      </trkpt>
      <trkpt lat="43.96528" lon="5.07925">
        <ele>213.19999694824</ele>
        <time>2018-03-13T15:49:12.000Z</time>
      </trkpt>
      <trkpt lat="43.96531" lon="5.07927">
        <ele>213.39999389648</ele>
        <time>2018-03-13T15:49:13.000Z</time>
      </trkpt>
      <trkpt lat="43.96538" lon="5.07928">
        <ele>213.60000610352</ele>
        <time>2018-03-13T15:49:15.000Z</time>
      </trkpt>
      <trkpt lat="43.96539" lon="5.07928">
        <ele>213.60000610352</ele>
        <time>2018-03-13T15:49:18.000Z</time>
      </trkpt>
      <trkpt lat="43.9654" lon="5.07928">
        <ele>213.80000305176</ele>
        <time>2018-03-13T15:49:24.000Z</time>
      </trkpt>
      <trkpt lat="43.96541" lon="5.07929">
        <ele>213.80000305176</ele>
        <time>2018-03-13T15:49:25.000Z</time>
      </trkpt>
      <trkpt lat="43.96543" lon="5.07931">
        <ele>214</ele>
        <time>2018-03-13T15:49:26.000Z</time>
      </trkpt>
      <trkpt lat="43.96546" lon="5.07934">
        <ele>214.39999389648</ele>
        <time>2018-03-13T15:49:30.000Z</time>
      </trkpt>
      <trkpt lat="43.96549" lon="5.07936">
        <ele>214.60000610352</ele>
        <time>2018-03-13T15:49:34.000Z</time>
      </trkpt>
      <trkpt lat="43.96556" lon="5.07939">
        <ele>215</ele>
        <time>2018-03-13T15:49:37.000Z</time>
      </trkpt>
      <trkpt lat="43.96559" lon="5.07939">
        <ele>215</ele>
        <time>2018-03-13T15:49:38.000Z</time>
      </trkpt>
      <trkpt lat="43.96567" lon="5.07938">
        <ele>215.19999694824</ele>
        <time>2018-03-13T15:49:41.000Z</time>
      </trkpt>
      <trkpt lat="43.96571" lon="5.07937">
        <ele>215.19999694824</ele>
        <time>2018-03-13T15:49:43.000Z</time>
      </trkpt>
      <trkpt lat="43.96573" lon="5.07933">
        <ele>215</ele>
        <time>2018-03-13T15:49:45.000Z</time>
      </trkpt>
      <trkpt lat="43.96577" lon="5.07929">
        <ele>214.60000610352</ele>
        <time>2018-03-13T15:49:47.000Z</time>
      </trkpt>
      <trkpt lat="43.96584" lon="5.07926">
        <ele>214.19999694824</ele>
        <time>2018-03-13T15:49:49.000Z</time>
      </trkpt>
      <trkpt lat="43.9659" lon="5.07928">
        <ele>214.39999389648</ele>
        <time>2018-03-13T15:49:51.000Z</time>
      </trkpt>
      <trkpt lat="43.96593" lon="5.0793">
        <ele>214.60000610352</ele>
        <time>2018-03-13T15:49:53.000Z</time>
      </trkpt>
      <trkpt lat="43.96597" lon="5.07928">
        <ele>214.39999389648</ele>
        <time>2018-03-13T15:49:55.000Z</time>
      </trkpt>
      <trkpt lat="43.9661" lon="5.07919">
        <ele>213.19999694824</ele>
        <time>2018-03-13T15:50:00.000Z</time>
      </trkpt>
      <trkpt lat="43.9662" lon="5.07918">
        <ele>213.60000610352</ele>
        <time>2018-03-13T15:50:04.000Z</time>
      </trkpt>
      <trkpt lat="43.96622" lon="5.07918">
        <ele>213.60000610352</ele>
        <time>2018-03-13T15:50:05.000Z</time>
      </trkpt>
      <trkpt lat="43.96638" lon="5.07924">
        <ele>215.19999694824</ele>
        <time>2018-03-13T15:50:11.000Z</time>
      </trkpt>
      <trkpt lat="43.96647" lon="5.0793">
        <ele>216.39999389648</ele>
        <time>2018-03-13T15:50:14.000Z</time>
      </trkpt>
      <trkpt lat="43.96654" lon="5.07933">
        <ele>217</ele>
        <time>2018-03-13T15:50:17.000Z</time>
      </trkpt>
      <trkpt lat="43.96656" lon="5.07935">
        <ele>217.39999389648</ele>
        <time>2018-03-13T15:50:18.000Z</time>
      </trkpt>
      <trkpt lat="43.96668" lon="5.07941">
        <ele>218.60000610352</ele>
        <time>2018-03-13T15:50:23.000Z</time>
      </trkpt>
      <trkpt lat="43.96674" lon="5.07943">
        <ele>219.19999694824</ele>
        <time>2018-03-13T15:50:26.000Z</time>
      </trkpt>
      <trkpt lat="43.96678" lon="5.07942">
        <ele>219.39999389648</ele>
        <time>2018-03-13T15:50:28.000Z</time>
      </trkpt>
      <trkpt lat="43.96681" lon="5.07939">
        <ele>219.19999694824</ele>
        <time>2018-03-13T15:50:29.000Z</time>
      </trkpt>
      <trkpt lat="43.96692" lon="5.07938">
        <ele>220</ele>
        <time>2018-03-13T15:50:33.000Z</time>
      </trkpt>
      <trkpt lat="43.96694" lon="5.0794">
        <ele>220.19999694824</ele>
        <time>2018-03-13T15:50:34.000Z</time>
      </trkpt>
      <trkpt lat="43.96696" lon="5.07942">
        <ele>220.39999389648</ele>
        <time>2018-03-13T15:50:35.000Z</time>
      </trkpt>
      <trkpt lat="43.96698" lon="5.07948">
        <ele>221.19999694824</ele>
        <time>2018-03-13T15:50:37.000Z</time>
      </trkpt>
      <trkpt lat="43.96698" lon="5.07953">
        <ele>221.60000610352</ele>
        <time>2018-03-13T15:50:39.000Z</time>
      </trkpt>
      <trkpt lat="43.96698" lon="5.07961">
        <ele>222.19999694824</ele>
        <time>2018-03-13T15:50:42.000Z</time>
      </trkpt>
      <trkpt lat="43.96697" lon="5.07964">
        <ele>222.19999694824</ele>
        <time>2018-03-13T15:50:43.000Z</time>
      </trkpt>
      <trkpt lat="43.96698" lon="5.07966">
        <ele>222.19999694824</ele>
        <time>2018-03-13T15:50:44.000Z</time>
      </trkpt>
      <trkpt lat="43.96698" lon="5.07971">
        <ele>222.39999389648</ele>
        <time>2018-03-13T15:50:47.000Z</time>
      </trkpt>
      <trkpt lat="43.96697" lon="5.07988">
        <ele>223.19999694824</ele>
        <time>2018-03-13T15:50:54.000Z</time>
      </trkpt>
      <trkpt lat="43.96694" lon="5.08004">
        <ele>224</ele>
        <time>2018-03-13T15:51:00.000Z</time>
      </trkpt>
      <trkpt lat="43.9669" lon="5.08009">
        <ele>224.39999389648</ele>
        <time>2018-03-13T15:51:03.000Z</time>
      </trkpt>
      <trkpt lat="43.96689" lon="5.08013">
        <ele>224.39999389648</ele>
        <time>2018-03-13T15:51:05.000Z</time>
      </trkpt>
      <trkpt lat="43.96689" lon="5.08014">
        <ele>224.39999389648</ele>
        <time>2018-03-13T15:51:10.000Z</time>
      </trkpt>
      <trkpt lat="43.96689" lon="5.08014">
        <ele>224.39999389648</ele>
        <time>2018-03-13T15:51:19.000Z</time>
      </trkpt>
      <trkpt lat="43.96689" lon="5.08014">
        <ele>224.39999389648</ele>
        <time>2018-03-13T15:51:32.000Z</time>
      </trkpt>
      <trkpt lat="43.96689" lon="5.08014">
        <ele>224.39999389648</ele>
        <time>2018-03-13T15:51:42.000Z</time>
      </trkpt>
      <trkpt lat="43.96688" lon="5.08019">
        <ele>224.60000610352</ele>
        <time>2018-03-13T15:51:51.000Z</time>
      </trkpt>
      <trkpt lat="43.96689" lon="5.0802">
        <ele>224.80000305176</ele>
        <time>2018-03-13T15:51:53.000Z</time>
      </trkpt>
      <trkpt lat="43.96691" lon="5.08023">
        <ele>225</ele>
        <time>2018-03-13T15:51:54.000Z</time>
      </trkpt>
      <trkpt lat="43.96695" lon="5.08021">
        <ele>225</ele>
        <time>2018-03-13T15:51:56.000Z</time>
      </trkpt>
      <trkpt lat="43.96699" lon="5.08021">
        <ele>224.80000305176</ele>
        <time>2018-03-13T15:51:58.000Z</time>
      </trkpt>
      <trkpt lat="43.96703" lon="5.08021">
        <ele>224.80000305176</ele>
        <time>2018-03-13T15:52:00.000Z</time>
      </trkpt>
      <trkpt lat="43.96704" lon="5.0802">
        <ele>224.80000305176</ele>
        <time>2018-03-13T15:52:01.000Z</time>
      </trkpt>
      <trkpt lat="43.96708" lon="5.0802">
        <ele>224.60000610352</ele>
        <time>2018-03-13T15:52:03.000Z</time>
      </trkpt>
      <trkpt lat="43.96714" lon="5.08022">
        <ele>224.80000305176</ele>
        <time>2018-03-13T15:52:05.000Z</time>
      </trkpt>
      <trkpt lat="43.96716" lon="5.08023">
        <ele>224.80000305176</ele>
        <time>2018-03-13T15:52:06.000Z</time>
      </trkpt>
      <trkpt lat="43.96729" lon="5.08032">
        <ele>225</ele>
        <time>2018-03-13T15:52:12.000Z</time>
      </trkpt>
      <trkpt lat="43.96733" lon="5.08034">
        <ele>225</ele>
        <time>2018-03-13T15:52:16.000Z</time>
      </trkpt>
      <trkpt lat="43.96733" lon="5.08034">
        <ele>225</ele>
        <time>2018-03-13T15:52:17.000Z</time>
      </trkpt>
      <trkpt lat="43.96734" lon="5.08034">
        <ele>225</ele>
        <time>2018-03-13T15:52:27.000Z</time>
      </trkpt>
      <trkpt lat="43.96735" lon="5.08036">
        <ele>225.19999694824</ele>
        <time>2018-03-13T15:52:40.000Z</time>
      </trkpt>
      <trkpt lat="43.96738" lon="5.08035">
        <ele>225</ele>
        <time>2018-03-13T15:52:43.000Z</time>
      </trkpt>
      <trkpt lat="43.9674" lon="5.08034">
        <ele>225</ele>
        <time>2018-03-13T15:52:45.000Z</time>
      </trkpt>
      <trkpt lat="43.96742" lon="5.0803">
        <ele>224.80000305176</ele>
        <time>2018-03-13T15:52:47.000Z</time>
      </trkpt>
      <trkpt lat="43.9674" lon="5.08027">
        <ele>224.60000610352</ele>
        <time>2018-03-13T15:52:49.000Z</time>
      </trkpt>
      <trkpt lat="43.9674" lon="5.08026">
        <ele>224.60000610352</ele>
        <time>2018-03-13T15:52:51.000Z</time>
      </trkpt>
      <trkpt lat="43.9674" lon="5.08026">
        <ele>224.60000610352</ele>
        <time>2018-03-13T15:52:54.000Z</time>
      </trkpt>
      <trkpt lat="43.96739" lon="5.08019">
        <ele>224.19999694824</ele>
        <time>2018-03-13T15:53:00.000Z</time>
      </trkpt>
      <trkpt lat="43.9674" lon="5.08018">
        <ele>224.19999694824</ele>
        <time>2018-03-13T15:53:01.000Z</time>
      </trkpt>
      <trkpt lat="43.96744" lon="5.08015">
        <ele>224</ele>
        <time>2018-03-13T15:53:05.000Z</time>
      </trkpt>
      <trkpt lat="43.96752" lon="5.08006">
        <ele>224.19999694824</ele>
        <time>2018-03-13T15:53:13.000Z</time>
      </trkpt>
      <trkpt lat="43.96756" lon="5.08">
        <ele>224.39999389648</ele>
        <time>2018-03-13T15:53:14.000Z</time>
      </trkpt>
      <trkpt lat="43.96761" lon="5.07997">
        <ele>224.60000610352</ele>
        <time>2018-03-13T15:53:15.000Z</time>
      </trkpt>
      <trkpt lat="43.96765" lon="5.07996">
        <ele>224.60000610352</ele>
        <time>2018-03-13T15:53:16.000Z</time>
      </trkpt>
      <trkpt lat="43.96768" lon="5.07998">
        <ele>224.80000305176</ele>
        <time>2018-03-13T15:53:17.000Z</time>
      </trkpt>
      <trkpt lat="43.96772" lon="5.08003">
        <ele>225</ele>
        <time>2018-03-13T15:53:19.000Z</time>
      </trkpt>
      <trkpt lat="43.96781" lon="5.08009">
        <ele>225.39999389648</ele>
        <time>2018-03-13T15:53:23.000Z</time>
      </trkpt>
      <trkpt lat="43.96793" lon="5.08005">
        <ele>226.39999389648</ele>
        <time>2018-03-13T15:53:27.000Z</time>
      </trkpt>
      <trkpt lat="43.96806" lon="5.08002">
        <ele>227.19999694824</ele>
        <time>2018-03-13T15:53:30.000Z</time>
      </trkpt>
      <trkpt lat="43.96816" lon="5.08006">
        <ele>228</ele>
        <time>2018-03-13T15:53:34.000Z</time>
      </trkpt>
      <trkpt lat="43.96818" lon="5.08009">
        <ele>228.19999694824</ele>
        <time>2018-03-13T15:53:35.000Z</time>
      </trkpt>
      <trkpt lat="43.96821" lon="5.0801">
        <ele>228.39999389648</ele>
        <time>2018-03-13T15:53:36.000Z</time>
      </trkpt>
      <trkpt lat="43.96829" lon="5.08008">
        <ele>228.80000305176</ele>
        <time>2018-03-13T15:53:39.000Z</time>
      </trkpt>
      <trkpt lat="43.96831" lon="5.08004">
        <ele>229</ele>
        <time>2018-03-13T15:53:42.000Z</time>
      </trkpt>
      <trkpt lat="43.96831" lon="5.08005">
        <ele>229</ele>
        <time>2018-03-13T15:53:50.000Z</time>
      </trkpt>
      <trkpt lat="43.96832" lon="5.08003">
        <ele>229</ele>
        <time>2018-03-13T15:53:52.000Z</time>
      </trkpt>
      <trkpt lat="43.96834" lon="5.07999">
        <ele>229</ele>
        <time>2018-03-13T15:53:54.000Z</time>
      </trkpt>
      <trkpt lat="43.96846" lon="5.07989">
        <ele>229.60000610352</ele>
        <time>2018-03-13T15:53:58.000Z</time>
      </trkpt>
      <trkpt lat="43.96861" lon="5.07994">
        <ele>230.80000305176</ele>
        <time>2018-03-13T15:54:02.000Z</time>
      </trkpt>
      <trkpt lat="43.96873" lon="5.08002">
        <ele>232</ele>
        <time>2018-03-13T15:54:07.000Z</time>
      </trkpt>
      <trkpt lat="43.96873" lon="5.08001">
        <ele>232.19999694824</ele>
        <time>2018-03-13T15:54:11.000Z</time>
      </trkpt>
      <trkpt lat="43.96878" lon="5.08004">
        <ele>232.80000305176</ele>
        <time>2018-03-13T15:54:27.000Z</time>
      </trkpt>
      <trkpt lat="43.9689" lon="5.08002">
        <ele>234</ele>
        <time>2018-03-13T15:54:30.000Z</time>
      </trkpt>
      <trkpt lat="43.96895" lon="5.08">
        <ele>234.39999389648</ele>
        <time>2018-03-13T15:54:31.000Z</time>
      </trkpt>
      <trkpt lat="43.96913" lon="5.07989">
        <ele>234</ele>
        <time>2018-03-13T15:54:35.000Z</time>
      </trkpt>
      <trkpt lat="43.96917" lon="5.07986">
        <ele>234</ele>
        <time>2018-03-13T15:54:36.000Z</time>
      </trkpt>
      <trkpt lat="43.96921" lon="5.07984">
        <ele>233.80000305176</ele>
        <time>2018-03-13T15:54:37.000Z</time>
      </trkpt>
      <trkpt lat="43.96935" lon="5.07982">
        <ele>234</ele>
        <time>2018-03-13T15:54:40.000Z</time>
      </trkpt>
      <trkpt lat="43.96943" lon="5.07983">
        <ele>234</ele>
        <time>2018-03-13T15:54:42.000Z</time>
      </trkpt>
      <trkpt lat="43.96947" lon="5.07985">
        <ele>233.39999389648</ele>
        <time>2018-03-13T15:54:43.000Z</time>
      </trkpt>
      <trkpt lat="43.96951" lon="5.07986">
        <ele>233</ele>
        <time>2018-03-13T15:54:44.000Z</time>
      </trkpt>
      <trkpt lat="43.96963" lon="5.07992">
        <ele>231.39999389648</ele>
        <time>2018-03-13T15:54:48.000Z</time>
      </trkpt>
      <trkpt lat="43.96964" lon="5.07991">
        <ele>231.19999694824</ele>
        <time>2018-03-13T15:54:49.000Z</time>
      </trkpt>
      <trkpt lat="43.96964" lon="5.07992">
        <ele>231.19999694824</ele>
        <time>2018-03-13T15:54:54.000Z</time>
      </trkpt>
      <trkpt lat="43.96968" lon="5.07995">
        <ele>231</ele>
        <time>2018-03-13T15:55:00.000Z</time>
      </trkpt>
      <trkpt lat="43.96969" lon="5.07998">
        <ele>231.19999694824</ele>
        <time>2018-03-13T15:55:01.000Z</time>
      </trkpt>
      <trkpt lat="43.96965" lon="5.08007">
        <ele>232.60000610352</ele>
        <time>2018-03-13T15:55:04.000Z</time>
      </trkpt>
      <trkpt lat="43.96963" lon="5.08013">
        <ele>233.39999389648</ele>
        <time>2018-03-13T15:55:06.000Z</time>
      </trkpt>
      <trkpt lat="43.96963" lon="5.08016">
        <ele>233.80000305176</ele>
        <time>2018-03-13T15:55:07.000Z</time>
      </trkpt>
      <trkpt lat="43.9696" lon="5.08027">
        <ele>235.39999389648</ele>
        <time>2018-03-13T15:55:11.000Z</time>
      </trkpt>
      <trkpt lat="43.96959" lon="5.0803">
        <ele>235.80000305176</ele>
        <time>2018-03-13T15:55:12.000Z</time>
      </trkpt>
      <trkpt lat="43.96959" lon="5.08029">
        <ele>235.60000610352</ele>
        <time>2018-03-13T15:55:15.000Z</time>
      </trkpt>
      <trkpt lat="43.96959" lon="5.08035">
        <ele>236.19999694824</ele>
        <time>2018-03-13T15:55:25.000Z</time>
      </trkpt>
      <trkpt lat="43.96958" lon="5.08049">
        <ele>238.19999694824</ele>
        <time>2018-03-13T15:55:30.000Z</time>
      </trkpt>
      <trkpt lat="43.96956" lon="5.08063">
        <ele>239.60000610352</ele>
        <time>2018-03-13T15:55:34.000Z</time>
      </trkpt>
      <trkpt lat="43.96957" lon="5.08073">
        <ele>239.80000305176</ele>
        <time>2018-03-13T15:55:37.000Z</time>
      </trkpt>
      <trkpt lat="43.96957" lon="5.08088">
        <ele>240</ele>
        <time>2018-03-13T15:55:41.000Z</time>
      </trkpt>
      <trkpt lat="43.96959" lon="5.08098">
        <ele>240</ele>
        <time>2018-03-13T15:55:44.000Z</time>
      </trkpt>
      <trkpt lat="43.96961" lon="5.08108">
        <ele>240</ele>
        <time>2018-03-13T15:55:47.000Z</time>
      </trkpt>
      <trkpt lat="43.96967" lon="5.08125">
        <ele>240</ele>
        <time>2018-03-13T15:55:52.000Z</time>
      </trkpt>
      <trkpt lat="43.96971" lon="5.08135">
        <ele>240.80000305176</ele>
        <time>2018-03-13T15:55:55.000Z</time>
      </trkpt>
      <trkpt lat="43.96976" lon="5.08144">
        <ele>241.60000610352</ele>
        <time>2018-03-13T15:55:58.000Z</time>
      </trkpt>
      <trkpt lat="43.96981" lon="5.08149">
        <ele>242</ele>
        <time>2018-03-13T15:56:01.000Z</time>
      </trkpt>
      <trkpt lat="43.96997" lon="5.08161">
        <ele>242.80000305176</ele>
        <time>2018-03-13T15:56:05.000Z</time>
      </trkpt>
      <trkpt lat="43.97005" lon="5.08176">
        <ele>244</ele>
        <time>2018-03-13T15:56:08.000Z</time>
      </trkpt>
      <trkpt lat="43.97006" lon="5.08179">
        <ele>244.19999694824</ele>
        <time>2018-03-13T15:56:09.000Z</time>
      </trkpt>
      <trkpt lat="43.97007" lon="5.08183">
        <ele>244.80000305176</ele>
        <time>2018-03-13T15:56:11.000Z</time>
      </trkpt>
      <trkpt lat="43.9701" lon="5.08186">
        <ele>245</ele>
        <time>2018-03-13T15:56:13.000Z</time>
      </trkpt>
      <trkpt lat="43.97011" lon="5.08193">
        <ele>245.80000305176</ele>
        <time>2018-03-13T15:56:16.000Z</time>
      </trkpt>
      <trkpt lat="43.97011" lon="5.08196">
        <ele>246</ele>
        <time>2018-03-13T15:56:17.000Z</time>
      </trkpt>
      <trkpt lat="43.97012" lon="5.08201">
        <ele>246.19999694824</ele>
        <time>2018-03-13T15:56:19.000Z</time>
      </trkpt>
      <trkpt lat="43.97012" lon="5.08201">
        <ele>246.19999694824</ele>
        <time>2018-03-13T15:56:22.000Z</time>
      </trkpt>
      <trkpt lat="43.97013" lon="5.08203">
        <ele>246.39999389648</ele>
        <time>2018-03-13T15:56:28.000Z</time>
      </trkpt>
      <trkpt lat="43.97015" lon="5.08208">
        <ele>246.60000610352</ele>
        <time>2018-03-13T15:56:30.000Z</time>
      </trkpt>
      <trkpt lat="43.97016" lon="5.08219">
        <ele>246.80000305176</ele>
        <time>2018-03-13T15:56:35.000Z</time>
      </trkpt>
      <trkpt lat="43.97016" lon="5.08219">
        <ele>246.80000305176</ele>
        <time>2018-03-13T15:56:41.000Z</time>
      </trkpt>
      <trkpt lat="43.97017" lon="5.0822">
        <ele>246.80000305176</ele>
        <time>2018-03-13T15:56:47.000Z</time>
      </trkpt>
      <trkpt lat="43.97018" lon="5.08223">
        <ele>247</ele>
        <time>2018-03-13T15:56:48.000Z</time>
      </trkpt>
      <trkpt lat="43.97023" lon="5.08237">
        <ele>247.19999694824</ele>
        <time>2018-03-13T15:56:51.000Z</time>
      </trkpt>
      <trkpt lat="43.97025" lon="5.08242">
        <ele>247.39999389648</ele>
        <time>2018-03-13T15:56:52.000Z</time>
      </trkpt>
      <trkpt lat="43.97027" lon="5.08248">
        <ele>247.39999389648</ele>
        <time>2018-03-13T15:56:53.000Z</time>
      </trkpt>
      <trkpt lat="43.97031" lon="5.08253">
        <ele>247.19999694824</ele>
        <time>2018-03-13T15:56:54.000Z</time>
      </trkpt>
      <trkpt lat="43.97041" lon="5.08269">
        <ele>247.19999694824</ele>
        <time>2018-03-13T15:56:57.000Z</time>
      </trkpt>
      <trkpt lat="43.97051" lon="5.08285">
        <ele>247</ele>
        <time>2018-03-13T15:57:00.000Z</time>
      </trkpt>
      <trkpt lat="43.97055" lon="5.0829">
        <ele>246.80000305176</ele>
        <time>2018-03-13T15:57:01.000Z</time>
      </trkpt>
      <trkpt lat="43.97064" lon="5.08305">
        <ele>247.19999694824</ele>
        <time>2018-03-13T15:57:04.000Z</time>
      </trkpt>
      <trkpt lat="43.97072" lon="5.08318">
        <ele>247.80000305176</ele>
        <time>2018-03-13T15:57:07.000Z</time>
      </trkpt>
      <trkpt lat="43.97074" lon="5.08317">
        <ele>247.60000610352</ele>
        <time>2018-03-13T15:57:08.000Z</time>
      </trkpt>
      <trkpt lat="43.97074" lon="5.08317">
        <ele>247.60000610352</ele>
        <time>2018-03-13T15:57:11.000Z</time>
      </trkpt>
      <trkpt lat="43.97077" lon="5.08316">
        <ele>247.39999389648</ele>
        <time>2018-03-13T15:57:19.000Z</time>
      </trkpt>
      <trkpt lat="43.9708" lon="5.08318">
        <ele>247.60000610352</ele>
        <time>2018-03-13T15:57:20.000Z</time>
      </trkpt>
      <trkpt lat="43.97093" lon="5.08333">
        <ele>248</ele>
        <time>2018-03-13T15:57:24.000Z</time>
      </trkpt>
      <trkpt lat="43.97102" lon="5.08351">
        <ele>248.60000610352</ele>
        <time>2018-03-13T15:57:28.000Z</time>
      </trkpt>
      <trkpt lat="43.97108" lon="5.08357">
        <ele>248.80000305176</ele>
        <time>2018-03-13T15:57:30.000Z</time>
      </trkpt>
      <trkpt lat="43.97114" lon="5.08371">
        <ele>248.80000305176</ele>
        <time>2018-03-13T15:57:33.000Z</time>
      </trkpt>
      <trkpt lat="43.97119" lon="5.08397">
        <ele>249.60000610352</ele>
        <time>2018-03-13T15:57:38.000Z</time>
      </trkpt>
      <trkpt lat="43.97121" lon="5.08411">
        <ele>249.19999694824</ele>
        <time>2018-03-13T15:57:43.000Z</time>
      </trkpt>
      <trkpt lat="43.97123" lon="5.08415">
        <ele>249.19999694824</ele>
        <time>2018-03-13T15:57:56.000Z</time>
      </trkpt>
      <trkpt lat="43.97135" lon="5.08428">
        <ele>249.19999694824</ele>
        <time>2018-03-13T15:58:00.000Z</time>
      </trkpt>
      <trkpt lat="43.97138" lon="5.08431">
        <ele>249.19999694824</ele>
        <time>2018-03-13T15:58:01.000Z</time>
      </trkpt>
      <trkpt lat="43.97141" lon="5.08434">
        <ele>249.19999694824</ele>
        <time>2018-03-13T15:58:02.000Z</time>
      </trkpt>
      <trkpt lat="43.97152" lon="5.08445">
        <ele>249</ele>
        <time>2018-03-13T15:58:05.000Z</time>
      </trkpt>
      <trkpt lat="43.97156" lon="5.0845">
        <ele>249</ele>
        <time>2018-03-13T15:58:06.000Z</time>
      </trkpt>
      <trkpt lat="43.97176" lon="5.08482">
        <ele>250</ele>
        <time>2018-03-13T15:58:12.000Z</time>
      </trkpt>
      <trkpt lat="43.97179" lon="5.08488">
        <ele>250.19999694824</ele>
        <time>2018-03-13T15:58:13.000Z</time>
      </trkpt>
      <trkpt lat="43.9719" lon="5.08501">
        <ele>251</ele>
        <time>2018-03-13T15:58:16.000Z</time>
      </trkpt>
      <trkpt lat="43.97196" lon="5.08508">
        <ele>251.19999694824</ele>
        <time>2018-03-13T15:58:18.000Z</time>
      </trkpt>
      <trkpt lat="43.97197" lon="5.08508">
        <ele>251.19999694824</ele>
        <time>2018-03-13T15:58:19.000Z</time>
      </trkpt>
      <trkpt lat="43.97197" lon="5.08508">
        <ele>251.19999694824</ele>
        <time>2018-03-13T15:58:20.000Z</time>
      </trkpt>
      <trkpt lat="43.97198" lon="5.08511">
        <ele>251.39999389648</ele>
        <time>2018-03-13T15:58:29.000Z</time>
      </trkpt>
      <trkpt lat="43.97206" lon="5.08527">
        <ele>251.80000305176</ele>
        <time>2018-03-13T15:58:33.000Z</time>
      </trkpt>
      <trkpt lat="43.97214" lon="5.08542">
        <ele>252.19999694824</ele>
        <time>2018-03-13T15:58:36.000Z</time>
      </trkpt>
      <trkpt lat="43.9722" lon="5.0855">
        <ele>252.39999389648</ele>
        <time>2018-03-13T15:58:38.000Z</time>
      </trkpt>
      <trkpt lat="43.97222" lon="5.08554">
        <ele>252.39999389648</ele>
        <time>2018-03-13T15:58:39.000Z</time>
      </trkpt>
      <trkpt lat="43.97237" lon="5.08574">
        <ele>252.60000610352</ele>
        <time>2018-03-13T15:58:44.000Z</time>
      </trkpt>
      <trkpt lat="43.9724" lon="5.08578">
        <ele>252.60000610352</ele>
        <time>2018-03-13T15:58:45.000Z</time>
      </trkpt>
      <trkpt lat="43.97243" lon="5.08582">
        <ele>252.60000610352</ele>
        <time>2018-03-13T15:58:46.000Z</time>
      </trkpt>
      <trkpt lat="43.97256" lon="5.08601">
        <ele>252.80000305176</ele>
        <time>2018-03-13T15:58:51.000Z</time>
      </trkpt>
      <trkpt lat="43.97258" lon="5.08603">
        <ele>252.80000305176</ele>
        <time>2018-03-13T15:58:52.000Z</time>
      </trkpt>
      <trkpt lat="43.97259" lon="5.08605">
        <ele>252.80000305176</ele>
        <time>2018-03-13T15:58:55.000Z</time>
      </trkpt>
      <trkpt lat="43.97259" lon="5.08606">
        <ele>252.80000305176</ele>
        <time>2018-03-13T15:59:05.000Z</time>
      </trkpt>
      <trkpt lat="43.97264" lon="5.08613">
        <ele>252.80000305176</ele>
        <time>2018-03-13T15:59:07.000Z</time>
      </trkpt>
      <trkpt lat="43.97267" lon="5.08617">
        <ele>253</ele>
        <time>2018-03-13T15:59:08.000Z</time>
      </trkpt>
      <trkpt lat="43.97272" lon="5.08624">
        <ele>253</ele>
        <time>2018-03-13T15:59:10.000Z</time>
      </trkpt>
      <trkpt lat="43.97277" lon="5.08633">
        <ele>252.80000305176</ele>
        <time>2018-03-13T15:59:14.000Z</time>
      </trkpt>
      <trkpt lat="43.97277" lon="5.08633">
        <ele>252.80000305176</ele>
        <time>2018-03-13T15:59:19.000Z</time>
      </trkpt>
      <trkpt lat="43.97282" lon="5.08647">
        <ele>252</ele>
        <time>2018-03-13T15:59:25.000Z</time>
      </trkpt>
      <trkpt lat="43.9729" lon="5.08673">
        <ele>250.80000305176</ele>
        <time>2018-03-13T15:59:30.000Z</time>
      </trkpt>
      <trkpt lat="43.97303" lon="5.08691">
        <ele>250.19999694824</ele>
        <time>2018-03-13T15:59:35.000Z</time>
      </trkpt>
      <trkpt lat="43.97312" lon="5.08699">
        <ele>250</ele>
        <time>2018-03-13T15:59:37.000Z</time>
      </trkpt>
      <trkpt lat="43.97321" lon="5.08707">
        <ele>249.80000305176</ele>
        <time>2018-03-13T15:59:39.000Z</time>
      </trkpt>
      <trkpt lat="43.97328" lon="5.0871">
        <ele>250</ele>
        <time>2018-03-13T15:59:40.000Z</time>
      </trkpt>
      <trkpt lat="43.97335" lon="5.08712">
        <ele>250.39999389648</ele>
        <time>2018-03-13T15:59:41.000Z</time>
      </trkpt>
      <trkpt lat="43.97341" lon="5.08716">
        <ele>250.80000305176</ele>
        <time>2018-03-13T15:59:42.000Z</time>
      </trkpt>
      <trkpt lat="43.97346" lon="5.08723">
        <ele>251.60000610352</ele>
        <time>2018-03-13T15:59:43.000Z</time>
      </trkpt>
      <trkpt lat="43.97358" lon="5.08741">
        <ele>253.19999694824</ele>
        <time>2018-03-13T15:59:46.000Z</time>
      </trkpt>
      <trkpt lat="43.97358" lon="5.08744">
        <ele>253.39999389648</ele>
        <time>2018-03-13T15:59:47.000Z</time>
      </trkpt>
      <trkpt lat="43.97359" lon="5.08746">
        <ele>253.39999389648</ele>
        <time>2018-03-13T15:59:50.000Z</time>
      </trkpt>
      <trkpt lat="43.9736" lon="5.08747">
        <ele>253.39999389648</ele>
        <time>2018-03-13T15:59:58.000Z</time>
      </trkpt>
      <trkpt lat="43.97363" lon="5.08752">
        <ele>253.19999694824</ele>
        <time>2018-03-13T16:00:00.000Z</time>
      </trkpt>
      <trkpt lat="43.97364" lon="5.08756">
        <ele>253.19999694824</ele>
        <time>2018-03-13T16:00:01.000Z</time>
      </trkpt>
      <trkpt lat="43.97371" lon="5.08772">
        <ele>253.39999389648</ele>
        <time>2018-03-13T16:00:04.000Z</time>
      </trkpt>
      <trkpt lat="43.97373" lon="5.08777">
        <ele>253.19999694824</ele>
        <time>2018-03-13T16:00:05.000Z</time>
      </trkpt>
      <trkpt lat="43.97386" lon="5.08793">
        <ele>252.19999694824</ele>
        <time>2018-03-13T16:00:09.000Z</time>
      </trkpt>
      <trkpt lat="43.97388" lon="5.08798">
        <ele>252.39999389648</ele>
        <time>2018-03-13T16:00:10.000Z</time>
      </trkpt>
      <trkpt lat="43.97392" lon="5.08801">
        <ele>252.19999694824</ele>
        <time>2018-03-13T16:00:13.000Z</time>
      </trkpt>
      <trkpt lat="43.97392" lon="5.08801">
        <ele>252.19999694824</ele>
        <time>2018-03-13T16:00:14.000Z</time>
      </trkpt>
      <trkpt lat="43.97392" lon="5.08801">
        <ele>252.19999694824</ele>
        <time>2018-03-13T16:00:20.000Z</time>
      </trkpt>
      <trkpt lat="43.97393" lon="5.08804">
        <ele>252.60000610352</ele>
        <time>2018-03-13T16:00:23.000Z</time>
      </trkpt>
      <trkpt lat="43.97396" lon="5.08812">
        <ele>253.19999694824</ele>
        <time>2018-03-13T16:00:25.000Z</time>
      </trkpt>
      <trkpt lat="43.97402" lon="5.08832">
        <ele>254.80000305176</ele>
        <time>2018-03-13T16:00:29.000Z</time>
      </trkpt>
      <trkpt lat="43.97402" lon="5.08839">
        <ele>255.60000610352</ele>
        <time>2018-03-13T16:00:30.000Z</time>
      </trkpt>
      <trkpt lat="43.97401" lon="5.08851">
        <ele>256.60000610352</ele>
        <time>2018-03-13T16:00:32.000Z</time>
      </trkpt>
      <trkpt lat="43.97401" lon="5.08857">
        <ele>257.20001220703</ele>
        <time>2018-03-13T16:00:33.000Z</time>
      </trkpt>
      <trkpt lat="43.97405" lon="5.08876">
        <ele>258.39999389648</ele>
        <time>2018-03-13T16:00:36.000Z</time>
      </trkpt>
      <trkpt lat="43.97406" lon="5.08883">
        <ele>259.20001220703</ele>
        <time>2018-03-13T16:00:37.000Z</time>
      </trkpt>
      <trkpt lat="43.97414" lon="5.08915">
        <ele>262.39999389648</ele>
        <time>2018-03-13T16:00:43.000Z</time>
      </trkpt>
      <trkpt lat="43.97417" lon="5.0892">
        <ele>262.60000610352</ele>
        <time>2018-03-13T16:00:44.000Z</time>
      </trkpt>
      <trkpt lat="43.97424" lon="5.08944">
        <ele>264.79998779297</ele>
        <time>2018-03-13T16:00:48.000Z</time>
      </trkpt>
      <trkpt lat="43.97432" lon="5.08967">
        <ele>266.20001220703</ele>
        <time>2018-03-13T16:00:52.000Z</time>
      </trkpt>
      <trkpt lat="43.97436" lon="5.08978">
        <ele>266.39999389648</ele>
        <time>2018-03-13T16:00:54.000Z</time>
      </trkpt>
      <trkpt lat="43.97438" lon="5.08984">
        <ele>266.60000610352</ele>
        <time>2018-03-13T16:00:55.000Z</time>
      </trkpt>
      <trkpt lat="43.97443" lon="5.09002">
        <ele>267.39999389648</ele>
        <time>2018-03-13T16:00:58.000Z</time>
      </trkpt>
      <trkpt lat="43.97447" lon="5.09013">
        <ele>267.60000610352</ele>
        <time>2018-03-13T16:01:00.000Z</time>
      </trkpt>
      <trkpt lat="43.97448" lon="5.09023">
        <ele>268.20001220703</ele>
        <time>2018-03-13T16:01:02.000Z</time>
      </trkpt>
      <trkpt lat="43.9745" lon="5.0904">
        <ele>269</ele>
        <time>2018-03-13T16:01:05.000Z</time>
      </trkpt>
      <trkpt lat="43.97451" lon="5.09041">
        <ele>268.79998779297</ele>
        <time>2018-03-13T16:01:08.000Z</time>
      </trkpt>
      <trkpt lat="43.97455" lon="5.09042">
        <ele>268.60000610352</ele>
        <time>2018-03-13T16:01:20.000Z</time>
      </trkpt>
      <trkpt lat="43.97458" lon="5.09042">
        <ele>268.39999389648</ele>
        <time>2018-03-13T16:01:21.000Z</time>
      </trkpt>
      <trkpt lat="43.97471" lon="5.09048">
        <ele>268</ele>
        <time>2018-03-13T16:01:24.000Z</time>
      </trkpt>
      <trkpt lat="43.97502" lon="5.09058">
        <ele>266.79998779297</ele>
        <time>2018-03-13T16:01:29.000Z</time>
      </trkpt>
      <trkpt lat="43.97521" lon="5.09066">
        <ele>266.20001220703</ele>
        <time>2018-03-13T16:01:32.000Z</time>
      </trkpt>
      <trkpt lat="43.97538" lon="5.0908">
        <ele>266.20001220703</ele>
        <time>2018-03-13T16:01:35.000Z</time>
      </trkpt>
      <trkpt lat="43.97544" lon="5.09087">
        <ele>266.60000610352</ele>
        <time>2018-03-13T16:01:36.000Z</time>
      </trkpt>
      <trkpt lat="43.97556" lon="5.09104">
        <ele>267.60000610352</ele>
        <time>2018-03-13T16:01:38.000Z</time>
      </trkpt>
      <trkpt lat="43.97562" lon="5.09113">
        <ele>268.39999389648</ele>
        <time>2018-03-13T16:01:39.000Z</time>
      </trkpt>
      <trkpt lat="43.97575" lon="5.09125">
        <ele>268.39999389648</ele>
        <time>2018-03-13T16:01:41.000Z</time>
      </trkpt>
      <trkpt lat="43.97582" lon="5.09125">
        <ele>267.39999389648</ele>
        <time>2018-03-13T16:01:42.000Z</time>
      </trkpt>
      <trkpt lat="43.9759" lon="5.09118">
        <ele>265</ele>
        <time>2018-03-13T16:01:44.000Z</time>
      </trkpt>
      <trkpt lat="43.97591" lon="5.09114">
        <ele>264.20001220703</ele>
        <time>2018-03-13T16:01:47.000Z</time>
      </trkpt>
      <trkpt lat="43.97591" lon="5.09114">
        <ele>264.20001220703</ele>
        <time>2018-03-13T16:01:53.000Z</time>
      </trkpt>
      <trkpt lat="43.97591" lon="5.09112">
        <ele>264</ele>
        <time>2018-03-13T16:01:54.000Z</time>
      </trkpt>
      <trkpt lat="43.97592" lon="5.09108">
        <ele>263.20001220703</ele>
        <time>2018-03-13T16:01:55.000Z</time>
      </trkpt>
      <trkpt lat="43.97593" lon="5.09102">
        <ele>262</ele>
        <time>2018-03-13T16:01:56.000Z</time>
      </trkpt>
      <trkpt lat="43.97596" lon="5.09086">
        <ele>259</ele>
        <time>2018-03-13T16:01:58.000Z</time>
      </trkpt>
      <trkpt lat="43.97598" lon="5.09078">
        <ele>257.20001220703</ele>
        <time>2018-03-13T16:01:59.000Z</time>
      </trkpt>
      <trkpt lat="43.97602" lon="5.09059">
        <ele>253.60000610352</ele>
        <time>2018-03-13T16:02:01.000Z</time>
      </trkpt>
      <trkpt lat="43.97606" lon="5.09037">
        <ele>249.19999694824</ele>
        <time>2018-03-13T16:02:03.000Z</time>
      </trkpt>
      <trkpt lat="43.97609" lon="5.09027">
        <ele>247.39999389648</ele>
        <time>2018-03-13T16:02:04.000Z</time>
      </trkpt>
      <trkpt lat="43.97611" lon="5.09017">
        <ele>246.19999694824</ele>
        <time>2018-03-13T16:02:05.000Z</time>
      </trkpt>
      <trkpt lat="43.97613" lon="5.0901">
        <ele>245.39999389648</ele>
        <time>2018-03-13T16:02:06.000Z</time>
      </trkpt>
      <trkpt lat="43.97614" lon="5.09002">
        <ele>244.19999694824</ele>
        <time>2018-03-13T16:02:07.000Z</time>
      </trkpt>
      <trkpt lat="43.97614" lon="5.08994">
        <ele>242.80000305176</ele>
        <time>2018-03-13T16:02:08.000Z</time>
      </trkpt>
      <trkpt lat="43.97617" lon="5.0898">
        <ele>241</ele>
        <time>2018-03-13T16:02:10.000Z</time>
      </trkpt>
      <trkpt lat="43.97619" lon="5.08974">
        <ele>240.39999389648</ele>
        <time>2018-03-13T16:02:11.000Z</time>
      </trkpt>
      <trkpt lat="43.97621" lon="5.08968">
        <ele>239.80000305176</ele>
        <time>2018-03-13T16:02:12.000Z</time>
      </trkpt>
      <trkpt lat="43.97625" lon="5.08956">
        <ele>238.39999389648</ele>
        <time>2018-03-13T16:02:14.000Z</time>
      </trkpt>
      <trkpt lat="43.97629" lon="5.08951">
        <ele>238</ele>
        <time>2018-03-13T16:02:15.000Z</time>
      </trkpt>
      <trkpt lat="43.97634" lon="5.08946">
        <ele>238.19999694824</ele>
        <time>2018-03-13T16:02:16.000Z</time>
      </trkpt>
      <trkpt lat="43.97639" lon="5.08941">
        <ele>238.19999694824</ele>
        <time>2018-03-13T16:02:17.000Z</time>
      </trkpt>
      <trkpt lat="43.97646" lon="5.0894">
        <ele>239.19999694824</ele>
        <time>2018-03-13T16:02:18.000Z</time>
      </trkpt>
      <trkpt lat="43.97652" lon="5.0894">
        <ele>240.39999389648</ele>
        <time>2018-03-13T16:02:19.000Z</time>
      </trkpt>
      <trkpt lat="43.97666" lon="5.08937">
        <ele>242.39999389648</ele>
        <time>2018-03-13T16:02:21.000Z</time>
      </trkpt>
      <trkpt lat="43.97672" lon="5.08934">
        <ele>242.60000610352</ele>
        <time>2018-03-13T16:02:22.000Z</time>
      </trkpt>
      <trkpt lat="43.97675" lon="5.08927">
        <ele>241.39999389648</ele>
        <time>2018-03-13T16:02:23.000Z</time>
      </trkpt>
      <trkpt lat="43.97676" lon="5.08919">
        <ele>239.60000610352</ele>
        <time>2018-03-13T16:02:24.000Z</time>
      </trkpt>
      <trkpt lat="43.97676" lon="5.08911">
        <ele>237.80000305176</ele>
        <time>2018-03-13T16:02:25.000Z</time>
      </trkpt>
      <trkpt lat="43.97674" lon="5.08899">
        <ele>234.80000305176</ele>
        <time>2018-03-13T16:02:27.000Z</time>
      </trkpt>
      <trkpt lat="43.97671" lon="5.08894">
        <ele>233.39999389648</ele>
        <time>2018-03-13T16:02:28.000Z</time>
      </trkpt>
      <trkpt lat="43.97668" lon="5.08874">
        <ele>228.60000610352</ele>
        <time>2018-03-13T16:02:31.000Z</time>
      </trkpt>
      <trkpt lat="43.97675" lon="5.0885">
        <ele>226.60000610352</ele>
        <time>2018-03-13T16:02:35.000Z</time>
      </trkpt>
      <trkpt lat="43.97678" lon="5.08846">
        <ele>226.60000610352</ele>
        <time>2018-03-13T16:02:38.000Z</time>
      </trkpt>
      <trkpt lat="43.97678" lon="5.08845">
        <ele>226.60000610352</ele>
        <time>2018-03-13T16:02:44.000Z</time>
      </trkpt>
      <trkpt lat="43.97682" lon="5.0884">
        <ele>226.39999389648</ele>
        <time>2018-03-13T16:02:47.000Z</time>
      </trkpt>
      <trkpt lat="43.97685" lon="5.08834">
        <ele>226</ele>
        <time>2018-03-13T16:02:48.000Z</time>
      </trkpt>
      <trkpt lat="43.97688" lon="5.08828">
        <ele>225.80000305176</ele>
        <time>2018-03-13T16:02:49.000Z</time>
      </trkpt>
      <trkpt lat="43.97698" lon="5.08814">
        <ele>225.60000610352</ele>
        <time>2018-03-13T16:02:51.000Z</time>
      </trkpt>
      <trkpt lat="43.97704" lon="5.08808">
        <ele>225.80000305176</ele>
        <time>2018-03-13T16:02:52.000Z</time>
      </trkpt>
      <trkpt lat="43.97708" lon="5.08799">
        <ele>225.80000305176</ele>
        <time>2018-03-13T16:02:53.000Z</time>
      </trkpt>
      <trkpt lat="43.97719" lon="5.08781">
        <ele>226</ele>
        <time>2018-03-13T16:02:55.000Z</time>
      </trkpt>
      <trkpt lat="43.97724" lon="5.08772">
        <ele>225.60000610352</ele>
        <time>2018-03-13T16:02:56.000Z</time>
      </trkpt>
      <trkpt lat="43.97728" lon="5.08764">
        <ele>225.19999694824</ele>
        <time>2018-03-13T16:02:57.000Z</time>
      </trkpt>
      <trkpt lat="43.97731" lon="5.08755">
        <ele>224.39999389648</ele>
        <time>2018-03-13T16:02:58.000Z</time>
      </trkpt>
      <trkpt lat="43.97733" lon="5.08745">
        <ele>223.19999694824</ele>
        <time>2018-03-13T16:02:59.000Z</time>
      </trkpt>
      <trkpt lat="43.97733" lon="5.08738">
        <ele>221.80000305176</ele>
        <time>2018-03-13T16:03:00.000Z</time>
      </trkpt>
      <trkpt lat="43.97734" lon="5.08735">
        <ele>221.39999389648</ele>
        <time>2018-03-13T16:03:02.000Z</time>
      </trkpt>
      <trkpt lat="43.97734" lon="5.08736">
        <ele>221.60000610352</ele>
        <time>2018-03-13T16:03:07.000Z</time>
      </trkpt>
      <trkpt lat="43.97734" lon="5.08736">
        <ele>221.60000610352</ele>
        <time>2018-03-13T16:03:17.000Z</time>
      </trkpt>
      <trkpt lat="43.97733" lon="5.08727">
        <ele>219.80000305176</ele>
        <time>2018-03-13T16:03:21.000Z</time>
      </trkpt>
      <trkpt lat="43.97732" lon="5.08716">
        <ele>217.60000610352</ele>
        <time>2018-03-13T16:03:23.000Z</time>
      </trkpt>
      <trkpt lat="43.97732" lon="5.08709">
        <ele>216.19999694824</ele>
        <time>2018-03-13T16:03:24.000Z</time>
      </trkpt>
      <trkpt lat="43.97732" lon="5.08702">
        <ele>215.60000610352</ele>
        <time>2018-03-13T16:03:25.000Z</time>
      </trkpt>
      <trkpt lat="43.97731" lon="5.08693">
        <ele>214.60000610352</ele>
        <time>2018-03-13T16:03:26.000Z</time>
      </trkpt>
      <trkpt lat="43.97725" lon="5.08676">
        <ele>212</ele>
        <time>2018-03-13T16:03:28.000Z</time>
      </trkpt>
      <trkpt lat="43.97724" lon="5.08664">
        <ele>210.80000305176</ele>
        <time>2018-03-13T16:03:29.000Z</time>
      </trkpt>
      <trkpt lat="43.97724" lon="5.08653">
        <ele>209.60000610352</ele>
        <time>2018-03-13T16:03:30.000Z</time>
      </trkpt>
      <trkpt lat="43.97724" lon="5.08642">
        <ele>208.39999389648</ele>
        <time>2018-03-13T16:03:31.000Z</time>
      </trkpt>
      <trkpt lat="43.97728" lon="5.08633">
        <ele>208</ele>
        <time>2018-03-13T16:03:32.000Z</time>
      </trkpt>
      <trkpt lat="43.9773" lon="5.08622">
        <ele>207</ele>
        <time>2018-03-13T16:03:33.000Z</time>
      </trkpt>
      <trkpt lat="43.97731" lon="5.08613">
        <ele>206.19999694824</ele>
        <time>2018-03-13T16:03:34.000Z</time>
      </trkpt>
      <trkpt lat="43.97732" lon="5.08601">
        <ele>205.19999694824</ele>
        <time>2018-03-13T16:03:36.000Z</time>
      </trkpt>
      <trkpt lat="43.97733" lon="5.08595">
        <ele>204.60000610352</ele>
        <time>2018-03-13T16:03:37.000Z</time>
      </trkpt>
      <trkpt lat="43.97735" lon="5.08588">
        <ele>204.19999694824</ele>
        <time>2018-03-13T16:03:38.000Z</time>
      </trkpt>
      <trkpt lat="43.97738" lon="5.08573">
        <ele>203</ele>
        <time>2018-03-13T16:03:40.000Z</time>
      </trkpt>
      <trkpt lat="43.97743" lon="5.08561">
        <ele>202.39999389648</ele>
        <time>2018-03-13T16:03:42.000Z</time>
      </trkpt>
      <trkpt lat="43.97746" lon="5.08555">
        <ele>202</ele>
        <time>2018-03-13T16:03:43.000Z</time>
      </trkpt>
      <trkpt lat="43.97749" lon="5.0855">
        <ele>202</ele>
        <time>2018-03-13T16:03:44.000Z</time>
      </trkpt>
      <trkpt lat="43.97756" lon="5.08543">
        <ele>202.39999389648</ele>
        <time>2018-03-13T16:03:46.000Z</time>
      </trkpt>
      <trkpt lat="43.97765" lon="5.0854">
        <ele>203</ele>
        <time>2018-03-13T16:03:48.000Z</time>
      </trkpt>
      <trkpt lat="43.9777" lon="5.08538">
        <ele>203.60000610352</ele>
        <time>2018-03-13T16:03:49.000Z</time>
      </trkpt>
      <trkpt lat="43.97774" lon="5.08536">
        <ele>203.60000610352</ele>
        <time>2018-03-13T16:03:50.000Z</time>
      </trkpt>
      <trkpt lat="43.97784" lon="5.08536">
        <ele>203.39999389648</ele>
        <time>2018-03-13T16:03:52.000Z</time>
      </trkpt>
      <trkpt lat="43.9779" lon="5.08537">
        <ele>203.19999694824</ele>
        <time>2018-03-13T16:03:54.000Z</time>
      </trkpt>
      <trkpt lat="43.97796" lon="5.08538">
        <ele>203</ele>
        <time>2018-03-13T16:03:56.000Z</time>
      </trkpt>
      <trkpt lat="43.97804" lon="5.08538">
        <ele>202.60000610352</ele>
        <time>2018-03-13T16:03:58.000Z</time>
      </trkpt>
      <trkpt lat="43.97812" lon="5.08537">
        <ele>202.19999694824</ele>
        <time>2018-03-13T16:04:00.000Z</time>
      </trkpt>
      <trkpt lat="43.97829" lon="5.08534">
        <ele>200.80000305176</ele>
        <time>2018-03-13T16:04:04.000Z</time>
      </trkpt>
      <trkpt lat="43.97833" lon="5.08532">
        <ele>200.19999694824</ele>
        <time>2018-03-13T16:04:05.000Z</time>
      </trkpt>
      <trkpt lat="43.97839" lon="5.08529">
        <ele>199.39999389648</ele>
        <time>2018-03-13T16:04:06.000Z</time>
      </trkpt>
      <trkpt lat="43.97849" lon="5.08523">
        <ele>197.80000305176</ele>
        <time>2018-03-13T16:04:08.000Z</time>
      </trkpt>
      <trkpt lat="43.97859" lon="5.08513">
        <ele>195.39999389648</ele>
        <time>2018-03-13T16:04:10.000Z</time>
      </trkpt>
      <trkpt lat="43.97861" lon="5.08507">
        <ele>194</ele>
        <time>2018-03-13T16:04:11.000Z</time>
      </trkpt>
      <trkpt lat="43.97863" lon="5.08498">
        <ele>192</ele>
        <time>2018-03-13T16:04:12.000Z</time>
      </trkpt>
      <trkpt lat="43.97868" lon="5.08485">
        <ele>188.80000305176</ele>
        <time>2018-03-13T16:04:14.000Z</time>
      </trkpt>
      <trkpt lat="43.9787" lon="5.08478">
        <ele>187.19999694824</ele>
        <time>2018-03-13T16:04:15.000Z</time>
      </trkpt>
      <trkpt lat="43.97872" lon="5.08471">
        <ele>186</ele>
        <time>2018-03-13T16:04:16.000Z</time>
      </trkpt>
      <trkpt lat="43.97874" lon="5.08464">
        <ele>185</ele>
        <time>2018-03-13T16:04:17.000Z</time>
      </trkpt>
      <trkpt lat="43.97876" lon="5.08449">
        <ele>182.80000305176</ele>
        <time>2018-03-13T16:04:19.000Z</time>
      </trkpt>
      <trkpt lat="43.97878" lon="5.08433">
        <ele>180</ele>
        <time>2018-03-13T16:04:21.000Z</time>
      </trkpt>
      <trkpt lat="43.9788" lon="5.08424">
        <ele>178.60000610352</ele>
        <time>2018-03-13T16:04:22.000Z</time>
      </trkpt>
      <trkpt lat="43.97882" lon="5.08416">
        <ele>177.19999694824</ele>
        <time>2018-03-13T16:04:23.000Z</time>
      </trkpt>
      <trkpt lat="43.97888" lon="5.084">
        <ele>174.60000610352</ele>
        <time>2018-03-13T16:04:25.000Z</time>
      </trkpt>
      <trkpt lat="43.97891" lon="5.08392">
        <ele>174</ele>
        <time>2018-03-13T16:04:26.000Z</time>
      </trkpt>
      <trkpt lat="43.97894" lon="5.08384">
        <ele>173.19999694824</ele>
        <time>2018-03-13T16:04:27.000Z</time>
      </trkpt>
      <trkpt lat="43.979" lon="5.08369">
        <ele>171.80000305176</ele>
        <time>2018-03-13T16:04:29.000Z</time>
      </trkpt>
      <trkpt lat="43.97904" lon="5.0836">
        <ele>170.80000305176</ele>
        <time>2018-03-13T16:04:30.000Z</time>
      </trkpt>
      <trkpt lat="43.97911" lon="5.08344">
        <ele>169.19999694824</ele>
        <time>2018-03-13T16:04:32.000Z</time>
      </trkpt>
      <trkpt lat="43.97915" lon="5.08335">
        <ele>168.80000305176</ele>
        <time>2018-03-13T16:04:33.000Z</time>
      </trkpt>
      <trkpt lat="43.97923" lon="5.08319">
        <ele>167.60000610352</ele>
        <time>2018-03-13T16:04:35.000Z</time>
      </trkpt>
      <trkpt lat="43.97935" lon="5.08294">
        <ele>166</ele>
        <time>2018-03-13T16:04:38.000Z</time>
      </trkpt>
      <trkpt lat="43.97943" lon="5.08278">
        <ele>165</ele>
        <time>2018-03-13T16:04:40.000Z</time>
      </trkpt>
      <trkpt lat="43.97951" lon="5.08263">
        <ele>163.80000305176</ele>
        <time>2018-03-13T16:04:42.000Z</time>
      </trkpt>
      <trkpt lat="43.97961" lon="5.08238">
        <ele>162</ele>
        <time>2018-03-13T16:04:45.000Z</time>
      </trkpt>
      <trkpt lat="43.97964" lon="5.08229">
        <ele>161.39999389648</ele>
        <time>2018-03-13T16:04:46.000Z</time>
      </trkpt>
      <trkpt lat="43.97973" lon="5.08202">
        <ele>161</ele>
        <time>2018-03-13T16:04:49.000Z</time>
      </trkpt>
      <trkpt lat="43.97985" lon="5.08174">
        <ele>160.60000610352</ele>
        <time>2018-03-13T16:04:52.000Z</time>
      </trkpt>
      <trkpt lat="43.98008" lon="5.08118">
        <ele>158.39999389648</ele>
        <time>2018-03-13T16:04:58.000Z</time>
      </trkpt>
      <trkpt lat="43.98014" lon="5.08099">
        <ele>157.80000305176</ele>
        <time>2018-03-13T16:05:00.000Z</time>
      </trkpt>
      <trkpt lat="43.98017" lon="5.08089">
        <ele>157.39999389648</ele>
        <time>2018-03-13T16:05:01.000Z</time>
      </trkpt>
      <trkpt lat="43.9802" lon="5.0808">
        <ele>157</ele>
        <time>2018-03-13T16:05:02.000Z</time>
      </trkpt>
      <trkpt lat="43.98028" lon="5.08064">
        <ele>156.60000610352</ele>
        <time>2018-03-13T16:05:04.000Z</time>
      </trkpt>
      <trkpt lat="43.98032" lon="5.08055">
        <ele>156.60000610352</ele>
        <time>2018-03-13T16:05:05.000Z</time>
      </trkpt>
      <trkpt lat="43.98036" lon="5.08047">
        <ele>156.80000305176</ele>
        <time>2018-03-13T16:05:06.000Z</time>
      </trkpt>
      <trkpt lat="43.98045" lon="5.08032">
        <ele>157.60000610352</ele>
        <time>2018-03-13T16:05:08.000Z</time>
      </trkpt>
      <trkpt lat="43.98049" lon="5.08025">
        <ele>158</ele>
        <time>2018-03-13T16:05:09.000Z</time>
      </trkpt>
      <trkpt lat="43.98053" lon="5.08021">
        <ele>158.39999389648</ele>
        <time>2018-03-13T16:05:10.000Z</time>
      </trkpt>
      <trkpt lat="43.98058" lon="5.08018">
        <ele>158.80000305176</ele>
        <time>2018-03-13T16:05:12.000Z</time>
      </trkpt>
      <trkpt lat="43.98059" lon="5.08019">
        <ele>159</ele>
        <time>2018-03-13T16:05:13.000Z</time>
      </trkpt>
      <trkpt lat="43.98061" lon="5.08021">
        <ele>159</ele>
        <time>2018-03-13T16:05:18.000Z</time>
      </trkpt>
      <trkpt lat="43.98061" lon="5.08021">
        <ele>159</ele>
        <time>2018-03-13T16:05:40.000Z</time>
      </trkpt>
      <trkpt lat="43.98061" lon="5.08021">
        <ele>159</ele>
        <time>2018-03-13T16:05:51.000Z</time>
      </trkpt>
      <trkpt lat="43.98061" lon="5.08021">
        <ele>159</ele>
        <time>2018-03-13T16:06:02.000Z</time>
      </trkpt>
      <trkpt lat="43.98061" lon="5.08023">
        <ele>159</ele>
        <time>2018-03-13T16:06:08.000Z</time>
      </trkpt>
      <trkpt lat="43.98062" lon="5.08025">
        <ele>159</ele>
        <time>2018-03-13T16:06:09.000Z</time>
      </trkpt>
      <trkpt lat="43.98062" lon="5.08029">
        <ele>159.19999694824</ele>
        <time>2018-03-13T16:06:11.000Z</time>
      </trkpt>
      <trkpt lat="43.98063" lon="5.08036">
        <ele>159.19999694824</ele>
        <time>2018-03-13T16:06:13.000Z</time>
      </trkpt>
      <trkpt lat="43.98064" lon="5.0804">
        <ele>159.39999389648</ele>
        <time>2018-03-13T16:06:14.000Z</time>
      </trkpt>
      <trkpt lat="43.98066" lon="5.08045">
        <ele>159.39999389648</ele>
        <time>2018-03-13T16:06:15.000Z</time>
      </trkpt>
      <trkpt lat="43.98072" lon="5.08062">
        <ele>159.39999389648</ele>
        <time>2018-03-13T16:06:19.000Z</time>
      </trkpt>
      <trkpt lat="43.98073" lon="5.08067">
        <ele>159.60000610352</ele>
        <time>2018-03-13T16:06:20.000Z</time>
      </trkpt>
      <trkpt lat="43.98077" lon="5.08076">
        <ele>159.60000610352</ele>
        <time>2018-03-13T16:06:22.000Z</time>
      </trkpt>
      <trkpt lat="43.98082" lon="5.0809">
        <ele>159.80000305176</ele>
        <time>2018-03-13T16:06:25.000Z</time>
      </trkpt>
      <trkpt lat="43.98084" lon="5.08094">
        <ele>159.80000305176</ele>
        <time>2018-03-13T16:06:26.000Z</time>
      </trkpt>
      <trkpt lat="43.98093" lon="5.08116">
        <ele>160.19999694824</ele>
        <time>2018-03-13T16:06:31.000Z</time>
      </trkpt>
      <trkpt lat="43.98095" lon="5.08121">
        <ele>160.39999389648</ele>
        <time>2018-03-13T16:06:32.000Z</time>
      </trkpt>
      <trkpt lat="43.98107" lon="5.08145">
        <ele>161</ele>
        <time>2018-03-13T16:06:37.000Z</time>
      </trkpt>
      <trkpt lat="43.98117" lon="5.08165">
        <ele>161</ele>
        <time>2018-03-13T16:06:41.000Z</time>
      </trkpt>
      <trkpt lat="43.98124" lon="5.08177">
        <ele>161</ele>
        <time>2018-03-13T16:06:44.000Z</time>
      </trkpt>
      <trkpt lat="43.98125" lon="5.0818">
        <ele>161</ele>
        <time>2018-03-13T16:06:47.000Z</time>
      </trkpt>
      <trkpt lat="43.98125" lon="5.0818">
        <ele>161</ele>
        <time>2018-03-13T16:06:56.000Z</time>
      </trkpt>
      <trkpt lat="43.98125" lon="5.0818">
        <ele>161</ele>
        <time>2018-03-13T16:07:07.000Z</time>
      </trkpt>
      <trkpt lat="43.98129" lon="5.08188">
        <ele>161</ele>
        <time>2018-03-13T16:07:11.000Z</time>
      </trkpt>
      <trkpt lat="43.98131" lon="5.08193">
        <ele>161</ele>
        <time>2018-03-13T16:07:12.000Z</time>
      </trkpt>
      <trkpt lat="43.98132" lon="5.08197">
        <ele>161</ele>
        <time>2018-03-13T16:07:13.000Z</time>
      </trkpt>
      <trkpt lat="43.98134" lon="5.08203">
        <ele>161</ele>
        <time>2018-03-13T16:07:14.000Z</time>
      </trkpt>
      <trkpt lat="43.98138" lon="5.08214">
        <ele>161.19999694824</ele>
        <time>2018-03-13T16:07:16.000Z</time>
      </trkpt>
      <trkpt lat="43.9814" lon="5.08222">
        <ele>161.39999389648</ele>
        <time>2018-03-13T16:07:17.000Z</time>
      </trkpt>
      <trkpt lat="43.9815" lon="5.08252">
        <ele>162.60000610352</ele>
        <time>2018-03-13T16:07:21.000Z</time>
      </trkpt>
      <trkpt lat="43.98159" lon="5.08279">
        <ele>163.39999389648</ele>
        <time>2018-03-13T16:07:25.000Z</time>
      </trkpt>
      <trkpt lat="43.98162" lon="5.08286">
        <ele>163.80000305176</ele>
        <time>2018-03-13T16:07:26.000Z</time>
      </trkpt>
      <trkpt lat="43.9817" lon="5.08303">
        <ele>164.19999694824</ele>
        <time>2018-03-13T16:07:29.000Z</time>
      </trkpt>
      <trkpt lat="43.98178" lon="5.0832">
        <ele>164.60000610352</ele>
        <time>2018-03-13T16:07:32.000Z</time>
      </trkpt>
      <trkpt lat="43.98187" lon="5.08342">
        <ele>165.19999694824</ele>
        <time>2018-03-13T16:07:36.000Z</time>
      </trkpt>
      <trkpt lat="43.98192" lon="5.08358">
        <ele>165.60000610352</ele>
        <time>2018-03-13T16:07:39.000Z</time>
      </trkpt>
      <trkpt lat="43.98196" lon="5.08367">
        <ele>165.80000305176</ele>
        <time>2018-03-13T16:07:41.000Z</time>
      </trkpt>
      <trkpt lat="43.98199" lon="5.08368">
        <ele>165.80000305176</ele>
        <time>2018-03-13T16:07:42.000Z</time>
      </trkpt>
      <trkpt lat="43.982" lon="5.08368">
        <ele>165.80000305176</ele>
        <time>2018-03-13T16:07:43.000Z</time>
      </trkpt>
      <trkpt lat="43.98201" lon="5.08367">
        <ele>165.80000305176</ele>
        <time>2018-03-13T16:07:48.000Z</time>
      </trkpt>
      <trkpt lat="43.98201" lon="5.08367">
        <ele>165.80000305176</ele>
        <time>2018-03-13T16:08:04.000Z</time>
      </trkpt>
      <trkpt lat="43.98205" lon="5.08367">
        <ele>165.80000305176</ele>
        <time>2018-03-13T16:08:07.000Z</time>
      </trkpt>
      <trkpt lat="43.98207" lon="5.08367">
        <ele>165.80000305176</ele>
        <time>2018-03-13T16:08:09.000Z</time>
      </trkpt>
      <trkpt lat="43.98208" lon="5.08368">
        <ele>165.80000305176</ele>
        <time>2018-03-13T16:08:11.000Z</time>
      </trkpt>
      <trkpt lat="43.98213" lon="5.08375">
        <ele>166</ele>
        <time>2018-03-13T16:08:14.000Z</time>
      </trkpt>
      <trkpt lat="43.98216" lon="5.08377">
        <ele>166</ele>
        <time>2018-03-13T16:08:15.000Z</time>
      </trkpt>
      <trkpt lat="43.98228" lon="5.08385">
        <ele>166.60000610352</ele>
        <time>2018-03-13T16:08:19.000Z</time>
      </trkpt>
      <trkpt lat="43.98236" lon="5.08387">
        <ele>166.60000610352</ele>
        <time>2018-03-13T16:08:21.000Z</time>
      </trkpt>
      <trkpt lat="43.98239" lon="5.08387">
        <ele>166.60000610352</ele>
        <time>2018-03-13T16:08:22.000Z</time>
      </trkpt>
      <trkpt lat="43.98242" lon="5.08385">
        <ele>166.60000610352</ele>
        <time>2018-03-13T16:08:23.000Z</time>
      </trkpt>
      <trkpt lat="43.98255" lon="5.08376">
        <ele>166</ele>
        <time>2018-03-13T16:08:27.000Z</time>
      </trkpt>
      <trkpt lat="43.98259" lon="5.08372">
        <ele>165.80000305176</ele>
        <time>2018-03-13T16:08:28.000Z</time>
      </trkpt>
      <trkpt lat="43.98263" lon="5.08369">
        <ele>165.80000305176</ele>
        <time>2018-03-13T16:08:30.000Z</time>
      </trkpt>
      <trkpt lat="43.98265" lon="5.08369">
        <ele>165.80000305176</ele>
        <time>2018-03-13T16:08:36.000Z</time>
      </trkpt>
      <trkpt lat="43.98265" lon="5.08369">
        <ele>165.80000305176</ele>
        <time>2018-03-13T16:08:53.000Z</time>
      </trkpt>
      <trkpt lat="43.98265" lon="5.08368">
        <ele>165.80000305176</ele>
        <time>2018-03-13T16:08:54.000Z</time>
      </trkpt>
      <trkpt lat="43.98276" lon="5.08362">
        <ele>166.39999389648</ele>
        <time>2018-03-13T16:08:56.000Z</time>
      </trkpt>
      <trkpt lat="43.98282" lon="5.08358">
        <ele>166.80000305176</ele>
        <time>2018-03-13T16:08:57.000Z</time>
      </trkpt>
      <trkpt lat="43.98293" lon="5.08349">
        <ele>167.60000610352</ele>
        <time>2018-03-13T16:08:59.000Z</time>
      </trkpt>
      <trkpt lat="43.98298" lon="5.08344">
        <ele>168</ele>
        <time>2018-03-13T16:09:00.000Z</time>
      </trkpt>
      <trkpt lat="43.98314" lon="5.08328">
        <ele>168.60000610352</ele>
        <time>2018-03-13T16:09:03.000Z</time>
      </trkpt>
      <trkpt lat="43.98319" lon="5.08322">
        <ele>168.19999694824</ele>
        <time>2018-03-13T16:09:04.000Z</time>
      </trkpt>
      <trkpt lat="43.98323" lon="5.08316">
        <ele>167.60000610352</ele>
        <time>2018-03-13T16:09:05.000Z</time>
      </trkpt>
      <trkpt lat="43.98326" lon="5.0831">
        <ele>167.19999694824</ele>
        <time>2018-03-13T16:09:06.000Z</time>
      </trkpt>
      <trkpt lat="43.98333" lon="5.08288">
        <ele>165.80000305176</ele>
        <time>2018-03-13T16:09:09.000Z</time>
      </trkpt>
      <trkpt lat="43.98334" lon="5.0828">
        <ele>165.80000305176</ele>
        <time>2018-03-13T16:09:10.000Z</time>
      </trkpt>
      <trkpt lat="43.98335" lon="5.08272">
        <ele>165.60000610352</ele>
        <time>2018-03-13T16:09:11.000Z</time>
      </trkpt>
      <trkpt lat="43.98341" lon="5.0825">
        <ele>165.19999694824</ele>
        <time>2018-03-13T16:09:14.000Z</time>
      </trkpt>
      <trkpt lat="43.98347" lon="5.08236">
        <ele>164.80000305176</ele>
        <time>2018-03-13T16:09:16.000Z</time>
      </trkpt>
      <trkpt lat="43.98353" lon="5.08225">
        <ele>164.39999389648</ele>
        <time>2018-03-13T16:09:18.000Z</time>
      </trkpt>
      <trkpt lat="43.98359" lon="5.08216">
        <ele>164</ele>
        <time>2018-03-13T16:09:20.000Z</time>
      </trkpt>
      <trkpt lat="43.98368" lon="5.08206">
        <ele>163.39999389648</ele>
        <time>2018-03-13T16:09:22.000Z</time>
      </trkpt>
      <trkpt lat="43.98372" lon="5.082">
        <ele>162.80000305176</ele>
        <time>2018-03-13T16:09:23.000Z</time>
      </trkpt>
      <trkpt lat="43.98383" lon="5.08174">
        <ele>160.60000610352</ele>
        <time>2018-03-13T16:09:27.000Z</time>
      </trkpt>
      <trkpt lat="43.98396" lon="5.08134">
        <ele>158</ele>
        <time>2018-03-13T16:09:32.000Z</time>
      </trkpt>
      <trkpt lat="43.98406" lon="5.08101">
        <ele>157.60000610352</ele>
        <time>2018-03-13T16:09:37.000Z</time>
      </trkpt>
      <trkpt lat="43.98407" lon="5.08098">
        <ele>157.60000610352</ele>
        <time>2018-03-13T16:09:40.000Z</time>
      </trkpt>
      <trkpt lat="43.98407" lon="5.08098">
        <ele>157.60000610352</ele>
        <time>2018-03-13T16:09:59.000Z</time>
      </trkpt>
      <trkpt lat="43.98412" lon="5.08089">
        <ele>157</ele>
        <time>2018-03-13T16:10:01.000Z</time>
      </trkpt>
      <trkpt lat="43.98416" lon="5.08078">
        <ele>156.19999694824</ele>
        <time>2018-03-13T16:10:03.000Z</time>
      </trkpt>
      <trkpt lat="43.98421" lon="5.08064">
        <ele>155</ele>
        <time>2018-03-13T16:10:05.000Z</time>
      </trkpt>
      <trkpt lat="43.98429" lon="5.08044">
        <ele>153.19999694824</ele>
        <time>2018-03-13T16:10:08.000Z</time>
      </trkpt>
      <trkpt lat="43.98437" lon="5.08024">
        <ele>152.80000305176</ele>
        <time>2018-03-13T16:10:11.000Z</time>
      </trkpt>
      <trkpt lat="43.98439" lon="5.08011">
        <ele>152.19999694824</ele>
        <time>2018-03-13T16:10:13.000Z</time>
      </trkpt>
      <trkpt lat="43.98444" lon="5.07994">
        <ele>152</ele>
        <time>2018-03-13T16:10:16.000Z</time>
      </trkpt>
      <trkpt lat="43.98443" lon="5.07987">
        <ele>152</ele>
        <time>2018-03-13T16:10:17.000Z</time>
      </trkpt>
      <trkpt lat="43.98435" lon="5.07965">
        <ele>153</ele>
        <time>2018-03-13T16:10:20.000Z</time>
      </trkpt>
      <trkpt lat="43.98435" lon="5.07958">
        <ele>153</ele>
        <time>2018-03-13T16:10:21.000Z</time>
      </trkpt>
      <trkpt lat="43.98437" lon="5.07943">
        <ele>152.19999694824</ele>
        <time>2018-03-13T16:10:24.000Z</time>
      </trkpt>
      <trkpt lat="43.9844" lon="5.07933">
        <ele>152.19999694824</ele>
        <time>2018-03-13T16:10:26.000Z</time>
      </trkpt>
      <trkpt lat="43.98441" lon="5.07927">
        <ele>152</ele>
        <time>2018-03-13T16:10:27.000Z</time>
      </trkpt>
      <trkpt lat="43.9844" lon="5.0792">
        <ele>152</ele>
        <time>2018-03-13T16:10:28.000Z</time>
      </trkpt>
      <trkpt lat="43.9844" lon="5.07912">
        <ele>152.19999694824</ele>
        <time>2018-03-13T16:10:29.000Z</time>
      </trkpt>
      <trkpt lat="43.98438" lon="5.07896">
        <ele>152.19999694824</ele>
        <time>2018-03-13T16:10:31.000Z</time>
      </trkpt>
      <trkpt lat="43.98436" lon="5.0788">
        <ele>152.39999389648</ele>
        <time>2018-03-13T16:10:33.000Z</time>
      </trkpt>
      <trkpt lat="43.98436" lon="5.07871">
        <ele>152</ele>
        <time>2018-03-13T16:10:34.000Z</time>
      </trkpt>
      <trkpt lat="43.98438" lon="5.07862">
        <ele>151.80000305176</ele>
        <time>2018-03-13T16:10:35.000Z</time>
      </trkpt>
      <trkpt lat="43.98439" lon="5.07853">
        <ele>151.80000305176</ele>
        <time>2018-03-13T16:10:36.000Z</time>
      </trkpt>
      <trkpt lat="43.98446" lon="5.07821">
        <ele>151.19999694824</ele>
        <time>2018-03-13T16:10:40.000Z</time>
      </trkpt>
      <trkpt lat="43.98448" lon="5.07814">
        <ele>151</ele>
        <time>2018-03-13T16:10:41.000Z</time>
      </trkpt>
      <trkpt lat="43.98453" lon="5.078">
        <ele>150.60000610352</ele>
        <time>2018-03-13T16:10:43.000Z</time>
      </trkpt>
      <trkpt lat="43.98457" lon="5.07792">
        <ele>150</ele>
        <time>2018-03-13T16:10:44.000Z</time>
      </trkpt>
      <trkpt lat="43.9846" lon="5.07776">
        <ele>148.39999389648</ele>
        <time>2018-03-13T16:10:46.000Z</time>
      </trkpt>
      <trkpt lat="43.98461" lon="5.07767">
        <ele>147.60000610352</ele>
        <time>2018-03-13T16:10:47.000Z</time>
      </trkpt>
      <trkpt lat="43.98464" lon="5.07745">
        <ele>145.60000610352</ele>
        <time>2018-03-13T16:10:50.000Z</time>
      </trkpt>
      <trkpt lat="43.98467" lon="5.07734">
        <ele>144.60000610352</ele>
        <time>2018-03-13T16:10:52.000Z</time>
      </trkpt>
      <trkpt lat="43.98468" lon="5.0773">
        <ele>144.19999694824</ele>
        <time>2018-03-13T16:10:53.000Z</time>
      </trkpt>
      <trkpt lat="43.98469" lon="5.07726">
        <ele>143.80000305176</ele>
        <time>2018-03-13T16:10:54.000Z</time>
      </trkpt>
      <trkpt lat="43.98469" lon="5.07716">
        <ele>143</ele>
        <time>2018-03-13T16:10:56.000Z</time>
      </trkpt>
      <trkpt lat="43.98467" lon="5.07709">
        <ele>142.80000305176</ele>
        <time>2018-03-13T16:10:57.000Z</time>
      </trkpt>
      <trkpt lat="43.98465" lon="5.07704">
        <ele>142.19999694824</ele>
        <time>2018-03-13T16:10:58.000Z</time>
      </trkpt>
      <trkpt lat="43.98462" lon="5.07693">
        <ele>141.19999694824</ele>
        <time>2018-03-13T16:11:00.000Z</time>
      </trkpt>
      <trkpt lat="43.98463" lon="5.07689">
        <ele>140.80000305176</ele>
        <time>2018-03-13T16:11:01.000Z</time>
      </trkpt>
      <trkpt lat="43.98464" lon="5.07687">
        <ele>140.39999389648</ele>
        <time>2018-03-13T16:11:02.000Z</time>
      </trkpt>
      <trkpt lat="43.98465" lon="5.07686">
        <ele>140.19999694824</ele>
        <time>2018-03-13T16:11:03.000Z</time>
      </trkpt>
      <trkpt lat="43.98465" lon="5.07685">
        <ele>140.19999694824</ele>
        <time>2018-03-13T16:11:04.000Z</time>
      </trkpt>
      <trkpt lat="43.98465" lon="5.07685">
        <ele>140.19999694824</ele>
        <time>2018-03-13T16:11:18.000Z</time>
      </trkpt>
      <trkpt lat="43.98468" lon="5.0768">
        <ele>139.39999389648</ele>
        <time>2018-03-13T16:11:29.000Z</time>
      </trkpt>
      <trkpt lat="43.98475" lon="5.07672">
        <ele>138.39999389648</ele>
        <time>2018-03-13T16:11:31.000Z</time>
      </trkpt>
      <trkpt lat="43.98481" lon="5.07662">
        <ele>137</ele>
        <time>2018-03-13T16:11:33.000Z</time>
      </trkpt>
      <trkpt lat="43.98489" lon="5.07651">
        <ele>135.80000305176</ele>
        <time>2018-03-13T16:11:35.000Z</time>
      </trkpt>
      <trkpt lat="43.98496" lon="5.0764">
        <ele>134.39999389648</ele>
        <time>2018-03-13T16:11:37.000Z</time>
      </trkpt>
      <trkpt lat="43.985" lon="5.07636">
        <ele>133.80000305176</ele>
        <time>2018-03-13T16:11:38.000Z</time>
      </trkpt>
      <trkpt lat="43.98503" lon="5.07632">
        <ele>133.39999389648</ele>
        <time>2018-03-13T16:11:39.000Z</time>
      </trkpt>
      <trkpt lat="43.98506" lon="5.0763">
        <ele>133</ele>
        <time>2018-03-13T16:11:41.000Z</time>
      </trkpt>
      <trkpt lat="43.98506" lon="5.07629">
        <ele>133</ele>
        <time>2018-03-13T16:11:42.000Z</time>
      </trkpt>
      <trkpt lat="43.98507" lon="5.07629">
        <ele>132.80000305176</ele>
        <time>2018-03-13T16:11:45.000Z</time>
      </trkpt>
      <trkpt lat="43.98507" lon="5.07629">
        <ele>132.80000305176</ele>
        <time>2018-03-13T16:12:07.000Z</time>
      </trkpt>
      <trkpt lat="43.98507" lon="5.07629">
        <ele>132.80000305176</ele>
        <time>2018-03-13T16:12:30.000Z</time>
      </trkpt>
      <trkpt lat="43.98507" lon="5.07629">
        <ele>132.80000305176</ele>
        <time>2018-03-13T16:12:43.000Z</time>
      </trkpt>
      <trkpt lat="43.98507" lon="5.07629">
        <ele>132.80000305176</ele>
        <time>2018-03-13T16:13:01.000Z</time>
      </trkpt>
      <trkpt lat="43.98506" lon="5.07628">
        <ele>132.80000305176</ele>
        <time>2018-03-13T16:13:17.000Z</time>
      </trkpt>
      <trkpt lat="43.98506" lon="5.07628">
        <ele>132.80000305176</ele>
        <time>2018-03-13T16:13:36.000Z</time>
      </trkpt>
      <trkpt lat="43.98506" lon="5.07628">
        <ele>132.80000305176</ele>
        <time>2018-03-13T16:13:50.000Z</time>
      </trkpt>
      <trkpt lat="43.98506" lon="5.07629">
        <ele>132.80000305176</ele>
        <time>2018-03-13T16:14:04.000Z</time>
      </trkpt>
      <trkpt lat="43.98506" lon="5.0763">
        <ele>133</ele>
        <time>2018-03-13T16:14:05.000Z</time>
      </trkpt>
      <trkpt lat="43.98505" lon="5.07631">
        <ele>133.19999694824</ele>
        <time>2018-03-13T16:14:06.000Z</time>
      </trkpt>
      <trkpt lat="43.98505" lon="5.07631">
        <ele>133.19999694824</ele>
        <time>2018-03-13T16:14:09.000Z</time>
      </trkpt>
      <trkpt lat="43.98506" lon="5.07633">
        <ele>133.19999694824</ele>
        <time>2018-03-13T16:14:10.000Z</time>
      </trkpt>
      <trkpt lat="43.98508" lon="5.0764">
        <ele>134</ele>
        <time>2018-03-13T16:14:13.000Z</time>
      </trkpt>
      <trkpt lat="43.98509" lon="5.07643">
        <ele>134.19999694824</ele>
        <time>2018-03-13T16:14:14.000Z</time>
      </trkpt>
      <trkpt lat="43.98513" lon="5.07656">
        <ele>135.19999694824</ele>
        <time>2018-03-13T16:14:17.000Z</time>
      </trkpt>
      <trkpt lat="43.98522" lon="5.07684">
        <ele>137.60000610352</ele>
        <time>2018-03-13T16:14:23.000Z</time>
      </trkpt>
      <trkpt lat="43.98528" lon="5.07719">
        <ele>140.39999389648</ele>
        <time>2018-03-13T16:14:31.000Z</time>
      </trkpt>
      <trkpt lat="43.98532" lon="5.07743">
        <ele>142</ele>
        <time>2018-03-13T16:14:38.000Z</time>
      </trkpt>
      <trkpt lat="43.9853" lon="5.07751">
        <ele>142.60000610352</ele>
        <time>2018-03-13T16:14:40.000Z</time>
      </trkpt>
      <trkpt lat="43.98526" lon="5.0776">
        <ele>143.60000610352</ele>
        <time>2018-03-13T16:14:43.000Z</time>
      </trkpt>
      <trkpt lat="43.98523" lon="5.07765">
        <ele>144</ele>
        <time>2018-03-13T16:14:45.000Z</time>
      </trkpt>
      <trkpt lat="43.98518" lon="5.07773">
        <ele>144.80000305176</ele>
        <time>2018-03-13T16:14:48.000Z</time>
      </trkpt>
      <trkpt lat="43.98516" lon="5.07776">
        <ele>145.19999694824</ele>
        <time>2018-03-13T16:14:49.000Z</time>
      </trkpt>
      <trkpt lat="43.98511" lon="5.07785">
        <ele>146.19999694824</ele>
        <time>2018-03-13T16:14:52.000Z</time>
      </trkpt>
      <trkpt lat="43.98506" lon="5.07793">
        <ele>147</ele>
        <time>2018-03-13T16:14:54.000Z</time>
      </trkpt>
      <trkpt lat="43.98502" lon="5.078">
        <ele>147.60000610352</ele>
        <time>2018-03-13T16:14:56.000Z</time>
      </trkpt>
      <trkpt lat="43.98496" lon="5.07815">
        <ele>148.60000610352</ele>
        <time>2018-03-13T16:15:00.000Z</time>
      </trkpt>
      <trkpt lat="43.98491" lon="5.07826">
        <ele>149.19999694824</ele>
        <time>2018-03-13T16:15:03.000Z</time>
      </trkpt>
      <trkpt lat="43.98483" lon="5.0784">
        <ele>150</ele>
        <time>2018-03-13T16:15:07.000Z</time>
      </trkpt>
      <trkpt lat="43.98479" lon="5.07859">
        <ele>150.39999389648</ele>
        <time>2018-03-13T16:15:11.000Z</time>
      </trkpt>
      <trkpt lat="43.98479" lon="5.07864">
        <ele>150.60000610352</ele>
        <time>2018-03-13T16:15:12.000Z</time>
      </trkpt>
      <trkpt lat="43.98479" lon="5.07874">
        <ele>150.60000610352</ele>
        <time>2018-03-13T16:15:14.000Z</time>
      </trkpt>
      <trkpt lat="43.9848" lon="5.07884">
        <ele>150.80000305176</ele>
        <time>2018-03-13T16:15:16.000Z</time>
      </trkpt>
      <trkpt lat="43.98482" lon="5.07893">
        <ele>151.19999694824</ele>
        <time>2018-03-13T16:15:18.000Z</time>
      </trkpt>
      <trkpt lat="43.98483" lon="5.07898">
        <ele>151.19999694824</ele>
        <time>2018-03-13T16:15:19.000Z</time>
      </trkpt>
      <trkpt lat="43.98486" lon="5.0791">
        <ele>151.60000610352</ele>
        <time>2018-03-13T16:15:22.000Z</time>
      </trkpt>
      <trkpt lat="43.98488" lon="5.07919">
        <ele>151.80000305176</ele>
        <time>2018-03-13T16:15:24.000Z</time>
      </trkpt>
      <trkpt lat="43.98489" lon="5.07923">
        <ele>152</ele>
        <time>2018-03-13T16:15:25.000Z</time>
      </trkpt>
      <trkpt lat="43.98489" lon="5.07931">
        <ele>152</ele>
        <time>2018-03-13T16:15:27.000Z</time>
      </trkpt>
      <trkpt lat="43.98488" lon="5.0794">
        <ele>152</ele>
        <time>2018-03-13T16:15:29.000Z</time>
      </trkpt>
      <trkpt lat="43.98487" lon="5.07944">
        <ele>152</ele>
        <time>2018-03-13T16:15:30.000Z</time>
      </trkpt>
      <trkpt lat="43.98488" lon="5.07957">
        <ele>152</ele>
        <time>2018-03-13T16:15:34.000Z</time>
      </trkpt>
      <trkpt lat="43.98489" lon="5.07959">
        <ele>152</ele>
        <time>2018-03-13T16:15:35.000Z</time>
      </trkpt>
      <trkpt lat="43.98491" lon="5.07965">
        <ele>152.19999694824</ele>
        <time>2018-03-13T16:15:37.000Z</time>
      </trkpt>
      <trkpt lat="43.98494" lon="5.07972">
        <ele>152.39999389648</ele>
        <time>2018-03-13T16:15:40.000Z</time>
      </trkpt>
      <trkpt lat="43.98496" lon="5.07977">
        <ele>152.39999389648</ele>
        <time>2018-03-13T16:15:42.000Z</time>
      </trkpt>
      <trkpt lat="43.98497" lon="5.07982">
        <ele>152.60000610352</ele>
        <time>2018-03-13T16:15:44.000Z</time>
      </trkpt>
      <trkpt lat="43.98497" lon="5.07985">
        <ele>152.60000610352</ele>
        <time>2018-03-13T16:15:45.000Z</time>
      </trkpt>
      <trkpt lat="43.98497" lon="5.07986">
        <ele>152.60000610352</ele>
        <time>2018-03-13T16:15:47.000Z</time>
      </trkpt>
      <trkpt lat="43.98497" lon="5.07986">
        <ele>152.60000610352</ele>
        <time>2018-03-13T16:16:04.000Z</time>
      </trkpt>
      <trkpt lat="43.98497" lon="5.07986">
        <ele>152.60000610352</ele>
        <time>2018-03-13T16:16:09.000Z</time>
      </trkpt>
      <trkpt lat="43.98496" lon="5.07988">
        <ele>152.60000610352</ele>
        <time>2018-03-13T16:16:12.000Z</time>
      </trkpt>
      <trkpt lat="43.98494" lon="5.07996">
        <ele>152.80000305176</ele>
        <time>2018-03-13T16:16:15.000Z</time>
      </trkpt>
      <trkpt lat="43.98492" lon="5.08002">
        <ele>153</ele>
        <time>2018-03-13T16:16:17.000Z</time>
      </trkpt>
      <trkpt lat="43.98489" lon="5.08017">
        <ele>153.19999694824</ele>
        <time>2018-03-13T16:16:22.000Z</time>
      </trkpt>
      <trkpt lat="43.98483" lon="5.08041">
        <ele>153</ele>
        <time>2018-03-13T16:16:29.000Z</time>
      </trkpt>
      <trkpt lat="43.9848" lon="5.08062">
        <ele>153.19999694824</ele>
        <time>2018-03-13T16:16:34.000Z</time>
      </trkpt>
      <trkpt lat="43.98478" lon="5.08075">
        <ele>153.19999694824</ele>
        <time>2018-03-13T16:16:37.000Z</time>
      </trkpt>
      <trkpt lat="43.98477" lon="5.08085">
        <ele>153.60000610352</ele>
        <time>2018-03-13T16:16:39.000Z</time>
      </trkpt>
      <trkpt lat="43.98473" lon="5.08108">
        <ele>154.80000305176</ele>
        <time>2018-03-13T16:16:44.000Z</time>
      </trkpt>
      <trkpt lat="43.98461" lon="5.08132">
        <ele>156</ele>
        <time>2018-03-13T16:16:50.000Z</time>
      </trkpt>
      <trkpt lat="43.98459" lon="5.08135">
        <ele>156.39999389648</ele>
        <time>2018-03-13T16:16:51.000Z</time>
      </trkpt>
      <trkpt lat="43.98453" lon="5.08146">
        <ele>157</ele>
        <time>2018-03-13T16:16:55.000Z</time>
      </trkpt>
      <trkpt lat="43.98452" lon="5.08147">
        <ele>157</ele>
        <time>2018-03-13T16:17:00.000Z</time>
      </trkpt>
      <trkpt lat="43.98453" lon="5.08148">
        <ele>157</ele>
        <time>2018-03-13T16:17:11.000Z</time>
      </trkpt>
      <trkpt lat="43.98458" lon="5.08162">
        <ele>157.60000610352</ele>
        <time>2018-03-13T16:17:17.000Z</time>
      </trkpt>
      <trkpt lat="43.98462" lon="5.08168">
        <ele>158</ele>
        <time>2018-03-13T16:17:20.000Z</time>
      </trkpt>
      <trkpt lat="43.98464" lon="5.08171">
        <ele>158.19999694824</ele>
        <time>2018-03-13T16:17:21.000Z</time>
      </trkpt>
      <trkpt lat="43.98465" lon="5.08175">
        <ele>158.39999389648</ele>
        <time>2018-03-13T16:17:22.000Z</time>
      </trkpt>
      <trkpt lat="43.98469" lon="5.08182">
        <ele>158.60000610352</ele>
        <time>2018-03-13T16:17:24.000Z</time>
      </trkpt>
      <trkpt lat="43.98477" lon="5.08196">
        <ele>159.39999389648</ele>
        <time>2018-03-13T16:17:28.000Z</time>
      </trkpt>
      <trkpt lat="43.9848" lon="5.082">
        <ele>159.60000610352</ele>
        <time>2018-03-13T16:17:29.000Z</time>
      </trkpt>
      <trkpt lat="43.98489" lon="5.08213">
        <ele>160.19999694824</ele>
        <time>2018-03-13T16:17:33.000Z</time>
      </trkpt>
      <trkpt lat="43.98503" lon="5.08233">
        <ele>161</ele>
        <time>2018-03-13T16:17:39.000Z</time>
      </trkpt>
      <trkpt lat="43.98505" lon="5.08236">
        <ele>161.19999694824</ele>
        <time>2018-03-13T16:17:40.000Z</time>
      </trkpt>
      <trkpt lat="43.98509" lon="5.08245">
        <ele>161.80000305176</ele>
        <time>2018-03-13T16:17:43.000Z</time>
      </trkpt>
      <trkpt lat="43.98509" lon="5.08246">
        <ele>161.80000305176</ele>
        <time>2018-03-13T16:17:44.000Z</time>
      </trkpt>
      <trkpt lat="43.98509" lon="5.08246">
        <ele>161.80000305176</ele>
        <time>2018-03-13T16:17:53.000Z</time>
      </trkpt>
      <trkpt lat="43.98509" lon="5.08248">
        <ele>161.80000305176</ele>
        <time>2018-03-13T16:18:02.000Z</time>
      </trkpt>
      <trkpt lat="43.98509" lon="5.0825">
        <ele>162</ele>
        <time>2018-03-13T16:18:06.000Z</time>
      </trkpt>
      <trkpt lat="43.98506" lon="5.08256">
        <ele>162.19999694824</ele>
        <time>2018-03-13T16:18:08.000Z</time>
      </trkpt>
      <trkpt lat="43.98502" lon="5.08262">
        <ele>162.39999389648</ele>
        <time>2018-03-13T16:18:10.000Z</time>
      </trkpt>
      <trkpt lat="43.98499" lon="5.08268">
        <ele>162.80000305176</ele>
        <time>2018-03-13T16:18:12.000Z</time>
      </trkpt>
      <trkpt lat="43.98498" lon="5.08272">
        <ele>163.19999694824</ele>
        <time>2018-03-13T16:18:13.000Z</time>
      </trkpt>
      <trkpt lat="43.98486" lon="5.08289">
        <ele>165</ele>
        <time>2018-03-13T16:18:18.000Z</time>
      </trkpt>
      <trkpt lat="43.98471" lon="5.08307">
        <ele>166.60000610352</ele>
        <time>2018-03-13T16:18:24.000Z</time>
      </trkpt>
      <trkpt lat="43.98468" lon="5.08311">
        <ele>166.80000305176</ele>
        <time>2018-03-13T16:18:25.000Z</time>
      </trkpt>
      <trkpt lat="43.98464" lon="5.08323">
        <ele>167.80000305176</ele>
        <time>2018-03-13T16:18:28.000Z</time>
      </trkpt>
      <trkpt lat="43.98466" lon="5.08335">
        <ele>168.60000610352</ele>
        <time>2018-03-13T16:18:31.000Z</time>
      </trkpt>
      <trkpt lat="43.98467" lon="5.08339">
        <ele>168.80000305176</ele>
        <time>2018-03-13T16:18:32.000Z</time>
      </trkpt>
      <trkpt lat="43.98469" lon="5.08343">
        <ele>169</ele>
        <time>2018-03-13T16:18:33.000Z</time>
      </trkpt>
      <trkpt lat="43.9847" lon="5.08351">
        <ele>169.39999389648</ele>
        <time>2018-03-13T16:18:35.000Z</time>
      </trkpt>
      <trkpt lat="43.9847" lon="5.08359">
        <ele>170</ele>
        <time>2018-03-13T16:18:37.000Z</time>
      </trkpt>
      <trkpt lat="43.9847" lon="5.08367">
        <ele>170.60000610352</ele>
        <time>2018-03-13T16:18:40.000Z</time>
      </trkpt>
      <trkpt lat="43.9847" lon="5.0837">
        <ele>170.80000305176</ele>
        <time>2018-03-13T16:18:41.000Z</time>
      </trkpt>
      <trkpt lat="43.98472" lon="5.08373">
        <ele>171</ele>
        <time>2018-03-13T16:18:42.000Z</time>
      </trkpt>
      <trkpt lat="43.98476" lon="5.08383">
        <ele>171.39999389648</ele>
        <time>2018-03-13T16:18:45.000Z</time>
      </trkpt>
      <trkpt lat="43.98483" lon="5.08395">
        <ele>171.80000305176</ele>
        <time>2018-03-13T16:18:48.000Z</time>
      </trkpt>
      <trkpt lat="43.98487" lon="5.08413">
        <ele>172.80000305176</ele>
        <time>2018-03-13T16:18:52.000Z</time>
      </trkpt>
      <trkpt lat="43.98487" lon="5.08417">
        <ele>173.19999694824</ele>
        <time>2018-03-13T16:18:53.000Z</time>
      </trkpt>
      <trkpt lat="43.98485" lon="5.08423">
        <ele>173.60000610352</ele>
        <time>2018-03-13T16:18:55.000Z</time>
      </trkpt>
      <trkpt lat="43.98483" lon="5.0843">
        <ele>174</ele>
        <time>2018-03-13T16:18:58.000Z</time>
      </trkpt>
      <trkpt lat="43.98482" lon="5.08446">
        <ele>174.80000305176</ele>
        <time>2018-03-13T16:19:02.000Z</time>
      </trkpt>
      <trkpt lat="43.98483" lon="5.0845">
        <ele>175</ele>
        <time>2018-03-13T16:19:03.000Z</time>
      </trkpt>
      <trkpt lat="43.98483" lon="5.08463">
        <ele>175.60000610352</ele>
        <time>2018-03-13T16:19:06.000Z</time>
      </trkpt>
      <trkpt lat="43.98484" lon="5.08467">
        <ele>175.80000305176</ele>
        <time>2018-03-13T16:19:07.000Z</time>
      </trkpt>
      <trkpt lat="43.98482" lon="5.08482">
        <ele>176.39999389648</ele>
        <time>2018-03-13T16:19:11.000Z</time>
      </trkpt>
      <trkpt lat="43.98482" lon="5.08484">
        <ele>176.39999389648</ele>
        <time>2018-03-13T16:19:12.000Z</time>
      </trkpt>
      <trkpt lat="43.98479" lon="5.08489">
        <ele>176.60000610352</ele>
        <time>2018-03-13T16:19:15.000Z</time>
      </trkpt>
      <trkpt lat="43.9847" lon="5.08494">
        <ele>176.80000305176</ele>
        <time>2018-03-13T16:19:19.000Z</time>
      </trkpt>
      <trkpt lat="43.98467" lon="5.08497">
        <ele>176.80000305176</ele>
        <time>2018-03-13T16:19:20.000Z</time>
      </trkpt>
      <trkpt lat="43.98465" lon="5.08501">
        <ele>176.60000610352</ele>
        <time>2018-03-13T16:19:21.000Z</time>
      </trkpt>
      <trkpt lat="43.98456" lon="5.08511">
        <ele>176.19999694824</ele>
        <time>2018-03-13T16:19:24.000Z</time>
      </trkpt>
      <trkpt lat="43.98446" lon="5.08524">
        <ele>175.60000610352</ele>
        <time>2018-03-13T16:19:28.000Z</time>
      </trkpt>
      <trkpt lat="43.98444" lon="5.08525">
        <ele>175.39999389648</ele>
        <time>2018-03-13T16:19:29.000Z</time>
      </trkpt>
      <trkpt lat="43.98429" lon="5.08531">
        <ele>175</ele>
        <time>2018-03-13T16:19:34.000Z</time>
      </trkpt>
      <trkpt lat="43.98414" lon="5.08539">
        <ele>174.39999389648</ele>
        <time>2018-03-13T16:19:39.000Z</time>
      </trkpt>
      <trkpt lat="43.98402" lon="5.08551">
        <ele>174.19999694824</ele>
        <time>2018-03-13T16:19:44.000Z</time>
      </trkpt>
      <trkpt lat="43.98398" lon="5.08553">
        <ele>174</ele>
        <time>2018-03-13T16:19:45.000Z</time>
      </trkpt>
      <trkpt lat="43.98388" lon="5.08563">
        <ele>174</ele>
        <time>2018-03-13T16:19:49.000Z</time>
      </trkpt>
      <trkpt lat="43.98387" lon="5.08563">
        <ele>174</ele>
        <time>2018-03-13T16:19:50.000Z</time>
      </trkpt>
      <trkpt lat="43.98386" lon="5.08563">
        <ele>174</ele>
        <time>2018-03-13T16:19:54.000Z</time>
      </trkpt>
      <trkpt lat="43.98385" lon="5.08566">
        <ele>174</ele>
        <time>2018-03-13T16:20:03.000Z</time>
      </trkpt>
      <trkpt lat="43.98384" lon="5.08569">
        <ele>174</ele>
        <time>2018-03-13T16:20:04.000Z</time>
      </trkpt>
      <trkpt lat="43.98375" lon="5.0858">
        <ele>174.39999389648</ele>
        <time>2018-03-13T16:20:08.000Z</time>
      </trkpt>
      <trkpt lat="43.98374" lon="5.08582">
        <ele>174.39999389648</ele>
        <time>2018-03-13T16:20:11.000Z</time>
      </trkpt>
      <trkpt lat="43.98373" lon="5.08584">
        <ele>174.39999389648</ele>
        <time>2018-03-13T16:20:18.000Z</time>
      </trkpt>
      <trkpt lat="43.98375" lon="5.08592">
        <ele>174.80000305176</ele>
        <time>2018-03-13T16:20:20.000Z</time>
      </trkpt>
      <trkpt lat="43.98381" lon="5.08601">
        <ele>175</ele>
        <time>2018-03-13T16:20:22.000Z</time>
      </trkpt>
      <trkpt lat="43.98392" lon="5.08615">
        <ele>175.60000610352</ele>
        <time>2018-03-13T16:20:25.000Z</time>
      </trkpt>
      <trkpt lat="43.98395" lon="5.08619">
        <ele>175.80000305176</ele>
        <time>2018-03-13T16:20:26.000Z</time>
      </trkpt>
      <trkpt lat="43.98416" lon="5.08639">
        <ele>176.39999389648</ele>
        <time>2018-03-13T16:20:31.000Z</time>
      </trkpt>
      <trkpt lat="43.9842" lon="5.08641">
        <ele>176.60000610352</ele>
        <time>2018-03-13T16:20:32.000Z</time>
      </trkpt>
      <trkpt lat="43.98442" lon="5.08655">
        <ele>177</ele>
        <time>2018-03-13T16:20:37.000Z</time>
      </trkpt>
      <trkpt lat="43.98465" lon="5.08671">
        <ele>177</ele>
        <time>2018-03-13T16:20:42.000Z</time>
      </trkpt>
      <trkpt lat="43.98468" lon="5.08676">
        <ele>177.19999694824</ele>
        <time>2018-03-13T16:20:43.000Z</time>
      </trkpt>
      <trkpt lat="43.98475" lon="5.08685">
        <ele>177.39999389648</ele>
        <time>2018-03-13T16:20:45.000Z</time>
      </trkpt>
      <trkpt lat="43.98479" lon="5.08688">
        <ele>177.19999694824</ele>
        <time>2018-03-13T16:20:46.000Z</time>
      </trkpt>
      <trkpt lat="43.98486" lon="5.08699">
        <ele>177.60000610352</ele>
        <time>2018-03-13T16:20:49.000Z</time>
      </trkpt>
      <trkpt lat="43.98491" lon="5.08707">
        <ele>177.60000610352</ele>
        <time>2018-03-13T16:20:51.000Z</time>
      </trkpt>
      <trkpt lat="43.98494" lon="5.08711">
        <ele>177.80000305176</ele>
        <time>2018-03-13T16:20:52.000Z</time>
      </trkpt>
      <trkpt lat="43.98497" lon="5.08716">
        <ele>178</ele>
        <time>2018-03-13T16:20:53.000Z</time>
      </trkpt>
      <trkpt lat="43.98509" lon="5.08737">
        <ele>178.39999389648</ele>
        <time>2018-03-13T16:20:57.000Z</time>
      </trkpt>
      <trkpt lat="43.98515" lon="5.08747">
        <ele>178.60000610352</ele>
        <time>2018-03-13T16:20:59.000Z</time>
      </trkpt>
      <trkpt lat="43.98532" lon="5.08769">
        <ele>178.39999389648</ele>
        <time>2018-03-13T16:21:04.000Z</time>
      </trkpt>
      <trkpt lat="43.98535" lon="5.08774">
        <ele>178.39999389648</ele>
        <time>2018-03-13T16:21:05.000Z</time>
      </trkpt>
      <trkpt lat="43.98541" lon="5.0879">
        <ele>178.19999694824</ele>
        <time>2018-03-13T16:21:08.000Z</time>
      </trkpt>
      <trkpt lat="43.98544" lon="5.08798">
        <ele>178.19999694824</ele>
        <time>2018-03-13T16:21:10.000Z</time>
      </trkpt>
      <trkpt lat="43.98544" lon="5.08802">
        <ele>178.19999694824</ele>
        <time>2018-03-13T16:21:11.000Z</time>
      </trkpt>
      <trkpt lat="43.98544" lon="5.08807">
        <ele>178.19999694824</ele>
        <time>2018-03-13T16:21:12.000Z</time>
      </trkpt>
      <trkpt lat="43.98545" lon="5.0881">
        <ele>178.19999694824</ele>
        <time>2018-03-13T16:21:13.000Z</time>
      </trkpt>
      <trkpt lat="43.98546" lon="5.0881">
        <ele>178</ele>
        <time>2018-03-13T16:21:14.000Z</time>
      </trkpt>
      <trkpt lat="43.98549" lon="5.08812">
        <ele>177.60000610352</ele>
        <time>2018-03-13T16:21:16.000Z</time>
      </trkpt>
      <trkpt lat="43.98553" lon="5.0882">
        <ele>177.19999694824</ele>
        <time>2018-03-13T16:21:18.000Z</time>
      </trkpt>
      <trkpt lat="43.98556" lon="5.08824">
        <ele>177</ele>
        <time>2018-03-13T16:21:19.000Z</time>
      </trkpt>
      <trkpt lat="43.9856" lon="5.08836">
        <ele>176.80000305176</ele>
        <time>2018-03-13T16:21:21.000Z</time>
      </trkpt>
      <trkpt lat="43.98561" lon="5.08842">
        <ele>176.80000305176</ele>
        <time>2018-03-13T16:21:22.000Z</time>
      </trkpt>
      <trkpt lat="43.98564" lon="5.08847">
        <ele>176.60000610352</ele>
        <time>2018-03-13T16:21:23.000Z</time>
      </trkpt>
      <trkpt lat="43.98568" lon="5.08858">
        <ele>176.39999389648</ele>
        <time>2018-03-13T16:21:25.000Z</time>
      </trkpt>
      <trkpt lat="43.9857" lon="5.08864">
        <ele>176.39999389648</ele>
        <time>2018-03-13T16:21:26.000Z</time>
      </trkpt>
      <trkpt lat="43.98573" lon="5.08867">
        <ele>176</ele>
        <time>2018-03-13T16:21:27.000Z</time>
      </trkpt>
      <trkpt lat="43.98577" lon="5.0887">
        <ele>175.60000610352</ele>
        <time>2018-03-13T16:21:29.000Z</time>
      </trkpt>
      <trkpt lat="43.98581" lon="5.08879">
        <ele>175.60000610352</ele>
        <time>2018-03-13T16:21:32.000Z</time>
      </trkpt>
      <trkpt lat="43.98583" lon="5.08884">
        <ele>176</ele>
        <time>2018-03-13T16:21:33.000Z</time>
      </trkpt>
      <trkpt lat="43.98584" lon="5.089">
        <ele>178</ele>
        <time>2018-03-13T16:21:36.000Z</time>
      </trkpt>
      <trkpt lat="43.98584" lon="5.08905">
        <ele>178.60000610352</ele>
        <time>2018-03-13T16:21:37.000Z</time>
      </trkpt>
      <trkpt lat="43.98585" lon="5.08909">
        <ele>179.19999694824</ele>
        <time>2018-03-13T16:21:39.000Z</time>
      </trkpt>
      <trkpt lat="43.98586" lon="5.0891">
        <ele>179.19999694824</ele>
        <time>2018-03-13T16:21:40.000Z</time>
      </trkpt>
      <trkpt lat="43.98588" lon="5.08914">
        <ele>179.39999389648</ele>
        <time>2018-03-13T16:21:44.000Z</time>
      </trkpt>
      <trkpt lat="43.98588" lon="5.08914">
        <ele>179.39999389648</ele>
        <time>2018-03-13T16:21:46.000Z</time>
      </trkpt>
      <trkpt lat="43.98591" lon="5.08918">
        <ele>179.60000610352</ele>
        <time>2018-03-13T16:21:48.000Z</time>
      </trkpt>
      <trkpt lat="43.98597" lon="5.08917">
        <ele>178.80000305176</ele>
        <time>2018-03-13T16:21:51.000Z</time>
      </trkpt>
      <trkpt lat="43.98599" lon="5.08916">
        <ele>178.19999694824</ele>
        <time>2018-03-13T16:21:52.000Z</time>
      </trkpt>
      <trkpt lat="43.98602" lon="5.08916">
        <ele>177.80000305176</ele>
        <time>2018-03-13T16:21:53.000Z</time>
      </trkpt>
      <trkpt lat="43.98605" lon="5.08915">
        <ele>177.39999389648</ele>
        <time>2018-03-13T16:21:54.000Z</time>
      </trkpt>
      <trkpt lat="43.98608" lon="5.08914">
        <ele>177</ele>
        <time>2018-03-13T16:21:55.000Z</time>
      </trkpt>
      <trkpt lat="43.98611" lon="5.08915">
        <ele>177</ele>
        <time>2018-03-13T16:21:56.000Z</time>
      </trkpt>
      <trkpt lat="43.98622" lon="5.08919">
        <ele>177.19999694824</ele>
        <time>2018-03-13T16:21:59.000Z</time>
      </trkpt>
      <trkpt lat="43.98631" lon="5.08922">
        <ele>177.39999389648</ele>
        <time>2018-03-13T16:22:02.000Z</time>
      </trkpt>
      <trkpt lat="43.98633" lon="5.08922">
        <ele>177.39999389648</ele>
        <time>2018-03-13T16:22:03.000Z</time>
      </trkpt>
      <trkpt lat="43.98634" lon="5.08923">
        <ele>177.60000610352</ele>
        <time>2018-03-13T16:22:04.000Z</time>
      </trkpt>
      <trkpt lat="43.98639" lon="5.08925">
        <ele>177.60000610352</ele>
        <time>2018-03-13T16:22:06.000Z</time>
      </trkpt>
      <trkpt lat="43.98642" lon="5.08925">
        <ele>177.60000610352</ele>
        <time>2018-03-13T16:22:07.000Z</time>
      </trkpt>
      <trkpt lat="43.98652" lon="5.08932">
        <ele>178.19999694824</ele>
        <time>2018-03-13T16:22:11.000Z</time>
      </trkpt>
      <trkpt lat="43.98653" lon="5.08933">
        <ele>178.39999389648</ele>
        <time>2018-03-13T16:22:12.000Z</time>
      </trkpt>
      <trkpt lat="43.98654" lon="5.08932">
        <ele>178.19999694824</ele>
        <time>2018-03-13T16:22:16.000Z</time>
      </trkpt>
      <trkpt lat="43.98654" lon="5.08932">
        <ele>178.19999694824</ele>
        <time>2018-03-13T16:22:38.000Z</time>
      </trkpt>
      <trkpt lat="43.98655" lon="5.08932">
        <ele>178.19999694824</ele>
        <time>2018-03-13T16:22:56.000Z</time>
      </trkpt>
      <trkpt lat="43.98657" lon="5.08936">
        <ele>178.60000610352</ele>
        <time>2018-03-13T16:23:00.000Z</time>
      </trkpt>
      <trkpt lat="43.98658" lon="5.08937">
        <ele>178.80000305176</ele>
        <time>2018-03-13T16:23:01.000Z</time>
      </trkpt>
      <trkpt lat="43.98663" lon="5.0894">
        <ele>179.19999694824</ele>
        <time>2018-03-13T16:23:05.000Z</time>
      </trkpt>
      <trkpt lat="43.98665" lon="5.08942">
        <ele>179.19999694824</ele>
        <time>2018-03-13T16:23:06.000Z</time>
      </trkpt>
      <trkpt lat="43.98667" lon="5.08944">
        <ele>179.60000610352</ele>
        <time>2018-03-13T16:23:11.000Z</time>
      </trkpt>
      <trkpt lat="43.98667" lon="5.08944">
        <ele>179.60000610352</ele>
        <time>2018-03-13T16:23:29.000Z</time>
      </trkpt>
      <trkpt lat="43.98667" lon="5.08944">
        <ele>179.60000610352</ele>
        <time>2018-03-13T16:23:44.000Z</time>
      </trkpt>
      <trkpt lat="43.98667" lon="5.08944">
        <ele>179.60000610352</ele>
        <time>2018-03-13T16:24:00.000Z</time>
      </trkpt>
      <trkpt lat="43.98667" lon="5.08944">
        <ele>179.60000610352</ele>
        <time>2018-03-13T16:24:17.000Z</time>
      </trkpt>
      <trkpt lat="43.98668" lon="5.08944">
        <ele>179.60000610352</ele>
        <time>2018-03-13T16:24:21.000Z</time>
      </trkpt>
      <trkpt lat="43.9867" lon="5.08943">
        <ele>179.19999694824</ele>
        <time>2018-03-13T16:24:24.000Z</time>
      </trkpt>
      <trkpt lat="43.98671" lon="5.08931">
        <ele>178.19999694824</ele>
        <time>2018-03-13T16:24:27.000Z</time>
      </trkpt>
      <trkpt lat="43.98674" lon="5.08926">
        <ele>178</ele>
        <time>2018-03-13T16:24:30.000Z</time>
      </trkpt>
      <trkpt lat="43.98674" lon="5.08926">
        <ele>178</ele>
        <time>2018-03-13T16:24:31.000Z</time>
      </trkpt>
      <trkpt lat="43.98674" lon="5.08926">
        <ele>178</ele>
        <time>2018-03-13T16:24:43.000Z</time>
      </trkpt>
      <trkpt lat="43.98674" lon="5.08926">
        <ele>178</ele>
        <time>2018-03-13T16:25:04.000Z</time>
      </trkpt>
      <trkpt lat="43.98676" lon="5.08924">
        <ele>177.80000305176</ele>
        <time>2018-03-13T16:25:18.000Z</time>
      </trkpt>
      <trkpt lat="43.98678" lon="5.08923">
        <ele>177.80000305176</ele>
        <time>2018-03-13T16:25:19.000Z</time>
      </trkpt>
      <trkpt lat="43.98685" lon="5.08917">
        <ele>177.60000610352</ele>
        <time>2018-03-13T16:25:22.000Z</time>
      </trkpt>
      <trkpt lat="43.98686" lon="5.08912">
        <ele>177.39999389648</ele>
        <time>2018-03-13T16:25:23.000Z</time>
      </trkpt>
      <trkpt lat="43.98691" lon="5.08899">
        <ele>176.60000610352</ele>
        <time>2018-03-13T16:25:26.000Z</time>
      </trkpt>
      <trkpt lat="43.98693" lon="5.08894">
        <ele>176.19999694824</ele>
        <time>2018-03-13T16:25:27.000Z</time>
      </trkpt>
      <trkpt lat="43.987" lon="5.0888">
        <ele>174.60000610352</ele>
        <time>2018-03-13T16:25:30.000Z</time>
      </trkpt>
      <trkpt lat="43.98704" lon="5.08875">
        <ele>174.39999389648</ele>
        <time>2018-03-13T16:25:31.000Z</time>
      </trkpt>
      <trkpt lat="43.98707" lon="5.0887">
        <ele>173.80000305176</ele>
        <time>2018-03-13T16:25:32.000Z</time>
      </trkpt>
      <trkpt lat="43.98714" lon="5.0886">
        <ele>172.60000610352</ele>
        <time>2018-03-13T16:25:34.000Z</time>
      </trkpt>
      <trkpt lat="43.98719" lon="5.08849">
        <ele>171.39999389648</ele>
        <time>2018-03-13T16:25:36.000Z</time>
      </trkpt>
      <trkpt lat="43.98722" lon="5.08845">
        <ele>170.80000305176</ele>
        <time>2018-03-13T16:25:37.000Z</time>
      </trkpt>
      <trkpt lat="43.98726" lon="5.08835">
        <ele>169.80000305176</ele>
        <time>2018-03-13T16:25:39.000Z</time>
      </trkpt>
      <trkpt lat="43.98727" lon="5.08829">
        <ele>169.19999694824</ele>
        <time>2018-03-13T16:25:40.000Z</time>
      </trkpt>
      <trkpt lat="43.98736" lon="5.08811">
        <ele>168.60000610352</ele>
        <time>2018-03-13T16:25:43.000Z</time>
      </trkpt>
      <trkpt lat="43.98739" lon="5.08805">
        <ele>168.60000610352</ele>
        <time>2018-03-13T16:25:44.000Z</time>
      </trkpt>
      <trkpt lat="43.98746" lon="5.08795">
        <ele>168.39999389648</ele>
        <time>2018-03-13T16:25:46.000Z</time>
      </trkpt>
      <trkpt lat="43.98753" lon="5.08792">
        <ele>168.39999389648</ele>
        <time>2018-03-13T16:25:48.000Z</time>
      </trkpt>
      <trkpt lat="43.98756" lon="5.08793">
        <ele>168.60000610352</ele>
        <time>2018-03-13T16:25:49.000Z</time>
      </trkpt>
      <trkpt lat="43.98758" lon="5.0879">
        <ele>168.60000610352</ele>
        <time>2018-03-13T16:25:50.000Z</time>
      </trkpt>
      <trkpt lat="43.98759" lon="5.08786">
        <ele>168.39999389648</ele>
        <time>2018-03-13T16:25:51.000Z</time>
      </trkpt>
      <trkpt lat="43.98763" lon="5.08777">
        <ele>168.19999694824</ele>
        <time>2018-03-13T16:25:53.000Z</time>
      </trkpt>
      <trkpt lat="43.98765" lon="5.0877">
        <ele>168</ele>
        <time>2018-03-13T16:25:55.000Z</time>
      </trkpt>
      <trkpt lat="43.98766" lon="5.08766">
        <ele>168</ele>
        <time>2018-03-13T16:25:56.000Z</time>
      </trkpt>
      <trkpt lat="43.98771" lon="5.08751">
        <ele>167.39999389648</ele>
        <time>2018-03-13T16:25:59.000Z</time>
      </trkpt>
      <trkpt lat="43.98774" lon="5.08744">
        <ele>167.19999694824</ele>
        <time>2018-03-13T16:26:00.000Z</time>
      </trkpt>
      <trkpt lat="43.98776" lon="5.08735">
        <ele>166.80000305176</ele>
        <time>2018-03-13T16:26:01.000Z</time>
      </trkpt>
      <trkpt lat="43.98779" lon="5.08717">
        <ele>166.19999694824</ele>
        <time>2018-03-13T16:26:03.000Z</time>
      </trkpt>
      <trkpt lat="43.98781" lon="5.08708">
        <ele>165.80000305176</ele>
        <time>2018-03-13T16:26:04.000Z</time>
      </trkpt>
      <trkpt lat="43.98783" lon="5.08699">
        <ele>165.19999694824</ele>
        <time>2018-03-13T16:26:05.000Z</time>
      </trkpt>
      <trkpt lat="43.98786" lon="5.08691">
        <ele>164.80000305176</ele>
        <time>2018-03-13T16:26:06.000Z</time>
      </trkpt>
      <trkpt lat="43.98793" lon="5.08673">
        <ele>163.60000610352</ele>
        <time>2018-03-13T16:26:08.000Z</time>
      </trkpt>
      <trkpt lat="43.98805" lon="5.08646">
        <ele>162</ele>
        <time>2018-03-13T16:26:11.000Z</time>
      </trkpt>
      <trkpt lat="43.98809" lon="5.08636">
        <ele>161.39999389648</ele>
        <time>2018-03-13T16:26:12.000Z</time>
      </trkpt>
      <trkpt lat="43.98812" lon="5.08626">
        <ele>161</ele>
        <time>2018-03-13T16:26:13.000Z</time>
      </trkpt>
      <trkpt lat="43.98815" lon="5.08617">
        <ele>160.39999389648</ele>
        <time>2018-03-13T16:26:14.000Z</time>
      </trkpt>
      <trkpt lat="43.98821" lon="5.08596">
        <ele>159.19999694824</ele>
        <time>2018-03-13T16:26:16.000Z</time>
      </trkpt>
      <trkpt lat="43.98823" lon="5.08586">
        <ele>158.60000610352</ele>
        <time>2018-03-13T16:26:17.000Z</time>
      </trkpt>
      <trkpt lat="43.98826" lon="5.08575">
        <ele>158.19999694824</ele>
        <time>2018-03-13T16:26:18.000Z</time>
      </trkpt>
      <trkpt lat="43.98838" lon="5.08533">
        <ele>156.39999389648</ele>
        <time>2018-03-13T16:26:22.000Z</time>
      </trkpt>
      <trkpt lat="43.98842" lon="5.08523">
        <ele>156.19999694824</ele>
        <time>2018-03-13T16:26:23.000Z</time>
      </trkpt>
      <trkpt lat="43.98851" lon="5.08503">
        <ele>155.80000305176</ele>
        <time>2018-03-13T16:26:25.000Z</time>
      </trkpt>
      <trkpt lat="43.98862" lon="5.0847">
        <ele>154.80000305176</ele>
        <time>2018-03-13T16:26:28.000Z</time>
      </trkpt>
      <trkpt lat="43.98866" lon="5.08458">
        <ele>154</ele>
        <time>2018-03-13T16:26:29.000Z</time>
      </trkpt>
      <trkpt lat="43.98869" lon="5.08446">
        <ele>153</ele>
        <time>2018-03-13T16:26:30.000Z</time>
      </trkpt>
      <trkpt lat="43.98874" lon="5.08422">
        <ele>151</ele>
        <time>2018-03-13T16:26:32.000Z</time>
      </trkpt>
      <trkpt lat="43.9888" lon="5.08395">
        <ele>148.80000305176</ele>
        <time>2018-03-13T16:26:34.000Z</time>
      </trkpt>
      <trkpt lat="43.98881" lon="5.0838">
        <ele>147.80000305176</ele>
        <time>2018-03-13T16:26:35.000Z</time>
      </trkpt>
      <trkpt lat="43.98883" lon="5.08366">
        <ele>146.39999389648</ele>
        <time>2018-03-13T16:26:36.000Z</time>
      </trkpt>
      <trkpt lat="43.98887" lon="5.08353">
        <ele>144.60000610352</ele>
        <time>2018-03-13T16:26:37.000Z</time>
      </trkpt>
      <trkpt lat="43.98892" lon="5.0834">
        <ele>142.80000305176</ele>
        <time>2018-03-13T16:26:38.000Z</time>
      </trkpt>
      <trkpt lat="43.98897" lon="5.08327">
        <ele>141.19999694824</ele>
        <time>2018-03-13T16:26:39.000Z</time>
      </trkpt>
      <trkpt lat="43.98903" lon="5.08315">
        <ele>139.60000610352</ele>
        <time>2018-03-13T16:26:40.000Z</time>
      </trkpt>
      <trkpt lat="43.98909" lon="5.08303">
        <ele>138</ele>
        <time>2018-03-13T16:26:41.000Z</time>
      </trkpt>
      <trkpt lat="43.98914" lon="5.0829">
        <ele>136.39999389648</ele>
        <time>2018-03-13T16:26:42.000Z</time>
      </trkpt>
      <trkpt lat="43.98918" lon="5.08277">
        <ele>135.19999694824</ele>
        <time>2018-03-13T16:26:43.000Z</time>
      </trkpt>
      <trkpt lat="43.98921" lon="5.08264">
        <ele>134</ele>
        <time>2018-03-13T16:26:44.000Z</time>
      </trkpt>
      <trkpt lat="43.98924" lon="5.08251">
        <ele>133</ele>
        <time>2018-03-13T16:26:45.000Z</time>
      </trkpt>
      <trkpt lat="43.98927" lon="5.08238">
        <ele>132</ele>
        <time>2018-03-13T16:26:46.000Z</time>
      </trkpt>
      <trkpt lat="43.9893" lon="5.08226">
        <ele>131</ele>
        <time>2018-03-13T16:26:47.000Z</time>
      </trkpt>
      <trkpt lat="43.98939" lon="5.08204">
        <ele>129</ele>
        <time>2018-03-13T16:26:49.000Z</time>
      </trkpt>
      <trkpt lat="43.98945" lon="5.08194">
        <ele>128.80000305176</ele>
        <time>2018-03-13T16:26:50.000Z</time>
      </trkpt>
      <trkpt lat="43.9895" lon="5.08184">
        <ele>128.39999389648</ele>
        <time>2018-03-13T16:26:51.000Z</time>
      </trkpt>
      <trkpt lat="43.9896" lon="5.08164">
        <ele>128</ele>
        <time>2018-03-13T16:26:53.000Z</time>
      </trkpt>
      <trkpt lat="43.98969" lon="5.08145">
        <ele>127.40000152588</ele>
        <time>2018-03-13T16:26:55.000Z</time>
      </trkpt>
      <trkpt lat="43.98973" lon="5.08135">
        <ele>127</ele>
        <time>2018-03-13T16:26:56.000Z</time>
      </trkpt>
      <trkpt lat="43.98978" lon="5.08125">
        <ele>126.59999847412</ele>
        <time>2018-03-13T16:26:57.000Z</time>
      </trkpt>
      <trkpt lat="43.9899" lon="5.08106">
        <ele>125.59999847412</ele>
        <time>2018-03-13T16:26:59.000Z</time>
      </trkpt>
      <trkpt lat="43.98996" lon="5.08098">
        <ele>125</ele>
        <time>2018-03-13T16:27:00.000Z</time>
      </trkpt>
      <trkpt lat="43.99003" lon="5.0809">
        <ele>124.40000152588</ele>
        <time>2018-03-13T16:27:01.000Z</time>
      </trkpt>
      <trkpt lat="43.99014" lon="5.08074">
        <ele>123.40000152588</ele>
        <time>2018-03-13T16:27:03.000Z</time>
      </trkpt>
      <trkpt lat="43.99025" lon="5.08059">
        <ele>122.59999847412</ele>
        <time>2018-03-13T16:27:05.000Z</time>
      </trkpt>
      <trkpt lat="43.99028" lon="5.08049">
        <ele>122.19999694824</ele>
        <time>2018-03-13T16:27:06.000Z</time>
      </trkpt>
      <trkpt lat="43.99033" lon="5.08027">
        <ele>121.80000305176</ele>
        <time>2018-03-13T16:27:08.000Z</time>
      </trkpt>
      <trkpt lat="43.99036" lon="5.08015">
        <ele>121.59999847412</ele>
        <time>2018-03-13T16:27:09.000Z</time>
      </trkpt>
      <trkpt lat="43.99043" lon="5.07993">
        <ele>121.19999694824</ele>
        <time>2018-03-13T16:27:11.000Z</time>
      </trkpt>
      <trkpt lat="43.99048" lon="5.07974">
        <ele>120.80000305176</ele>
        <time>2018-03-13T16:27:13.000Z</time>
      </trkpt>
      <trkpt lat="43.99052" lon="5.07961">
        <ele>120.59999847412</ele>
        <time>2018-03-13T16:27:15.000Z</time>
      </trkpt>
      <trkpt lat="43.99054" lon="5.07955">
        <ele>120.40000152588</ele>
        <time>2018-03-13T16:27:16.000Z</time>
      </trkpt>
      <trkpt lat="43.99059" lon="5.07937">
        <ele>119.80000305176</ele>
        <time>2018-03-13T16:27:19.000Z</time>
      </trkpt>
      <trkpt lat="43.99061" lon="5.07931">
        <ele>119.59999847412</ele>
        <time>2018-03-13T16:27:20.000Z</time>
      </trkpt>
      <trkpt lat="43.99064" lon="5.07925">
        <ele>119.19999694824</ele>
        <time>2018-03-13T16:27:21.000Z</time>
      </trkpt>
      <trkpt lat="43.99067" lon="5.07918">
        <ele>119</ele>
        <time>2018-03-13T16:27:22.000Z</time>
      </trkpt>
      <trkpt lat="43.99075" lon="5.07902">
        <ele>118.59999847412</ele>
        <time>2018-03-13T16:27:25.000Z</time>
      </trkpt>
      <trkpt lat="43.99075" lon="5.07896">
        <ele>118.40000152588</ele>
        <time>2018-03-13T16:27:26.000Z</time>
      </trkpt>
      <trkpt lat="43.99067" lon="5.07877">
        <ele>118</ele>
        <time>2018-03-13T16:27:29.000Z</time>
      </trkpt>
      <trkpt lat="43.99064" lon="5.0787">
        <ele>118</ele>
        <time>2018-03-13T16:27:30.000Z</time>
      </trkpt>
      <trkpt lat="43.9904" lon="5.07831">
        <ele>117.40000152588</ele>
        <time>2018-03-13T16:27:36.000Z</time>
      </trkpt>
      <trkpt lat="43.99021" lon="5.07803">
        <ele>117.19999694824</ele>
        <time>2018-03-13T16:27:40.000Z</time>
      </trkpt>
      <trkpt lat="43.99011" lon="5.0779">
        <ele>117.19999694824</ele>
        <time>2018-03-13T16:27:42.000Z</time>
      </trkpt>
      <trkpt lat="43.98976" lon="5.07749">
        <ele>117</ele>
        <time>2018-03-13T16:27:49.000Z</time>
      </trkpt>
      <trkpt lat="43.98951" lon="5.07719">
        <ele>117</ele>
        <time>2018-03-13T16:27:54.000Z</time>
      </trkpt>
      <trkpt lat="43.98928" lon="5.07688">
        <ele>117.80000305176</ele>
        <time>2018-03-13T16:27:59.000Z</time>
      </trkpt>
      <trkpt lat="43.98891" lon="5.07627">
        <ele>120</ele>
        <time>2018-03-13T16:28:08.000Z</time>
      </trkpt>
      <trkpt lat="43.98887" lon="5.07621">
        <ele>120.19999694824</ele>
        <time>2018-03-13T16:28:09.000Z</time>
      </trkpt>
      <trkpt lat="43.98851" lon="5.07564">
        <ele>120.59999847412</ele>
        <time>2018-03-13T16:28:18.000Z</time>
      </trkpt>
      <trkpt lat="43.98821" lon="5.07517">
        <ele>120.80000305176</ele>
        <time>2018-03-13T16:28:26.000Z</time>
      </trkpt>
      <trkpt lat="43.98809" lon="5.07495">
        <ele>121.19999694824</ele>
        <time>2018-03-13T16:28:31.000Z</time>
      </trkpt>
      <trkpt lat="43.98809" lon="5.07495">
        <ele>121.19999694824</ele>
        <time>2018-03-13T16:28:34.000Z</time>
      </trkpt>
      <trkpt lat="43.98809" lon="5.07495">
        <ele>121.19999694824</ele>
        <time>2018-03-13T16:28:49.000Z</time>
      </trkpt>
      <trkpt lat="43.98809" lon="5.07495">
        <ele>121.19999694824</ele>
        <time>2018-03-13T16:29:06.000Z</time>
      </trkpt>
      <trkpt lat="43.98809" lon="5.07495">
        <ele>121.19999694824</ele>
        <time>2018-03-13T16:29:28.000Z</time>
      </trkpt>
      <trkpt lat="43.98809" lon="5.07495">
        <ele>121.19999694824</ele>
        <time>2018-03-13T16:29:47.000Z</time>
      </trkpt>
      <trkpt lat="43.98809" lon="5.07496">
        <ele>121.19999694824</ele>
        <time>2018-03-13T16:30:00.000Z</time>
      </trkpt>
      <trkpt lat="43.98809" lon="5.07496">
        <ele>121.19999694824</ele>
        <time>2018-03-13T16:30:22.000Z</time>
      </trkpt>
      <trkpt lat="43.98809" lon="5.07496">
        <ele>121.19999694824</ele>
        <time>2018-03-13T16:30:44.000Z</time>
      </trkpt>
      <trkpt lat="43.98809" lon="5.07496">
        <ele>121.19999694824</ele>
        <time>2018-03-13T16:30:46.000Z</time>
      </trkpt>
      <trkpt lat="43.98808" lon="5.07495">
        <ele>121.19999694824</ele>
        <time>2018-03-13T16:30:47.000Z</time>
      </trkpt>
      <trkpt lat="43.98807" lon="5.07491">
        <ele>121.19999694824</ele>
        <time>2018-03-13T16:30:49.000Z</time>
      </trkpt>
      <trkpt lat="43.98815" lon="5.07482">
        <ele>121</ele>
        <time>2018-03-13T16:30:52.000Z</time>
      </trkpt>
      <trkpt lat="43.98835" lon="5.07461">
        <ele>120.59999847412</ele>
        <time>2018-03-13T16:30:57.000Z</time>
      </trkpt>
      <trkpt lat="43.98856" lon="5.0745">
        <ele>120.19999694824</ele>
        <time>2018-03-13T16:31:01.000Z</time>
      </trkpt>
      <trkpt lat="43.989" lon="5.07422">
        <ele>118.40000152588</ele>
        <time>2018-03-13T16:31:09.000Z</time>
      </trkpt>
      <trkpt lat="43.98937" lon="5.07399">
        <ele>118.80000305176</ele>
        <time>2018-03-13T16:31:16.000Z</time>
      </trkpt>
      <trkpt lat="43.9896" lon="5.07389">
        <ele>118.40000152588</ele>
        <time>2018-03-13T16:31:21.000Z</time>
      </trkpt>
      <trkpt lat="43.98963" lon="5.07386">
        <ele>118.19999694824</ele>
        <time>2018-03-13T16:31:22.000Z</time>
      </trkpt>
      <trkpt lat="43.98966" lon="5.07383">
        <ele>118</ele>
        <time>2018-03-13T16:31:25.000Z</time>
      </trkpt>
      <trkpt lat="43.98967" lon="5.07383">
        <ele>118</ele>
        <time>2018-03-13T16:31:33.000Z</time>
      </trkpt>
      <trkpt lat="43.98967" lon="5.07383">
        <ele>118</ele>
        <time>2018-03-13T16:31:43.000Z</time>
      </trkpt>
      <trkpt lat="43.98968" lon="5.07379">
        <ele>118</ele>
        <time>2018-03-13T16:31:49.000Z</time>
      </trkpt>
      <trkpt lat="43.9897" lon="5.07373">
        <ele>118</ele>
        <time>2018-03-13T16:31:53.000Z</time>
      </trkpt>
      <trkpt lat="43.98973" lon="5.07373">
        <ele>117.80000305176</ele>
        <time>2018-03-13T16:31:54.000Z</time>
      </trkpt>
      <trkpt lat="43.98976" lon="5.07374">
        <ele>117.59999847412</ele>
        <time>2018-03-13T16:31:56.000Z</time>
      </trkpt>
      <trkpt lat="43.98977" lon="5.07373">
        <ele>117.59999847412</ele>
        <time>2018-03-13T16:31:58.000Z</time>
      </trkpt>
      <trkpt lat="43.98977" lon="5.07373">
        <ele>117.59999847412</ele>
        <time>2018-03-13T16:32:01.000Z</time>
      </trkpt>
      <trkpt lat="43.98977" lon="5.07373">
        <ele>117.59999847412</ele>
        <time>2018-03-13T16:32:14.000Z</time>
      </trkpt>
      <trkpt lat="43.9898" lon="5.0737">
        <ele>117.19999694824</ele>
        <time>2018-03-13T16:32:24.000Z</time>
      </trkpt>
      <trkpt lat="43.98988" lon="5.07357">
        <ele>116.80000305176</ele>
        <time>2018-03-13T16:32:28.000Z</time>
      </trkpt>
      <trkpt lat="43.99" lon="5.07339">
        <ele>116.80000305176</ele>
        <time>2018-03-13T16:32:33.000Z</time>
      </trkpt>
      <trkpt lat="43.99014" lon="5.07331">
        <ele>117</ele>
        <time>2018-03-13T16:32:37.000Z</time>
      </trkpt>
      <trkpt lat="43.99032" lon="5.07334">
        <ele>116.19999694824</ele>
        <time>2018-03-13T16:32:41.000Z</time>
      </trkpt>
      <trkpt lat="43.99053" lon="5.07331">
        <ele>115</ele>
        <time>2018-03-13T16:32:45.000Z</time>
      </trkpt>
      <trkpt lat="43.99059" lon="5.07331">
        <ele>114.59999847412</ele>
        <time>2018-03-13T16:32:46.000Z</time>
      </trkpt>
      <trkpt lat="43.99067" lon="5.07334">
        <ele>114</ele>
        <time>2018-03-13T16:32:48.000Z</time>
      </trkpt>
      <trkpt lat="43.99074" lon="5.07338">
        <ele>113.40000152588</ele>
        <time>2018-03-13T16:32:49.000Z</time>
      </trkpt>
      <trkpt lat="43.9908" lon="5.07337">
        <ele>113</ele>
        <time>2018-03-13T16:32:50.000Z</time>
      </trkpt>
      <trkpt lat="43.99085" lon="5.07332">
        <ele>112.80000305176</ele>
        <time>2018-03-13T16:32:51.000Z</time>
      </trkpt>
      <trkpt lat="43.9909" lon="5.07328">
        <ele>112.59999847412</ele>
        <time>2018-03-13T16:32:52.000Z</time>
      </trkpt>
      <trkpt lat="43.99102" lon="5.07316">
        <ele>112.40000152588</ele>
        <time>2018-03-13T16:32:54.000Z</time>
      </trkpt>
      <trkpt lat="43.99108" lon="5.07308">
        <ele>112.19999694824</ele>
        <time>2018-03-13T16:32:55.000Z</time>
      </trkpt>
      <trkpt lat="43.99119" lon="5.07294">
        <ele>112.40000152588</ele>
        <time>2018-03-13T16:32:57.000Z</time>
      </trkpt>
      <trkpt lat="43.99125" lon="5.07289">
        <ele>112.40000152588</ele>
        <time>2018-03-13T16:32:58.000Z</time>
      </trkpt>
      <trkpt lat="43.99137" lon="5.07277">
        <ele>112.59999847412</ele>
        <time>2018-03-13T16:33:00.000Z</time>
      </trkpt>
      <trkpt lat="43.99143" lon="5.07271">
        <ele>112.80000305176</ele>
        <time>2018-03-13T16:33:01.000Z</time>
      </trkpt>
      <trkpt lat="43.99168" lon="5.07239">
        <ele>112.80000305176</ele>
        <time>2018-03-13T16:33:06.000Z</time>
      </trkpt>
      <trkpt lat="43.99173" lon="5.07232">
        <ele>112.59999847412</ele>
        <time>2018-03-13T16:33:07.000Z</time>
      </trkpt>
      <trkpt lat="43.99192" lon="5.07201">
        <ele>111.80000305176</ele>
        <time>2018-03-13T16:33:11.000Z</time>
      </trkpt>
      <trkpt lat="43.99205" lon="5.07176">
        <ele>110</ele>
        <time>2018-03-13T16:33:14.000Z</time>
      </trkpt>
      <trkpt lat="43.9922" lon="5.07155">
        <ele>108.40000152588</ele>
        <time>2018-03-13T16:33:17.000Z</time>
      </trkpt>
      <trkpt lat="43.99241" lon="5.07145">
        <ele>107.40000152588</ele>
        <time>2018-03-13T16:33:20.000Z</time>
      </trkpt>
      <trkpt lat="43.99248" lon="5.07142">
        <ele>107.19999694824</ele>
        <time>2018-03-13T16:33:21.000Z</time>
      </trkpt>
      <trkpt lat="43.99254" lon="5.07137">
        <ele>106.80000305176</ele>
        <time>2018-03-13T16:33:22.000Z</time>
      </trkpt>
      <trkpt lat="43.99268" lon="5.0713">
        <ele>106.40000152588</ele>
        <time>2018-03-13T16:33:24.000Z</time>
      </trkpt>
      <trkpt lat="43.99275" lon="5.07128">
        <ele>106</ele>
        <time>2018-03-13T16:33:25.000Z</time>
      </trkpt>
      <trkpt lat="43.9929" lon="5.07128">
        <ele>105.59999847412</ele>
        <time>2018-03-13T16:33:27.000Z</time>
      </trkpt>
      <trkpt lat="43.99298" lon="5.07129">
        <ele>105.40000152588</ele>
        <time>2018-03-13T16:33:28.000Z</time>
      </trkpt>
      <trkpt lat="43.99305" lon="5.07131">
        <ele>105.19999694824</ele>
        <time>2018-03-13T16:33:29.000Z</time>
      </trkpt>
      <trkpt lat="43.99312" lon="5.07133">
        <ele>105</ele>
        <time>2018-03-13T16:33:30.000Z</time>
      </trkpt>
      <trkpt lat="43.9934" lon="5.07144">
        <ele>104.19999694824</ele>
        <time>2018-03-13T16:33:34.000Z</time>
      </trkpt>
      <trkpt lat="43.99348" lon="5.07146">
        <ele>104</ele>
        <time>2018-03-13T16:33:35.000Z</time>
      </trkpt>
      <trkpt lat="43.99362" lon="5.07151">
        <ele>103.59999847412</ele>
        <time>2018-03-13T16:33:37.000Z</time>
      </trkpt>
      <trkpt lat="43.99387" lon="5.07161">
        <ele>102.80000305176</ele>
        <time>2018-03-13T16:33:41.000Z</time>
      </trkpt>
      <trkpt lat="43.99393" lon="5.07163">
        <ele>102.80000305176</ele>
        <time>2018-03-13T16:33:42.000Z</time>
      </trkpt>
      <trkpt lat="43.99413" lon="5.07166">
        <ele>101.80000305176</ele>
        <time>2018-03-13T16:33:46.000Z</time>
      </trkpt>
      <trkpt lat="43.99416" lon="5.07163">
        <ele>101.59999847412</ele>
        <time>2018-03-13T16:33:47.000Z</time>
      </trkpt>
      <trkpt lat="43.99422" lon="5.07152">
        <ele>101.19999694824</ele>
        <time>2018-03-13T16:33:49.000Z</time>
      </trkpt>
      <trkpt lat="43.99428" lon="5.07137">
        <ele>100.80000305176</ele>
        <time>2018-03-13T16:33:51.000Z</time>
      </trkpt>
      <trkpt lat="43.99434" lon="5.07121">
        <ele>100.19999694824</ele>
        <time>2018-03-13T16:33:53.000Z</time>
      </trkpt>
      <trkpt lat="43.9945" lon="5.07068">
        <ele>100</ele>
        <time>2018-03-13T16:33:59.000Z</time>
      </trkpt>
      <trkpt lat="43.99458" lon="5.07008">
        <ele>99.400001525879</ele>
        <time>2018-03-13T16:34:05.000Z</time>
      </trkpt>
      <trkpt lat="43.99465" lon="5.06959">
        <ele>99</ele>
        <time>2018-03-13T16:34:10.000Z</time>
      </trkpt>
      <trkpt lat="43.99469" lon="5.06919">
        <ele>98.599998474121</ele>
        <time>2018-03-13T16:34:14.000Z</time>
      </trkpt>
      <trkpt lat="43.99475" lon="5.06873">
        <ele>98</ele>
        <time>2018-03-13T16:34:19.000Z</time>
      </trkpt>
      <trkpt lat="43.99479" lon="5.06869">
        <ele>98</ele>
        <time>2018-03-13T16:34:20.000Z</time>
      </trkpt>
      <trkpt lat="43.99489" lon="5.06875">
        <ele>98</ele>
        <time>2018-03-13T16:34:22.000Z</time>
      </trkpt>
      <trkpt lat="43.99506" lon="5.06892">
        <ele>98.199996948242</ele>
        <time>2018-03-13T16:34:25.000Z</time>
      </trkpt>
      <trkpt lat="43.99512" lon="5.06898">
        <ele>98.199996948242</ele>
        <time>2018-03-13T16:34:26.000Z</time>
      </trkpt>
      <trkpt lat="43.99519" lon="5.06904">
        <ele>98.400001525879</ele>
        <time>2018-03-13T16:34:27.000Z</time>
      </trkpt>
      <trkpt lat="43.9955" lon="5.0693">
        <ele>98.400001525879</ele>
        <time>2018-03-13T16:34:32.000Z</time>
      </trkpt>
      <trkpt lat="43.99597" lon="5.06967">
        <ele>98.199996948242</ele>
        <time>2018-03-13T16:34:40.000Z</time>
      </trkpt>
      <trkpt lat="43.99602" lon="5.06971">
        <ele>98</ele>
        <time>2018-03-13T16:34:41.000Z</time>
      </trkpt>
      <trkpt lat="43.99611" lon="5.06976">
        <ele>98</ele>
        <time>2018-03-13T16:34:43.000Z</time>
      </trkpt>
      <trkpt lat="43.99616" lon="5.06969">
        <ele>98.199996948242</ele>
        <time>2018-03-13T16:34:45.000Z</time>
      </trkpt>
      <trkpt lat="43.99621" lon="5.06946">
        <ele>98</ele>
        <time>2018-03-13T16:34:48.000Z</time>
      </trkpt>
      <trkpt lat="43.99623" lon="5.06938">
        <ele>98</ele>
        <time>2018-03-13T16:34:49.000Z</time>
      </trkpt>
      <trkpt lat="43.99635" lon="5.06916">
        <ele>98</ele>
        <time>2018-03-13T16:34:52.000Z</time>
      </trkpt>
      <trkpt lat="43.99672" lon="5.06859">
        <ele>97.800003051758</ele>
        <time>2018-03-13T16:35:00.000Z</time>
      </trkpt>
      <trkpt lat="43.99714" lon="5.06799">
        <ele>95.199996948242</ele>
        <time>2018-03-13T16:35:09.000Z</time>
      </trkpt>
      <trkpt lat="43.99719" lon="5.06793">
        <ele>95</ele>
        <time>2018-03-13T16:35:10.000Z</time>
      </trkpt>
      <trkpt lat="43.99725" lon="5.06784">
        <ele>94.800003051758</ele>
        <time>2018-03-13T16:35:13.000Z</time>
      </trkpt>
      <trkpt lat="43.99731" lon="5.06791">
        <ele>95</ele>
        <time>2018-03-13T16:35:16.000Z</time>
      </trkpt>
      <trkpt lat="43.99734" lon="5.06806">
        <ele>95.400001525879</ele>
        <time>2018-03-13T16:35:18.000Z</time>
      </trkpt>
      <trkpt lat="43.99736" lon="5.06815">
        <ele>95.599998474121</ele>
        <time>2018-03-13T16:35:19.000Z</time>
      </trkpt>
      <trkpt lat="43.9975" lon="5.06874">
        <ele>97.199996948242</ele>
        <time>2018-03-13T16:35:26.000Z</time>
      </trkpt>
      <trkpt lat="43.99762" lon="5.0692">
        <ele>97.599998474121</ele>
        <time>2018-03-13T16:35:32.000Z</time>
      </trkpt>
      <trkpt lat="43.99766" lon="5.06926">
        <ele>97.800003051758</ele>
        <time>2018-03-13T16:35:33.000Z</time>
      </trkpt>
      <trkpt lat="43.99775" lon="5.06926">
        <ele>97.599998474121</ele>
        <time>2018-03-13T16:35:35.000Z</time>
      </trkpt>
      <trkpt lat="43.99786" lon="5.0691">
        <ele>97.199996948242</ele>
        <time>2018-03-13T16:35:38.000Z</time>
      </trkpt>
      <trkpt lat="43.99798" lon="5.06896">
        <ele>96.599998474121</ele>
        <time>2018-03-13T16:35:41.000Z</time>
      </trkpt>
      <trkpt lat="43.99807" lon="5.06892">
        <ele>96.199996948242</ele>
        <time>2018-03-13T16:35:43.000Z</time>
      </trkpt>
      <trkpt lat="43.9981" lon="5.06888">
        <ele>96</ele>
        <time>2018-03-13T16:35:44.000Z</time>
      </trkpt>
      <trkpt lat="43.9982" lon="5.06879">
        <ele>95.400001525879</ele>
        <time>2018-03-13T16:35:47.000Z</time>
      </trkpt>
      <trkpt lat="43.99821" lon="5.06876">
        <ele>95.400001525879</ele>
        <time>2018-03-13T16:35:48.000Z</time>
      </trkpt>
      <trkpt lat="43.99825" lon="5.06873">
        <ele>95.199996948242</ele>
        <time>2018-03-13T16:35:50.000Z</time>
      </trkpt>
      <trkpt lat="43.99833" lon="5.06868">
        <ele>94.800003051758</ele>
        <time>2018-03-13T16:35:52.000Z</time>
      </trkpt>
      <trkpt lat="43.99841" lon="5.06864">
        <ele>94.400001525879</ele>
        <time>2018-03-13T16:35:54.000Z</time>
      </trkpt>
      <trkpt lat="43.99854" lon="5.06856">
        <ele>94</ele>
        <time>2018-03-13T16:35:59.000Z</time>
      </trkpt>
      <trkpt lat="43.99855" lon="5.06855">
        <ele>94</ele>
        <time>2018-03-13T16:36:02.000Z</time>
      </trkpt>
      <trkpt lat="43.99855" lon="5.06855">
        <ele>94</ele>
        <time>2018-03-13T16:36:19.000Z</time>
      </trkpt>
      <trkpt lat="43.99857" lon="5.06855">
        <ele>94</ele>
        <time>2018-03-13T16:36:24.000Z</time>
      </trkpt>
      <trkpt lat="43.99859" lon="5.06853">
        <ele>94</ele>
        <time>2018-03-13T16:36:25.000Z</time>
      </trkpt>
      <trkpt lat="43.99865" lon="5.06848">
        <ele>94</ele>
        <time>2018-03-13T16:36:31.000Z</time>
      </trkpt>
      <trkpt lat="43.99865" lon="5.06846">
        <ele>94</ele>
        <time>2018-03-13T16:36:32.000Z</time>
      </trkpt>
      <trkpt lat="43.99865" lon="5.06846">
        <ele>94</ele>
        <time>2018-03-13T16:36:37.000Z</time>
      </trkpt>
      <trkpt lat="43.99865" lon="5.06846">
        <ele>94</ele>
        <time>2018-03-13T16:36:50.000Z</time>
      </trkpt>
      <trkpt lat="43.99867" lon="5.06844">
        <ele>94.199996948242</ele>
        <time>2018-03-13T16:37:04.000Z</time>
      </trkpt>
      <trkpt lat="43.99869" lon="5.06842">
        <ele>94.199996948242</ele>
        <time>2018-03-13T16:37:05.000Z</time>
      </trkpt>
      <trkpt lat="43.99872" lon="5.06838">
        <ele>94.199996948242</ele>
        <time>2018-03-13T16:37:06.000Z</time>
      </trkpt>
      <trkpt lat="43.99873" lon="5.06832">
        <ele>94.199996948242</ele>
        <time>2018-03-13T16:37:07.000Z</time>
      </trkpt>
      <trkpt lat="43.99874" lon="5.06825">
        <ele>94.199996948242</ele>
        <time>2018-03-13T16:37:08.000Z</time>
      </trkpt>
      <trkpt lat="43.99877" lon="5.06811">
        <ele>94.199996948242</ele>
        <time>2018-03-13T16:37:10.000Z</time>
      </trkpt>
      <trkpt lat="43.99879" lon="5.06804">
        <ele>94</ele>
        <time>2018-03-13T16:37:11.000Z</time>
      </trkpt>
      <trkpt lat="43.9988" lon="5.06798">
        <ele>93.800003051758</ele>
        <time>2018-03-13T16:37:12.000Z</time>
      </trkpt>
      <trkpt lat="43.99881" lon="5.06785">
        <ele>93.599998474121</ele>
        <time>2018-03-13T16:37:14.000Z</time>
      </trkpt>
      <trkpt lat="43.99882" lon="5.06779">
        <ele>93.400001525879</ele>
        <time>2018-03-13T16:37:15.000Z</time>
        <extensions>
          <visugpx:TrkExtension xmlns:visugpx="https://www.visugpx.com/editgpx/">
            <visugpx:node>1</visugpx:node>
            </visugpx:TrkExtension>
        </extensions>
      </trkpt>
    </trkseg>
  </trk>
</gpx>